Wetterdaten: Samstag, 02.09.2017
Datum Zeit Temp. A. Temp. A. max Feuchte A. Luftdruck Regen Wind Richtung Richtung Sonnenschein ET UV Solar Taupunkt Windchill Windböen
02.09.2017 00:00 10,4 °C 10,4 °C 96 % 1015,7 hPa 0,0 mm 0,0 km/h (0 Bft) S-SO 155 ° 0 min 0,000 mm 0,0 UV-I 0 W/m² 9,8 °C 10,4 °C 0,0 km/h (0 Bft)
02.09.2017 00:01 10,4 °C 10,4 °C 96 % 1015,7 hPa 0,0 mm 0,0 km/h (0 Bft) S-SO 155 ° 0 min 0,000 mm 0,0 UV-I 0 W/m² 9,8 °C 10,4 °C 0,0 km/h (0 Bft)
02.09.2017 00:02 10,4 °C 10,4 °C 96 % 1015,7 hPa 0,2 mm 0,0 km/h (0 Bft) S-SO 155 ° 0 min 0,000 mm 0,0 UV-I 0 W/m² 9,8 °C 10,4 °C 0,0 km/h (0 Bft)
02.09.2017 00:04 10,4 °C 10,4 °C 96 % 1015,7 hPa 0,0 mm 0,4 km/h (0 Bft) S-SO 155 ° 0 min 0,000 mm 0,0 UV-I 0 W/m² 9,8 °C 10,4 °C 1,6 km/h (1 Bft)
02.09.2017 00:05 10,4 °C 10,4 °C 95 % 1015,6 hPa 0,2 mm 2,8 km/h (1 Bft) S-SO 155 ° 0 min 0,000 mm 0,0 UV-I 0 W/m² 9,6 °C 10,4 °C 3,2 km/h (1 Bft)
02.09.2017 00:06 10,3 °C 10,4 °C 95 % 1015,6 hPa 0,0 mm 0,3 km/h (0 Bft) S-SO 155 ° 0 min 0,000 mm 0,0 UV-I 0 W/m² 9,5 °C 10,3 °C 1,6 km/h (1 Bft)
02.09.2017 00:07 10,3 °C 10,3 °C 95 % 1015,6 hPa 0,0 mm 1,0 km/h (0 Bft) S-SO 155 ° 0 min 0,000 mm 0,0 UV-I 0 W/m² 9,5 °C 10,3 °C 3,2 km/h (1 Bft)
02.09.2017 00:08 10,3 °C 10,3 °C 95 % 1015,6 hPa 0,2 mm 1,9 km/h (1 Bft) S-SO 155 ° 0 min 0,000 mm 0,0 UV-I 0 W/m² 9,5 °C 10,3 °C 3,2 km/h (1 Bft)
02.09.2017 00:09 10,3 °C 10,3 °C 95 % 1015,7 hPa 0,0 mm 0,9 km/h (0 Bft) S-SO 155 ° 0 min 0,000 mm 0,0 UV-I 0 W/m² 9,5 °C 10,3 °C 1,6 km/h (1 Bft)
02.09.2017 00:10 10,3 °C 10,3 °C 95 % 1015,7 hPa 0,0 mm 0,0 km/h (0 Bft) S-SO 155 ° 0 min 0,000 mm 0,0 UV-I 0 W/m² 9,5 °C 10,3 °C 0,0 km/h (0 Bft)
02.09.2017 00:11 10,3 °C 10,3 °C 95 % 1015,6 hPa 0,2 mm 0,0 km/h (0 Bft) S-SO 155 ° 0 min 0,000 mm 0,0 UV-I 0 W/m² 9,5 °C 10,3 °C 0,0 km/h (0 Bft)
02.09.2017 00:12 10,3 °C 10,3 °C 95 % 1015,6 hPa 0,0 mm 0,0 km/h (0 Bft) S-SO 155 ° 0 min 0,000 mm 0,0 UV-I 0 W/m² 9,5 °C 10,3 °C 0,0 km/h (0 Bft)
02.09.2017 00:13 10,3 °C 10,3 °C 95 % 1015,6 hPa 0,0 mm 0,0 km/h (0 Bft) S-SO 155 ° 0 min 0,000 mm 0,0 UV-I 0 W/m² 9,5 °C 10,3 °C 0,0 km/h (0 Bft)
02.09.2017 00:14 10,3 °C 10,3 °C 95 % 1015,6 hPa 0,0 mm 0,0 km/h (0 Bft) S-SO 155 ° 0 min 0,000 mm 0,0 UV-I 0 W/m² 9,5 °C 10,3 °C 0,0 km/h (0 Bft)
02.09.2017 00:15 10,3 °C 10,3 °C 96 % 1015,6 hPa 0,2 mm 0,0 km/h (0 Bft) S-SO 155 ° 0 min 0,000 mm 0,0 UV-I 0 W/m² 9,7 °C 10,3 °C 0,0 km/h (0 Bft)
02.09.2017 00:16 10,3 °C 10,3 °C 95 % 1015,7 hPa 0,0 mm 0,1 km/h (0 Bft) S-SO 155 ° 0 min 0,000 mm 0,0 UV-I 0 W/m² 9,5 °C 10,3 °C 1,6 km/h (1 Bft)
02.09.2017 00:17 10,3 °C 10,3 °C 95 % 1015,7 hPa 0,2 mm 0,1 km/h (0 Bft) S-SO 155 ° 0 min 0,000 mm 0,0 UV-I 0 W/m² 9,5 °C 10,3 °C 1,6 km/h (1 Bft)
02.09.2017 00:18 10,3 °C 10,3 °C 95 % 1015,7 hPa 0,0 mm 0,0 km/h (0 Bft) S-SO 155 ° 0 min 0,000 mm 0,0 UV-I 0 W/m² 9,5 °C 10,3 °C 0,0 km/h (0 Bft)
02.09.2017 00:19 10,3 °C 10,3 °C 96 % 1015,6 hPa 0,2 mm 0,2 km/h (0 Bft) S-SO 155 ° 0 min 0,000 mm 0,0 UV-I 0 W/m² 9,7 °C 10,3 °C 1,6 km/h (1 Bft)
02.09.2017 00:20 10,3 °C 10,3 °C 96 % 1015,6 hPa 0,0 mm 0,7 km/h (0 Bft) SO 135 ° 0 min 0,000 mm 0,0 UV-I 0 W/m² 9,7 °C 10,3 °C 3,2 km/h (1 Bft)
02.09.2017 00:21 10,3 °C 10,3 °C 96 % 1015,6 hPa 0,2 mm 0,5 km/h (0 Bft) SO 133 ° 0 min 0,000 mm 0,0 UV-I 0 W/m² 9,7 °C 10,3 °C 3,2 km/h (1 Bft)
02.09.2017 00:22 10,3 °C 10,3 °C 95 % 1015,6 hPa 0,0 mm 3,5 km/h (1 Bft) O-NO 63 ° 0 min 0,000 mm 0,0 UV-I 0 W/m² 9,5 °C 10,3 °C 6,4 km/h (2 Bft)
02.09.2017 00:23 10,3 °C 10,3 °C 96 % 1015,6 hPa 0,2 mm 4,5 km/h (1 Bft) O-NO 69 ° 0 min 0,000 mm 0,0 UV-I 0 W/m² 9,7 °C 10,3 °C 6,4 km/h (2 Bft)
02.09.2017 00:24 10,3 °C 10,3 °C 96 % 1015,6 hPa 0,0 mm 2,5 km/h (1 Bft) O-NO 65 ° 0 min 0,000 mm 0,0 UV-I 0 W/m² 9,7 °C 10,3 °C 4,8 km/h (1 Bft)
02.09.2017 00:25 10,3 °C 10,3 °C 96 % 1015,6 hPa 0,0 mm 3,9 km/h (1 Bft) O-NO 65 ° 0 min 0,000 mm 0,0 UV-I 0 W/m² 9,7 °C 10,3 °C 4,8 km/h (1 Bft)
02.09.2017 00:26 10,3 °C 10,3 °C 96 % 1015,6 hPa 0,0 mm 4,5 km/h (1 Bft) O-NO 77 ° 0 min 0,000 mm 0,0 UV-I 0 W/m² 9,7 °C 10,3 °C 6,4 km/h (2 Bft)
02.09.2017 00:27 10,3 °C 10,3 °C 96 % 1015,5 hPa 0,2 mm 4,0 km/h (1 Bft) O-SO 103 ° 0 min 0,000 mm 0,0 UV-I 0 W/m² 9,7 °C 10,3 °C 6,4 km/h (2 Bft)
02.09.2017 00:28 10,3 °C 10,3 °C 96 % 1015,5 hPa 0,0 mm 3,6 km/h (1 Bft) O-NO 74 ° 0 min 0,000 mm 0,0 UV-I 0 W/m² 9,7 °C 10,3 °C 6,4 km/h (2 Bft)
02.09.2017 00:29 10,3 °C 10,3 °C 96 % 1015,5 hPa 0,0 mm 1,8 km/h (1 Bft) O-NO 74 ° 0 min 0,000 mm 0,0 UV-I 0 W/m² 9,7 °C 10,3 °C 3,2 km/h (1 Bft)
02.09.2017 00:30 10,3 °C 10,3 °C 96 % 1015,5 hPa 0,0 mm 1,7 km/h (1 Bft) NO 51 ° 0 min 0,000 mm 0,0 UV-I 0 W/m² 9,7 °C 10,3 °C 4,8 km/h (1 Bft)
02.09.2017 00:31 10,3 °C 10,3 °C 96 % 1015,5 hPa 0,2 mm 0,4 km/h (0 Bft) NO 51 ° 0 min 0,000 mm 0,0 UV-I 0 W/m² 9,7 °C 10,3 °C 1,6 km/h (1 Bft)
02.09.2017 00:32 10,3 °C 10,3 °C 96 % 1015,5 hPa 0,0 mm 1,6 km/h (1 Bft) NO 53 ° 0 min 0,000 mm 0,0 UV-I 0 W/m² 9,7 °C 10,3 °C 3,2 km/h (1 Bft)
02.09.2017 00:33 10,3 °C 10,3 °C 96 % 1015,5 hPa 0,0 mm 1,6 km/h (1 Bft) NO 53 ° 0 min 0,000 mm 0,0 UV-I 0 W/m² 9,7 °C 10,3 °C 3,2 km/h (1 Bft)
02.09.2017 00:34 10,3 °C 10,3 °C 96 % 1015,5 hPa 0,0 mm 0,2 km/h (0 Bft) NO 53 ° 0 min 0,000 mm 0,0 UV-I 0 W/m² 9,7 °C 10,3 °C 1,6 km/h (1 Bft)
02.09.2017 00:35 10,4 °C 10,4 °C 96 % 1015,5 hPa 0,2 mm 0,0 km/h (0 Bft) NO 53 ° 0 min 0,000 mm 0,0 UV-I 0 W/m² 9,8 °C 10,4 °C 0,0 km/h (0 Bft)
02.09.2017 00:36 10,4 °C 10,4 °C 96 % 1015,5 hPa 0,0 mm 0,7 km/h (0 Bft) NO 53 ° 0 min 0,000 mm 0,0 UV-I 0 W/m² 9,8 °C 10,4 °C 1,6 km/h (1 Bft)
02.09.2017 00:37 10,4 °C 10,4 °C 96 % 1015,5 hPa 0,0 mm 0,7 km/h (0 Bft) NO 53 ° 0 min 0,000 mm 0,0 UV-I 0 W/m² 9,8 °C 10,4 °C 1,6 km/h (1 Bft)
02.09.2017 00:38 10,4 °C 10,4 °C 96 % 1015,5 hPa 0,0 mm 0,1 km/h (0 Bft) NO 53 ° 0 min 0,000 mm 0,0 UV-I 0 W/m² 9,8 °C 10,4 °C 1,6 km/h (1 Bft)
02.09.2017 00:39 10,4 °C 10,4 °C 96 % 1015,5 hPa 0,0 mm 2,5 km/h (1 Bft) O-NO 76 ° 0 min 0,000 mm 0,0 UV-I 0 W/m² 9,8 °C 10,4 °C 4,8 km/h (1 Bft)
02.09.2017 00:40 10,4 °C 10,4 °C 96 % 1015,5 hPa 0,0 mm 1,1 km/h (1 Bft) O-NO 75 ° 0 min 0,000 mm 0,0 UV-I 0 W/m² 9,8 °C 10,4 °C 3,2 km/h (1 Bft)
02.09.2017 00:41 10,4 °C 10,4 °C 96 % 1015,5 hPa 0,2 mm 1,9 km/h (1 Bft) O-NO 75 ° 0 min 0,000 mm 0,0 UV-I 0 W/m² 9,8 °C 10,4 °C 3,2 km/h (1 Bft)
02.09.2017 00:42 10,3 °C 10,4 °C 96 % 1015,5 hPa 0,0 mm 2,2 km/h (1 Bft) O-NO 75 ° 0 min 0,000 mm 0,0 UV-I 0 W/m² 9,7 °C 10,3 °C 3,2 km/h (1 Bft)
02.09.2017 00:43 10,4 °C 10,4 °C 96 % 1015,5 hPa 0,0 mm 1,4 km/h (1 Bft) O-NO 75 ° 0 min 0,000 mm 0,0 UV-I 0 W/m² 9,8 °C 10,4 °C 3,2 km/h (1 Bft)
02.09.2017 00:44 10,3 °C 10,4 °C 96 % 1015,5 hPa 0,0 mm 1,9 km/h (1 Bft) O-NO 75 ° 0 min 0,000 mm 0,0 UV-I 0 W/m² 9,7 °C 10,3 °C 4,8 km/h (1 Bft)
02.09.2017 00:45 10,4 °C 10,4 °C 96 % 1015,5 hPa 0,0 mm 1,5 km/h (1 Bft) O-NO 75 ° 0 min 0,000 mm 0,0 UV-I 0 W/m² 9,8 °C 10,4 °C 3,2 km/h (1 Bft)
02.09.2017 00:46 10,4 °C 10,4 °C 96 % 1015,5 hPa 0,2 mm 1,6 km/h (1 Bft) O-NO 75 ° 0 min 0,000 mm 0,0 UV-I 0 W/m² 9,8 °C 10,4 °C 3,2 km/h (1 Bft)
02.09.2017 00:47 10,3 °C 10,4 °C 96 % 1015,5 hPa 0,0 mm 0,0 km/h (0 Bft) O-NO 75 ° 0 min 0,000 mm 0,0 UV-I 0 W/m² 9,7 °C 10,3 °C 0,0 km/h (0 Bft)
02.09.2017 00:48 10,4 °C 10,4 °C 96 % 1015,5 hPa 0,0 mm 1,0 km/h (0 Bft) O-NO 74 ° 0 min 0,000 mm 0,0 UV-I 0 W/m² 9,8 °C 10,4 °C 3,2 km/h (1 Bft)
02.09.2017 00:49 10,4 °C 10,4 °C 96 % 1015,5 hPa 0,0 mm 1,3 km/h (1 Bft) O-NO 74 ° 0 min 0,000 mm 0,0 UV-I 0 W/m² 9,8 °C 10,4 °C 3,2 km/h (1 Bft)
02.09.2017 00:50 10,4 °C 10,4 °C 96 % 1015,5 hPa 0,0 mm 2,0 km/h (1 Bft) O-NO 75 ° 0 min 0,000 mm 0,0 UV-I 0 W/m² 9,8 °C 10,4 °C 3,2 km/h (1 Bft)
02.09.2017 00:51 10,3 °C 10,4 °C 96 % 1015,5 hPa 0,0 mm 2,9 km/h (1 Bft) O-NO 74 ° 0 min 0,000 mm 0,0 UV-I 0 W/m² 9,7 °C 10,3 °C 3,2 km/h (1 Bft)
02.09.2017 00:52 10,4 °C 10,4 °C 96 % 1015,5 hPa 0,0 mm 3,0 km/h (1 Bft) O-NO 64 ° 0 min 0,000 mm 0,0 UV-I 0 W/m² 9,8 °C 10,4 °C 4,8 km/h (1 Bft)
02.09.2017 00:53 10,3 °C 10,4 °C 96 % 1015,5 hPa 0,0 mm 4,1 km/h (1 Bft) NO 42 ° 0 min 0,000 mm 0,0 UV-I 0 W/m² 9,7 °C 10,3 °C 6,4 km/h (2 Bft)
02.09.2017 00:54 10,3 °C 10,3 °C 96 % 1015,5 hPa 0,2 mm 3,6 km/h (1 Bft) NO 48 ° 0 min 0,000 mm 0,0 UV-I 0 W/m² 9,7 °C 10,3 °C 4,8 km/h (1 Bft)
02.09.2017 00:55 10,3 °C 10,3 °C 96 % 1015,5 hPa 0,0 mm 3,9 km/h (1 Bft) O-NO 77 ° 0 min 0,000 mm 0,0 UV-I 0 W/m² 9,7 °C 10,3 °C 6,4 km/h (2 Bft)
02.09.2017 00:56 10,3 °C 10,3 °C 96 % 1015,5 hPa 0,0 mm 5,6 km/h (1 Bft) O-NO 61 ° 0 min 0,000 mm 0,0 UV-I 0 W/m² 9,7 °C 10,3 °C 9,7 km/h (2 Bft)
02.09.2017 00:57 10,3 °C 10,3 °C 95 % 1015,5 hPa 0,0 mm 9,2 km/h (2 Bft) NO 54 ° 0 min 0,000 mm 0,0 UV-I 0 W/m² 9,5 °C 10,3 °C 14,5 km/h (3 Bft)
02.09.2017 00:58 10,3 °C 10,3 °C 95 % 1015,5 hPa 0,0 mm 4,8 km/h (1 Bft) O 82 ° 0 min 0,000 mm 0,0 UV-I 0 W/m² 9,5 °C 10,3 °C 9,7 km/h (2 Bft)
02.09.2017 00:59 10,3 °C 10,3 °C 96 % 1015,5 hPa 0,0 mm 2,1 km/h (1 Bft) O 82 ° 0 min 0,000 mm 0,0 UV-I 0 W/m² 9,7 °C 10,3 °C 4,8 km/h (1 Bft)
02.09.2017 01:00 10,3 °C 10,3 °C 96 % 1015,5 hPa 0,0 mm 3,5 km/h (1 Bft) O 82 ° 0 min 0,000 mm 0,0 UV-I 0 W/m² 9,7 °C 10,3 °C 4,8 km/h (1 Bft)
02.09.2017 01:01 10,2 °C 10,3 °C 96 % 1015,4 hPa 0,0 mm 3,7 km/h (1 Bft) O 83 ° 0 min 0,000 mm 0,0 UV-I 0 W/m² 9,6 °C 10,2 °C 6,4 km/h (2 Bft)
02.09.2017 01:02 10,2 °C 10,2 °C 96 % 1015,4 hPa 0,0 mm 3,1 km/h (1 Bft) O-NO 71 ° 0 min 0,000 mm 0,0 UV-I 0 W/m² 9,6 °C 10,2 °C 4,8 km/h (1 Bft)
02.09.2017 01:03 10,2 °C 10,2 °C 96 % 1015,5 hPa 0,0 mm 3,5 km/h (1 Bft) O-NO 58 ° 0 min 0,000 mm 0,0 UV-I 0 W/m² 9,6 °C 10,2 °C 4,8 km/h (1 Bft)
02.09.2017 01:04 10,2 °C 10,2 °C 95 % 1015,5 hPa 0,0 mm 2,5 km/h (1 Bft) O-NO 58 ° 0 min 0,000 mm 0,0 UV-I 0 W/m² 9,4 °C 10,2 °C 4,8 km/h (1 Bft)
02.09.2017 01:05 10,2 °C 10,2 °C 96 % 1015,5 hPa 0,0 mm 3,9 km/h (1 Bft) O-NO 65 ° 0 min 0,000 mm 0,0 UV-I 0 W/m² 9,6 °C 10,2 °C 6,4 km/h (2 Bft)
02.09.2017 01:06 10,2 °C 10,2 °C 96 % 1015,4 hPa 0,0 mm 0,6 km/h (0 Bft) O-NO 65 ° 0 min 0,000 mm 0,0 UV-I 0 W/m² 9,6 °C 10,2 °C 3,2 km/h (1 Bft)
02.09.2017 01:07 10,2 °C 10,2 °C 96 % 1015,4 hPa 0,0 mm 0,0 km/h (0 Bft) O-NO 65 ° 0 min 0,000 mm 0,0 UV-I 0 W/m² 9,6 °C 10,2 °C 0,0 km/h (0 Bft)
02.09.2017 01:08 10,2 °C 10,2 °C 96 % 1015,4 hPa 0,0 mm 1,3 km/h (1 Bft) O-NO 65 ° 0 min 0,000 mm 0,0 UV-I 0 W/m² 9,6 °C 10,2 °C 3,2 km/h (1 Bft)
02.09.2017 01:09 10,2 °C 10,2 °C 96 % 1015,4 hPa 0,0 mm 1,9 km/h (1 Bft) O-NO 63 ° 0 min 0,000 mm 0,0 UV-I 0 W/m² 9,6 °C 10,2 °C 4,8 km/h (1 Bft)
02.09.2017 01:10 10,2 °C 10,2 °C 96 % 1015,4 hPa 0,0 mm 3,4 km/h (1 Bft) NO 36 ° 0 min 0,000 mm 0,0 UV-I 0 W/m² 9,6 °C 10,2 °C 6,4 km/h (2 Bft)
02.09.2017 01:11 10,2 °C 10,2 °C 96 % 1015,4 hPa 0,0 mm 2,7 km/h (1 Bft) NO 38 ° 0 min 0,000 mm 0,0 UV-I 0 W/m² 9,6 °C 10,2 °C 4,8 km/h (1 Bft)
02.09.2017 01:12 10,2 °C 10,2 °C 96 % 1015,4 hPa 0,0 mm 3,0 km/h (1 Bft) NO 52 ° 0 min 0,000 mm 0,0 UV-I 0 W/m² 9,6 °C 10,2 °C 4,8 km/h (1 Bft)
02.09.2017 01:13 10,2 °C 10,2 °C 96 % 1015,4 hPa 0,0 mm 3,2 km/h (1 Bft) NO 42 ° 0 min 0,000 mm 0,0 UV-I 0 W/m² 9,6 °C 10,2 °C 4,8 km/h (1 Bft)
02.09.2017 01:14 10,2 °C 10,2 °C 96 % 1015,4 hPa 0,2 mm 2,8 km/h (1 Bft) O-NO 77 ° 0 min 0,000 mm 0,0 UV-I 0 W/m² 9,6 °C 10,2 °C 4,8 km/h (1 Bft)
02.09.2017 01:15 10,2 °C 10,2 °C 96 % 1015,4 hPa 0,0 mm 2,8 km/h (1 Bft) O-NO 78 ° 0 min 0,000 mm 0,0 UV-I 0 W/m² 9,6 °C 10,2 °C 4,8 km/h (1 Bft)
02.09.2017 01:16 10,2 °C 10,2 °C 96 % 1015,4 hPa 0,0 mm 4,3 km/h (1 Bft) NO 34 ° 0 min 0,000 mm 0,0 UV-I 0 W/m² 9,6 °C 10,2 °C 6,4 km/h (2 Bft)
02.09.2017 01:17 10,2 °C 10,2 °C 96 % 1015,4 hPa 0,0 mm 3,5 km/h (1 Bft) O 81 ° 0 min 0,000 mm 0,0 UV-I 0 W/m² 9,6 °C 10,2 °C 6,4 km/h (2 Bft)
02.09.2017 01:18 10,1 °C 10,2 °C 96 % 1015,4 hPa 0,0 mm 2,3 km/h (1 Bft) O 82 ° 0 min 0,000 mm 0,0 UV-I 0 W/m² 9,5 °C 10,1 °C 4,8 km/h (1 Bft)
02.09.2017 01:19 10,1 °C 10,2 °C 96 % 1015,4 hPa 0,0 mm 5,2 km/h (1 Bft) O 80 ° 0 min 0,000 mm 0,0 UV-I 0 W/m² 9,5 °C 10,1 °C 6,4 km/h (2 Bft)
02.09.2017 01:20 10,2 °C 10,2 °C 96 % 1015,4 hPa 0,0 mm 2,3 km/h (1 Bft) O-NO 78 ° 0 min 0,000 mm 0,0 UV-I 0 W/m² 9,6 °C 10,2 °C 4,8 km/h (1 Bft)
02.09.2017 01:21 10,1 °C 10,2 °C 96 % 1015,4 hPa 0,0 mm 1,3 km/h (1 Bft) O-NO 76 ° 0 min 0,000 mm 0,0 UV-I 0 W/m² 9,5 °C 10,1 °C 3,2 km/h (1 Bft)
02.09.2017 01:22 10,1 °C 10,2 °C 96 % 1015,3 hPa 0,0 mm 1,9 km/h (1 Bft) O-NO 76 ° 0 min 0,000 mm 0,0 UV-I 0 W/m² 9,5 °C 10,1 °C 3,2 km/h (1 Bft)
02.09.2017 01:23 10,1 °C 10,1 °C 96 % 1015,3 hPa 0,0 mm 3,8 km/h (1 Bft) O-NO 66 ° 0 min 0,000 mm 0,0 UV-I 0 W/m² 9,5 °C 10,1 °C 6,4 km/h (2 Bft)
02.09.2017 01:24 10,2 °C 10,2 °C 96 % 1015,3 hPa 0,0 mm 3,6 km/h (1 Bft) O-NO 61 ° 0 min 0,000 mm 0,0 UV-I 0 W/m² 9,6 °C 10,2 °C 6,4 km/h (2 Bft)
02.09.2017 01:25 10,1 °C 10,2 °C 96 % 1015,4 hPa 0,0 mm 1,4 km/h (1 Bft) O-NO 59 ° 0 min 0,000 mm 0,0 UV-I 0 W/m² 9,5 °C 10,1 °C 4,8 km/h (1 Bft)
02.09.2017 01:26 10,1 °C 10,2 °C 96 % 1015,4 hPa 0,0 mm 3,6 km/h (1 Bft) O-NO 59 ° 0 min 0,000 mm 0,0 UV-I 0 W/m² 9,5 °C 10,1 °C 4,8 km/h (1 Bft)
02.09.2017 01:27 10,1 °C 10,2 °C 96 % 1015,3 hPa 0,0 mm 2,5 km/h (1 Bft) O-NO 58 ° 0 min 0,000 mm 0,0 UV-I 0 W/m² 9,5 °C 10,1 °C 4,8 km/h (1 Bft)
02.09.2017 01:28 10,1 °C 10,2 °C 96 % 1015,3 hPa 0,0 mm 1,7 km/h (1 Bft) O-NO 57 ° 0 min 0,000 mm 0,0 UV-I 0 W/m² 9,5 °C 10,1 °C 4,8 km/h (1 Bft)
02.09.2017 01:29 10,1 °C 10,2 °C 96 % 1015,2 hPa 0,0 mm 3,0 km/h (1 Bft) N-NO 26 ° 0 min 0,000 mm 0,0 UV-I 0 W/m² 9,5 °C 10,1 °C 4,8 km/h (1 Bft)
02.09.2017 01:30 10,1 °C 10,2 °C 96 % 1015,3 hPa 0,0 mm 1,1 km/h (1 Bft) N-NO 26 ° 0 min 0,000 mm 0,0 UV-I 0 W/m² 9,5 °C 10,1 °C 3,2 km/h (1 Bft)
02.09.2017 01:31 10,1 °C 10,1 °C 96 % 1015,3 hPa 0,0 mm 2,1 km/h (1 Bft) O-NO 75 ° 0 min 0,000 mm 0,0 UV-I 0 W/m² 9,5 °C 10,1 °C 3,2 km/h (1 Bft)
02.09.2017 01:32 10,1 °C 10,1 °C 95 % 1015,3 hPa 0,0 mm 0,7 km/h (0 Bft) O-NO 75 ° 0 min 0,000 mm 0,0 UV-I 0 W/m² 9,3 °C 10,1 °C 3,2 km/h (1 Bft)
02.09.2017 01:33 10,1 °C 10,1 °C 96 % 1015,3 hPa 0,0 mm 2,5 km/h (1 Bft) O-NO 75 ° 0 min 0,000 mm 0,0 UV-I 0 W/m² 9,5 °C 10,1 °C 3,2 km/h (1 Bft)
02.09.2017 01:34 10,1 °C 10,1 °C 95 % 1015,3 hPa 0,0 mm 4,0 km/h (1 Bft) O-NO 71 ° 0 min 0,000 mm 0,0 UV-I 0 W/m² 9,3 °C 10,1 °C 6,4 km/h (2 Bft)
02.09.2017 01:35 10,1 °C 10,1 °C 95 % 1015,2 hPa 0,0 mm 3,8 km/h (1 Bft) O-NO 75 ° 0 min 0,000 mm 0,0 UV-I 0 W/m² 9,3 °C 10,1 °C 6,4 km/h (2 Bft)
02.09.2017 01:36 10,1 °C 10,1 °C 95 % 1015,2 hPa 0,0 mm 0,5 km/h (0 Bft) O-NO 75 ° 0 min 0,000 mm 0,0 UV-I 0 W/m² 9,3 °C 10,1 °C 1,6 km/h (1 Bft)
02.09.2017 01:37 10,1 °C 10,1 °C 95 % 1015,2 hPa 0,0 mm 1,4 km/h (1 Bft) O 82 ° 0 min 0,000 mm 0,0 UV-I 0 W/m² 9,3 °C 10,1 °C 3,2 km/h (1 Bft)
02.09.2017 01:38 10,1 °C 10,1 °C 95 % 1015,2 hPa 0,0 mm 0,2 km/h (0 Bft) O 82 ° 0 min 0,000 mm 0,0 UV-I 0 W/m² 9,3 °C 10,1 °C 1,6 km/h (1 Bft)
02.09.2017 01:39 10,1 °C 10,1 °C 95 % 1015,2 hPa 0,0 mm 0,8 km/h (0 Bft) O 82 ° 0 min 0,000 mm 0,0 UV-I 0 W/m² 9,3 °C 10,1 °C 3,2 km/h (1 Bft)
02.09.2017 01:40 10,1 °C 10,1 °C 95 % 1015,2 hPa 0,0 mm 1,4 km/h (1 Bft) O 82 ° 0 min 0,000 mm 0,0 UV-I 0 W/m² 9,3 °C 10,1 °C 3,2 km/h (1 Bft)
02.09.2017 01:41 10,1 °C 10,1 °C 95 % 1015,2 hPa 0,0 mm 0,3 km/h (0 Bft) O 82 ° 0 min 0,000 mm 0,0 UV-I 0 W/m² 9,3 °C 10,1 °C 1,6 km/h (1 Bft)
02.09.2017 01:42 10,1 °C 10,1 °C 95 % 1015,1 hPa 0,0 mm 0,2 km/h (0 Bft) O 82 ° 0 min 0,000 mm 0,0 UV-I 0 W/m² 9,3 °C 10,1 °C 1,6 km/h (1 Bft)
02.09.2017 01:43 10,1 °C 10,1 °C 95 % 1015,1 hPa 0,0 mm 0,0 km/h (0 Bft) O 82 ° 0 min 0,000 mm 0,0 UV-I 0 W/m² 9,3 °C 10,1 °C 0,0 km/h (0 Bft)
02.09.2017 01:44 10,1 °C 10,1 °C 95 % 1015,1 hPa 0,0 mm 1,5 km/h (1 Bft) O 91 ° 0 min 0,000 mm 0,0 UV-I 0 W/m² 9,3 °C 10,1 °C 3,2 km/h (1 Bft)
02.09.2017 01:45 10,1 °C 10,1 °C 95 % 1015,1 hPa 0,0 mm 1,4 km/h (1 Bft) O 91 ° 0 min 0,000 mm 0,0 UV-I 0 W/m² 9,3 °C 10,1 °C 3,2 km/h (1 Bft)
02.09.2017 01:46 10,1 °C 10,1 °C 95 % 1015,1 hPa 0,0 mm 1,4 km/h (1 Bft) O 79 ° 0 min 0,000 mm 0,0 UV-I 0 W/m² 9,3 °C 10,1 °C 3,2 km/h (1 Bft)
02.09.2017 01:47 10,1 °C 10,1 °C 95 % 1015,1 hPa 0,0 mm 1,1 km/h (1 Bft) O 79 ° 0 min 0,000 mm 0,0 UV-I 0 W/m² 9,3 °C 10,1 °C 3,2 km/h (1 Bft)
02.09.2017 01:48 10,1 °C 10,1 °C 95 % 1015,1 hPa 0,0 mm 1,2 km/h (1 Bft) O 82 ° 0 min 0,000 mm 0,0 UV-I 0 W/m² 9,3 °C 10,1 °C 3,2 km/h (1 Bft)
02.09.2017 01:49 10,1 °C 10,1 °C 95 % 1015,0 hPa 0,0 mm 0,3 km/h (0 Bft) O 82 ° 0 min 0,000 mm 0,0 UV-I 0 W/m² 9,3 °C 10,1 °C 1,6 km/h (1 Bft)
02.09.2017 01:50 10,0 °C 10,1 °C 95 % 1015,0 hPa 0,0 mm 0,9 km/h (0 Bft) O 82 ° 0 min 0,000 mm 0,0 UV-I 0 W/m² 9,2 °C 10,0 °C 3,2 km/h (1 Bft)
02.09.2017 01:51 10,1 °C 10,1 °C 95 % 1015,0 hPa 0,0 mm 2,7 km/h (1 Bft) O 82 ° 0 min 0,000 mm 0,0 UV-I 0 W/m² 9,3 °C 10,1 °C 4,8 km/h (1 Bft)
02.09.2017 01:52 10,1 °C 10,1 °C 95 % 1015,0 hPa 0,0 mm 0,1 km/h (0 Bft) O 82 ° 0 min 0,000 mm 0,0 UV-I 0 W/m² 9,3 °C 10,1 °C 1,6 km/h (1 Bft)
02.09.2017 01:53 10,1 °C 10,1 °C 95 % 1015,0 hPa 0,0 mm 0,7 km/h (0 Bft) O 82 ° 0 min 0,000 mm 0,0 UV-I 0 W/m² 9,3 °C 10,1 °C 1,6 km/h (1 Bft)
02.09.2017 01:54 10,1 °C 10,1 °C 95 % 1015,0 hPa 0,0 mm 1,7 km/h (1 Bft) O 82 ° 0 min 0,000 mm 0,0 UV-I 0 W/m² 9,3 °C 10,1 °C 4,8 km/h (1 Bft)
02.09.2017 01:55 10,1 °C 10,1 °C 95 % 1014,9 hPa 0,0 mm 1,2 km/h (1 Bft) O 82 ° 0 min 0,000 mm 0,0 UV-I 0 W/m² 9,3 °C 10,1 °C 3,2 km/h (1 Bft)
02.09.2017 01:56 10,1 °C 10,1 °C 96 % 1015,0 hPa 0,0 mm 0,8 km/h (0 Bft) O 82 ° 0 min 0,000 mm 0,0 UV-I 0 W/m² 9,5 °C 10,1 °C 3,2 km/h (1 Bft)
02.09.2017 01:57 10,1 °C 10,1 °C 95 % 1014,9 hPa 0,0 mm 0,9 km/h (0 Bft) O 82 ° 0 min 0,000 mm 0,0 UV-I 0 W/m² 9,3 °C 10,1 °C 1,6 km/h (1 Bft)
02.09.2017 01:58 10,1 °C 10,1 °C 95 % 1014,9 hPa 0,0 mm 0,0 km/h (0 Bft) O 82 ° 0 min 0,000 mm 0,0 UV-I 0 W/m² 9,3 °C 10,1 °C 0,0 km/h (0 Bft)
02.09.2017 01:59 10,1 °C 10,1 °C 95 % 1014,9 hPa 0,0 mm 0,0 km/h (0 Bft) O 82 ° 0 min 0,000 mm 0,0 UV-I 0 W/m² 9,3 °C 10,1 °C 0,0 km/h (0 Bft)
02.09.2017 02:00 10,1 °C 10,1 °C 96 % 1014,9 hPa 0,0 mm 0,0 km/h (0 Bft) O 82 ° 0 min 0,000 mm 0,0 UV-I 0 W/m² 9,5 °C 10,1 °C 0,0 km/h (0 Bft)
02.09.2017 02:01 10,1 °C 10,1 °C 96 % 1014,9 hPa 0,0 mm 0,0 km/h (0 Bft) O 82 ° 0 min 0,000 mm 0,0 UV-I 0 W/m² 9,5 °C 10,1 °C 0,0 km/h (0 Bft)
02.09.2017 02:02 10,1 °C 10,1 °C 96 % 1014,9 hPa 0,0 mm 0,0 km/h (0 Bft) O 82 ° 0 min 0,000 mm 0,0 UV-I 0 W/m² 9,5 °C 10,1 °C 0,0 km/h (0 Bft)
02.09.2017 02:03 10,1 °C 10,1 °C 96 % 1014,9 hPa 0,0 mm 0,0 km/h (0 Bft) O 82 ° 0 min 0,000 mm 0,0 UV-I 0 W/m² 9,5 °C 10,1 °C 0,0 km/h (0 Bft)
02.09.2017 02:04 10,1 °C 10,1 °C 95 % 1014,9 hPa 0,0 mm 2,2 km/h (1 Bft) O-NO 67 ° 0 min 0,000 mm 0,0 UV-I 0 W/m² 9,3 °C 10,1 °C 4,8 km/h (1 Bft)
02.09.2017 02:05 10,1 °C 10,1 °C 96 % 1014,9 hPa 0,0 mm 3,2 km/h (1 Bft) O-NO 67 ° 0 min 0,000 mm 0,0 UV-I 0 W/m² 9,5 °C 10,1 °C 4,8 km/h (1 Bft)
02.09.2017 02:06 10,1 °C 10,1 °C 96 % 1014,9 hPa 0,0 mm 0,8 km/h (0 Bft) O-NO 67 ° 0 min 0,000 mm 0,0 UV-I 0 W/m² 9,5 °C 10,1 °C 3,2 km/h (1 Bft)
02.09.2017 02:07 10,1 °C 10,2 °C 96 % 1014,8 hPa 0,0 mm 0,3 km/h (0 Bft) O-NO 67 ° 0 min 0,000 mm 0,0 UV-I 0 W/m² 9,5 °C 10,1 °C 3,2 km/h (1 Bft)
02.09.2017 02:08 10,1 °C 10,1 °C 96 % 1014,9 hPa 0,0 mm 1,3 km/h (1 Bft) O-NO 67 ° 0 min 0,000 mm 0,0 UV-I 0 W/m² 9,5 °C 10,1 °C 3,2 km/h (1 Bft)
02.09.2017 02:09 10,1 °C 10,2 °C 96 % 1014,9 hPa 0,0 mm 0,6 km/h (0 Bft) O-NO 67 ° 0 min 0,000 mm 0,0 UV-I 0 W/m² 9,5 °C 10,1 °C 1,6 km/h (1 Bft)
02.09.2017 02:10 10,1 °C 10,1 °C 96 % 1014,9 hPa 0,0 mm 1,2 km/h (1 Bft) O-NO 67 ° 0 min 0,000 mm 0,0 UV-I 0 W/m² 9,5 °C 10,1 °C 3,2 km/h (1 Bft)
02.09.2017 02:11 10,1 °C 10,1 °C 96 % 1014,9 hPa 0,2 mm 0,3 km/h (0 Bft) O-NO 67 ° 0 min 0,000 mm 0,0 UV-I 0 W/m² 9,5 °C 10,1 °C 1,6 km/h (1 Bft)
02.09.2017 02:12 10,1 °C 10,1 °C 96 % 1014,8 hPa 0,0 mm 0,0 km/h (0 Bft) O-NO 67 ° 0 min 0,000 mm 0,0 UV-I 0 W/m² 9,5 °C 10,1 °C 0,0 km/h (0 Bft)
02.09.2017 02:13 10,1 °C 10,1 °C 95 % 1014,8 hPa 0,0 mm 0,0 km/h (0 Bft) O-NO 67 ° 0 min 0,000 mm 0,0 UV-I 0 W/m² 9,3 °C 10,1 °C 0,0 km/h (0 Bft)
02.09.2017 02:14 10,1 °C 10,1 °C 95 % 1014,8 hPa 0,0 mm 0,7 km/h (0 Bft) O-NO 67 ° 0 min 0,000 mm 0,0 UV-I 0 W/m² 9,3 °C 10,1 °C 3,2 km/h (1 Bft)
02.09.2017 02:15 10,1 °C 10,1 °C 95 % 1014,8 hPa 0,0 mm 3,4 km/h (1 Bft) O-NO 76 ° 0 min 0,000 mm 0,0 UV-I 0 W/m² 9,3 °C 10,1 °C 4,8 km/h (1 Bft)
02.09.2017 02:16 10,1 °C 10,1 °C 95 % 1014,8 hPa 0,0 mm 1,9 km/h (1 Bft) O-NO 76 ° 0 min 0,000 mm 0,0 UV-I 0 W/m² 9,3 °C 10,1 °C 4,8 km/h (1 Bft)
02.09.2017 02:17 10,1 °C 10,1 °C 95 % 1014,8 hPa 0,0 mm 0,5 km/h (0 Bft) O-NO 76 ° 0 min 0,000 mm 0,0 UV-I 0 W/m² 9,3 °C 10,1 °C 1,6 km/h (1 Bft)
02.09.2017 02:18 10,1 °C 10,1 °C 95 % 1014,8 hPa 0,0 mm 0,8 km/h (0 Bft) O-NO 76 ° 0 min 0,000 mm 0,0 UV-I 0 W/m² 9,3 °C 10,1 °C 1,6 km/h (1 Bft)
02.09.2017 02:19 10,1 °C 10,1 °C 95 % 1014,8 hPa 0,0 mm 2,6 km/h (1 Bft) NO 42 ° 0 min 0,000 mm 0,0 UV-I 0 W/m² 9,3 °C 10,1 °C 4,8 km/h (1 Bft)
02.09.2017 02:20 10,1 °C 10,1 °C 95 % 1014,8 hPa 0,0 mm 2,0 km/h (1 Bft) NO 42 ° 0 min 0,000 mm 0,0 UV-I 0 W/m² 9,3 °C 10,1 °C 3,2 km/h (1 Bft)
02.09.2017 02:21 10,1 °C 10,1 °C 95 % 1014,8 hPa 0,0 mm 0,9 km/h (0 Bft) NO 42 ° 0 min 0,000 mm 0,0 UV-I 0 W/m² 9,3 °C 10,1 °C 3,2 km/h (1 Bft)
02.09.2017 02:22 10,1 °C 10,1 °C 95 % 1014,8 hPa 0,2 mm 0,0 km/h (0 Bft) NO 42 ° 0 min 0,000 mm 0,0 UV-I 0 W/m² 9,3 °C 10,1 °C 0,0 km/h (0 Bft)
02.09.2017 02:23 10,1 °C 10,1 °C 96 % 1014,9 hPa 0,0 mm 0,0 km/h (0 Bft) NO 42 ° 0 min 0,000 mm 0,0 UV-I 0 W/m² 9,5 °C 10,1 °C 0,0 km/h (0 Bft)
02.09.2017 02:24 10,1 °C 10,1 °C 96 % 1014,9 hPa 0,0 mm 0,4 km/h (0 Bft) NO 42 ° 0 min 0,000 mm 0,0 UV-I 0 W/m² 9,5 °C 10,1 °C 1,6 km/h (1 Bft)
02.09.2017 02:25 10,1 °C 10,1 °C 96 % 1014,9 hPa 0,0 mm 1,1 km/h (1 Bft) NO 42 ° 0 min 0,000 mm 0,0 UV-I 0 W/m² 9,5 °C 10,1 °C 3,2 km/h (1 Bft)
02.09.2017 02:26 10,1 °C 10,1 °C 96 % 1014,9 hPa 0,0 mm 2,3 km/h (1 Bft) NO 42 ° 0 min 0,000 mm 0,0 UV-I 0 W/m² 9,5 °C 10,1 °C 3,2 km/h (1 Bft)
02.09.2017 02:27 10,1 °C 10,1 °C 96 % 1014,9 hPa 0,0 mm 1,9 km/h (1 Bft) NO 42 ° 0 min 0,000 mm 0,0 UV-I 0 W/m² 9,5 °C 10,1 °C 3,2 km/h (1 Bft)
02.09.2017 02:28 10,1 °C 10,1 °C 96 % 1014,9 hPa 0,0 mm 1,7 km/h (1 Bft) NO 42 ° 0 min 0,000 mm 0,0 UV-I 0 W/m² 9,5 °C 10,1 °C 3,2 km/h (1 Bft)
02.09.2017 02:29 10,1 °C 10,1 °C 96 % 1015,0 hPa 0,0 mm 2,1 km/h (1 Bft) NO 42 ° 0 min 0,000 mm 0,0 UV-I 0 W/m² 9,5 °C 10,1 °C 3,2 km/h (1 Bft)
02.09.2017 02:30 10,1 °C 10,1 °C 96 % 1015,0 hPa 0,0 mm 2,8 km/h (1 Bft) NO 42 ° 0 min 0,000 mm 0,0 UV-I 0 W/m² 9,5 °C 10,1 °C 4,8 km/h (1 Bft)
02.09.2017 02:31 10,1 °C 10,1 °C 96 % 1014,9 hPa 0,0 mm 2,5 km/h (1 Bft) NO 42 ° 0 min 0,000 mm 0,0 UV-I 0 W/m² 9,5 °C 10,1 °C 3,2 km/h (1 Bft)
02.09.2017 02:32 10,1 °C 10,1 °C 96 % 1015,0 hPa 0,0 mm 2,3 km/h (1 Bft) NO 42 ° 0 min 0,000 mm 0,0 UV-I 0 W/m² 9,5 °C 10,1 °C 3,2 km/h (1 Bft)
02.09.2017 02:33 10,1 °C 10,1 °C 96 % 1014,9 hPa 0,0 mm 2,5 km/h (1 Bft) NO 42 ° 0 min 0,000 mm 0,0 UV-I 0 W/m² 9,5 °C 10,1 °C 4,8 km/h (1 Bft)
02.09.2017 02:34 10,1 °C 10,1 °C 96 % 1014,9 hPa 0,0 mm 1,6 km/h (1 Bft) NO 42 ° 0 min 0,000 mm 0,0 UV-I 0 W/m² 9,5 °C 10,1 °C 4,8 km/h (1 Bft)
02.09.2017 02:35 10,1 °C 10,1 °C 96 % 1014,9 hPa 0,2 mm 1,8 km/h (1 Bft) NO 42 ° 0 min 0,000 mm 0,0 UV-I 0 W/m² 9,5 °C 10,1 °C 3,2 km/h (1 Bft)
02.09.2017 02:36 10,1 °C 10,1 °C 96 % 1014,9 hPa 0,0 mm 1,6 km/h (1 Bft) NO 42 ° 0 min 0,000 mm 0,0 UV-I 0 W/m² 9,5 °C 10,1 °C 3,2 km/h (1 Bft)
02.09.2017 02:37 10,1 °C 10,1 °C 96 % 1014,9 hPa 0,0 mm 0,6 km/h (0 Bft) NO 42 ° 0 min 0,000 mm 0,0 UV-I 0 W/m² 9,5 °C 10,1 °C 1,6 km/h (1 Bft)
02.09.2017 02:38 10,1 °C 10,1 °C 96 % 1014,9 hPa 0,0 mm 0,1 km/h (0 Bft) NO 42 ° 0 min 0,000 mm 0,0 UV-I 0 W/m² 9,5 °C 10,1 °C 1,6 km/h (1 Bft)
02.09.2017 02:39 10,1 °C 10,1 °C 96 % 1014,9 hPa 0,0 mm 0,3 km/h (0 Bft) NO 42 ° 0 min 0,000 mm 0,0 UV-I 0 W/m² 9,5 °C 10,1 °C 1,6 km/h (1 Bft)
02.09.2017 02:40 10,1 °C 10,1 °C 96 % 1014,9 hPa 0,0 mm 0,0 km/h (0 Bft) NO 42 ° 0 min 0,000 mm 0,0 UV-I 0 W/m² 9,5 °C 10,1 °C 0,0 km/h (0 Bft)
02.09.2017 02:41 10,1 °C 10,1 °C 96 % 1014,9 hPa 0,0 mm 1,5 km/h (1 Bft) NO 42 ° 0 min 0,000 mm 0,0 UV-I 0 W/m² 9,5 °C 10,1 °C 4,8 km/h (1 Bft)
02.09.2017 02:42 10,1 °C 10,1 °C 96 % 1014,8 hPa 0,0 mm 3,2 km/h (1 Bft) O-NO 70 ° 0 min 0,000 mm 0,0 UV-I 0 W/m² 9,5 °C 10,1 °C 4,8 km/h (1 Bft)
02.09.2017 02:43 10,1 °C 10,1 °C 96 % 1014,8 hPa 0,0 mm 2,6 km/h (1 Bft) O-NO 70 ° 0 min 0,000 mm 0,0 UV-I 0 W/m² 9,5 °C 10,1 °C 4,8 km/h (1 Bft)
02.09.2017 02:44 10,1 °C 10,1 °C 96 % 1014,8 hPa 0,0 mm 1,6 km/h (1 Bft) O-NO 70 ° 0 min 0,000 mm 0,0 UV-I 0 W/m² 9,5 °C 10,1 °C 3,2 km/h (1 Bft)
02.09.2017 02:45 10,1 °C 10,1 °C 96 % 1014,8 hPa 0,0 mm 0,5 km/h (0 Bft) O-NO 70 ° 0 min 0,000 mm 0,0 UV-I 0 W/m² 9,5 °C 10,1 °C 1,6 km/h (1 Bft)
02.09.2017 02:46 10,1 °C 10,1 °C 96 % 1014,8 hPa 0,0 mm 2,1 km/h (1 Bft) O-NO 65 ° 0 min 0,000 mm 0,0 UV-I 0 W/m² 9,5 °C 10,1 °C 3,2 km/h (1 Bft)
02.09.2017 02:47 10,1 °C 10,1 °C 96 % 1014,8 hPa 0,2 mm 0,2 km/h (0 Bft) O-NO 65 ° 0 min 0,000 mm 0,0 UV-I 0 W/m² 9,5 °C 10,1 °C 1,6 km/h (1 Bft)
02.09.2017 02:48 10,1 °C 10,1 °C 96 % 1014,7 hPa 0,0 mm 0,8 km/h (0 Bft) O-NO 65 ° 0 min 0,000 mm 0,0 UV-I 0 W/m² 9,5 °C 10,1 °C 3,2 km/h (1 Bft)
02.09.2017 02:49 10,1 °C 10,1 °C 96 % 1014,7 hPa 0,0 mm 3,3 km/h (1 Bft) O-NO 65 ° 0 min 0,000 mm 0,0 UV-I 0 W/m² 9,5 °C 10,1 °C 4,8 km/h (1 Bft)
02.09.2017 02:50 10,1 °C 10,1 °C 96 % 1014,7 hPa 0,0 mm 2,0 km/h (1 Bft) O-NO 65 ° 0 min 0,000 mm 0,0 UV-I 0 W/m² 9,5 °C 10,1 °C 3,2 km/h (1 Bft)
02.09.2017 02:51 10,1 °C 10,1 °C 96 % 1014,7 hPa 0,0 mm 3,2 km/h (1 Bft) O-NO 75 ° 0 min 0,000 mm 0,0 UV-I 0 W/m² 9,5 °C 10,1 °C 4,8 km/h (1 Bft)
02.09.2017 02:52 10,1 °C 10,1 °C 96 % 1014,7 hPa 0,0 mm 2,4 km/h (1 Bft) O 84 ° 0 min 0,000 mm 0,0 UV-I 0 W/m² 9,5 °C 10,1 °C 3,2 km/h (1 Bft)
02.09.2017 02:53 10,1 °C 10,1 °C 96 % 1014,6 hPa 0,0 mm 0,4 km/h (0 Bft) O 84 ° 0 min 0,000 mm 0,0 UV-I 0 W/m² 9,5 °C 10,1 °C 1,6 km/h (1 Bft)
02.09.2017 02:54 10,1 °C 10,1 °C 96 % 1014,6 hPa 0,0 mm 0,0 km/h (0 Bft) O 84 ° 0 min 0,000 mm 0,0 UV-I 0 W/m² 9,5 °C 10,1 °C 0,0 km/h (0 Bft)
02.09.2017 02:55 10,1 °C 10,1 °C 96 % 1014,6 hPa 0,2 mm 0,0 km/h (0 Bft) O 84 ° 0 min 0,000 mm 0,0 UV-I 0 W/m² 9,5 °C 10,1 °C 0,0 km/h (0 Bft)
02.09.2017 02:56 10,1 °C 10,1 °C 96 % 1014,6 hPa 0,0 mm 0,0 km/h (0 Bft) O 84 ° 0 min 0,000 mm 0,0 UV-I 0 W/m² 9,5 °C 10,1 °C 0,0 km/h (0 Bft)
02.09.2017 02:57 10,1 °C 10,1 °C 96 % 1014,6 hPa 0,0 mm 0,0 km/h (0 Bft) O 84 ° 0 min 0,000 mm 0,0 UV-I 0 W/m² 9,5 °C 10,1 °C 0,0 km/h (0 Bft)
02.09.2017 02:58 10,1 °C 10,1 °C 96 % 1014,6 hPa 0,0 mm 0,0 km/h (0 Bft) O 84 ° 0 min 0,000 mm 0,0 UV-I 0 W/m² 9,5 °C 10,1 °C 0,0 km/h (0 Bft)
02.09.2017 02:59 10,1 °C 10,1 °C 96 % 1014,6 hPa 0,0 mm 1,3 km/h (1 Bft) O-NO 66 ° 0 min 0,000 mm 0,0 UV-I 0 W/m² 9,5 °C 10,1 °C 3,2 km/h (1 Bft)
02.09.2017 03:00 10,1 °C 10,1 °C 96 % 1014,6 hPa 0,0 mm 3,4 km/h (1 Bft) O-NO 66 ° 0 min 0,000 mm 0,0 UV-I 0 W/m² 9,5 °C 10,1 °C 4,8 km/h (1 Bft)
02.09.2017 03:01 10,1 °C 10,1 °C 96 % 1014,6 hPa 0,0 mm 2,9 km/h (1 Bft) O-NO 67 ° 0 min 0,000 mm 0,0 UV-I 0 W/m² 9,5 °C 10,1 °C 4,8 km/h (1 Bft)
02.09.2017 03:02 10,1 °C 10,1 °C 96 % 1014,6 hPa 0,0 mm 0,1 km/h (0 Bft) O-NO 67 ° 0 min 0,000 mm 0,0 UV-I 0 W/m² 9,5 °C 10,1 °C 1,6 km/h (1 Bft)
02.09.2017 03:03 10,1 °C 10,1 °C 96 % 1014,5 hPa 0,0 mm 0,4 km/h (0 Bft) O-NO 67 ° 0 min 0,000 mm 0,0 UV-I 0 W/m² 9,5 °C 10,1 °C 1,6 km/h (1 Bft)
02.09.2017 03:04 10,1 °C 10,1 °C 96 % 1014,5 hPa 0,0 mm 2,8 km/h (1 Bft) O-NO 67 ° 0 min 0,000 mm 0,0 UV-I 0 W/m² 9,5 °C 10,1 °C 3,2 km/h (1 Bft)
02.09.2017 03:05 10,1 °C 10,2 °C 96 % 1014,5 hPa 0,0 mm 1,1 km/h (1 Bft) O-NO 67 ° 0 min 0,000 mm 0,0 UV-I 0 W/m² 9,5 °C 10,1 °C 3,2 km/h (1 Bft)
02.09.2017 03:06 10,1 °C 10,1 °C 96 % 1014,5 hPa 0,0 mm 2,0 km/h (1 Bft) O-NO 67 ° 0 min 0,000 mm 0,0 UV-I 0 W/m² 9,5 °C 10,1 °C 3,2 km/h (1 Bft)
02.09.2017 03:07 10,2 °C 10,2 °C 96 % 1014,5 hPa 0,0 mm 2,3 km/h (1 Bft) O-NO 67 ° 0 min 0,000 mm 0,0 UV-I 0 W/m² 9,6 °C 10,2 °C 4,8 km/h (1 Bft)
02.09.2017 03:08 10,2 °C 10,2 °C 96 % 1014,5 hPa 0,0 mm 1,0 km/h (0 Bft) O-NO 67 ° 0 min 0,000 mm 0,0 UV-I 0 W/m² 9,6 °C 10,2 °C 3,2 km/h (1 Bft)
02.09.2017 03:09 10,2 °C 10,2 °C 96 % 1014,5 hPa 0,0 mm 1,8 km/h (1 Bft) O-NO 67 ° 0 min 0,000 mm 0,0 UV-I 0 W/m² 9,6 °C 10,2 °C 4,8 km/h (1 Bft)
02.09.2017 03:10 10,1 °C 10,2 °C 96 % 1014,5 hPa 0,0 mm 3,7 km/h (1 Bft) O-NO 66 ° 0 min 0,000 mm 0,0 UV-I 0 W/m² 9,5 °C 10,1 °C 4,8 km/h (1 Bft)
02.09.2017 03:11 10,1 °C 10,2 °C 96 % 1014,5 hPa 0,0 mm 2,7 km/h (1 Bft) O-NO 66 ° 0 min 0,000 mm 0,0 UV-I 0 W/m² 9,5 °C 10,1 °C 4,8 km/h (1 Bft)
02.09.2017 03:12 10,2 °C 10,2 °C 96 % 1014,5 hPa 0,0 mm 0,2 km/h (0 Bft) O-NO 66 ° 0 min 0,000 mm 0,0 UV-I 0 W/m² 9,6 °C 10,2 °C 1,6 km/h (1 Bft)
02.09.2017 03:13 10,2 °C 10,2 °C 96 % 1014,4 hPa 0,0 mm 0,3 km/h (0 Bft) O-NO 66 ° 0 min 0,000 mm 0,0 UV-I 0 W/m² 9,6 °C 10,2 °C 1,6 km/h (1 Bft)
02.09.2017 03:14 10,1 °C 10,2 °C 96 % 1014,4 hPa 0,0 mm 0,5 km/h (0 Bft) O-NO 66 ° 0 min 0,000 mm 0,0 UV-I 0 W/m² 9,5 °C 10,1 °C 1,6 km/h (1 Bft)
02.09.2017 03:15 10,1 °C 10,1 °C 96 % 1014,5 hPa 0,0 mm 3,2 km/h (1 Bft) O-NO 70 ° 0 min 0,000 mm 0,0 UV-I 0 W/m² 9,5 °C 10,1 °C 4,8 km/h (1 Bft)
02.09.2017 03:16 10,2 °C 10,2 °C 96 % 1014,5 hPa 0,0 mm 2,7 km/h (1 Bft) O-NO 69 ° 0 min 0,000 mm 0,0 UV-I 0 W/m² 9,6 °C 10,2 °C 4,8 km/h (1 Bft)
02.09.2017 03:17 10,1 °C 10,2 °C 96 % 1014,4 hPa 0,0 mm 3,4 km/h (1 Bft) NO 46 ° 0 min 0,000 mm 0,0 UV-I 0 W/m² 9,5 °C 10,1 °C 4,8 km/h (1 Bft)
02.09.2017 03:18 10,2 °C 10,2 °C 96 % 1014,4 hPa 0,0 mm 5,0 km/h (1 Bft) O-NO 57 ° 0 min 0,000 mm 0,0 UV-I 0 W/m² 9,6 °C 10,2 °C 6,4 km/h (2 Bft)
02.09.2017 03:19 10,2 °C 10,2 °C 96 % 1014,4 hPa 0,2 mm 2,0 km/h (1 Bft) N 5 ° 0 min 0,000 mm 0,0 UV-I 0 W/m² 9,6 °C 10,2 °C 3,2 km/h (1 Bft)
02.09.2017 03:20 10,2 °C 10,2 °C 96 % 1014,5 hPa 0,0 mm 2,0 km/h (1 Bft) NW 321 ° 0 min 0,000 mm 0,0 UV-I 0 W/m² 9,6 °C 10,2 °C 4,8 km/h (1 Bft)
02.09.2017 03:21 10,2 °C 10,2 °C 96 % 1014,5 hPa 0,0 mm 2,9 km/h (1 Bft) N-NW 344 ° 0 min 0,000 mm 0,0 UV-I 0 W/m² 9,6 °C 10,2 °C 4,8 km/h (1 Bft)
02.09.2017 03:22 10,2 °C 10,2 °C 96 % 1014,5 hPa 0,0 mm 3,2 km/h (1 Bft) N-NW 328 ° 0 min 0,000 mm 0,0 UV-I 0 W/m² 9,6 °C 10,2 °C 4,8 km/h (1 Bft)
02.09.2017 03:23 10,2 °C 10,3 °C 96 % 1014,5 hPa 0,0 mm 5,7 km/h (1 Bft) NW 310 ° 0 min 0,000 mm 0,0 UV-I 0 W/m² 9,6 °C 10,2 °C 9,7 km/h (2 Bft)
02.09.2017 03:24 10,2 °C 10,2 °C 96 % 1014,5 hPa 0,0 mm 6,3 km/h (2 Bft) N-NW 327 ° 0 min 0,000 mm 0,0 UV-I 0 W/m² 9,6 °C 10,2 °C 9,7 km/h (2 Bft)
02.09.2017 03:25 10,2 °C 10,2 °C 96 % 1014,5 hPa 0,0 mm 2,9 km/h (1 Bft) N-NW 338 ° 0 min 0,000 mm 0,0 UV-I 0 W/m² 9,6 °C 10,2 °C 6,4 km/h (2 Bft)
02.09.2017 03:26 10,2 °C 10,2 °C 96 % 1014,6 hPa 0,0 mm 4,0 km/h (1 Bft) N 355 ° 0 min 0,000 mm 0,0 UV-I 0 W/m² 9,6 °C 10,2 °C 4,8 km/h (1 Bft)
02.09.2017 03:27 10,1 °C 10,2 °C 96 % 1014,6 hPa 0,0 mm 4,1 km/h (1 Bft) NO 44 ° 0 min 0,000 mm 0,0 UV-I 0 W/m² 9,5 °C 10,1 °C 6,4 km/h (2 Bft)
02.09.2017 03:28 10,1 °C 10,1 °C 96 % 1014,5 hPa 0,2 mm 5,0 km/h (1 Bft) N 11 ° 0 min 0,000 mm 0,0 UV-I 0 W/m² 9,5 °C 10,1 °C 8,0 km/h (2 Bft)
02.09.2017 03:29 10,1 °C 10,1 °C 95 % 1014,6 hPa 0,0 mm 7,1 km/h (2 Bft) N-NO 17 ° 0 min 0,000 mm 0,0 UV-I 0 W/m² 9,3 °C 10,1 °C 9,7 km/h (2 Bft)
02.09.2017 03:30 10,0 °C 10,1 °C 95 % 1014,6 hPa 0,0 mm 6,0 km/h (2 Bft) N-NO 29 ° 0 min 0,000 mm 0,0 UV-I 0 W/m² 9,2 °C 9,5 °C 6,4 km/h (2 Bft)
02.09.2017 03:31 9,9 °C 10,0 °C 95 % 1014,6 hPa 0,2 mm 4,5 km/h (1 Bft) N 5 ° 0 min 0,000 mm 0,0 UV-I 0 W/m² 9,1 °C 9,9 °C 6,4 km/h (2 Bft)
02.09.2017 03:32 9,9 °C 10,0 °C 95 % 1014,6 hPa 0,0 mm 4,6 km/h (1 Bft) N-NW 344 ° 0 min 0,000 mm 0,0 UV-I 0 W/m² 9,1 °C 9,8 °C 8,0 km/h (2 Bft)
02.09.2017 03:33 9,9 °C 9,9 °C 95 % 1014,6 hPa 0,0 mm 7,7 km/h (2 Bft) NO 36 ° 0 min 0,000 mm 0,0 UV-I 0 W/m² 9,1 °C 9,0 °C 12,9 km/h (3 Bft)
02.09.2017 03:34 9,9 °C 9,9 °C 95 % 1014,6 hPa 0,0 mm 4,3 km/h (1 Bft) O-NO 57 ° 0 min 0,000 mm 0,0 UV-I 0 W/m² 9,1 °C 9,9 °C 9,7 km/h (2 Bft)
02.09.2017 03:35 9,9 °C 9,9 °C 95 % 1014,6 hPa 0,0 mm 2,1 km/h (1 Bft) N-NW 332 ° 0 min 0,000 mm 0,0 UV-I 0 W/m² 9,1 °C 9,9 °C 6,4 km/h (2 Bft)
02.09.2017 03:36 9,9 °C 9,9 °C 95 % 1014,7 hPa 0,0 mm 8,5 km/h (2 Bft) N-NW 332 ° 0 min 0,000 mm 0,0 UV-I 0 W/m² 9,1 °C 8,8 °C 16,1 km/h (3 Bft)
02.09.2017 03:37 9,8 °C 9,9 °C 95 % 1014,6 hPa 0,0 mm 8,2 km/h (2 Bft) N-NO 26 ° 0 min 0,000 mm 0,0 UV-I 0 W/m² 9,0 °C 8,7 °C 14,5 km/h (3 Bft)
02.09.2017 03:38 9,8 °C 9,8 °C 95 % 1014,6 hPa 0,2 mm 8,5 km/h (2 Bft) N-NO 18 ° 0 min 0,000 mm 0,0 UV-I 0 W/m² 9,0 °C 8,7 °C 14,5 km/h (3 Bft)
02.09.2017 03:39 9,8 °C 9,8 °C 95 % 1014,7 hPa 0,0 mm 5,5 km/h (1 Bft) N-NW 345 ° 0 min 0,000 mm 0,0 UV-I 0 W/m² 9,0 °C 9,4 °C 8,0 km/h (2 Bft)
02.09.2017 03:40 9,8 °C 9,8 °C 95 % 1014,7 hPa 0,0 mm 5,2 km/h (1 Bft) N-NW 348 ° 0 min 0,000 mm 0,0 UV-I 0 W/m² 9,0 °C 9,5 °C 8,0 km/h (2 Bft)
02.09.2017 03:41 9,8 °C 9,8 °C 95 % 1014,7 hPa 0,0 mm 3,8 km/h (1 Bft) N 360 ° 0 min 0,000 mm 0,0 UV-I 0 W/m² 9,0 °C 9,8 °C 6,4 km/h (2 Bft)
02.09.2017 03:42 9,8 °C 9,8 °C 95 % 1014,7 hPa 0,0 mm 6,2 km/h (2 Bft) N-NW 328 ° 0 min 0,000 mm 0,0 UV-I 0 W/m² 9,0 °C 9,2 °C 9,7 km/h (2 Bft)
02.09.2017 03:43 9,8 °C 9,8 °C 95 % 1014,6 hPa 0,0 mm 3,0 km/h (1 Bft) N-NW 340 ° 0 min 0,000 mm 0,0 UV-I 0 W/m² 9,0 °C 9,8 °C 4,8 km/h (1 Bft)
02.09.2017 03:44 9,7 °C 9,8 °C 95 % 1014,6 hPa 0,0 mm 4,1 km/h (1 Bft) N 5 ° 0 min 0,000 mm 0,0 UV-I 0 W/m² 8,9 °C 9,7 °C 6,4 km/h (2 Bft)
02.09.2017 03:45 9,7 °C 9,7 °C 95 % 1014,7 hPa 0,0 mm 3,4 km/h (1 Bft) N 350 ° 0 min 0,000 mm 0,0 UV-I 0 W/m² 8,9 °C 9,7 °C 6,4 km/h (2 Bft)
02.09.2017 03:46 9,7 °C 9,7 °C 95 % 1014,7 hPa 0,2 mm 2,8 km/h (1 Bft) N 350 ° 0 min 0,000 mm 0,0 UV-I 0 W/m² 8,9 °C 9,7 °C 4,8 km/h (1 Bft)
02.09.2017 03:47 9,7 °C 9,7 °C 95 % 1014,6 hPa 0,0 mm 3,3 km/h (1 Bft) N-NO 31 ° 0 min 0,000 mm 0,0 UV-I 0 W/m² 8,9 °C 9,7 °C 6,4 km/h (2 Bft)
02.09.2017 03:48 9,7 °C 9,7 °C 95 % 1014,7 hPa 0,0 mm 3,2 km/h (1 Bft) N-NO 28 ° 0 min 0,000 mm 0,0 UV-I 0 W/m² 8,9 °C 9,7 °C 4,8 km/h (1 Bft)
02.09.2017 03:49 9,7 °C 9,7 °C 95 % 1014,6 hPa 0,0 mm 2,7 km/h (1 Bft) N-NW 340 ° 0 min 0,000 mm 0,0 UV-I 0 W/m² 8,9 °C 9,7 °C 4,8 km/h (1 Bft)
02.09.2017 03:50 9,7 °C 9,7 °C 95 % 1014,6 hPa 0,0 mm 3,4 km/h (1 Bft) N 351 ° 0 min 0,000 mm 0,0 UV-I 0 W/m² 8,9 °C 9,7 °C 6,4 km/h (2 Bft)
02.09.2017 03:51 9,7 °C 9,7 °C 95 % 1014,7 hPa 0,0 mm 3,9 km/h (1 Bft) N 355 ° 0 min 0,000 mm 0,0 UV-I 0 W/m² 8,9 °C 9,7 °C 4,8 km/h (1 Bft)
02.09.2017 03:52 9,7 °C 9,7 °C 95 % 1014,7 hPa 0,0 mm 3,8 km/h (1 Bft) N 360 ° 0 min 0,000 mm 0,0 UV-I 0 W/m² 8,9 °C 9,7 °C 4,8 km/h (1 Bft)
02.09.2017 03:53 9,7 °C 9,7 °C 95 % 1014,7 hPa 0,2 mm 3,2 km/h (1 Bft) N 360 ° 0 min 0,000 mm 0,0 UV-I 0 W/m² 8,9 °C 9,7 °C 8,0 km/h (2 Bft)
02.09.2017 03:54 9,7 °C 9,7 °C 95 % 1014,7 hPa 0,0 mm 2,2 km/h (1 Bft) N-NW 345 ° 0 min 0,000 mm 0,0 UV-I 0 W/m² 8,9 °C 9,7 °C 4,8 km/h (1 Bft)
02.09.2017 03:55 9,7 °C 9,7 °C 95 % 1014,7 hPa 0,0 mm 2,1 km/h (1 Bft) N-NW 345 ° 0 min 0,000 mm 0,0 UV-I 0 W/m² 8,9 °C 9,7 °C 4,8 km/h (1 Bft)
02.09.2017 03:56 9,7 °C 9,7 °C 95 % 1014,7 hPa 0,0 mm 1,5 km/h (1 Bft) N-NW 345 ° 0 min 0,000 mm 0,0 UV-I 0 W/m² 8,9 °C 9,7 °C 3,2 km/h (1 Bft)
02.09.2017 03:57 9,7 °C 9,7 °C 95 % 1014,7 hPa 0,0 mm 1,9 km/h (1 Bft) N-NW 345 ° 0 min 0,000 mm 0,0 UV-I 0 W/m² 8,9 °C 9,7 °C 3,2 km/h (1 Bft)
02.09.2017 03:58 9,7 °C 9,7 °C 95 % 1014,7 hPa 0,0 mm 2,0 km/h (1 Bft) N-NW 345 ° 0 min 0,000 mm 0,0 UV-I 0 W/m² 8,9 °C 9,7 °C 3,2 km/h (1 Bft)
02.09.2017 03:59 9,7 °C 9,7 °C 95 % 1014,7 hPa 0,0 mm 0,8 km/h (0 Bft) N-NW 345 ° 0 min 0,000 mm 0,0 UV-I 0 W/m² 8,9 °C 9,7 °C 3,2 km/h (1 Bft)
02.09.2017 04:00 9,7 °C 9,7 °C 95 % 1014,7 hPa 0,0 mm 1,3 km/h (1 Bft) N-NW 345 ° 0 min 0,000 mm 0,0 UV-I 0 W/m² 8,9 °C 9,7 °C 3,2 km/h (1 Bft)
02.09.2017 04:01 9,7 °C 9,7 °C 95 % 1014,7 hPa 0,0 mm 0,6 km/h (0 Bft) N-NW 345 ° 0 min 0,000 mm 0,0 UV-I 0 W/m² 8,9 °C 9,7 °C 1,6 km/h (1 Bft)
02.09.2017 04:02 9,7 °C 9,7 °C 95 % 1014,7 hPa 0,0 mm 0,7 km/h (0 Bft) N-NW 345 ° 0 min 0,000 mm 0,0 UV-I 0 W/m² 8,9 °C 9,7 °C 1,6 km/h (1 Bft)
02.09.2017 04:03 9,7 °C 9,7 °C 95 % 1014,7 hPa 0,2 mm 0,1 km/h (0 Bft) N-NW 345 ° 0 min 0,000 mm 0,0 UV-I 0 W/m² 8,9 °C 9,7 °C 1,6 km/h (1 Bft)
02.09.2017 04:04 9,7 °C 9,7 °C 95 % 1014,7 hPa 0,0 mm 1,0 km/h (0 Bft) N-NW 345 ° 0 min 0,000 mm 0,0 UV-I 0 W/m² 8,9 °C 9,7 °C 3,2 km/h (1 Bft)
02.09.2017 04:05 9,7 °C 9,7 °C 95 % 1014,7 hPa 0,0 mm 2,2 km/h (1 Bft) N-NW 335 ° 0 min 0,000 mm 0,0 UV-I 0 W/m² 8,9 °C 9,7 °C 3,2 km/h (1 Bft)
02.09.2017 04:06 9,7 °C 9,7 °C 95 % 1014,7 hPa 0,0 mm 1,0 km/h (0 Bft) N-NW 335 ° 0 min 0,000 mm 0,0 UV-I 0 W/m² 8,9 °C 9,7 °C 3,2 km/h (1 Bft)
02.09.2017 04:07 9,7 °C 9,7 °C 95 % 1014,7 hPa 0,2 mm 1,3 km/h (1 Bft) N-NW 335 ° 0 min 0,000 mm 0,0 UV-I 0 W/m² 8,9 °C 9,7 °C 3,2 km/h (1 Bft)
02.09.2017 04:08 9,7 °C 9,7 °C 95 % 1014,7 hPa 0,0 mm 3,5 km/h (1 Bft) N-NO 13 ° 0 min 0,000 mm 0,0 UV-I 0 W/m² 8,9 °C 9,7 °C 6,4 km/h (2 Bft)
02.09.2017 04:09 9,7 °C 9,7 °C 95 % 1014,7 hPa 0,2 mm 2,5 km/h (1 Bft) N-NO 32 ° 0 min 0,000 mm 0,0 UV-I 0 W/m² 8,9 °C 9,7 °C 6,4 km/h (2 Bft)
02.09.2017 04:10 9,7 °C 9,7 °C 95 % 1014,7 hPa 0,0 mm 1,1 km/h (1 Bft) N-NO 32 ° 0 min 0,000 mm 0,0 UV-I 0 W/m² 8,9 °C 9,7 °C 3,2 km/h (1 Bft)
02.09.2017 04:11 9,7 °C 9,7 °C 95 % 1014,7 hPa 0,0 mm 2,3 km/h (1 Bft) N-NO 32 ° 0 min 0,000 mm 0,0 UV-I 0 W/m² 8,9 °C 9,7 °C 4,8 km/h (1 Bft)
02.09.2017 04:12 9,7 °C 9,7 °C 95 % 1014,7 hPa 0,0 mm 4,0 km/h (1 Bft) N 350 ° 0 min 0,000 mm 0,0 UV-I 0 W/m² 8,9 °C 9,7 °C 6,4 km/h (2 Bft)
02.09.2017 04:13 9,7 °C 9,7 °C 95 % 1014,7 hPa 0,0 mm 4,6 km/h (1 Bft) N 360 ° 0 min 0,000 mm 0,0 UV-I 0 W/m² 8,9 °C 9,5 °C 6,4 km/h (2 Bft)
02.09.2017 04:14 9,7 °C 9,7 °C 95 % 1014,7 hPa 0,2 mm 3,2 km/h (1 Bft) NO 49 ° 0 min 0,000 mm 0,0 UV-I 0 W/m² 8,9 °C 9,7 °C 8,0 km/h (2 Bft)
02.09.2017 04:15 9,7 °C 9,7 °C 95 % 1014,7 hPa 0,0 mm 2,8 km/h (1 Bft) NO 39 ° 0 min 0,000 mm 0,0 UV-I 0 W/m² 8,9 °C 9,7 °C 4,8 km/h (1 Bft)
02.09.2017 04:16 9,7 °C 9,7 °C 95 % 1014,7 hPa 0,0 mm 3,0 km/h (1 Bft) NO 39 ° 0 min 0,000 mm 0,0 UV-I 0 W/m² 8,9 °C 9,7 °C 4,8 km/h (1 Bft)
02.09.2017 04:17 9,7 °C 9,7 °C 95 % 1014,6 hPa 0,2 mm 2,8 km/h (1 Bft) NO 38 ° 0 min 0,000 mm 0,0 UV-I 0 W/m² 8,9 °C 9,7 °C 4,8 km/h (1 Bft)
02.09.2017 04:18 9,7 °C 9,7 °C 95 % 1014,6 hPa 0,0 mm 2,4 km/h (1 Bft) NO 38 ° 0 min 0,000 mm 0,0 UV-I 0 W/m² 8,9 °C 9,7 °C 3,2 km/h (1 Bft)
02.09.2017 04:19 9,7 °C 9,7 °C 95 % 1014,6 hPa 0,0 mm 0,5 km/h (0 Bft) NO 38 ° 0 min 0,000 mm 0,0 UV-I 0 W/m² 8,9 °C 9,7 °C 1,6 km/h (1 Bft)
02.09.2017 04:20 9,7 °C 9,8 °C 95 % 1014,6 hPa 0,0 mm 1,5 km/h (1 Bft) N-NO 22 ° 0 min 0,000 mm 0,0 UV-I 0 W/m² 8,9 °C 9,7 °C 3,2 km/h (1 Bft)
02.09.2017 04:21 9,8 °C 9,8 °C 95 % 1014,6 hPa 0,2 mm 4,1 km/h (1 Bft) NW 325 ° 0 min 0,000 mm 0,0 UV-I 0 W/m² 9,0 °C 9,8 °C 6,4 km/h (2 Bft)
02.09.2017 04:22 9,8 °C 9,8 °C 95 % 1014,6 hPa 0,0 mm 3,0 km/h (1 Bft) N-NW 343 ° 0 min 0,000 mm 0,0 UV-I 0 W/m² 9,0 °C 9,8 °C 3,2 km/h (1 Bft)
02.09.2017 04:23 9,8 °C 9,8 °C 95 % 1014,6 hPa 0,0 mm 3,2 km/h (1 Bft) N-NW 333 ° 0 min 0,000 mm 0,0 UV-I 0 W/m² 9,0 °C 9,8 °C 4,8 km/h (1 Bft)
02.09.2017 04:24 9,8 °C 9,8 °C 95 % 1014,6 hPa 0,2 mm 4,3 km/h (1 Bft) N-NW 338 ° 0 min 0,000 mm 0,0 UV-I 0 W/m² 9,0 °C 9,8 °C 6,4 km/h (2 Bft)
02.09.2017 04:25 9,7 °C 9,8 °C 95 % 1014,6 hPa 0,0 mm 3,5 km/h (1 Bft) N-NW 342 ° 0 min 0,000 mm 0,0 UV-I 0 W/m² 8,9 °C 9,7 °C 4,8 km/h (1 Bft)
02.09.2017 04:26 9,7 °C 9,7 °C 95 % 1014,6 hPa 0,0 mm 3,3 km/h (1 Bft) N-NW 344 ° 0 min 0,000 mm 0,0 UV-I 0 W/m² 8,9 °C 9,7 °C 4,8 km/h (1 Bft)
02.09.2017 04:27 9,7 °C 9,7 °C 95 % 1014,6 hPa 0,0 mm 5,9 km/h (2 Bft) N-NW 334 ° 0 min 0,000 mm 0,0 UV-I 0 W/m² 8,9 °C 9,2 °C 8,0 km/h (2 Bft)
02.09.2017 04:28 9,7 °C 9,7 °C 95 % 1014,6 hPa 0,2 mm 7,3 km/h (2 Bft) N 349 ° 0 min 0,000 mm 0,0 UV-I 0 W/m² 8,9 °C 8,8 °C 9,7 km/h (2 Bft)
02.09.2017 04:29 9,7 °C 9,7 °C 95 % 1014,6 hPa 0,0 mm 2,7 km/h (1 Bft) N-NW 337 ° 0 min 0,000 mm 0,0 UV-I 0 W/m² 8,9 °C 9,7 °C 6,4 km/h (2 Bft)
02.09.2017 04:30 9,7 °C 9,7 °C 95 % 1014,6 hPa 0,0 mm 2,9 km/h (1 Bft) NW 325 ° 0 min 0,000 mm 0,0 UV-I 0 W/m² 8,9 °C 9,7 °C 6,4 km/h (2 Bft)
02.09.2017 04:31 9,6 °C 9,7 °C 95 % 1014,5 hPa 0,0 mm 3,2 km/h (1 Bft) W-NW 282 ° 0 min 0,000 mm 0,0 UV-I 0 W/m² 8,8 °C 9,6 °C 4,8 km/h (1 Bft)
02.09.2017 04:32 9,6 °C 9,7 °C 95 % 1014,6 hPa 0,2 mm 2,9 km/h (1 Bft) NW 317 ° 0 min 0,000 mm 0,0 UV-I 0 W/m² 8,8 °C 9,6 °C 4,8 km/h (1 Bft)
02.09.2017 04:33 9,6 °C 9,6 °C 95 % 1014,5 hPa 0,0 mm 5,3 km/h (1 Bft) N-NW 342 ° 0 min 0,000 mm 0,0 UV-I 0 W/m² 8,8 °C 9,2 °C 8,0 km/h (2 Bft)
02.09.2017 04:34 9,6 °C 9,6 °C 95 % 1014,5 hPa 0,0 mm 3,2 km/h (1 Bft) N 355 ° 0 min 0,000 mm 0,0 UV-I 0 W/m² 8,8 °C 9,6 °C 6,4 km/h (2 Bft)
02.09.2017 04:35 9,6 °C 9,6 °C 95 % 1014,5 hPa 0,0 mm 2,3 km/h (1 Bft) NW 313 ° 0 min 0,000 mm 0,0 UV-I 0 W/m² 8,8 °C 9,6 °C 4,8 km/h (1 Bft)
02.09.2017 04:36 9,6 °C 9,6 °C 95 % 1014,5 hPa 0,0 mm 3,5 km/h (1 Bft) NW 319 ° 0 min 0,000 mm 0,0 UV-I 0 W/m² 8,8 °C 9,6 °C 6,4 km/h (2 Bft)
02.09.2017 04:37 9,6 °C 9,6 °C 95 % 1014,4 hPa 0,2 mm 3,7 km/h (1 Bft) N-NW 327 ° 0 min 0,000 mm 0,0 UV-I 0 W/m² 8,8 °C 9,6 °C 4,8 km/h (1 Bft)
02.09.2017 04:38 9,6 °C 9,6 °C 95 % 1014,4 hPa 0,0 mm 1,6 km/h (1 Bft) N-NW 327 ° 0 min 0,000 mm 0,0 UV-I 0 W/m² 8,8 °C 9,6 °C 3,2 km/h (1 Bft)
02.09.2017 04:39 9,5 °C 9,6 °C 95 % 1014,4 hPa 0,0 mm 2,9 km/h (1 Bft) N-NW 341 ° 0 min 0,000 mm 0,0 UV-I 0 W/m² 8,7 °C 9,5 °C 4,8 km/h (1 Bft)
02.09.2017 04:40 9,6 °C 9,6 °C 95 % 1014,3 hPa 0,2 mm 1,6 km/h (1 Bft) N-NW 341 ° 0 min 0,000 mm 0,0 UV-I 0 W/m² 8,8 °C 9,6 °C 3,2 km/h (1 Bft)
02.09.2017 04:41 9,5 °C 9,6 °C 95 % 1014,4 hPa 0,0 mm 0,8 km/h (0 Bft) N-NW 341 ° 0 min 0,000 mm 0,0 UV-I 0 W/m² 8,7 °C 9,5 °C 1,6 km/h (1 Bft)
02.09.2017 04:42 9,5 °C 9,6 °C 95 % 1014,3 hPa 0,0 mm 0,8 km/h (0 Bft) N-NW 340 ° 0 min 0,000 mm 0,0 UV-I 0 W/m² 8,7 °C 9,5 °C 1,6 km/h (1 Bft)
02.09.2017 04:43 9,5 °C 9,6 °C 95 % 1014,3 hPa 0,0 mm 1,8 km/h (1 Bft) NW 318 ° 0 min 0,000 mm 0,0 UV-I 0 W/m² 8,7 °C 9,5 °C 4,8 km/h (1 Bft)
02.09.2017 04:44 9,5 °C 9,6 °C 95 % 1014,3 hPa 0,2 mm 2,3 km/h (1 Bft) NW 318 ° 0 min 0,000 mm 0,0 UV-I 0 W/m² 8,7 °C 9,5 °C 3,2 km/h (1 Bft)
02.09.2017 04:45 9,6 °C 9,6 °C 95 % 1014,3 hPa 0,0 mm 5,6 km/h (1 Bft) NW 317 ° 0 min 0,000 mm 0,0 UV-I 0 W/m² 8,8 °C 9,1 °C 8,0 km/h (2 Bft)
02.09.2017 04:46 9,5 °C 9,6 °C 95 % 1014,3 hPa 0,0 mm 2,9 km/h (1 Bft) N-NW 331 ° 0 min 0,000 mm 0,0 UV-I 0 W/m² 8,7 °C 9,5 °C 4,8 km/h (1 Bft)
02.09.2017 04:47 9,5 °C 9,6 °C 95 % 1014,2 hPa 0,2 mm 1,1 km/h (1 Bft) N-NW 331 ° 0 min 0,000 mm 0,0 UV-I 0 W/m² 8,7 °C 9,5 °C 4,8 km/h (1 Bft)
02.09.2017 04:48 9,6 °C 9,6 °C 95 % 1014,2 hPa 0,0 mm 2,3 km/h (1 Bft) N-NW 331 ° 0 min 0,000 mm 0,0 UV-I 0 W/m² 8,8 °C 9,6 °C 3,2 km/h (1 Bft)
02.09.2017 04:49 9,6 °C 9,6 °C 95 % 1014,2 hPa 0,0 mm 2,4 km/h (1 Bft) N-NW 331 ° 0 min 0,000 mm 0,0 UV-I 0 W/m² 8,8 °C 9,6 °C 4,8 km/h (1 Bft)
02.09.2017 04:50 9,6 °C 9,6 °C 95 % 1014,2 hPa 0,2 mm 3,4 km/h (1 Bft) NW 321 ° 0 min 0,000 mm 0,0 UV-I 0 W/m² 8,8 °C 9,6 °C 4,8 km/h (1 Bft)
02.09.2017 04:51 9,6 °C 9,6 °C 95 % 1014,2 hPa 0,0 mm 3,4 km/h (1 Bft) NW 305 ° 0 min 0,000 mm 0,0 UV-I 0 W/m² 8,8 °C 9,6 °C 4,8 km/h (1 Bft)
02.09.2017 04:52 9,5 °C 9,6 °C 95 % 1014,2 hPa 0,2 mm 2,2 km/h (1 Bft) NW 305 ° 0 min 0,000 mm 0,0 UV-I 0 W/m² 8,7 °C 9,5 °C 3,2 km/h (1 Bft)
02.09.2017 04:53 9,5 °C 9,6 °C 95 % 1014,1 hPa 0,0 mm 0,9 km/h (0 Bft) NW 305 ° 0 min 0,000 mm 0,0 UV-I 0 W/m² 8,7 °C 9,5 °C 1,6 km/h (1 Bft)
02.09.2017 04:54 9,5 °C 9,5 °C 95 % 1014,2 hPa 0,2 mm 1,6 km/h (1 Bft) NW 313 ° 0 min 0,000 mm 0,0 UV-I 0 W/m² 8,7 °C 9,5 °C 4,8 km/h (1 Bft)
02.09.2017 04:55 9,5 °C 9,5 °C 95 % 1014,1 hPa 0,0 mm 3,1 km/h (1 Bft) NW 313 ° 0 min 0,000 mm 0,0 UV-I 0 W/m² 8,7 °C 9,5 °C 4,8 km/h (1 Bft)
02.09.2017 04:56 9,5 °C 9,6 °C 95 % 1014,1 hPa 0,2 mm 4,6 km/h (1 Bft) N-NW 343 ° 0 min 0,000 mm 0,0 UV-I 0 W/m² 8,7 °C 9,3 °C 6,4 km/h (2 Bft)
02.09.2017 04:57 9,5 °C 9,5 °C 95 % 1014,1 hPa 0,0 mm 2,3 km/h (1 Bft) N-NW 343 ° 0 min 0,000 mm 0,0 UV-I 0 W/m² 8,7 °C 9,5 °C 4,8 km/h (1 Bft)
02.09.2017 04:58 9,5 °C 9,6 °C 95 % 1014,1 hPa 0,0 mm 0,7 km/h (0 Bft) N-NW 343 ° 0 min 0,000 mm 0,0 UV-I 0 W/m² 8,7 °C 9,5 °C 3,2 km/h (1 Bft)
02.09.2017 04:59 9,5 °C 9,5 °C 96 % 1014,1 hPa 0,2 mm 2,3 km/h (1 Bft) NW 311 ° 0 min 0,000 mm 0,0 UV-I 0 W/m² 8,9 °C 9,5 °C 3,2 km/h (1 Bft)
02.09.2017 05:00 9,6 °C 9,6 °C 95 % 1014,2 hPa 0,0 mm 0,1 km/h (0 Bft) NW 311 ° 0 min 0,000 mm 0,0 UV-I 0 W/m² 8,8 °C 9,6 °C 1,6 km/h (1 Bft)
02.09.2017 05:01 9,5 °C 9,6 °C 96 % 1014,2 hPa 0,0 mm 2,4 km/h (1 Bft) W-NW 300 ° 0 min 0,000 mm 0,0 UV-I 0 W/m² 8,9 °C 9,5 °C 3,2 km/h (1 Bft)
02.09.2017 05:02 9,5 °C 9,6 °C 95 % 1014,1 hPa 0,2 mm 1,8 km/h (1 Bft) W-NW 300 ° 0 min 0,000 mm 0,0 UV-I 0 W/m² 8,7 °C 9,5 °C 3,2 km/h (1 Bft)
02.09.2017 05:03 9,5 °C 9,5 °C 95 % 1014,2 hPa 0,0 mm 3,9 km/h (1 Bft) NW 325 ° 0 min 0,000 mm 0,0 UV-I 0 W/m² 8,7 °C 9,5 °C 4,8 km/h (1 Bft)
02.09.2017 05:04 9,5 °C 9,5 °C 95 % 1014,2 hPa 0,0 mm 3,2 km/h (1 Bft) NW 325 ° 0 min 0,000 mm 0,0 UV-I 0 W/m² 8,7 °C 9,5 °C 4,8 km/h (1 Bft)
02.09.2017 05:05 9,4 °C 9,5 °C 95 % 1014,2 hPa 0,0 mm 2,7 km/h (1 Bft) NW 325 ° 0 min 0,000 mm 0,0 UV-I 0 W/m² 8,6 °C 9,4 °C 4,8 km/h (1 Bft)
02.09.2017 05:06 9,5 °C 9,5 °C 95 % 1014,2 hPa 0,2 mm 2,1 km/h (1 Bft) NW 325 ° 0 min 0,000 mm 0,0 UV-I 0 W/m² 8,7 °C 9,5 °C 3,2 km/h (1 Bft)
02.09.2017 05:07 9,5 °C 9,5 °C 96 % 1014,2 hPa 0,0 mm 0,5 km/h (0 Bft) NW 325 ° 0 min 0,000 mm 0,0 UV-I 0 W/m² 8,9 °C 9,5 °C 1,6 km/h (1 Bft)
02.09.2017 05:08 9,5 °C 9,5 °C 96 % 1014,2 hPa 0,0 mm 1,9 km/h (1 Bft) NW 325 ° 0 min 0,000 mm 0,0 UV-I 0 W/m² 8,9 °C 9,5 °C 3,2 km/h (1 Bft)
02.09.2017 05:09 9,5 °C 9,5 °C 96 % 1014,2 hPa 0,2 mm 0,0 km/h (0 Bft) NW 325 ° 0 min 0,000 mm 0,0 UV-I 0 W/m² 8,9 °C 9,5 °C 0,0 km/h (0 Bft)
02.09.2017 05:10 9,5 °C 9,5 °C 96 % 1014,1 hPa 0,0 mm 0,0 km/h (0 Bft) NW 325 ° 0 min 0,000 mm 0,0 UV-I 0 W/m² 8,9 °C 9,5 °C 0,0 km/h (0 Bft)
02.09.2017 05:11 9,5 °C 9,5 °C 96 % 1014,2 hPa 0,0 mm 0,0 km/h (0 Bft) NW 325 ° 0 min 0,000 mm 0,0 UV-I 0 W/m² 8,9 °C 9,5 °C 0,0 km/h (0 Bft)
02.09.2017 05:12 9,6 °C 9,6 °C 96 % 1014,1 hPa 0,2 mm 0,0 km/h (0 Bft) NW 325 ° 0 min 0,000 mm 0,0 UV-I 0 W/m² 9,0 °C 9,6 °C 0,0 km/h (0 Bft)
02.09.2017 05:13 9,6 °C 9,6 °C 96 % 1014,2 hPa 0,0 mm 0,0 km/h (0 Bft) NW 325 ° 0 min 0,000 mm 0,0 UV-I 0 W/m² 9,0 °C 9,6 °C 0,0 km/h (0 Bft)
02.09.2017 05:14 9,6 °C 9,6 °C 96 % 1014,2 hPa 0,0 mm 0,3 km/h (0 Bft) NW 325 ° 0 min 0,000 mm 0,0 UV-I 0 W/m² 9,0 °C 9,6 °C 1,6 km/h (1 Bft)
02.09.2017 05:15 9,6 °C 9,6 °C 96 % 1014,1 hPa 0,2 mm 0,4 km/h (0 Bft) N-NW 336 ° 0 min 0,000 mm 0,0 UV-I 0 W/m² 9,0 °C 9,6 °C 1,6 km/h (1 Bft)
02.09.2017 05:16 9,6 °C 9,6 °C 96 % 1014,2 hPa 0,0 mm 2,1 km/h (1 Bft) N-NW 336 ° 0 min 0,000 mm 0,0 UV-I 0 W/m² 9,0 °C 9,6 °C 3,2 km/h (1 Bft)
02.09.2017 05:17 9,6 °C 9,6 °C 96 % 1014,2 hPa 0,0 mm 2,5 km/h (1 Bft) NW 316 ° 0 min 0,000 mm 0,0 UV-I 0 W/m² 9,0 °C 9,6 °C 4,8 km/h (1 Bft)
02.09.2017 05:18 9,6 °C 9,6 °C 96 % 1014,2 hPa 0,0 mm 2,7 km/h (1 Bft) NW 321 ° 0 min 0,000 mm 0,0 UV-I 0 W/m² 9,0 °C 9,6 °C 4,8 km/h (1 Bft)
02.09.2017 05:19 9,6 °C 9,6 °C 96 % 1014,2 hPa 0,2 mm 3,0 km/h (1 Bft) NW 321 ° 0 min 0,000 mm 0,0 UV-I 0 W/m² 9,0 °C 9,6 °C 4,8 km/h (1 Bft)
02.09.2017 05:20 9,6 °C 9,6 °C 96 % 1014,2 hPa 0,0 mm 2,5 km/h (1 Bft) N-NW 327 ° 0 min 0,000 mm 0,0 UV-I 0 W/m² 9,0 °C 9,6 °C 4,8 km/h (1 Bft)
02.09.2017 05:21 9,6 °C 9,6 °C 96 % 1014,2 hPa 0,0 mm 2,6 km/h (1 Bft) NW 315 ° 0 min 0,000 mm 0,0 UV-I 0 W/m² 9,0 °C 9,6 °C 4,8 km/h (1 Bft)
02.09.2017 05:22 9,6 °C 9,6 °C 96 % 1014,2 hPa 0,2 mm 4,3 km/h (1 Bft) N 351 ° 0 min 0,000 mm 0,0 UV-I 0 W/m² 9,0 °C 9,6 °C 6,4 km/h (2 Bft)
02.09.2017 05:23 9,6 °C 9,6 °C 96 % 1014,2 hPa 0,0 mm 3,6 km/h (1 Bft) N-NW 348 ° 0 min 0,000 mm 0,0 UV-I 0 W/m² 9,0 °C 9,6 °C 4,8 km/h (1 Bft)
02.09.2017 05:24 9,5 °C 9,6 °C 96 % 1014,2 hPa 0,0 mm 1,6 km/h (1 Bft) N-NW 347 ° 0 min 0,000 mm 0,0 UV-I 0 W/m² 8,9 °C 9,5 °C 3,2 km/h (1 Bft)
02.09.2017 05:25 9,6 °C 9,6 °C 96 % 1014,2 hPa 0,2 mm 1,8 km/h (1 Bft) N-NW 347 ° 0 min 0,000 mm 0,0 UV-I 0 W/m² 9,0 °C 9,6 °C 3,2 km/h (1 Bft)
02.09.2017 05:26 9,6 °C 9,6 °C 96 % 1014,1 hPa 0,0 mm 2,3 km/h (1 Bft) N-NW 347 ° 0 min 0,000 mm 0,0 UV-I 0 W/m² 9,0 °C 9,6 °C 4,8 km/h (1 Bft)
02.09.2017 05:27 9,6 °C 9,6 °C 96 % 1014,1 hPa 0,0 mm 3,0 km/h (1 Bft) N-NW 347 ° 0 min 0,000 mm 0,0 UV-I 0 W/m² 9,0 °C 9,6 °C 4,8 km/h (1 Bft)
02.09.2017 05:28 9,6 °C 9,6 °C 96 % 1014,1 hPa 0,2 mm 3,6 km/h (1 Bft) N 5 ° 0 min 0,000 mm 0,0 UV-I 0 W/m² 9,0 °C 9,6 °C 6,4 km/h (2 Bft)
02.09.2017 05:29 9,6 °C 9,6 °C 96 % 1014,1 hPa 0,0 mm 2,3 km/h (1 Bft) N 11 ° 0 min 0,000 mm 0,0 UV-I 0 W/m² 9,0 °C 9,6 °C 4,8 km/h (1 Bft)
02.09.2017 05:30 9,6 °C 9,6 °C 96 % 1014,1 hPa 0,0 mm 1,3 km/h (1 Bft) N 11 ° 0 min 0,000 mm 0,0 UV-I 0 W/m² 9,0 °C 9,6 °C 3,2 km/h (1 Bft)
02.09.2017 05:31 9,6 °C 9,6 °C 96 % 1014,1 hPa 0,0 mm 2,4 km/h (1 Bft) N-NW 340 ° 0 min 0,000 mm 0,0 UV-I 0 W/m² 9,0 °C 9,6 °C 4,8 km/h (1 Bft)
02.09.2017 05:32 9,7 °C 9,7 °C 96 % 1014,1 hPa 0,0 mm 4,4 km/h (1 Bft) NW 325 ° 0 min 0,000 mm 0,0 UV-I 0 W/m² 9,1 °C 9,7 °C 6,4 km/h (2 Bft)
02.09.2017 05:33 9,7 °C 9,7 °C 96 % 1014,1 hPa 0,0 mm 3,9 km/h (1 Bft) NW 323 ° 0 min 0,000 mm 0,0 UV-I 0 W/m² 9,1 °C 9,7 °C 6,4 km/h (2 Bft)
02.09.2017 05:34 9,7 °C 9,7 °C 96 % 1014,1 hPa 0,0 mm 4,0 km/h (1 Bft) N-NW 329 ° 0 min 0,000 mm 0,0 UV-I 0 W/m² 9,1 °C 9,7 °C 4,8 km/h (1 Bft)
02.09.2017 05:35 9,7 °C 9,7 °C 96 % 1014,1 hPa 0,2 mm 3,4 km/h (1 Bft) N-NW 335 ° 0 min 0,000 mm 0,0 UV-I 0 W/m² 9,1 °C 9,7 °C 4,8 km/h (1 Bft)
02.09.2017 05:36 9,7 °C 9,7 °C 96 % 1014,1 hPa 0,0 mm 2,4 km/h (1 Bft) N-NW 335 ° 0 min 0,000 mm 0,0 UV-I 0 W/m² 9,1 °C 9,7 °C 4,8 km/h (1 Bft)
02.09.2017 05:37 9,7 °C 9,7 °C 96 % 1014,0 hPa 0,0 mm 2,6 km/h (1 Bft) W-NW 301 ° 0 min 0,000 mm 0,0 UV-I 0 W/m² 9,1 °C 9,7 °C 3,2 km/h (1 Bft)
02.09.2017 05:38 9,7 °C 9,7 °C 96 % 1014,1 hPa 0,0 mm 4,9 km/h (1 Bft) N-NW 339 ° 0 min 0,000 mm 0,0 UV-I 0 W/m² 9,1 °C 9,4 °C 6,4 km/h (2 Bft)
02.09.2017 05:39 9,7 °C 9,7 °C 96 % 1014,0 hPa 0,0 mm 1,9 km/h (1 Bft) N-NW 339 ° 0 min 0,000 mm 0,0 UV-I 0 W/m² 9,1 °C 9,7 °C 3,2 km/h (1 Bft)
02.09.2017 05:40 9,6 °C 9,7 °C 96 % 1014,1 hPa 0,0 mm 1,6 km/h (1 Bft) N-NW 339 ° 0 min 0,000 mm 0,0 UV-I 0 W/m² 9,0 °C 9,6 °C 3,2 km/h (1 Bft)
02.09.2017 05:41 9,6 °C 9,7 °C 96 % 1014,1 hPa 0,0 mm 4,0 km/h (1 Bft) NW 311 ° 0 min 0,000 mm 0,0 UV-I 0 W/m² 9,0 °C 9,6 °C 6,4 km/h (2 Bft)
02.09.2017 05:42 9,6 °C 9,6 °C 96 % 1014,0 hPa 0,2 mm 3,7 km/h (1 Bft) NW 309 ° 0 min 0,000 mm 0,0 UV-I 0 W/m² 9,0 °C 9,6 °C 4,8 km/h (1 Bft)
02.09.2017 05:43 9,6 °C 9,7 °C 96 % 1014,1 hPa 0,0 mm 6,4 km/h (2 Bft) NW 323 ° 0 min 0,000 mm 0,0 UV-I 0 W/m² 9,0 °C 8,9 °C 8,0 km/h (2 Bft)
02.09.2017 05:44 9,6 °C 9,6 °C 96 % 1014,1 hPa 0,0 mm 5,0 km/h (1 Bft) N-NO 19 ° 0 min 0,000 mm 0,0 UV-I 0 W/m² 9,0 °C 9,3 °C 8,0 km/h (2 Bft)
02.09.2017 05:45 9,6 °C 9,6 °C 96 % 1014,0 hPa 0,0 mm 5,6 km/h (1 Bft) N-NW 335 ° 0 min 0,000 mm 0,0 UV-I 0 W/m² 9,0 °C 9,1 °C 9,7 km/h (2 Bft)
02.09.2017 05:46 9,6 °C 9,6 °C 96 % 1014,0 hPa 0,0 mm 3,4 km/h (1 Bft) W-NW 299 ° 0 min 0,000 mm 0,0 UV-I 0 W/m² 9,0 °C 9,6 °C 4,8 km/h (1 Bft)
02.09.2017 05:47 9,6 °C 9,6 °C 96 % 1014,1 hPa 0,0 mm 5,4 km/h (1 Bft) W-NW 292 ° 0 min 0,000 mm 0,0 UV-I 0 W/m² 9,0 °C 9,2 °C 8,0 km/h (2 Bft)
02.09.2017 05:48 9,6 °C 9,6 °C 96 % 1014,0 hPa 0,2 mm 4,8 km/h (1 Bft) N-NW 333 ° 0 min 0,000 mm 0,0 UV-I 0 W/m² 9,0 °C 9,4 °C 9,7 km/h (2 Bft)
02.09.2017 05:49 9,6 °C 9,6 °C 96 % 1014,1 hPa 0,0 mm 6,3 km/h (2 Bft) NW 318 ° 0 min 0,000 mm 0,0 UV-I 0 W/m² 9,0 °C 8,9 °C 9,7 km/h (2 Bft)
02.09.2017 05:50 9,6 °C 9,6 °C 96 % 1014,1 hPa 0,0 mm 7,3 km/h (2 Bft) NW 324 ° 0 min 0,000 mm 0,0 UV-I 0 W/m² 9,0 °C 8,7 °C 9,7 km/h (2 Bft)
02.09.2017 05:51 9,6 °C 9,6 °C 96 % 1014,1 hPa 0,0 mm 5,6 km/h (1 Bft) N-NW 348 ° 0 min 0,000 mm 0,0 UV-I 0 W/m² 9,0 °C 9,1 °C 9,7 km/h (2 Bft)
02.09.2017 05:52 9,6 °C 9,6 °C 96 % 1014,1 hPa 0,0 mm 4,5 km/h (1 Bft) N-NW 331 ° 0 min 0,000 mm 0,0 UV-I 0 W/m² 9,0 °C 9,6 °C 8,0 km/h (2 Bft)
02.09.2017 05:53 9,6 °C 9,6 °C 96 % 1014,1 hPa 0,2 mm 2,3 km/h (1 Bft) N-NW 329 ° 0 min 0,000 mm 0,0 UV-I 0 W/m² 9,0 °C 9,6 °C 3,2 km/h (1 Bft)
02.09.2017 05:54 9,6 °C 9,6 °C 96 % 1014,1 hPa 0,0 mm 5,1 km/h (1 Bft) N-NO 14 ° 0 min 0,000 mm 0,0 UV-I 0 W/m² 9,0 °C 9,3 °C 6,4 km/h (2 Bft)
02.09.2017 05:55 9,6 °C 9,6 °C 96 % 1014,1 hPa 0,0 mm 3,6 km/h (1 Bft) N-NW 340 ° 0 min 0,000 mm 0,0 UV-I 0 W/m² 9,0 °C 9,6 °C 4,8 km/h (1 Bft)
02.09.2017 05:56 9,6 °C 9,6 °C 96 % 1014,1 hPa 0,0 mm 1,9 km/h (1 Bft) N-NW 340 ° 0 min 0,000 mm 0,0 UV-I 0 W/m² 9,0 °C 9,6 °C 3,2 km/h (1 Bft)
02.09.2017 05:57 9,6 °C 9,6 °C 96 % 1014,1 hPa 0,0 mm 3,6 km/h (1 Bft) NW 320 ° 0 min 0,000 mm 0,0 UV-I 0 W/m² 9,0 °C 9,6 °C 6,4 km/h (2 Bft)
02.09.2017 05:58 9,6 °C 9,6 °C 96 % 1014,1 hPa 0,0 mm 6,3 km/h (2 Bft) W 281 ° 0 min 0,000 mm 0,0 UV-I 0 W/m² 9,0 °C 8,9 °C 9,7 km/h (2 Bft)
02.09.2017 05:59 9,6 °C 9,6 °C 96 % 1014,1 hPa 0,2 mm 6,2 km/h (2 Bft) NW 315 ° 0 min 0,000 mm 0,0 UV-I 0 W/m² 9,0 °C 9,0 °C 11,3 km/h (2 Bft)
02.09.2017 06:00 9,6 °C 9,6 °C 96 % 1014,2 hPa 0,0 mm 5,2 km/h (1 Bft) N-NW 337 ° 0 min 0,000 mm 0,0 UV-I 0 W/m² 9,0 °C 9,2 °C 9,7 km/h (2 Bft)
02.09.2017 06:01 9,6 °C 9,6 °C 96 % 1014,2 hPa 0,0 mm 5,0 km/h (1 Bft) N-NW 333 ° 0 min 0,000 mm 0,0 UV-I 0 W/m² 9,0 °C 9,3 °C 9,7 km/h (2 Bft)
02.09.2017 06:02 9,6 °C 9,6 °C 96 % 1014,1 hPa 0,0 mm 3,3 km/h (1 Bft) NW 317 ° 0 min 0,000 mm 0,0 UV-I 0 W/m² 9,0 °C 9,6 °C 6,4 km/h (2 Bft)
02.09.2017 06:03 9,6 °C 9,6 °C 96 % 1014,2 hPa 0,2 mm 5,7 km/h (1 Bft) NW 317 ° 0 min 0,000 mm 0,0 UV-I 0 W/m² 9,0 °C 9,1 °C 8,0 km/h (2 Bft)
02.09.2017 06:04 9,6 °C 9,6 °C 96 % 1014,2 hPa 0,0 mm 6,0 km/h (2 Bft) N-NW 336 ° 0 min 0,000 mm 0,0 UV-I 0 W/m² 9,0 °C 9,0 °C 9,7 km/h (2 Bft)
02.09.2017 06:05 9,6 °C 9,6 °C 96 % 1014,2 hPa 0,0 mm 5,0 km/h (1 Bft) NW 323 ° 0 min 0,000 mm 0,0 UV-I 0 W/m² 9,0 °C 9,3 °C 6,4 km/h (2 Bft)
02.09.2017 06:06 9,5 °C 9,6 °C 96 % 1014,2 hPa 0,2 mm 3,9 km/h (1 Bft) N 355 ° 0 min 0,000 mm 0,0 UV-I 0 W/m² 8,9 °C 9,5 °C 4,8 km/h (1 Bft)
02.09.2017 06:07 9,5 °C 9,6 °C 96 % 1014,2 hPa 0,0 mm 4,4 km/h (1 Bft) N 355 ° 0 min 0,000 mm 0,0 UV-I 0 W/m² 8,9 °C 9,5 °C 6,4 km/h (2 Bft)
02.09.2017 06:08 9,6 °C 9,6 °C 96 % 1014,2 hPa 0,0 mm 4,5 km/h (1 Bft) N 5 ° 0 min 0,000 mm 0,0 UV-I 0 W/m² 9,0 °C 9,6 °C 6,4 km/h (2 Bft)
02.09.2017 06:09 9,5 °C 9,6 °C 96 % 1014,2 hPa 0,2 mm 1,5 km/h (1 Bft) N 5 ° 0 min 0,000 mm 0,0 UV-I 0 W/m² 8,9 °C 9,5 °C 3,2 km/h (1 Bft)
02.09.2017 06:10 9,5 °C 9,5 °C 96 % 1014,3 hPa 0,0 mm 4,3 km/h (1 Bft) NW 313 ° 0 min 0,000 mm 0,0 UV-I 0 W/m² 8,9 °C 9,5 °C 6,4 km/h (2 Bft)
02.09.2017 06:11 9,4 °C 9,5 °C 96 % 1014,3 hPa 0,0 mm 6,2 km/h (2 Bft) N 360 ° 0 min 0,000 mm 0,0 UV-I 0 W/m² 8,8 °C 8,7 °C 11,3 km/h (2 Bft)
02.09.2017 06:12 9,4 °C 9,5 °C 96 % 1014,3 hPa 0,2 mm 4,7 km/h (1 Bft) N 355 ° 0 min 0,000 mm 0,0 UV-I 0 W/m² 8,8 °C 9,2 °C 8,0 km/h (2 Bft)
02.09.2017 06:13 9,4 °C 9,4 °C 96 % 1014,3 hPa 0,0 mm 2,4 km/h (1 Bft) NW 307 ° 0 min 0,000 mm 0,0 UV-I 0 W/m² 8,8 °C 9,4 °C 4,8 km/h (1 Bft)
02.09.2017 06:14 9,4 °C 9,4 °C 96 % 1014,3 hPa 0,0 mm 3,6 km/h (1 Bft) N 5 ° 0 min 0,000 mm 0,0 UV-I 0 W/m² 8,8 °C 9,4 °C 8,0 km/h (2 Bft)
02.09.2017 06:15 9,4 °C 9,4 °C 96 % 1014,3 hPa 0,2 mm 5,7 km/h (1 Bft) NW 322 ° 0 min 0,000 mm 0,0 UV-I 0 W/m² 8,8 °C 8,9 °C 6,4 km/h (2 Bft)
02.09.2017 06:16 9,4 °C 9,4 °C 96 % 1014,3 hPa 0,0 mm 6,0 km/h (2 Bft) N-NW 330 ° 0 min 0,000 mm 0,0 UV-I 0 W/m² 8,8 °C 8,8 °C 9,7 km/h (2 Bft)
02.09.2017 06:17 9,4 °C 9,4 °C 96 % 1014,3 hPa 0,0 mm 2,6 km/h (1 Bft) N-NO 22 ° 0 min 0,000 mm 0,0 UV-I 0 W/m² 8,8 °C 9,4 °C 4,8 km/h (1 Bft)
02.09.2017 06:18 9,4 °C 9,4 °C 96 % 1014,3 hPa 0,0 mm 8,0 km/h (2 Bft) NW 310 ° 0 min 0,000 mm 0,0 UV-I 0 W/m² 8,8 °C 8,3 °C 12,9 km/h (3 Bft)
02.09.2017 06:19 9,4 °C 9,4 °C 95 % 1014,3 hPa 0,2 mm 9,9 km/h (2 Bft) N-NW 338 ° 0 min 0,000 mm 0,0 UV-I 0 W/m² 8,6 °C 7,9 °C 14,5 km/h (3 Bft)
02.09.2017 06:20 9,4 °C 9,4 °C 95 % 1014,4 hPa 0,0 mm 5,4 km/h (1 Bft) NW 313 ° 0 min 0,000 mm 0,0 UV-I 0 W/m² 8,6 °C 9,0 °C 8,0 km/h (2 Bft)
02.09.2017 06:21 9,4 °C 9,4 °C 95 % 1014,3 hPa 0,0 mm 2,4 km/h (1 Bft) NW 325 ° 0 min 0,000 mm 0,0 UV-I 0 W/m² 8,6 °C 9,4 °C 4,8 km/h (1 Bft)
02.09.2017 06:22 9,4 °C 9,4 °C 95 % 1014,4 hPa 0,0 mm 10,9 km/h (2 Bft) NW 322 ° 0 min 0,000 mm 0,0 UV-I 0 W/m² 8,6 °C 7,8 °C 14,5 km/h (3 Bft)
02.09.2017 06:23 9,4 °C 9,4 °C 95 % 1014,4 hPa 0,2 mm 5,2 km/h (1 Bft) N-NW 348 ° 0 min 0,000 mm 0,0 UV-I 0 W/m² 8,6 °C 9,0 °C 9,7 km/h (2 Bft)
02.09.2017 06:24 9,4 °C 9,4 °C 95 % 1014,4 hPa 0,0 mm 5,7 km/h (1 Bft) N-NO 17 ° 0 min 0,000 mm 0,0 UV-I 0 W/m² 8,6 °C 8,9 °C 11,3 km/h (2 Bft)
02.09.2017 06:25 9,4 °C 9,4 °C 95 % 1014,4 hPa 0,0 mm 4,1 km/h (1 Bft) NW 307 ° 0 min 0,000 mm 0,0 UV-I 0 W/m² 8,6 °C 9,4 °C 6,4 km/h (2 Bft)
02.09.2017 06:26 9,3 °C 9,4 °C 95 % 1014,4 hPa 0,2 mm 4,7 km/h (1 Bft) NW 304 ° 0 min 0,000 mm 0,0 UV-I 0 W/m² 8,5 °C 9,1 °C 9,7 km/h (2 Bft)
02.09.2017 06:27 9,4 °C 9,4 °C 95 % 1014,4 hPa 0,0 mm 6,1 km/h (2 Bft) N 355 ° 0 min 0,000 mm 0,0 UV-I 0 W/m² 8,6 °C 8,8 °C 11,3 km/h (2 Bft)
02.09.2017 06:28 9,4 °C 9,4 °C 95 % 1014,4 hPa 0,0 mm 2,9 km/h (1 Bft) N-NO 13 ° 0 min 0,000 mm 0,0 UV-I 0 W/m² 8,6 °C 9,4 °C 4,8 km/h (1 Bft)
02.09.2017 06:29 9,3 °C 9,4 °C 95 % 1014,4 hPa 0,2 mm 2,9 km/h (1 Bft) N-NW 329 ° 0 min 0,000 mm 0,0 UV-I 0 W/m² 8,5 °C 9,3 °C 4,8 km/h (1 Bft)
02.09.2017 06:30 9,3 °C 9,3 °C 95 % 1014,5 hPa 0,0 mm 3,4 km/h (1 Bft) N 350 ° 0 min 0,000 mm 0,0 UV-I 0 W/m² 8,5 °C 9,3 °C 4,8 km/h (1 Bft)
02.09.2017 06:31 9,3 °C 9,4 °C 95 % 1014,5 hPa 0,0 mm 0,8 km/h (0 Bft) N-NW 344 ° 0 min 0,000 mm 0,0 UV-I 0 W/m² 8,5 °C 9,3 °C 3,2 km/h (1 Bft)
02.09.2017 06:32 9,3 °C 9,4 °C 95 % 1014,5 hPa 0,2 mm 3,4 km/h (1 Bft) N-NW 343 ° 0 min 0,000 mm 0,0 UV-I 0 W/m² 8,5 °C 9,3 °C 8,0 km/h (2 Bft)
02.09.2017 06:33 9,3 °C 9,4 °C 95 % 1014,4 hPa 0,0 mm 8,0 km/h (2 Bft) N-NO 15 ° 0 min 0,000 mm 0,0 UV-I 0 W/m² 8,5 °C 8,2 °C 11,3 km/h (2 Bft)
02.09.2017 06:34 9,3 °C 9,3 °C 95 % 1014,5 hPa 0,0 mm 6,0 km/h (2 Bft) NW 306 ° 0 min 0,000 mm 0,0 UV-I 0 W/m² 8,5 °C 8,7 °C 8,0 km/h (2 Bft)
02.09.2017 06:35 9,3 °C 9,3 °C 95 % 1014,5 hPa 0,2 mm 6,6 km/h (2 Bft) NW 306 ° 0 min 0,000 mm 0,0 UV-I 0 W/m² 8,5 °C 8,5 °C 11,3 km/h (2 Bft)
02.09.2017 06:36 9,3 °C 9,3 °C 95 % 1014,5 hPa 0,0 mm 3,1 km/h (1 Bft) N 360 ° 0 min 0,000 mm 0,0 UV-I 0 W/m² 8,5 °C 9,3 °C 8,0 km/h (2 Bft)
02.09.2017 06:37 9,3 °C 9,3 °C 95 % 1014,5 hPa 0,0 mm 2,9 km/h (1 Bft) NW 325 ° 0 min 0,000 mm 0,0 UV-I 0 W/m² 8,5 °C 9,3 °C 4,8 km/h (1 Bft)
02.09.2017 06:38 9,3 °C 9,3 °C 95 % 1014,5 hPa 0,0 mm 5,3 km/h (1 Bft) N-NO 13 ° 0 min 0,000 mm 0,0 UV-I 0 W/m² 8,5 °C 8,9 °C 9,7 km/h (2 Bft)
02.09.2017 06:39 9,3 °C 9,3 °C 95 % 1014,5 hPa 0,2 mm 5,6 km/h (1 Bft) N 355 ° 0 min 0,000 mm 0,0 UV-I 0 W/m² 8,5 °C 8,8 °C 8,0 km/h (2 Bft)
02.09.2017 06:40 9,3 °C 9,3 °C 95 % 1014,5 hPa 0,0 mm 3,9 km/h (1 Bft) N 350 ° 0 min 0,000 mm 0,0 UV-I 0 W/m² 8,5 °C 9,3 °C 6,4 km/h (2 Bft)
02.09.2017 06:41 9,2 °C 9,3 °C 95 % 1014,5 hPa 0,0 mm 4,4 km/h (1 Bft) N 355 ° 0 min 0,000 mm 0,0 UV-I 0 W/m² 8,4 °C 9,2 °C 6,4 km/h (2 Bft)
02.09.2017 06:42 9,3 °C 9,3 °C 95 % 1014,5 hPa 0,2 mm 3,7 km/h (1 Bft) N-NW 331 ° 0 min 0,000 mm 0,0 UV-I 0 W/m² 8,5 °C 9,3 °C 8,0 km/h (2 Bft)
02.09.2017 06:43 9,3 °C 9,3 °C 95 % 1014,5 hPa 0,0 mm 5,2 km/h (1 Bft) N 355 ° 0 min 0,000 mm 0,0 UV-I 0 W/m² 8,5 °C 8,9 °C 9,7 km/h (2 Bft)
02.09.2017 06:44 9,3 °C 9,3 °C 95 % 1014,6 hPa 0,0 mm 6,4 km/h (2 Bft) N-NW 344 ° 0 min 0,000 mm 0,0 UV-I 0 W/m² 8,5 °C 8,6 °C 14,5 km/h (3 Bft)
02.09.2017 06:45 9,2 °C 9,3 °C 95 % 1014,6 hPa 0,0 mm 7,2 km/h (2 Bft) N-NW 337 ° 0 min 0,000 mm 0,0 UV-I 0 W/m² 8,4 °C 8,2 °C 9,7 km/h (2 Bft)
02.09.2017 06:46 9,2 °C 9,2 °C 95 % 1014,6 hPa 0,2 mm 7,1 km/h (2 Bft) N 360 ° 0 min 0,000 mm 0,0 UV-I 0 W/m² 8,4 °C 8,3 °C 9,7 km/h (2 Bft)
02.09.2017 06:47 9,2 °C 9,2 °C 95 % 1014,6 hPa 0,0 mm 6,4 km/h (2 Bft) N-NW 331 ° 0 min 0,000 mm 0,0 UV-I 0 W/m² 8,4 °C 8,4 °C 9,7 km/h (2 Bft)
02.09.2017 06:48 9,2 °C 9,2 °C 95 % 1014,6 hPa 0,0 mm 5,0 km/h (1 Bft) N 360 ° 0 min 0,000 mm 0,0 UV-I 0 W/m² 8,4 °C 8,8 °C 6,4 km/h (2 Bft)
02.09.2017 06:49 9,2 °C 9,2 °C 95 % 1014,6 hPa 0,0 mm 3,4 km/h (1 Bft) N 355 ° 0 min 0,000 mm 0,0 UV-I 0 W/m² 8,4 °C 9,2 °C 4,8 km/h (1 Bft)
02.09.2017 06:50 9,2 °C 9,2 °C 95 % 1014,6 hPa 0,2 mm 4,2 km/h (1 Bft) NO 38 ° 0 min 0,000 mm 0,0 UV-I 0 W/m² 8,4 °C 9,2 °C 6,4 km/h (2 Bft)
02.09.2017 06:51 9,2 °C 9,2 °C 95 % 1014,6 hPa 0,0 mm 5,0 km/h (1 Bft) NW 313 ° 0 min 0,000 mm 0,0 UV-I 0 W/m² 8,4 °C 8,8 °C 6,4 km/h (2 Bft)
02.09.2017 06:52 9,2 °C 9,2 °C 95 % 1014,6 hPa 0,0 mm 5,5 km/h (1 Bft) NW 321 ° 0 min 0,000 mm 0,0 UV-I 0 W/m² 8,4 °C 8,7 °C 8,0 km/h (2 Bft)
02.09.2017 06:53 9,2 °C 9,2 °C 95 % 1014,7 hPa 0,0 mm 7,4 km/h (2 Bft) NW 313 ° 0 min 0,000 mm 0,0 UV-I 0 W/m² 8,4 °C 8,2 °C 12,9 km/h (3 Bft)
02.09.2017 06:54 9,2 °C 9,2 °C 95 % 1014,7 hPa 0,2 mm 3,4 km/h (1 Bft) N-NW 346 ° 0 min 0,000 mm 0,0 UV-I 0 W/m² 8,4 °C 9,2 °C 8,0 km/h (2 Bft)
02.09.2017 06:55 9,2 °C 9,2 °C 95 % 1014,6 hPa 0,0 mm 2,0 km/h (1 Bft) N-NW 336 ° 0 min 0,000 mm 0,0 UV-I 0 W/m² 8,4 °C 9,2 °C 4,8 km/h (1 Bft)
02.09.2017 06:56 9,1 °C 9,2 °C 95 % 1014,6 hPa 0,0 mm 4,0 km/h (1 Bft) NW 315 ° 0 min 0,000 mm 0,0 UV-I 0 W/m² 8,3 °C 9,1 °C 8,0 km/h (2 Bft)
02.09.2017 06:57 9,1 °C 9,1 °C 95 % 1014,6 hPa 0,2 mm 5,4 km/h (1 Bft) NW 321 ° 0 min 0,000 mm 0,0 UV-I 0 W/m² 8,3 °C 8,6 °C 8,0 km/h (2 Bft)
02.09.2017 06:58 9,1 °C 9,1 °C 95 % 1014,6 hPa 0,0 mm 8,3 km/h (2 Bft) N-NW 348 ° 0 min 0,000 mm 0,0 UV-I 0 W/m² 8,3 °C 7,9 °C 12,9 km/h (3 Bft)
02.09.2017 06:59 9,1 °C 9,1 °C 95 % 1014,6 hPa 0,0 mm 7,2 km/h (2 Bft) NW 323 ° 0 min 0,000 mm 0,0 UV-I 0 W/m² 8,3 °C 8,1 °C 12,9 km/h (3 Bft)
02.09.2017 07:00 9,1 °C 9,1 °C 95 % 1014,6 hPa 0,0 mm 3,4 km/h (1 Bft) N-NW 340 ° 0 min 0,000 mm 0,0 UV-I 0 W/m² 8,3 °C 9,1 °C 4,8 km/h (1 Bft)
02.09.2017 07:01 9,1 °C 9,1 °C 95 % 1014,6 hPa 0,2 mm 6,0 km/h (2 Bft) NW 321 ° 0 min 0,000 mm 0,0 UV-I 0 W/m² 8,3 °C 8,4 °C 9,7 km/h (2 Bft)
02.09.2017 07:02 9,1 °C 9,1 °C 95 % 1014,6 hPa 0,0 mm 6,4 km/h (2 Bft) W-NW 302 ° 0 min 0,000 mm 0,0 UV-I 0 W/m² 8,3 °C 8,3 °C 9,7 km/h (2 Bft)
02.09.2017 07:03 9,1 °C 9,1 °C 95 % 1014,7 hPa 0,0 mm 3,0 km/h (1 Bft) N-NW 329 ° 0 min 0,000 mm 0,0 UV-I 0 W/m² 8,3 °C 9,1 °C 6,4 km/h (2 Bft)
02.09.2017 07:04 9,1 °C 9,1 °C 95 % 1014,6 hPa 0,2 mm 6,4 km/h (2 Bft) N-NW 335 ° 0 min 0,000 mm 0,0 UV-I 0 W/m² 8,3 °C 8,3 °C 8,0 km/h (2 Bft)
02.09.2017 07:05 9,1 °C 9,1 °C 95 % 1014,7 hPa 0,0 mm 1,5 km/h (1 Bft) N-NW 336 ° 0 min 0,000 mm 0,0 UV-I 0 W/m² 8,3 °C 9,1 °C 4,8 km/h (1 Bft)
02.09.2017 07:06 9,1 °C 9,1 °C 95 % 1014,7 hPa 0,0 mm 1,9 km/h (1 Bft) N-NW 331 ° 0 min 0,000 mm 0,0 UV-I 0 W/m² 8,3 °C 9,1 °C 3,2 km/h (1 Bft)
02.09.2017 07:07 9,1 °C 9,1 °C 95 % 1014,7 hPa 0,2 mm 7,3 km/h (2 Bft) NW 315 ° 0 min 0,000 mm 0,0 UV-I 0 W/m² 8,3 °C 8,1 °C 12,9 km/h (3 Bft)
02.09.2017 07:08 9,1 °C 9,1 °C 95 % 1014,7 hPa 0,0 mm 7,7 km/h (2 Bft) NW 321 ° 0 min 0,000 mm 0,0 UV-I 0 W/m² 8,3 °C 8,0 °C 12,9 km/h (3 Bft)
02.09.2017 07:09 9,0 °C 9,1 °C 95 % 1014,7 hPa 0,0 mm 4,0 km/h (1 Bft) NW 324 ° 0 min 0,000 mm 0,0 UV-I 0 W/m² 8,2 °C 9,0 °C 6,4 km/h (2 Bft)
02.09.2017 07:10 9,1 °C 9,1 °C 95 % 1014,7 hPa 0,2 mm 4,2 km/h (1 Bft) N 350 ° 0 min 0,000 mm 0,0 UV-I 0 W/m² 8,3 °C 9,1 °C 6,4 km/h (2 Bft)
02.09.2017 07:11 9,0 °C 9,1 °C 95 % 1014,7 hPa 0,0 mm 8,0 km/h (2 Bft) N-NW 336 ° 0 min 0,000 mm 0,0 UV-I 0 W/m² 8,2 °C 7,8 °C 14,5 km/h (3 Bft)
02.09.2017 07:12 9,0 °C 9,1 °C 95 % 1014,7 hPa 0,2 mm 5,0 km/h (1 Bft) N-NW 338 ° 0 min 0,000 mm 0,0 UV-I 0 W/m² 8,2 °C 8,6 °C 6,4 km/h (2 Bft)
02.09.2017 07:13 9,0 °C 9,1 °C 95 % 1014,7 hPa 0,0 mm 4,9 km/h (1 Bft) N-NW 340 ° 0 min 0,000 mm 0,0 UV-I 0 W/m² 8,2 °C 8,7 °C 8,0 km/h (2 Bft)
02.09.2017 07:14 9,0 °C 9,0 °C 95 % 1014,7 hPa 0,2 mm 5,6 km/h (1 Bft) N-NW 336 ° 0 min 0,000 mm 0,0 UV-I 0 W/m² 8,2 °C 8,4 °C 9,7 km/h (2 Bft)
02.09.2017 07:15 9,0 °C 9,0 °C 95 % 1014,7 hPa 0,0 mm 5,1 km/h (1 Bft) NW 324 ° 0 min 0,000 mm 0,0 UV-I 0 W/m² 8,2 °C 8,6 °C 8,0 km/h (2 Bft)
02.09.2017 07:16 9,0 °C 9,0 °C 95 % 1014,7 hPa 0,0 mm 4,1 km/h (1 Bft) NO 34 ° 0 min 0,000 mm 0,0 UV-I 0 W/m² 8,2 °C 9,0 °C 6,4 km/h (2 Bft)
02.09.2017 07:17 9,0 °C 9,0 °C 95 % 1014,7 hPa 0,2 mm 4,0 km/h (1 Bft) NW 311 ° 0 min 0,000 mm 0,0 UV-I 5 W/m² 8,2 °C 9,0 °C 4,8 km/h (1 Bft)
02.09.2017 07:18 9,0 °C 9,0 °C 95 % 1014,7 hPa 0,2 mm 3,5 km/h (1 Bft) NW 325 ° 0 min 0,000 mm 0,0 UV-I 5 W/m² 8,2 °C 9,0 °C 4,8 km/h (1 Bft)
02.09.2017 07:19 9,1 °C 9,1 °C 95 % 1014,7 hPa 0,2 mm 2,9 km/h (1 Bft) W 277 ° 0 min 0,000 mm 0,0 UV-I 5 W/m² 8,3 °C 9,1 °C 4,8 km/h (1 Bft)
02.09.2017 07:20 9,0 °C 9,1 °C 95 % 1014,7 hPa 0,0 mm 3,9 km/h (1 Bft) NW 323 ° 0 min 0,000 mm 0,0 UV-I 7 W/m² 8,2 °C 9,0 °C 8,0 km/h (2 Bft)
02.09.2017 07:21 9,0 °C 9,1 °C 95 % 1014,7 hPa 0,2 mm 3,4 km/h (1 Bft) N-NW 328 ° 0 min 0,000 mm 0,0 UV-I 7 W/m² 8,2 °C 9,0 °C 8,0 km/h (2 Bft)
02.09.2017 07:22 9,0 °C 9,0 °C 95 % 1014,7 hPa 0,2 mm 2,2 km/h (1 Bft) N-NW 327 ° 0 min 0,000 mm 0,0 UV-I 7 W/m² 8,2 °C 9,0 °C 4,8 km/h (1 Bft)
02.09.2017 07:23 9,0 °C 9,0 °C 95 % 1014,8 hPa 0,0 mm 4,1 km/h (1 Bft) NW 318 ° 0 min 0,000 mm 0,0 UV-I 7 W/m² 8,2 °C 9,0 °C 8,0 km/h (2 Bft)
02.09.2017 07:24 9,0 °C 9,0 °C 95 % 1014,8 hPa 0,2 mm 7,0 km/h (2 Bft) N-NW 338 ° 0 min 0,000 mm 0,0 UV-I 9 W/m² 8,2 °C 8,1 °C 12,9 km/h (3 Bft)
02.09.2017 07:25 9,0 °C 9,0 °C 95 % 1014,8 hPa 0,0 mm 10,3 km/h (2 Bft) NW 326 ° 0 min 0,000 mm 0,0 UV-I 9 W/m² 8,2 °C 7,4 °C 16,1 km/h (3 Bft)
02.09.2017 07:26 8,9 °C 9,0 °C 95 % 1014,8 hPa 0,2 mm 9,4 km/h (2 Bft) NW 318 ° 0 min 0,000 mm 0,0 UV-I 9 W/m² 8,1 °C 7,4 °C 16,1 km/h (3 Bft)
02.09.2017 07:27 8,9 °C 8,9 °C 95 % 1014,8 hPa 0,0 mm 7,6 km/h (2 Bft) N-NW 333 ° 0 min 0,000 mm 0,0 UV-I 9 W/m² 8,1 °C 7,8 °C 9,7 km/h (2 Bft)
02.09.2017 07:28 8,9 °C 8,9 °C 95 % 1014,8 hPa 0,0 mm 7,6 km/h (2 Bft) N 360 ° 0 min 0,000 mm 0,0 UV-I 9 W/m² 8,1 °C 7,8 °C 12,9 km/h (3 Bft)
02.09.2017 07:29 8,9 °C 8,9 °C 95 % 1014,8 hPa 0,0 mm 4,1 km/h (1 Bft) NW 325 ° 0 min 0,000 mm 0,0 UV-I 9 W/m² 8,1 °C 8,9 °C 8,0 km/h (2 Bft)
02.09.2017 07:30 8,9 °C 8,9 °C 95 % 1014,8 hPa 0,2 mm 3,5 km/h (1 Bft) W-NW 302 ° 0 min 0,000 mm 0,0 UV-I 11 W/m² 8,1 °C 8,9 °C 6,4 km/h (2 Bft)
02.09.2017 07:31 8,9 °C 8,9 °C 95 % 1014,8 hPa 0,0 mm 5,4 km/h (1 Bft) N-NW 332 ° 0 min 0,000 mm 0,0 UV-I 11 W/m² 8,1 °C 8,4 °C 8,0 km/h (2 Bft)
02.09.2017 07:32 8,9 °C 8,9 °C 95 % 1014,8 hPa 0,0 mm 4,9 km/h (1 Bft) NW 304 ° 0 min 0,000 mm 0,0 UV-I 11 W/m² 8,1 °C 8,5 °C 6,4 km/h (2 Bft)
02.09.2017 07:33 8,9 °C 8,9 °C 95 % 1014,8 hPa 0,2 mm 3,3 km/h (1 Bft) N-NW 344 ° 0 min 0,000 mm 0,0 UV-I 12 W/m² 8,1 °C 8,9 °C 4,8 km/h (1 Bft)
02.09.2017 07:34 8,9 °C 8,9 °C 95 % 1014,8 hPa 0,0 mm 4,7 km/h (1 Bft) NW 325 ° 0 min 0,000 mm 0,0 UV-I 12 W/m² 8,1 °C 8,6 °C 6,4 km/h (2 Bft)
02.09.2017 07:35 8,9 °C 8,9 °C 95 % 1014,8 hPa 0,0 mm 4,8 km/h (1 Bft) N-NW 334 ° 0 min 0,000 mm 0,0 UV-I 12 W/m² 8,1 °C 8,6 °C 8,0 km/h (2 Bft)
02.09.2017 07:36 8,9 °C 8,9 °C 95 % 1014,8 hPa 0,2 mm 4,8 km/h (1 Bft) NW 323 ° 0 min 0,000 mm 0,0 UV-I 12 W/m² 8,1 °C 8,6 °C 8,0 km/h (2 Bft)
02.09.2017 07:37 8,9 °C 8,9 °C 95 % 1014,8 hPa 0,0 mm 5,6 km/h (1 Bft) NW 319 ° 0 min 0,000 mm 0,0 UV-I 11 W/m² 8,1 °C 8,3 °C 8,0 km/h (2 Bft)
02.09.2017 07:38 8,9 °C 8,9 °C 95 % 1014,8 hPa 0,0 mm 5,4 km/h (1 Bft) N-NO 24 ° 0 min 0,000 mm 0,0 UV-I 11 W/m² 8,1 °C 8,4 °C 9,7 km/h (2 Bft)
02.09.2017 07:39 8,9 °C 8,9 °C 95 % 1014,8 hPa 0,0 mm 3,7 km/h (1 Bft) NW 309 ° 0 min 0,000 mm 0,0 UV-I 11 W/m² 8,1 °C 8,9 °C 6,4 km/h (2 Bft)
02.09.2017 07:40 8,8 °C 8,9 °C 95 % 1014,9 hPa 0,0 mm 5,0 km/h (1 Bft) NW 319 ° 0 min 0,000 mm 0,0 UV-I 9 W/m² 8,0 °C 8,4 °C 8,0 km/h (2 Bft)
02.09.2017 07:41 8,8 °C 8,9 °C 95 % 1014,8 hPa 0,2 mm 6,8 km/h (2 Bft) NW 311 ° 0 min 0,000 mm 0,0 UV-I 11 W/m² 8,0 °C 7,9 °C 11,3 km/h (2 Bft)
02.09.2017 07:42 8,8 °C 8,8 °C 95 % 1014,8 hPa 0,0 mm 7,4 km/h (2 Bft) NW 323 ° 0 min 0,000 mm 0,0 UV-I 11 W/m² 8,0 °C 7,7 °C 14,5 km/h (3 Bft)
02.09.2017 07:43 8,8 °C 8,8 °C 95 % 1015,0 hPa 0,0 mm 7,6 km/h (2 Bft) N 355 ° 0 min 0,000 mm 0,0 UV-I 9 W/m² 8,0 °C 7,7 °C 16,1 km/h (3 Bft)
02.09.2017 07:44 8,8 °C 8,8 °C 95 % 1014,9 hPa 0,0 mm 7,4 km/h (2 Bft) NW 320 ° 0 min 0,000 mm 0,0 UV-I 11 W/m² 8,0 °C 7,7 °C 12,9 km/h (3 Bft)
02.09.2017 07:45 8,8 °C 8,8 °C 95 % 1014,9 hPa 0,2 mm 6,5 km/h (2 Bft) NW 315 ° 0 min 0,000 mm 0,0 UV-I 11 W/m² 8,0 °C 8,0 °C 12,9 km/h (3 Bft)
02.09.2017 07:46 8,7 °C 8,8 °C 95 % 1014,9 hPa 0,0 mm 5,9 km/h (2 Bft) N-NW 337 ° 0 min 0,000 mm 0,0 UV-I 11 W/m² 7,9 °C 8,0 °C 8,0 km/h (2 Bft)
02.09.2017 07:47 8,7 °C 8,7 °C 95 % 1014,9 hPa 0,0 mm 2,1 km/h (1 Bft) N 349 ° 0 min 0,000 mm 0,0 UV-I 11 W/m² 7,9 °C 8,7 °C 4,8 km/h (1 Bft)
02.09.2017 07:48 8,7 °C 8,7 °C 95 % 1014,9 hPa 0,0 mm 2,7 km/h (1 Bft) N 355 ° 0 min 0,000 mm 0,0 UV-I 11 W/m² 7,9 °C 8,7 °C 4,8 km/h (1 Bft)
02.09.2017 07:49 8,7 °C 8,7 °C 95 % 1015,0 hPa 0,2 mm 4,6 km/h (1 Bft) W-NW 292 ° 0 min 0,000 mm 0,0 UV-I 12 W/m² 7,9 °C 8,4 °C 8,0 km/h (2 Bft)
02.09.2017 07:50 8,7 °C 8,7 °C 95 % 1014,9 hPa 0,0 mm 6,4 km/h (2 Bft) NW 325 ° 0 min 0,000 mm 0,0 UV-I 12 W/m² 7,9 °C 7,9 °C 12,9 km/h (3 Bft)
02.09.2017 07:51 8,7 °C 8,7 °C 95 % 1014,9 hPa 0,0 mm 6,2 km/h (2 Bft) N-NW 348 ° 0 min 0,000 mm 0,0 UV-I 12 W/m² 7,9 °C 7,9 °C 8,0 km/h (2 Bft)
02.09.2017 07:52 8,7 °C 8,7 °C 95 % 1015,0 hPa 0,0 mm 6,9 km/h (2 Bft) NW 309 ° 0 min 0,000 mm 0,0 UV-I 12 W/m² 7,9 °C 7,7 °C 11,3 km/h (2 Bft)
02.09.2017 07:53 8,7 °C 8,7 °C 95 % 1014,9 hPa 0,0 mm 6,6 km/h (2 Bft) N-NW 345 ° 0 min 0,000 mm 0,0 UV-I 12 W/m² 7,9 °C 7,8 °C 12,9 km/h (3 Bft)
02.09.2017 07:54 8,7 °C 8,7 °C 95 % 1015,0 hPa 0,2 mm 4,4 km/h (1 Bft) NW 318 ° 0 min 0,000 mm 0,0 UV-I 14 W/m² 7,9 °C 8,7 °C 11,3 km/h (2 Bft)
02.09.2017 07:55 8,7 °C 8,7 °C 95 % 1015,0 hPa 0,0 mm 4,1 km/h (1 Bft) N 5 ° 0 min 0,000 mm 0,0 UV-I 16 W/m² 7,9 °C 8,7 °C 9,7 km/h (2 Bft)
02.09.2017 07:56 8,7 °C 8,7 °C 95 % 1015,0 hPa 0,2 mm 8,2 km/h (2 Bft) N 355 ° 0 min 0,000 mm 0,0 UV-I 16 W/m² 7,9 °C 7,4 °C 12,9 km/h (3 Bft)
02.09.2017 07:57 8,6 °C 8,7 °C 95 % 1015,0 hPa 0,0 mm 6,0 km/h (2 Bft) N-NW 342 ° 0 min 0,000 mm 0,0 UV-I 16 W/m² 7,8 °C 7,9 °C 14,5 km/h (3 Bft)
02.09.2017 07:58 8,6 °C 8,7 °C 95 % 1015,0 hPa 0,0 mm 4,8 km/h (1 Bft) N-NW 333 ° 0 min 0,000 mm 0,0 UV-I 16 W/m² 7,8 °C 8,2 °C 8,0 km/h (2 Bft)
02.09.2017 07:59 8,6 °C 8,7 °C 95 % 1015,1 hPa 0,2 mm 7,6 km/h (2 Bft) N-NW 332 ° 0 min 0,000 mm 0,0 UV-I 16 W/m² 7,8 °C 7,5 °C 12,9 km/h (3 Bft)
02.09.2017 08:00 8,6 °C 8,6 °C 95 % 1015,0 hPa 0,0 mm 4,0 km/h (1 Bft) N-NO 26 ° 0 min 0,000 mm 0,0 UV-I 14 W/m² 7,8 °C 8,6 °C 8,0 km/h (2 Bft)
02.09.2017 08:01 8,6 °C 8,6 °C 94 % 1015,1 hPa 0,2 mm 3,8 km/h (1 Bft) NW 323 ° 0 min 0,000 mm 0,0 UV-I 12 W/m² 7,7 °C 8,6 °C 6,4 km/h (2 Bft)
02.09.2017 08:02 8,6 °C 8,6 °C 95 % 1015,1 hPa 0,0 mm 1,9 km/h (1 Bft) N-NW 344 ° 0 min 0,000 mm 0,0 UV-I 11 W/m² 7,8 °C 8,6 °C 6,4 km/h (2 Bft)
02.09.2017 08:03 8,5 °C 8,6 °C 94 % 1015,1 hPa 0,0 mm 5,9 km/h (2 Bft) N 355 ° 0 min 0,000 mm 0,0 UV-I 12 W/m² 7,6 °C 7,8 °C 12,9 km/h (3 Bft)
02.09.2017 08:04 8,5 °C 8,6 °C 95 % 1015,1 hPa 0,2 mm 6,3 km/h (2 Bft) N-NW 330 ° 0 min 0,000 mm 0,0 UV-I 12 W/m² 7,7 °C 7,7 °C 8,0 km/h (2 Bft)
02.09.2017 08:05 8,5 °C 8,5 °C 94 % 1015,1 hPa 0,0 mm 5,1 km/h (1 Bft) N 360 ° 0 min 0,000 mm 0,0 UV-I 12 W/m² 7,6 °C 8,0 °C 6,4 km/h (2 Bft)
02.09.2017 08:06 8,5 °C 8,5 °C 94 % 1015,1 hPa 0,2 mm 2,4 km/h (1 Bft) N 360 ° 0 min 0,000 mm 0,0 UV-I 12 W/m² 7,6 °C 8,5 °C 4,8 km/h (1 Bft)
02.09.2017 08:07 8,4 °C 8,5 °C 94 % 1015,1 hPa 0,2 mm 0,5 km/h (0 Bft) N 360 ° 0 min 0,000 mm 0,0 UV-I 12 W/m² 7,5 °C 8,4 °C 1,6 km/h (1 Bft)
02.09.2017 08:08 8,4 °C 8,5 °C 94 % 1015,1 hPa 0,0 mm 5,2 km/h (1 Bft) N-NW 334 ° 0 min 0,000 mm 0,0 UV-I 14 W/m² 7,5 °C 7,9 °C 9,7 km/h (2 Bft)
02.09.2017 08:09 8,4 °C 8,4 °C 94 % 1015,1 hPa 0,2 mm 6,4 km/h (2 Bft) N-NW 344 ° 0 min 0,000 mm 0,0 UV-I 12 W/m² 7,5 °C 7,5 °C 9,7 km/h (2 Bft)
02.09.2017 08:10 8,4 °C 8,5 °C 94 % 1015,1 hPa 0,0 mm 3,6 km/h (1 Bft) N-NO 18 ° 0 min 0,000 mm 0,0 UV-I 12 W/m² 7,5 °C 8,4 °C 4,8 km/h (1 Bft)
02.09.2017 08:11 8,5 °C 8,5 °C 94 % 1015,1 hPa 0,0 mm 2,7 km/h (1 Bft) N-NO 18 ° 0 min 0,000 mm 0,0 UV-I 11 W/m² 7,6 °C 8,5 °C 3,2 km/h (1 Bft)
02.09.2017 08:12 8,4 °C 8,5 °C 94 % 1015,1 hPa 0,2 mm 0,8 km/h (0 Bft) N-NO 18 ° 0 min 0,000 mm 0,0 UV-I 7 W/m² 7,5 °C 8,4 °C 3,2 km/h (1 Bft)
02.09.2017 08:13 8,5 °C 8,5 °C 94 % 1015,1 hPa 0,2 mm 1,3 km/h (1 Bft) N-NO 18 ° 0 min 0,000 mm 0,0 UV-I 7 W/m² 7,6 °C 8,5 °C 3,2 km/h (1 Bft)
02.09.2017 08:14 8,4 °C 8,5 °C 94 % 1015,1 hPa 0,0 mm 1,5 km/h (1 Bft) N-NO 18 ° 0 min 0,000 mm 0,0 UV-I 7 W/m² 7,5 °C 8,4 °C 3,2 km/h (1 Bft)
02.09.2017 08:15 8,5 °C 8,5 °C 94 % 1015,2 hPa 0,0 mm 2,8 km/h (1 Bft) N-NO 18 ° 0 min 0,000 mm 0,0 UV-I 7 W/m² 7,6 °C 8,5 °C 4,8 km/h (1 Bft)
02.09.2017 08:16 8,4 °C 8,5 °C 94 % 1015,1 hPa 0,2 mm 1,5 km/h (1 Bft) N-NO 18 ° 0 min 0,000 mm 0,0 UV-I 9 W/m² 7,5 °C 8,4 °C 3,2 km/h (1 Bft)
02.09.2017 08:17 8,4 °C 8,4 °C 94 % 1015,1 hPa 0,2 mm 1,1 km/h (1 Bft) N-NO 18 ° 0 min 0,000 mm 0,0 UV-I 11 W/m² 7,5 °C 8,4 °C 3,2 km/h (1 Bft)
02.09.2017 08:18 8,4 °C 8,4 °C 94 % 1015,1 hPa 0,0 mm 2,9 km/h (1 Bft) W-NW 283 ° 0 min 0,000 mm 0,0 UV-I 11 W/m² 7,5 °C 8,4 °C 6,4 km/h (2 Bft)
02.09.2017 08:19 8,4 °C 8,4 °C 94 % 1015,0 hPa 0,0 mm 5,8 km/h (2 Bft) N-NW 331 ° 0 min 0,000 mm 0,0 UV-I 11 W/m² 7,5 °C 7,7 °C 9,7 km/h (2 Bft)
02.09.2017 08:20 8,4 °C 8,4 °C 94 % 1015,1 hPa 0,2 mm 5,4 km/h (1 Bft) NW 326 ° 0 min 0,000 mm 0,0 UV-I 12 W/m² 7,5 °C 7,8 °C 8,0 km/h (2 Bft)
02.09.2017 08:21 8,4 °C 8,4 °C 94 % 1015,0 hPa 0,0 mm 4,6 km/h (1 Bft) NW 324 ° 0 min 0,000 mm 0,0 UV-I 12 W/m² 7,5 °C 8,1 °C 8,0 km/h (2 Bft)
02.09.2017 08:22 8,5 °C 8,5 °C 95 % 1015,1 hPa 0,0 mm 2,7 km/h (1 Bft) NW 324 ° 0 min 0,000 mm 0,0 UV-I 11 W/m² 7,7 °C 8,5 °C 4,8 km/h (1 Bft)
02.09.2017 08:23 8,5 °C 8,5 °C 95 % 1015,1 hPa 0,2 mm 2,1 km/h (1 Bft) NW 324 ° 0 min 0,000 mm 0,0 UV-I 11 W/m² 7,7 °C 8,5 °C 4,8 km/h (1 Bft)
02.09.2017 08:24 8,6 °C 8,6 °C 95 % 1015,1 hPa 0,0 mm 2,4 km/h (1 Bft) NW 324 ° 0 min 0,000 mm 0,0 UV-I 14 W/m² 7,8 °C 8,6 °C 3,2 km/h (1 Bft)
02.09.2017 08:25 8,6 °C 8,6 °C 95 % 1015,1 hPa 0,0 mm 1,1 km/h (1 Bft) NW 324 ° 0 min 0,000 mm 0,0 UV-I 14 W/m² 7,8 °C 8,6 °C 3,2 km/h (1 Bft)
02.09.2017 08:26 8,6 °C 8,6 °C 95 % 1015,1 hPa 0,0 mm 2,4 km/h (1 Bft) W-NW 302 ° 0 min 0,000 mm 0,0 UV-I 14 W/m² 7,8 °C 8,6 °C 6,4 km/h (2 Bft)
02.09.2017 08:27 8,6 °C 8,6 °C 95 % 1015,2 hPa 0,2 mm 4,1 km/h (1 Bft) NW 321 ° 0 min 0,000 mm 0,0 UV-I 12 W/m² 7,8 °C 8,6 °C 6,4 km/h (2 Bft)
02.09.2017 08:28 8,6 °C 8,6 °C 95 % 1015,2 hPa 0,0 mm 4,7 km/h (1 Bft) N 5 ° 0 min 0,000 mm 0,0 UV-I 12 W/m² 7,8 °C 8,3 °C 8,0 km/h (2 Bft)
02.09.2017 08:29 8,6 °C 8,6 °C 95 % 1015,2 hPa 0,0 mm 0,3 km/h (0 Bft) N 5 ° 0 min 0,000 mm 0,0 UV-I 12 W/m² 7,8 °C 8,6 °C 1,6 km/h (1 Bft)
02.09.2017 08:30 8,5 °C 8,6 °C 95 % 1015,2 hPa 0,2 mm 3,7 km/h (1 Bft) NW 310 ° 0 min 0,000 mm 0,0 UV-I 12 W/m² 7,7 °C 8,5 °C 6,4 km/h (2 Bft)
02.09.2017 08:31 8,5 °C 8,6 °C 95 % 1015,2 hPa 0,0 mm 2,2 km/h (1 Bft) N-NW 348 ° 0 min 0,000 mm 0,0 UV-I 12 W/m² 7,7 °C 8,5 °C 4,8 km/h (1 Bft)
02.09.2017 08:32 8,5 °C 8,6 °C 95 % 1015,2 hPa 0,0 mm 1,5 km/h (1 Bft) N-NW 344 ° 0 min 0,000 mm 0,0 UV-I 12 W/m² 7,7 °C 8,5 °C 3,2 km/h (1 Bft)
02.09.2017 08:33 8,5 °C 8,6 °C 95 % 1015,2 hPa 0,2 mm 2,5 km/h (1 Bft) NW 324 ° 0 min 0,000 mm 0,0 UV-I 14 W/m² 7,7 °C 8,5 °C 4,8 km/h (1 Bft)
02.09.2017 08:34 8,5 °C 8,6 °C 95 % 1015,2 hPa 0,0 mm 3,2 km/h (1 Bft) NW 312 ° 0 min 0,000 mm 0,0 UV-I 14 W/m² 7,7 °C 8,5 °C 6,4 km/h (2 Bft)
02.09.2017 08:35 8,6 °C 8,6 °C 95 % 1015,2 hPa 0,0 mm 0,7 km/h (0 Bft) NW 312 ° 0 min 0,000 mm 0,0 UV-I 14 W/m² 7,8 °C 8,6 °C 1,6 km/h (1 Bft)
02.09.2017 08:36 8,6 °C 8,6 °C 95 % 1015,3 hPa 0,2 mm 2,9 km/h (1 Bft) N-NW 334 ° 0 min 0,000 mm 0,0 UV-I 14 W/m² 7,8 °C 8,6 °C 6,4 km/h (2 Bft)
02.09.2017 08:37 8,6 °C 8,6 °C 95 % 1015,2 hPa 0,0 mm 2,2 km/h (1 Bft) N-NW 333 ° 0 min 0,000 mm 0,0 UV-I 16 W/m² 7,8 °C 8,6 °C 3,2 km/h (1 Bft)
02.09.2017 08:38 8,6 °C 8,6 °C 95 % 1015,3 hPa 0,0 mm 1,9 km/h (1 Bft) N-NW 333 ° 0 min 0,000 mm 0,0 UV-I 16 W/m² 7,8 °C 8,6 °C 4,8 km/h (1 Bft)
02.09.2017 08:39 8,6 °C 8,6 °C 95 % 1015,2 hPa 0,0 mm 3,0 km/h (1 Bft) NW 318 ° 0 min 0,000 mm 0,0 UV-I 18 W/m² 7,8 °C 8,6 °C 6,4 km/h (2 Bft)
02.09.2017 08:40 8,5 °C 8,6 °C 95 % 1015,3 hPa 0,2 mm 2,9 km/h (1 Bft) NW 319 ° 0 min 0,000 mm 0,0 UV-I 18 W/m² 7,7 °C 8,5 °C 3,2 km/h (1 Bft)
02.09.2017 08:41 8,5 °C 8,6 °C 95 % 1015,2 hPa 0,0 mm 4,0 km/h (1 Bft) NW 319 ° 0 min 0,000 mm 0,0 UV-I 18 W/m² 7,7 °C 8,5 °C 4,8 km/h (1 Bft)
02.09.2017 08:42 8,5 °C 8,6 °C 95 % 1015,3 hPa 0,0 mm 2,3 km/h (1 Bft) NW 319 ° 0 min 0,000 mm 0,0 UV-I 16 W/m² 7,7 °C 8,5 °C 4,8 km/h (1 Bft)
02.09.2017 08:43 8,6 °C 8,6 °C 95 % 1015,2 hPa 0,0 mm 3,0 km/h (1 Bft) NW 319 ° 0 min 0,000 mm 0,0 UV-I 16 W/m² 7,8 °C 8,6 °C 4,8 km/h (1 Bft)
02.09.2017 08:44 8,6 °C 8,6 °C 95 % 1015,3 hPa 0,2 mm 2,7 km/h (1 Bft) NW 326 ° 0 min 0,000 mm 0,0 UV-I 14 W/m² 7,8 °C 8,6 °C 4,8 km/h (1 Bft)
02.09.2017 08:45 8,6 °C 8,6 °C 95 % 1015,3 hPa 0,0 mm 2,2 km/h (1 Bft) NW 304 ° 0 min 0,000 mm 0,0 UV-I 14 W/m² 7,8 °C 8,6 °C 4,8 km/h (1 Bft)
02.09.2017 08:46 8,6 °C 8,6 °C 95 % 1015,3 hPa 0,0 mm 4,6 km/h (1 Bft) W-NW 288 ° 0 min 0,000 mm 0,0 UV-I 14 W/m² 7,8 °C 8,3 °C 6,4 km/h (2 Bft)
02.09.2017 08:47 8,6 °C 8,6 °C 95 % 1015,2 hPa 0,2 mm 4,5 km/h (1 Bft) NW 309 ° 0 min 0,000 mm 0,0 UV-I 16 W/m² 7,8 °C 8,6 °C 6,4 km/h (2 Bft)
02.09.2017 08:48 8,6 °C 8,6 °C 95 % 1015,3 hPa 0,0 mm 3,8 km/h (1 Bft) NW 321 ° 0 min 0,000 mm 0,0 UV-I 14 W/m² 7,8 °C 8,6 °C 4,8 km/h (1 Bft)
02.09.2017 08:49 8,6 °C 8,6 °C 95 % 1015,3 hPa 0,0 mm 2,7 km/h (1 Bft) W-NW 298 ° 0 min 0,000 mm 0,0 UV-I 14 W/m² 7,8 °C 8,6 °C 6,4 km/h (2 Bft)
02.09.2017 08:50 8,6 °C 8,6 °C 95 % 1015,3 hPa 0,2 mm 2,3 km/h (1 Bft) N-NW 331 ° 0 min 0,000 mm 0,0 UV-I 14 W/m² 7,8 °C 8,6 °C 3,2 km/h (1 Bft)
02.09.2017 08:51 8,5 °C 8,6 °C 95 % 1015,3 hPa 0,0 mm 2,3 km/h (1 Bft) N-NW 327 ° 0 min 0,000 mm 0,0 UV-I 18 W/m² 7,7 °C 8,5 °C 3,2 km/h (1 Bft)
02.09.2017 08:52 8,5 °C 8,5 °C 95 % 1015,3 hPa 0,0 mm 3,9 km/h (1 Bft) N-NW 333 ° 0 min 0,000 mm 0,0 UV-I 19 W/m² 7,7 °C 8,5 °C 6,4 km/h (2 Bft)
02.09.2017 08:53 8,6 °C 8,6 °C 95 % 1015,2 hPa 0,2 mm 3,2 km/h (1 Bft) N-NW 333 ° 0 min 0,000 mm 0,0 UV-I 19 W/m² 7,8 °C 8,6 °C 6,4 km/h (2 Bft)
02.09.2017 08:54 8,6 °C 8,6 °C 95 % 1015,3 hPa 0,0 mm 1,7 km/h (1 Bft) N-NW 333 ° 0 min 0,000 mm 0,0 UV-I 19 W/m² 7,8 °C 8,6 °C 3,2 km/h (1 Bft)
02.09.2017 08:55 8,6 °C 8,6 °C 95 % 1015,3 hPa 0,0 mm 1,9 km/h (1 Bft) N-NW 333 ° 0 min 0,000 mm 0,0 UV-I 19 W/m² 7,8 °C 8,6 °C 3,2 km/h (1 Bft)
02.09.2017 08:56 8,5 °C 8,6 °C 95 % 1015,3 hPa 0,2 mm 4,5 km/h (1 Bft) NW 326 ° 0 min 0,000 mm 0,0 UV-I 19 W/m² 7,7 °C 8,5 °C 4,8 km/h (1 Bft)
02.09.2017 08:57 8,6 °C 8,6 °C 95 % 1015,3 hPa 0,0 mm 2,3 km/h (1 Bft) NW 326 ° 0 min 0,000 mm 0,0 UV-I 21 W/m² 7,8 °C 8,6 °C 3,2 km/h (1 Bft)
02.09.2017 08:58 8,5 °C 8,6 °C 95 % 1015,3 hPa 0,0 mm 2,7 km/h (1 Bft) NW 317 ° 0 min 0,000 mm 0,0 UV-I 23 W/m² 7,7 °C 8,5 °C 4,8 km/h (1 Bft)
02.09.2017 08:59 8,6 °C 8,6 °C 95 % 1015,4 hPa 0,0 mm 2,7 km/h (1 Bft) NW 315 ° 0 min 0,000 mm 0,0 UV-I 19 W/m² 7,8 °C 8,6 °C 4,8 km/h (1 Bft)
02.09.2017 09:00 8,6 °C 8,6 °C 95 % 1015,4 hPa 0,2 mm 3,5 km/h (1 Bft) NW 321 ° 0 min 0,000 mm 0,0 UV-I 18 W/m² 7,8 °C 8,6 °C 6,4 km/h (2 Bft)
02.09.2017 09:01 8,6 °C 8,6 °C 95 % 1015,3 hPa 0,0 mm 4,1 km/h (1 Bft) N-NW 340 ° 0 min 0,000 mm 0,0 UV-I 19 W/m² 7,8 °C 8,6 °C 6,4 km/h (2 Bft)
02.09.2017 09:02 8,6 °C 8,6 °C 95 % 1015,4 hPa 0,0 mm 1,7 km/h (1 Bft) NW 323 ° 0 min 0,000 mm 0,0 UV-I 19 W/m² 7,8 °C 8,6 °C 4,8 km/h (1 Bft)
02.09.2017 09:03 8,6 °C 8,6 °C 95 % 1015,4 hPa 0,2 mm 3,1 km/h (1 Bft) NW 324 ° 0 min 0,000 mm 0,0 UV-I 19 W/m² 7,8 °C 8,6 °C 4,8 km/h (1 Bft)
02.09.2017 09:04 8,6 °C 8,6 °C 95 % 1015,4 hPa 0,0 mm 5,6 km/h (1 Bft) N-NW 328 ° 0 min 0,000 mm 0,0 UV-I 21 W/m² 7,8 °C 8,0 °C 6,4 km/h (2 Bft)
02.09.2017 09:05 8,6 °C 8,6 °C 95 % 1015,4 hPa 0,0 mm 3,8 km/h (1 Bft) N-NW 329 ° 0 min 0,000 mm 0,0 UV-I 25 W/m² 7,8 °C 8,6 °C 6,4 km/h (2 Bft)
02.09.2017 09:06 8,6 °C 8,6 °C 95 % 1015,4 hPa 0,0 mm 2,3 km/h (1 Bft) NW 307 ° 0 min 0,000 mm 0,0 UV-I 23 W/m² 7,8 °C 8,6 °C 3,2 km/h (1 Bft)
02.09.2017 09:07 8,6 °C 8,6 °C 95 % 1015,4 hPa 0,2 mm 4,3 km/h (1 Bft) W-NW 296 ° 0 min 0,000 mm 0,0 UV-I 21 W/m² 7,8 °C 8,6 °C 6,4 km/h (2 Bft)
02.09.2017 09:08 8,6 °C 8,6 °C 95 % 1015,4 hPa 0,0 mm 3,6 km/h (1 Bft) NW 306 ° 0 min 0,000 mm 0,0 UV-I 19 W/m² 7,8 °C 8,6 °C 4,8 km/h (1 Bft)
02.09.2017 09:09 8,5 °C 8,6 °C 95 % 1015,4 hPa 0,0 mm 2,5 km/h (1 Bft) NW 305 ° 0 min 0,000 mm 0,0 UV-I 21 W/m² 7,7 °C 8,5 °C 4,8 km/h (1 Bft)
02.09.2017 09:10 8,5 °C 8,5 °C 95 % 1015,4 hPa 0,0 mm 4,1 km/h (1 Bft) NW 315 ° 0 min 0,000 mm 0,0 UV-I 23 W/m² 7,7 °C 8,5 °C 6,4 km/h (2 Bft)
02.09.2017 09:11 8,5 °C 8,5 °C 95 % 1015,3 hPa 0,2 mm 1,9 km/h (1 Bft) NW 315 ° 0 min 0,000 mm 0,0 UV-I 23 W/m² 7,7 °C 8,5 °C 3,2 km/h (1 Bft)
02.09.2017 09:12 8,4 °C 8,5 °C 95 % 1015,4 hPa 0,0 mm 1,2 km/h (1 Bft) NW 315 ° 0 min 0,000 mm 0,0 UV-I 25 W/m² 7,6 °C 8,4 °C 3,2 km/h (1 Bft)
02.09.2017 09:13 8,4 °C 8,5 °C 95 % 1015,4 hPa 0,0 mm 3,4 km/h (1 Bft) NW 322 ° 0 min 0,000 mm 0,0 UV-I 25 W/m² 7,6 °C 8,4 °C 6,4 km/h (2 Bft)
02.09.2017 09:14 8,4 °C 8,5 °C 95 % 1015,4 hPa 0,0 mm 3,7 km/h (1 Bft) W-NW 300 ° 0 min 0,000 mm 0,0 UV-I 25 W/m² 7,6 °C 8,4 °C 6,4 km/h (2 Bft)
02.09.2017 09:15 8,4 °C 8,5 °C 95 % 1015,4 hPa 0,2 mm 2,7 km/h (1 Bft) W-NW 287 ° 0 min 0,000 mm 0,0 UV-I 25 W/m² 7,6 °C 8,4 °C 4,8 km/h (1 Bft)
02.09.2017 09:16 8,5 °C 8,5 °C 95 % 1015,4 hPa 0,0 mm 3,3 km/h (1 Bft) W-NW 286 ° 0 min 0,000 mm 0,0 UV-I 26 W/m² 7,7 °C 8,5 °C 4,8 km/h (1 Bft)
02.09.2017 09:17 8,4 °C 8,5 °C 95 % 1015,4 hPa 0,0 mm 3,3 km/h (1 Bft) W-NW 301 ° 0 min 0,000 mm 0,0 UV-I 25 W/m² 7,6 °C 8,4 °C 4,8 km/h (1 Bft)
02.09.2017 09:18 8,5 °C 8,5 °C 95 % 1015,4 hPa 0,2 mm 2,8 km/h (1 Bft) W-NW 302 ° 0 min 0,000 mm 0,0 UV-I 25 W/m² 7,7 °C 8,5 °C 4,8 km/h (1 Bft)
02.09.2017 09:19 8,5 °C 8,5 °C 95 % 1015,4 hPa 0,0 mm 4,8 km/h (1 Bft) NW 325 ° 0 min 0,000 mm 0,0 UV-I 25 W/m² 7,7 °C 8,1 °C 6,4 km/h (2 Bft)
02.09.2017 09:20 8,6 °C 8,6 °C 95 % 1015,4 hPa 0,0 mm 3,8 km/h (1 Bft) W 261 ° 0 min 0,000 mm 0,0 UV-I 23 W/m² 7,8 °C 8,6 °C 4,8 km/h (1 Bft)
02.09.2017 09:21 8,5 °C 8,6 °C 95 % 1015,4 hPa 0,0 mm 3,5 km/h (1 Bft) NW 315 ° 0 min 0,000 mm 0,0 UV-I 25 W/m² 7,7 °C 8,5 °C 4,8 km/h (1 Bft)
02.09.2017 09:22 8,5 °C 8,6 °C 95 % 1015,4 hPa 0,2 mm 4,1 km/h (1 Bft) W-NW 303 ° 0 min 0,000 mm 0,0 UV-I 25 W/m² 7,7 °C 8,5 °C 4,8 km/h (1 Bft)
02.09.2017 09:23 8,5 °C 8,6 °C 95 % 1015,3 hPa 0,0 mm 3,0 km/h (1 Bft) W-NW 300 ° 0 min 0,000 mm 0,0 UV-I 26 W/m² 7,7 °C 8,5 °C 4,8 km/h (1 Bft)
02.09.2017 09:24 8,5 °C 8,5 °C 95 % 1015,4 hPa 0,0 mm 2,3 km/h (1 Bft) N-NW 327 ° 0 min 0,000 mm 0,0 UV-I 26 W/m² 7,7 °C 8,5 °C 3,2 km/h (1 Bft)
02.09.2017 09:25 8,5 °C 8,6 °C 95 % 1015,4 hPa 0,0 mm 2,4 km/h (1 Bft) NW 311 ° 0 min 0,000 mm 0,0 UV-I 28 W/m² 7,7 °C 8,5 °C 4,8 km/h (1 Bft)
02.09.2017 09:26 8,6 °C 8,6 °C 95 % 1015,4 hPa 0,0 mm 3,0 km/h (1 Bft) W-NW 288 ° 0 min 0,000 mm 0,0 UV-I 28 W/m² 7,8 °C 8,6 °C 6,4 km/h (2 Bft)
02.09.2017 09:27 8,5 °C 8,6 °C 95 % 1015,4 hPa 0,2 mm 4,9 km/h (1 Bft) W-NW 296 ° 0 min 0,000 mm 0,0 UV-I 32 W/m² 7,7 °C 8,1 °C 6,4 km/h (2 Bft)
02.09.2017 09:28 8,5 °C 8,5 °C 95 % 1015,4 hPa 0,0 mm 3,6 km/h (1 Bft) NW 309 ° 0 min 0,000 mm 0,0 UV-I 30 W/m² 7,7 °C 8,5 °C 4,8 km/h (1 Bft)
02.09.2017 09:29 8,6 °C 8,6 °C 95 % 1015,4 hPa 0,0 mm 3,0 km/h (1 Bft) NW 318 ° 0 min 0,000 mm 0,0 UV-I 32 W/m² 7,8 °C 8,6 °C 3,2 km/h (1 Bft)
02.09.2017 09:30 8,6 °C 8,6 °C 95 % 1015,4 hPa 0,0 mm 5,1 km/h (1 Bft) N-NW 327 ° 0 min 0,000 mm 0,0 UV-I 32 W/m² 7,8 °C 8,1 °C 6,4 km/h (2 Bft)
02.09.2017 09:31 8,6 °C 8,6 °C 95 % 1015,4 hPa 0,2 mm 3,6 km/h (1 Bft) NW 321 ° 0 min 0,000 mm 0,0 UV-I 32 W/m² 7,8 °C 8,6 °C 4,8 km/h (1 Bft)
02.09.2017 09:32 8,6 °C 8,6 °C 95 % 1015,4 hPa 0,0 mm 2,7 km/h (1 Bft) N-NW 347 ° 0 min 0,000 mm 0,0 UV-I 32 W/m² 7,8 °C 8,6 °C 4,8 km/h (1 Bft)
02.09.2017 09:33 8,6 °C 8,6 °C 95 % 1015,4 hPa 0,0 mm 3,3 km/h (1 Bft) NW 317 ° 0 min 0,000 mm 0,0 UV-I 32 W/m² 7,8 °C 8,6 °C 4,8 km/h (1 Bft)
02.09.2017 09:34 8,6 °C 8,6 °C 95 % 1015,4 hPa 0,0 mm 3,5 km/h (1 Bft) NW 311 ° 0 min 0,000 mm 0,0 UV-I 33 W/m² 7,8 °C 8,6 °C 6,4 km/h (2 Bft)
02.09.2017 09:35 8,6 °C 8,6 °C 95 % 1015,4 hPa 0,2 mm 5,2 km/h (1 Bft) NW 325 ° 0 min 0,000 mm 0,0 UV-I 35 W/m² 7,8 °C 8,1 °C 6,4 km/h (2 Bft)
02.09.2017 09:36 8,6 °C 8,6 °C 95 % 1015,4 hPa 0,0 mm 3,0 km/h (1 Bft) NW 325 ° 0 min 0,000 mm 0,0 UV-I 37 W/m² 7,8 °C 8,6 °C 3,2 km/h (1 Bft)
02.09.2017 09:37 8,6 °C 8,6 °C 96 % 1015,4 hPa 0,0 mm 3,4 km/h (1 Bft) NW 315 ° 0 min 0,000 mm 0,0 UV-I 39 W/m² 8,0 °C 8,6 °C 4,8 km/h (1 Bft)
02.09.2017 09:38 8,6 °C 8,6 °C 95 % 1015,4 hPa 0,0 mm 4,8 km/h (1 Bft) NW 325 ° 0 min 0,000 mm 0,0 UV-I 39 W/m² 7,8 °C 8,2 °C 6,4 km/h (2 Bft)
02.09.2017 09:39 8,5 °C 8,6 °C 95 % 1015,5 hPa 0,2 mm 4,7 km/h (1 Bft) NW 313 ° 0 min 0,000 mm 0,0 UV-I 37 W/m² 7,7 °C 8,2 °C 8,0 km/h (2 Bft)
02.09.2017 09:40 8,6 °C 8,6 °C 95 % 1015,4 hPa 0,0 mm 2,8 km/h (1 Bft) NW 311 ° 0 min 0,000 mm 0,0 UV-I 37 W/m² 7,8 °C 8,6 °C 4,8 km/h (1 Bft)
02.09.2017 09:41 8,5 °C 8,6 °C 95 % 1015,5 hPa 0,0 mm 0,7 km/h (0 Bft) NW 311 ° 0 min 0,000 mm 0,0 UV-I 35 W/m² 7,7 °C 8,5 °C 1,6 km/h (1 Bft)
02.09.2017 09:42 8,5 °C 8,5 °C 95 % 1015,5 hPa 0,0 mm 0,4 km/h (0 Bft) NW 311 ° 0 min 0,000 mm 0,0 UV-I 35 W/m² 7,7 °C 8,5 °C 1,6 km/h (1 Bft)
02.09.2017 09:43 8,5 °C 8,5 °C 95 % 1015,5 hPa 0,0 mm 0,8 km/h (0 Bft) W-NW 296 ° 0 min 0,000 mm 0,0 UV-I 35 W/m² 7,7 °C 8,5 °C 4,8 km/h (1 Bft)
02.09.2017 09:44 8,5 °C 8,5 °C 95 % 1015,5 hPa 0,0 mm 3,6 km/h (1 Bft) NW 311 ° 0 min 0,000 mm 0,0 UV-I 33 W/m² 7,7 °C 8,5 °C 4,8 km/h (1 Bft)
02.09.2017 09:45 8,5 °C 8,6 °C 96 % 1015,6 hPa 0,2 mm 5,0 km/h (1 Bft) W-NW 288 ° 0 min 0,000 mm 0,0 UV-I 33 W/m² 7,9 °C 8,1 °C 6,4 km/h (2 Bft)
02.09.2017 09:46 8,6 °C 8,6 °C 96 % 1015,6 hPa 0,0 mm 3,5 km/h (1 Bft) NW 306 ° 0 min 0,000 mm 0,0 UV-I 35 W/m² 8,0 °C 8,6 °C 4,8 km/h (1 Bft)
02.09.2017 09:47 8,6 °C 8,6 °C 96 % 1015,7 hPa 0,0 mm 4,7 km/h (1 Bft) NW 322 ° 0 min 0,000 mm 0,0 UV-I 33 W/m² 8,0 °C 8,3 °C 6,4 km/h (2 Bft)
02.09.2017 09:48 8,6 °C 8,6 °C 96 % 1015,6 hPa 0,0 mm 5,7 km/h (1 Bft) N-NW 327 ° 0 min 0,000 mm 0,0 UV-I 35 W/m² 8,0 °C 7,9 °C 8,0 km/h (2 Bft)
02.09.2017 09:49 8,6 °C 8,6 °C 95 % 1015,6 hPa 0,0 mm 3,2 km/h (1 Bft) N-NW 340 ° 0 min 0,000 mm 0,0 UV-I 37 W/m² 7,8 °C 8,6 °C 6,4 km/h (2 Bft)
02.09.2017 09:50 8,6 °C 8,6 °C 95 % 1015,6 hPa 0,0 mm 0,6 km/h (0 Bft) W 277 ° 0 min 0,000 mm 0,0 UV-I 39 W/m² 7,8 °C 8,6 °C 1,6 km/h (1 Bft)
02.09.2017 09:51 8,6 °C 8,6 °C 96 % 1015,7 hPa 0,2 mm 3,8 km/h (1 Bft) NW 308 ° 0 min 0,000 mm 0,0 UV-I 39 W/m² 8,0 °C 8,6 °C 4,8 km/h (1 Bft)
02.09.2017 09:52 8,6 °C 8,6 °C 96 % 1015,7 hPa 0,0 mm 3,6 km/h (1 Bft) NW 306 ° 0 min 0,000 mm 0,0 UV-I 42 W/m² 8,0 °C 8,6 °C 4,8 km/h (1 Bft)
02.09.2017 09:53 8,6 °C 8,6 °C 96 % 1015,7 hPa 0,0 mm 1,9 km/h (1 Bft) NW 306 ° 0 min 0,000 mm 0,0 UV-I 40 W/m² 8,0 °C 8,6 °C 3,2 km/h (1 Bft)
02.09.2017 09:54 8,6 °C 8,6 °C 95 % 1015,7 hPa 0,0 mm 3,0 km/h (1 Bft) NW 314 ° 0 min 0,000 mm 0,0 UV-I 39 W/m² 7,8 °C 8,6 °C 4,8 km/h (1 Bft)
02.09.2017 09:55 8,6 °C 8,6 °C 95 % 1015,7 hPa 0,0 mm 2,3 km/h (1 Bft) NW 314 ° 0 min 0,000 mm 0,0 UV-I 39 W/m² 7,8 °C 8,6 °C 3,2 km/h (1 Bft)
02.09.2017 09:56 8,6 °C 8,6 °C 95 % 1015,7 hPa 0,0 mm 0,3 km/h (0 Bft) NW 314 ° 0 min 0,000 mm 0,0 UV-I 42 W/m² 7,8 °C 8,6 °C 1,6 km/h (1 Bft)
02.09.2017 09:57 8,6 °C 8,6 °C 95 % 1015,7 hPa 0,2 mm 2,9 km/h (1 Bft) NW 314 ° 0 min 0,000 mm 0,0 UV-I 44 W/m² 7,8 °C 8,6 °C 4,8 km/h (1 Bft)
02.09.2017 09:58 8,6 °C 8,6 °C 96 % 1015,7 hPa 0,0 mm 4,4 km/h (1 Bft) NW 316 ° 0 min 0,000 mm 0,0 UV-I 47 W/m² 8,0 °C 8,6 °C 6,4 km/h (2 Bft)
02.09.2017 09:59 8,6 °C 8,7 °C 96 % 1015,8 hPa 0,0 mm 3,6 km/h (1 Bft) NW 316 ° 0 min 0,000 mm 0,0 UV-I 47 W/m² 8,0 °C 8,6 °C 4,8 km/h (1 Bft)
02.09.2017 10:00 8,7 °C 8,7 °C 96 % 1015,7 hPa 0,0 mm 1,1 km/h (1 Bft) NW 316 ° 0 min 0,000 mm 0,0 UV-I 47 W/m² 8,1 °C 8,7 °C 1,6 km/h (1 Bft)
02.09.2017 10:01 8,7 °C 8,7 °C 95 % 1015,8 hPa 0,2 mm 0,4 km/h (0 Bft) NW 316 ° 0 min 0,025 mm 0,0 UV-I 46 W/m² 7,9 °C 8,7 °C 1,6 km/h (1 Bft)
02.09.2017 10:02 8,7 °C 8,7 °C 95 % 1015,8 hPa 0,0 mm 2,5 km/h (1 Bft) NW 316 ° 0 min 0,000 mm 0,0 UV-I 44 W/m² 7,9 °C 8,7 °C 4,8 km/h (1 Bft)
02.09.2017 10:03 8,7 °C 8,7 °C 96 % 1015,8 hPa 0,0 mm 2,5 km/h (1 Bft) NW 316 ° 0 min 0,000 mm 0,0 UV-I 40 W/m² 8,1 °C 8,7 °C 3,2 km/h (1 Bft)
02.09.2017 10:04 8,7 °C 8,7 °C 95 % 1015,8 hPa 0,0 mm 3,2 km/h (1 Bft) NW 315 ° 0 min 0,000 mm 0,0 UV-I 39 W/m² 7,9 °C 8,7 °C 4,8 km/h (1 Bft)
02.09.2017 10:05 8,7 °C 8,7 °C 95 % 1015,8 hPa 0,0 mm 2,7 km/h (1 Bft) NW 313 ° 0 min 0,000 mm 0,0 UV-I 33 W/m² 7,9 °C 8,7 °C 4,8 km/h (1 Bft)
02.09.2017 10:06 8,7 °C 8,7 °C 95 % 1015,8 hPa 0,2 mm 1,9 km/h (1 Bft) NW 313 ° 0 min 0,000 mm 0,0 UV-I 32 W/m² 7,9 °C 8,7 °C 3,2 km/h (1 Bft)
02.09.2017 10:07 8,7 °C 8,7 °C 95 % 1015,8 hPa 0,0 mm 2,0 km/h (1 Bft) NW 313 ° 0 min 0,000 mm 0,0 UV-I 32 W/m² 7,9 °C 8,7 °C 3,2 km/h (1 Bft)
02.09.2017 10:08 8,7 °C 8,7 °C 95 % 1015,8 hPa 0,0 mm 2,3 km/h (1 Bft) NW 313 ° 0 min 0,000 mm 0,0 UV-I 33 W/m² 7,9 °C 8,7 °C 3,2 km/h (1 Bft)
02.09.2017 10:09 8,7 °C 8,7 °C 95 % 1015,8 hPa 0,2 mm 3,0 km/h (1 Bft) NW 308 ° 0 min 0,000 mm 0,0 UV-I 30 W/m² 7,9 °C 8,7 °C 4,8 km/h (1 Bft)
02.09.2017 10:10 8,7 °C 8,7 °C 95 % 1015,8 hPa 0,0 mm 2,9 km/h (1 Bft) NW 309 ° 0 min 0,000 mm 0,0 UV-I 33 W/m² 7,9 °C 8,7 °C 4,8 km/h (1 Bft)
02.09.2017 10:11 8,7 °C 8,7 °C 95 % 1015,9 hPa 0,0 mm 3,8 km/h (1 Bft) NW 313 ° 0 min 0,000 mm 0,0 UV-I 39 W/m² 7,9 °C 8,7 °C 4,8 km/h (1 Bft)
02.09.2017 10:12 8,7 °C 8,7 °C 95 % 1015,9 hPa 0,0 mm 3,1 km/h (1 Bft) NW 311 ° 0 min 0,000 mm 0,0 UV-I 42 W/m² 7,9 °C 8,7 °C 4,8 km/h (1 Bft)
02.09.2017 10:13 8,7 °C 8,7 °C 95 % 1015,9 hPa 0,2 mm 1,9 km/h (1 Bft) NW 311 ° 0 min 0,000 mm 0,0 UV-I 40 W/m² 7,9 °C 8,7 °C 3,2 km/h (1 Bft)
02.09.2017 10:14 8,7 °C 8,8 °C 95 % 1015,8 hPa 0,0 mm 1,7 km/h (1 Bft) NW 311 ° 0 min 0,000 mm 0,0 UV-I 39 W/m² 7,9 °C 8,7 °C 3,2 km/h (1 Bft)
02.09.2017 10:15 8,7 °C 8,7 °C 96 % 1015,8 hPa 0,2 mm 0,9 km/h (0 Bft) NW 311 ° 0 min 0,000 mm 0,0 UV-I 32 W/m² 8,1 °C 8,7 °C 3,2 km/h (1 Bft)
02.09.2017 10:16 8,7 °C 8,7 °C 95 % 1015,8 hPa 0,0 mm 2,5 km/h (1 Bft) NW 312 ° 0 min 0,000 mm 0,0 UV-I 33 W/m² 7,9 °C 8,7 °C 3,2 km/h (1 Bft)
02.09.2017 10:17 8,7 °C 8,7 °C 95 % 1015,8 hPa 0,0 mm 2,8 km/h (1 Bft) NW 312 ° 0 min 0,000 mm 0,0 UV-I 39 W/m² 7,9 °C 8,7 °C 4,8 km/h (1 Bft)
02.09.2017 10:18 8,7 °C 8,7 °C 95 % 1015,8 hPa 0,2 mm 1,1 km/h (1 Bft) NW 312 ° 0 min 0,000 mm 0,0 UV-I 39 W/m² 7,9 °C 8,7 °C 1,6 km/h (1 Bft)
02.09.2017 10:19 8,7 °C 8,7 °C 96 % 1015,9 hPa 0,0 mm 0,9 km/h (0 Bft) NW 312 ° 0 min 0,000 mm 0,0 UV-I 37 W/m² 8,1 °C 8,7 °C 3,2 km/h (1 Bft)
02.09.2017 10:20 8,7 °C 8,7 °C 96 % 1015,9 hPa 0,0 mm 0,5 km/h (0 Bft) NW 312 ° 0 min 0,000 mm 0,0 UV-I 33 W/m² 8,1 °C 8,7 °C 3,2 km/h (1 Bft)
02.09.2017 10:21 8,7 °C 8,7 °C 95 % 1015,9 hPa 0,2 mm 1,2 km/h (1 Bft) NW 312 ° 0 min 0,000 mm 0,0 UV-I 33 W/m² 7,9 °C 8,7 °C 1,6 km/h (1 Bft)
02.09.2017 10:22 8,7 °C 8,7 °C 95 % 1015,9 hPa 0,0 mm 1,4 km/h (1 Bft) NW 312 ° 0 min 0,000 mm 0,0 UV-I 33 W/m² 7,9 °C 8,7 °C 3,2 km/h (1 Bft)
02.09.2017 10:23 8,7 °C 8,7 °C 95 % 1015,9 hPa 0,0 mm 1,2 km/h (1 Bft) NW 312 ° 0 min 0,000 mm 0,0 UV-I 33 W/m² 7,9 °C 8,7 °C 1,6 km/h (1 Bft)
02.09.2017 10:24 8,7 °C 8,7 °C 95 % 1015,9 hPa 0,0 mm 0,4 km/h (0 Bft) NW 312 ° 0 min 0,000 mm 0,0 UV-I 33 W/m² 7,9 °C 8,7 °C 1,6 km/h (1 Bft)
02.09.2017 10:25 8,7 °C 8,7 °C 95 % 1015,9 hPa 0,2 mm 1,2 km/h (1 Bft) NW 312 ° 0 min 0,000 mm 0,0 UV-I 33 W/m² 7,9 °C 8,7 °C 3,2 km/h (1 Bft)
02.09.2017 10:26 8,7 °C 8,7 °C 95 % 1015,9 hPa 0,0 mm 0,5 km/h (0 Bft) NW 312 ° 0 min 0,000 mm 0,0 UV-I 35 W/m² 7,9 °C 8,7 °C 1,6 km/h (1 Bft)
02.09.2017 10:27 8,7 °C 8,7 °C 95 % 1015,9 hPa 0,0 mm 2,1 km/h (1 Bft) NW 312 ° 0 min 0,000 mm 0,0 UV-I 42 W/m² 7,9 °C 8,7 °C 3,2 km/h (1 Bft)
02.09.2017 10:28 8,7 °C 8,7 °C 95 % 1015,9 hPa 0,2 mm 2,7 km/h (1 Bft) NW 312 ° 0 min 0,000 mm 0,0 UV-I 47 W/m² 7,9 °C 8,7 °C 3,2 km/h (1 Bft)
02.09.2017 10:29 8,7 °C 8,7 °C 95 % 1015,9 hPa 0,0 mm 0,9 km/h (0 Bft) NW 312 ° 0 min 0,000 mm 0,0 UV-I 49 W/m² 7,9 °C 8,7 °C 1,6 km/h (1 Bft)
02.09.2017 10:30 8,7 °C 8,7 °C 96 % 1015,9 hPa 0,0 mm 0,2 km/h (0 Bft) NW 312 ° 0 min 0,000 mm 0,0 UV-I 54 W/m² 8,1 °C 8,7 °C 1,6 km/h (1 Bft)
02.09.2017 10:31 8,7 °C 8,7 °C 96 % 1015,9 hPa 0,2 mm 0,7 km/h (0 Bft) NW 312 ° 0 min 0,000 mm 0,5 UV-I 58 W/m² 8,1 °C 8,7 °C 3,2 km/h (1 Bft)
02.09.2017 10:32 8,7 °C 8,8 °C 96 % 1015,9 hPa 0,0 mm 1,6 km/h (1 Bft) NW 312 ° 0 min 0,000 mm 0,5 UV-I 58 W/m² 8,1 °C 8,7 °C 3,2 km/h (1 Bft)
02.09.2017 10:33 8,7 °C 8,8 °C 95 % 1015,9 hPa 0,0 mm 0,8 km/h (0 Bft) NW 312 ° 0 min 0,000 mm 0,5 UV-I 56 W/m² 7,9 °C 8,7 °C 1,6 km/h (1 Bft)
02.09.2017 10:34 8,8 °C 8,8 °C 95 % 1015,9 hPa 0,2 mm 0,0 km/h (0 Bft) NW 312 ° 0 min 0,000 mm 0,5 UV-I 58 W/m² 8,0 °C 8,8 °C 0,0 km/h (0 Bft)
02.09.2017 10:35 8,8 °C 8,8 °C 96 % 1015,9 hPa 0,0 mm 1,0 km/h (0 Bft) NW 312 ° 0 min 0,000 mm 0,5 UV-I 58 W/m² 8,2 °C 8,8 °C 1,6 km/h (1 Bft)
02.09.2017 10:36 8,8 °C 8,8 °C 96 % 1015,9 hPa 0,0 mm 0,0 km/h (0 Bft) NW 312 ° 0 min 0,000 mm 0,5 UV-I 63 W/m² 8,2 °C 8,8 °C 0,0 km/h (0 Bft)
02.09.2017 10:37 8,8 °C 8,8 °C 96 % 1015,9 hPa 0,0 mm 0,0 km/h (0 Bft) NW 312 ° 0 min 0,000 mm 0,5 UV-I 65 W/m² 8,2 °C 8,8 °C 0,0 km/h (0 Bft)
02.09.2017 10:38 8,8 °C 8,8 °C 96 % 1015,9 hPa 0,2 mm 1,9 km/h (1 Bft) NW 312 ° 0 min 0,000 mm 0,5 UV-I 63 W/m² 8,2 °C 8,8 °C 3,2 km/h (1 Bft)
02.09.2017 10:39 8,8 °C 8,9 °C 96 % 1015,9 hPa 0,0 mm 0,5 km/h (0 Bft) NW 312 ° 0 min 0,000 mm 0,5 UV-I 67 W/m² 8,2 °C 8,8 °C 1,6 km/h (1 Bft)
02.09.2017 10:40 8,8 °C 8,8 °C 96 % 1015,9 hPa 0,0 mm 0,7 km/h (0 Bft) NW 312 ° 0 min 0,000 mm 0,5 UV-I 67 W/m² 8,2 °C 8,8 °C 1,6 km/h (1 Bft)
02.09.2017 10:41 8,8 °C 8,8 °C 95 % 1015,9 hPa 0,0 mm 0,1 km/h (0 Bft) NW 312 ° 0 min 0,000 mm 0,5 UV-I 67 W/m² 8,0 °C 8,8 °C 1,6 km/h (1 Bft)
02.09.2017 10:42 8,8 °C 8,8 °C 95 % 1015,8 hPa 0,2 mm 0,8 km/h (0 Bft) NW 312 ° 0 min 0,000 mm 0,5 UV-I 65 W/m² 8,0 °C 8,8 °C 3,2 km/h (1 Bft)
02.09.2017 10:43 8,8 °C 8,8 °C 95 % 1015,8 hPa 0,0 mm 0,7 km/h (0 Bft) NW 312 ° 0 min 0,000 mm 0,5 UV-I 67 W/m² 8,0 °C 8,8 °C 3,2 km/h (1 Bft)
02.09.2017 10:44 8,9 °C 8,9 °C 96 % 1015,9 hPa 0,0 mm 0,0 km/h (0 Bft) NW 312 ° 0 min 0,000 mm 0,5 UV-I 67 W/m² 8,3 °C 8,9 °C 0,0 km/h (0 Bft)
02.09.2017 10:45 8,9 °C 8,9 °C 95 % 1015,9 hPa 0,0 mm 0,4 km/h (0 Bft) NW 312 ° 0 min 0,000 mm 0,6 UV-I 67 W/m² 8,1 °C 8,9 °C 3,2 km/h (1 Bft)
02.09.2017 10:46 8,9 °C 8,9 °C 96 % 1015,9 hPa 0,0 mm 2,9 km/h (1 Bft) NW 312 ° 0 min 0,000 mm 0,6 UV-I 67 W/m² 8,3 °C 8,9 °C 3,2 km/h (1 Bft)
02.09.2017 10:47 8,9 °C 8,9 °C 95 % 1015,8 hPa 0,2 mm 1,9 km/h (1 Bft) NW 311 ° 0 min 0,000 mm 0,6 UV-I 67 W/m² 8,1 °C 8,9 °C 3,2 km/h (1 Bft)
02.09.2017 10:48 8,9 °C 8,9 °C 95 % 1015,8 hPa 0,0 mm 2,3 km/h (1 Bft) NW 311 ° 0 min 0,000 mm 0,6 UV-I 67 W/m² 8,1 °C 8,9 °C 3,2 km/h (1 Bft)
02.09.2017 10:49 8,9 °C 8,9 °C 95 % 1015,8 hPa 0,0 mm 1,5 km/h (1 Bft) NW 311 ° 0 min 0,000 mm 0,6 UV-I 69 W/m² 8,1 °C 8,9 °C 3,2 km/h (1 Bft)
02.09.2017 10:50 8,8 °C 8,9 °C 95 % 1015,8 hPa 0,2 mm 1,7 km/h (1 Bft) NW 319 ° 0 min 0,000 mm 0,6 UV-I 69 W/m² 8,0 °C 8,8 °C 3,2 km/h (1 Bft)
02.09.2017 10:51 8,8 °C 8,8 °C 95 % 1015,8 hPa 0,0 mm 2,1 km/h (1 Bft) NW 319 ° 0 min 0,000 mm 0,6 UV-I 69 W/m² 8,0 °C 8,8 °C 3,2 km/h (1 Bft)
02.09.2017 10:52 8,8 °C 8,8 °C 95 % 1015,8 hPa 0,0 mm 0,2 km/h (0 Bft) NW 319 ° 0 min 0,000 mm 0,6 UV-I 69 W/m² 8,0 °C 8,8 °C 1,6 km/h (1 Bft)
02.09.2017 10:53 8,9 °C 8,9 °C 95 % 1015,8 hPa 0,0 mm 0,9 km/h (0 Bft) NW 319 ° 0 min 0,000 mm 0,6 UV-I 70 W/m² 8,1 °C 8,9 °C 3,2 km/h (1 Bft)
02.09.2017 10:54 8,9 °C 8,9 °C 95 % 1015,8 hPa 0,0 mm 0,5 km/h (0 Bft) NW 319 ° 0 min 0,000 mm 0,6 UV-I 70 W/m² 8,1 °C 8,9 °C 1,6 km/h (1 Bft)
02.09.2017 10:55 8,9 °C 8,9 °C 95 % 1015,8 hPa 0,2 mm 0,0 km/h (0 Bft) NW 319 ° 0 min 0,000 mm 0,6 UV-I 70 W/m² 8,1 °C 8,9 °C 0,0 km/h (0 Bft)
02.09.2017 10:56 8,9 °C 8,9 °C 95 % 1015,8 hPa 0,0 mm 0,0 km/h (0 Bft) NW 319 ° 0 min 0,000 mm 0,6 UV-I 65 W/m² 8,1 °C 8,9 °C 0,0 km/h (0 Bft)
02.09.2017 10:57 8,9 °C 8,9 °C 95 % 1015,8 hPa 0,0 mm 0,3 km/h (0 Bft) NW 319 ° 0 min 0,000 mm 0,5 UV-I 62 W/m² 8,1 °C 8,9 °C 1,6 km/h (1 Bft)
02.09.2017 10:58 8,9 °C 8,9 °C 95 % 1015,8 hPa 0,0 mm 2,1 km/h (1 Bft) NW 304 ° 0 min 0,000 mm 0,5 UV-I 56 W/m² 8,1 °C 8,9 °C 4,8 km/h (1 Bft)
02.09.2017 10:59 8,9 °C 9,0 °C 95 % 1015,8 hPa 0,2 mm 1,3 km/h (1 Bft) NW 319 ° 0 min 0,000 mm 0,0 UV-I 51 W/m² 8,1 °C 8,9 °C 3,2 km/h (1 Bft)
02.09.2017 11:00 8,9 °C 9,0 °C 95 % 1015,8 hPa 0,0 mm 1,5 km/h (1 Bft) NW 319 ° 0 min 0,000 mm 0,0 UV-I 46 W/m² 8,1 °C 8,9 °C 3,2 km/h (1 Bft)
02.09.2017 11:01 8,9 °C 8,9 °C 95 % 1015,8 hPa 0,0 mm 2,0 km/h (1 Bft) NW 319 ° 0 min 0,026 mm 0,0 UV-I 40 W/m² 8,1 °C 8,9 °C 3,2 km/h (1 Bft)
02.09.2017 11:02 8,9 °C 8,9 °C 95 % 1015,8 hPa 0,2 mm 1,5 km/h (1 Bft) NW 319 ° 0 min 0,000 mm 0,0 UV-I 33 W/m² 8,1 °C 8,9 °C 1,6 km/h (1 Bft)
02.09.2017 11:03 8,9 °C 8,9 °C 95 % 1015,8 hPa 0,0 mm 1,7 km/h (1 Bft) NW 320 ° 0 min 0,000 mm 0,0 UV-I 30 W/m² 8,1 °C 8,9 °C 4,8 km/h (1 Bft)
02.09.2017 11:04 8,9 °C 9,0 °C 95 % 1015,8 hPa 0,0 mm 3,3 km/h (1 Bft) NW 326 ° 0 min 0,000 mm 0,0 UV-I 26 W/m² 8,1 °C 8,9 °C 4,8 km/h (1 Bft)
02.09.2017 11:05 8,9 °C 8,9 °C 95 % 1015,9 hPa 0,2 mm 0,1 km/h (0 Bft) NW 326 ° 0 min 0,000 mm 0,0 UV-I 25 W/m² 8,1 °C 8,9 °C 1,6 km/h (1 Bft)
02.09.2017 11:06 8,9 °C 8,9 °C 95 % 1015,9 hPa 0,0 mm 1,5 km/h (1 Bft) N-NW 330 ° 0 min 0,000 mm 0,0 UV-I 25 W/m² 8,1 °C 8,9 °C 4,8 km/h (1 Bft)
02.09.2017 11:07 8,9 °C 8,9 °C 95 % 1015,9 hPa 0,2 mm 3,0 km/h (1 Bft) N-NW 343 ° 0 min 0,000 mm 0,0 UV-I 26 W/m² 8,1 °C 8,9 °C 4,8 km/h (1 Bft)
02.09.2017 11:08 8,9 °C 8,9 °C 95 % 1015,9 hPa 0,0 mm 3,5 km/h (1 Bft) N 355 ° 0 min 0,000 mm 0,0 UV-I 25 W/m² 8,1 °C 8,9 °C 4,8 km/h (1 Bft)
02.09.2017 11:09 8,9 °C 8,9 °C 95 % 1016,0 hPa 0,2 mm 3,0 km/h (1 Bft) NO 42 ° 0 min 0,000 mm 0,0 UV-I 28 W/m² 8,1 °C 8,9 °C 4,8 km/h (1 Bft)
02.09.2017 11:10 8,9 °C 8,9 °C 94 % 1016,1 hPa 0,0 mm 1,9 km/h (1 Bft) NO 42 ° 0 min 0,000 mm 0,0 UV-I 35 W/m² 8,0 °C 8,9 °C 3,2 km/h (1 Bft)
02.09.2017 11:11 8,8 °C 8,9 °C 94 % 1016,1 hPa 0,2 mm 2,2 km/h (1 Bft) NO 44 ° 0 min 0,000 mm 0,0 UV-I 42 W/m² 7,9 °C 8,8 °C 3,2 km/h (1 Bft)
02.09.2017 11:12 8,8 °C 8,9 °C 94 % 1016,1 hPa 0,2 mm 1,9 km/h (1 Bft) O-NO 65 ° 0 min 0,000 mm 0,0 UV-I 47 W/m² 7,9 °C 8,8 °C 4,8 km/h (1 Bft)
02.09.2017 11:13 8,8 °C 8,8 °C 94 % 1016,1 hPa 0,0 mm 4,4 km/h (1 Bft) NO 52 ° 0 min 0,000 mm 0,0 UV-I 53 W/m² 7,9 °C 8,8 °C 9,7 km/h (2 Bft)
02.09.2017 11:14 8,7 °C 8,8 °C 94 % 1016,1 hPa 0,0 mm 0,0 km/h (0 Bft) NO 52 ° 0 min 0,000 mm 0,5 UV-I 58 W/m² 7,8 °C 8,7 °C 0,0 km/h (0 Bft)
02.09.2017 11:15 8,7 °C 8,7 °C 94 % 1016,0 hPa 0,0 mm 0,5 km/h (0 Bft) NO 52 ° 0 min 0,000 mm 0,5 UV-I 58 W/m² 7,8 °C 8,7 °C 1,6 km/h (1 Bft)
02.09.2017 11:16 8,7 °C 8,7 °C 94 % 1016,1 hPa 0,0 mm 2,7 km/h (1 Bft) O 82 ° 0 min 0,000 mm 0,5 UV-I 58 W/m² 7,8 °C 8,7 °C 6,4 km/h (2 Bft)
02.09.2017 11:17 8,7 °C 8,7 °C 94 % 1016,1 hPa 0,0 mm 5,0 km/h (1 Bft) NO 49 ° 0 min 0,000 mm 0,5 UV-I 56 W/m² 7,8 °C 8,3 °C 8,0 km/h (2 Bft)
02.09.2017 11:18 8,7 °C 8,7 °C 94 % 1016,1 hPa 0,2 mm 5,4 km/h (1 Bft) S-SO 151 ° 0 min 0,000 mm 0,5 UV-I 56 W/m² 7,8 °C 8,2 °C 11,3 km/h (2 Bft)
02.09.2017 11:19 8,7 °C 8,7 °C 94 % 1016,1 hPa 0,0 mm 5,6 km/h (1 Bft) N-NO 30 ° 0 min 0,000 mm 0,5 UV-I 58 W/m² 7,8 °C 8,1 °C 8,0 km/h (2 Bft)
02.09.2017 11:20 8,7 °C 8,7 °C 94 % 1016,2 hPa 0,0 mm 6,0 km/h (2 Bft) O-NO 76 ° 0 min 0,000 mm 0,5 UV-I 60 W/m² 7,8 °C 8,0 °C 12,9 km/h (3 Bft)
02.09.2017 11:21 8,6 °C 8,7 °C 94 % 1016,2 hPa 0,2 mm 5,4 km/h (1 Bft) O-NO 78 ° 0 min 0,000 mm 0,5 UV-I 62 W/m² 7,7 °C 8,0 °C 12,9 km/h (3 Bft)
02.09.2017 11:22 8,6 °C 8,6 °C 94 % 1016,2 hPa 0,0 mm 10,1 km/h (2 Bft) NO 41 ° 0 min 0,000 mm 0,6 UV-I 63 W/m² 7,7 °C 6,9 °C 16,1 km/h (3 Bft)
02.09.2017 11:23 8,6 °C 8,6 °C 94 % 1016,2 hPa 0,2 mm 5,8 km/h (2 Bft) O-NO 65 ° 0 min 0,000 mm 0,5 UV-I 62 W/m² 7,7 °C 7,9 °C 11,3 km/h (2 Bft)
02.09.2017 11:24 8,5 °C 8,6 °C 94 % 1016,2 hPa 0,0 mm 8,3 km/h (2 Bft) O 80 ° 0 min 0,000 mm 0,5 UV-I 60 W/m² 7,6 °C 7,2 °C 17,7 km/h (3 Bft)
02.09.2017 11:25 8,4 °C 8,5 °C 94 % 1016,2 hPa 0,2 mm 7,3 km/h (2 Bft) O-NO 71 ° 0 min 0,000 mm 0,5 UV-I 58 W/m² 7,5 °C 7,3 °C 9,7 km/h (2 Bft)
02.09.2017 11:26 8,4 °C 8,4 °C 94 % 1016,2 hPa 0,0 mm 8,5 km/h (2 Bft) O-SO 107 ° 0 min 0,000 mm 0,5 UV-I 60 W/m² 7,5 °C 7,0 °C 14,5 km/h (3 Bft)
02.09.2017 11:27 8,4 °C 8,4 °C 94 % 1016,2 hPa 0,0 mm 6,4 km/h (2 Bft) O-NO 73 ° 0 min 0,000 mm 0,6 UV-I 67 W/m² 7,5 °C 7,5 °C 9,7 km/h (2 Bft)
02.09.2017 11:28 8,4 °C 8,4 °C 94 % 1016,2 hPa 0,2 mm 3,1 km/h (1 Bft) O-NO 74 ° 0 min 0,000 mm 0,6 UV-I 70 W/m² 7,5 °C 8,4 °C 6,4 km/h (2 Bft)
02.09.2017 11:29 8,4 °C 8,4 °C 94 % 1016,2 hPa 0,0 mm 0,3 km/h (0 Bft) O-NO 74 ° 0 min 0,000 mm 0,6 UV-I 72 W/m² 7,5 °C 8,4 °C 1,6 km/h (1 Bft)
02.09.2017 11:30 8,3 °C 8,4 °C 94 % 1016,2 hPa 0,0 mm 0,8 km/h (0 Bft) O-NO 72 ° 0 min 0,000 mm 0,6 UV-I 74 W/m² 7,4 °C 8,3 °C 3,2 km/h (1 Bft)
02.09.2017 11:31 8,3 °C 8,3 °C 94 % 1016,2 hPa 0,0 mm 5,6 km/h (1 Bft) NO 52 ° 0 min 0,000 mm 0,6 UV-I 74 W/m² 7,4 °C 7,6 °C 8,0 km/h (2 Bft)
02.09.2017 11:32 8,3 °C 8,3 °C 94 % 1016,2 hPa 0,0 mm 2,9 km/h (1 Bft) NO 52 ° 0 min 0,000 mm 0,6 UV-I 74 W/m² 7,4 °C 8,3 °C 4,8 km/h (1 Bft)
02.09.2017 11:33 8,3 °C 8,3 °C 94 % 1016,3 hPa 0,2 mm 3,8 km/h (1 Bft) O 80 ° 0 min 0,000 mm 0,6 UV-I 74 W/m² 7,4 °C 8,3 °C 8,0 km/h (2 Bft)
02.09.2017 11:34 8,3 °C 8,3 °C 94 % 1016,3 hPa 0,0 mm 6,3 km/h (2 Bft) O 94 ° 0 min 0,000 mm 0,6 UV-I 74 W/m² 7,4 °C 7,4 °C 9,7 km/h (2 Bft)
02.09.2017 11:35 8,3 °C 8,3 °C 94 % 1016,3 hPa 0,0 mm 3,1 km/h (1 Bft) O 82 ° 0 min 0,000 mm 0,6 UV-I 76 W/m² 7,4 °C 8,3 °C 6,4 km/h (2 Bft)
02.09.2017 11:36 8,3 °C 8,4 °C 94 % 1016,4 hPa 0,0 mm 4,9 km/h (1 Bft) NO 53 ° 0 min 0,000 mm 0,6 UV-I 77 W/m² 7,4 °C 7,9 °C 8,0 km/h (2 Bft)
02.09.2017 11:37 8,3 °C 8,3 °C 94 % 1016,4 hPa 0,0 mm 3,0 km/h (1 Bft) O-SO 122 ° 0 min 0,000 mm 0,7 UV-I 81 W/m² 7,4 °C 8,3 °C 8,0 km/h (2 Bft)
02.09.2017 11:38 8,3 °C 8,3 °C 94 % 1016,4 hPa 0,0 mm 3,3 km/h (1 Bft) SO 135 ° 0 min 0,000 mm 0,7 UV-I 81 W/m² 7,4 °C 8,3 °C 8,0 km/h (2 Bft)
02.09.2017 11:39 8,3 °C 8,3 °C 94 % 1016,4 hPa 0,0 mm 2,1 km/h (1 Bft) O 81 ° 0 min 0,000 mm 0,7 UV-I 83 W/m² 7,4 °C 8,3 °C 4,8 km/h (1 Bft)
02.09.2017 11:40 8,3 °C 8,3 °C 94 % 1016,4 hPa 0,0 mm 2,3 km/h (1 Bft) O-NO 73 ° 0 min 0,000 mm 0,7 UV-I 84 W/m² 7,4 °C 8,3 °C 4,8 km/h (1 Bft)
02.09.2017 11:41 8,3 °C 8,3 °C 94 % 1016,4 hPa 0,2 mm 0,0 km/h (0 Bft) O-NO 73 ° 0 min 0,000 mm 0,7 UV-I 86 W/m² 7,4 °C 8,3 °C 0,0 km/h (0 Bft)
02.09.2017 11:42 8,3 °C 8,3 °C 94 % 1016,4 hPa 0,0 mm 0,5 km/h (0 Bft) O-NO 78 ° 0 min 0,000 mm 0,7 UV-I 88 W/m² 7,4 °C 8,3 °C 3,2 km/h (1 Bft)
02.09.2017 11:43 8,3 °C 8,3 °C 94 % 1016,4 hPa 0,0 mm 3,7 km/h (1 Bft) O-NO 67 ° 0 min 0,000 mm 0,7 UV-I 91 W/m² 7,4 °C 8,3 °C 6,4 km/h (2 Bft)
02.09.2017 11:44 8,3 °C 8,3 °C 94 % 1016,4 hPa 0,0 mm 3,0 km/h (1 Bft) NO 34 ° 0 min 0,000 mm 0,8 UV-I 93 W/m² 7,4 °C 8,3 °C 6,4 km/h (2 Bft)
02.09.2017 11:45 8,3 °C 8,3 °C 94 % 1016,4 hPa 0,0 mm 4,8 km/h (1 Bft) O-SO 123 ° 0 min 0,000 mm 0,8 UV-I 95 W/m² 7,4 °C 7,9 °C 9,7 km/h (2 Bft)
02.09.2017 11:46 8,3 °C 8,4 °C 94 % 1016,4 hPa 0,0 mm 1,7 km/h (1 Bft) SO 136 ° 0 min 0,000 mm 0,8 UV-I 97 W/m² 7,4 °C 8,3 °C 6,4 km/h (2 Bft)
02.09.2017 11:47 8,4 °C 8,4 °C 94 % 1016,4 hPa 0,2 mm 2,4 km/h (1 Bft) NO 50 ° 0 min 0,000 mm 0,8 UV-I 97 W/m² 7,5 °C 8,4 °C 4,8 km/h (1 Bft)
02.09.2017 11:48 8,4 °C 8,4 °C 94 % 1016,4 hPa 0,0 mm 3,0 km/h (1 Bft) NO 50 ° 0 min 0,000 mm 0,8 UV-I 102 W/m² 7,5 °C 8,4 °C 4,8 km/h (1 Bft)
02.09.2017 11:49 8,4 °C 8,4 °C 94 % 1016,4 hPa 0,0 mm 3,2 km/h (1 Bft) O-NO 63 ° 0 min 0,000 mm 0,9 UV-I 107 W/m² 7,5 °C 8,4 °C 4,8 km/h (1 Bft)
02.09.2017 11:50 8,4 °C 8,4 °C 94 % 1016,4 hPa 0,0 mm 0,2 km/h (0 Bft) O-NO 63 ° 0 min 0,000 mm 0,9 UV-I 109 W/m² 7,5 °C 8,4 °C 1,6 km/h (1 Bft)
02.09.2017 11:51 8,4 °C 8,4 °C 94 % 1016,4 hPa 0,0 mm 1,3 km/h (1 Bft) O-NO 67 ° 0 min 0,000 mm 0,9 UV-I 113 W/m² 7,5 °C 8,4 °C 3,2 km/h (1 Bft)
02.09.2017 11:52 8,4 °C 8,4 °C 94 % 1016,4 hPa 0,0 mm 1,1 km/h (1 Bft) O-NO 67 ° 0 min 0,000 mm 0,9 UV-I 114 W/m² 7,5 °C 8,4 °C 3,2 km/h (1 Bft)
02.09.2017 11:53 8,4 °C 8,4 °C 94 % 1016,4 hPa 0,0 mm 5,3 km/h (1 Bft) O-NO 78 ° 0 min 0,000 mm 0,9 UV-I 116 W/m² 7,5 °C 7,8 °C 8,0 km/h (2 Bft)
02.09.2017 11:54 8,4 °C 8,4 °C 94 % 1016,5 hPa 0,0 mm 1,1 km/h (1 Bft) O-NO 78 ° 0 min 0,000 mm 0,9 UV-I 116 W/m² 7,5 °C 8,4 °C 3,2 km/h (1 Bft)
02.09.2017 11:55 8,4 °C 8,4 °C 94 % 1016,5 hPa 0,0 mm 0,4 km/h (0 Bft) O-NO 78 ° 0 min 0,000 mm 0,9 UV-I 114 W/m² 7,5 °C 8,4 °C 1,6 km/h (1 Bft)
02.09.2017 11:56 8,5 °C 8,5 °C 94 % 1016,5 hPa 0,0 mm 1,5 km/h (1 Bft) O-NO 78 ° 0 min 0,000 mm 0,9 UV-I 116 W/m² 7,6 °C 8,5 °C 3,2 km/h (1 Bft)
02.09.2017 11:57 8,4 °C 8,5 °C 94 % 1016,5 hPa 0,0 mm 2,7 km/h (1 Bft) O-SO 113 ° 0 min 0,000 mm 0,9 UV-I 116 W/m² 7,5 °C 8,4 °C 4,8 km/h (1 Bft)
02.09.2017 11:58 8,5 °C 8,5 °C 94 % 1016,5 hPa 0,0 mm 2,9 km/h (1 Bft) O-NO 65 ° 0 min 0,000 mm 1,0 UV-I 118 W/m² 7,6 °C 8,5 °C 4,8 km/h (1 Bft)
02.09.2017 11:59 8,4 °C 8,5 °C 94 % 1016,4 hPa 0,0 mm 1,0 km/h (0 Bft) O-NO 65 ° 0 min 0,000 mm 1,0 UV-I 120 W/m² 7,5 °C 8,4 °C 3,2 km/h (1 Bft)
02.09.2017 12:00 8,5 °C 8,5 °C 94 % 1016,5 hPa 0,0 mm 0,2 km/h (0 Bft) O 93 ° 0 min 0,000 mm 1,0 UV-I 120 W/m² 7,6 °C 8,5 °C 1,6 km/h (1 Bft)
02.09.2017 12:01 8,5 °C 8,5 °C 94 % 1016,5 hPa 0,0 mm 2,0 km/h (1 Bft) O 93 ° 0 min 0,025 mm 1,0 UV-I 123 W/m² 7,6 °C 8,5 °C 4,8 km/h (1 Bft)
02.09.2017 12:02 8,5 °C 8,5 °C 94 % 1016,4 hPa 0,0 mm 2,1 km/h (1 Bft) O 93 ° 0 min 0,000 mm 1,0 UV-I 123 W/m² 7,6 °C 8,5 °C 4,8 km/h (1 Bft)
02.09.2017 12:03 8,5 °C 8,5 °C 93 % 1016,4 hPa 0,0 mm 3,3 km/h (1 Bft) NO 56 ° 0 min 0,000 mm 1,0 UV-I 123 W/m² 7,4 °C 8,5 °C 6,4 km/h (2 Bft)
02.09.2017 12:04 8,5 °C 8,5 °C 93 % 1016,4 hPa 0,2 mm 5,2 km/h (1 Bft) O-NO 59 ° 0 min 0,000 mm 1,0 UV-I 123 W/m² 7,4 °C 8,0 °C 8,0 km/h (2 Bft)
02.09.2017 12:05 8,5 °C 8,6 °C 93 % 1016,5 hPa 0,0 mm 2,7 km/h (1 Bft) O-NO 76 ° 0 min 0,000 mm 1,0 UV-I 123 W/m² 7,4 °C 8,5 °C 4,8 km/h (1 Bft)
02.09.2017 12:06 8,6 °C 8,6 °C 93 % 1016,4 hPa 0,0 mm 0,4 km/h (0 Bft) O-NO 76 ° 0 min 0,000 mm 1,0 UV-I 125 W/m² 7,5 °C 8,6 °C 1,6 km/h (1 Bft)
02.09.2017 12:07 8,6 °C 8,6 °C 93 % 1016,4 hPa 0,0 mm 0,0 km/h (0 Bft) O-NO 76 ° 0 min 0,000 mm 1,0 UV-I 127 W/m² 7,5 °C 8,6 °C 0,0 km/h (0 Bft)
02.09.2017 12:08 8,6 °C 8,6 °C 93 % 1016,4 hPa 0,0 mm 1,0 km/h (0 Bft) O-NO 76 ° 0 min 0,000 mm 1,0 UV-I 127 W/m² 7,5 °C 8,6 °C 3,2 km/h (1 Bft)
02.09.2017 12:09 8,6 °C 8,6 °C 93 % 1016,4 hPa 0,0 mm 0,6 km/h (0 Bft) O-NO 76 ° 0 min 0,000 mm 1,0 UV-I 128 W/m² 7,5 °C 8,6 °C 1,6 km/h (1 Bft)
02.09.2017 12:10 8,6 °C 8,6 °C 93 % 1016,4 hPa 0,0 mm 1,3 km/h (1 Bft) O-NO 76 ° 0 min 0,000 mm 1,0 UV-I 128 W/m² 7,5 °C 8,6 °C 3,2 km/h (1 Bft)
02.09.2017 12:11 8,6 °C 8,6 °C 93 % 1016,5 hPa 0,0 mm 1,3 km/h (1 Bft) O-NO 76 ° 0 min 0,000 mm 1,0 UV-I 128 W/m² 7,5 °C 8,6 °C 3,2 km/h (1 Bft)
02.09.2017 12:12 8,6 °C 8,6 °C 93 % 1016,4 hPa 0,0 mm 0,7 km/h (0 Bft) O-NO 76 ° 0 min 0,000 mm 1,0 UV-I 128 W/m² 7,5 °C 8,6 °C 3,2 km/h (1 Bft)
02.09.2017 12:13 8,6 °C 8,6 °C 93 % 1016,4 hPa 0,0 mm 1,4 km/h (1 Bft) O-NO 76 ° 0 min 0,000 mm 1,0 UV-I 125 W/m² 7,5 °C 8,6 °C 3,2 km/h (1 Bft)
02.09.2017 12:14 8,6 °C 8,6 °C 93 % 1016,5 hPa 0,0 mm 2,0 km/h (1 Bft) SO 132 ° 0 min 0,000 mm 1,0 UV-I 125 W/m² 7,5 °C 8,6 °C 4,8 km/h (1 Bft)
02.09.2017 12:15 8,6 °C 8,6 °C 92 % 1016,5 hPa 0,0 mm 0,5 km/h (0 Bft) SO 132 ° 0 min 0,000 mm 1,0 UV-I 125 W/m² 7,4 °C 8,6 °C 1,6 km/h (1 Bft)
02.09.2017 12:16 8,6 °C 8,6 °C 93 % 1016,5 hPa 0,0 mm 0,0 km/h (0 Bft) SO 132 ° 0 min 0,000 mm 1,1 UV-I 127 W/m² 7,5 °C 8,6 °C 0,0 km/h (0 Bft)
02.09.2017 12:17 8,6 °C 8,6 °C 93 % 1016,5 hPa 0,2 mm 0,0 km/h (0 Bft) SO 132 ° 0 min 0,000 mm 1,1 UV-I 128 W/m² 7,5 °C 8,6 °C 0,0 km/h (0 Bft)
02.09.2017 12:18 8,7 °C 8,7 °C 93 % 1016,5 hPa 0,0 mm 0,0 km/h (0 Bft) SO 132 ° 0 min 0,000 mm 1,1 UV-I 132 W/m² 7,6 °C 8,7 °C 0,0 km/h (0 Bft)
02.09.2017 12:19 8,7 °C 8,7 °C 93 % 1016,5 hPa 0,0 mm 1,7 km/h (1 Bft) O-SO 121 ° 0 min 0,000 mm 1,1 UV-I 132 W/m² 7,6 °C 8,7 °C 3,2 km/h (1 Bft)
02.09.2017 12:20 8,7 °C 8,7 °C 93 % 1016,5 hPa 0,0 mm 1,5 km/h (1 Bft) O-SO 121 ° 0 min 0,000 mm 1,1 UV-I 132 W/m² 7,6 °C 8,7 °C 3,2 km/h (1 Bft)
02.09.2017 12:21 8,7 °C 8,7 °C 92 % 1016,5 hPa 0,0 mm 1,8 km/h (1 Bft) NO 49 ° 0 min 0,000 mm 1,1 UV-I 132 W/m² 7,5 °C 8,7 °C 3,2 km/h (1 Bft)
02.09.2017 12:22 8,7 °C 8,7 °C 93 % 1016,4 hPa 0,0 mm 3,4 km/h (1 Bft) NO 49 ° 0 min 0,000 mm 1,1 UV-I 134 W/m² 7,6 °C 8,7 °C 4,8 km/h (1 Bft)
02.09.2017 12:23 8,7 °C 8,7 °C 93 % 1016,5 hPa 0,0 mm 3,1 km/h (1 Bft) NO 49 ° 0 min 0,000 mm 1,1 UV-I 135 W/m² 7,6 °C 8,7 °C 4,8 km/h (1 Bft)
02.09.2017 12:24 8,7 °C 8,7 °C 92 % 1016,5 hPa 0,0 mm 2,9 km/h (1 Bft) NO 49 ° 0 min 0,000 mm 1,2 UV-I 146 W/m² 7,5 °C 8,7 °C 4,8 km/h (1 Bft)
02.09.2017 12:25 8,7 °C 8,7 °C 93 % 1016,5 hPa 0,0 mm 4,0 km/h (1 Bft) NO 49 ° 0 min 0,000 mm 1,3 UV-I 151 W/m² 7,6 °C 8,7 °C 4,8 km/h (1 Bft)
02.09.2017 12:26 8,7 °C 8,7 °C 92 % 1016,5 hPa 0,0 mm 1,5 km/h (1 Bft) NO 49 ° 0 min 0,000 mm 1,3 UV-I 156 W/m² 7,5 °C 8,7 °C 3,2 km/h (1 Bft)
02.09.2017 12:27 8,7 °C 8,7 °C 92 % 1016,5 hPa 0,0 mm 0,2 km/h (0 Bft) NO 49 ° 0 min 0,000 mm 1,3 UV-I 158 W/m² 7,5 °C 8,7 °C 1,6 km/h (1 Bft)
02.09.2017 12:28 8,7 °C 8,7 °C 92 % 1016,5 hPa 0,0 mm 0,5 km/h (0 Bft) NO 49 ° 0 min 0,000 mm 1,3 UV-I 158 W/m² 7,5 °C 8,7 °C 3,2 km/h (1 Bft)
02.09.2017 12:29 8,7 °C 8,7 °C 92 % 1016,5 hPa 0,0 mm 0,9 km/h (0 Bft) NO 49 ° 0 min 0,000 mm 1,3 UV-I 156 W/m² 7,5 °C 8,7 °C 3,2 km/h (1 Bft)
02.09.2017 12:30 8,7 °C 8,7 °C 92 % 1016,5 hPa 0,0 mm 1,2 km/h (1 Bft) NO 49 ° 0 min 0,000 mm 1,3 UV-I 151 W/m² 7,5 °C 8,7 °C 1,6 km/h (1 Bft)
02.09.2017 12:31 8,7 °C 8,7 °C 92 % 1016,4 hPa 0,0 mm 0,2 km/h (0 Bft) NO 49 ° 0 min 0,000 mm 1,3 UV-I 153 W/m² 7,5 °C 8,7 °C 1,6 km/h (1 Bft)
02.09.2017 12:32 8,8 °C 8,8 °C 92 % 1016,5 hPa 0,0 mm 0,3 km/h (0 Bft) NO 49 ° 0 min 0,000 mm 1,3 UV-I 158 W/m² 7,6 °C 8,8 °C 1,6 km/h (1 Bft)
02.09.2017 12:33 8,8 °C 8,8 °C 92 % 1016,5 hPa 0,0 mm 1,4 km/h (1 Bft) NO 49 ° 0 min 0,000 mm 1,3 UV-I 163 W/m² 7,6 °C 8,8 °C 3,2 km/h (1 Bft)
02.09.2017 12:34 8,8 °C 8,8 °C 93 % 1016,5 hPa 0,0 mm 1,4 km/h (1 Bft) NO 49 ° 0 min 0,000 mm 1,3 UV-I 167 W/m² 7,7 °C 8,8 °C 3,2 km/h (1 Bft)
02.09.2017 12:35 8,8 °C 8,8 °C 93 % 1016,5 hPa 0,0 mm 0,1 km/h (0 Bft) NO 49 ° 0 min 0,000 mm 1,4 UV-I 171 W/m² 7,7 °C 8,8 °C 1,6 km/h (1 Bft)
02.09.2017 12:36 8,9 °C 8,9 °C 93 % 1016,4 hPa 0,2 mm 2,9 km/h (1 Bft) NO 49 ° 0 min 0,000 mm 1,4 UV-I 176 W/m² 7,8 °C 8,9 °C 3,2 km/h (1 Bft)
02.09.2017 12:37 8,9 °C 8,9 °C 92 % 1016,5 hPa 0,0 mm 0,6 km/h (0 Bft) NO 49 ° 0 min 0,000 mm 1,4 UV-I 174 W/m² 7,7 °C 8,9 °C 3,2 km/h (1 Bft)
02.09.2017 12:38 8,8 °C 8,9 °C 91 % 1016,5 hPa 0,0 mm 1,1 km/h (1 Bft) NO 49 ° 0 min 0,000 mm 1,3 UV-I 167 W/m² 7,4 °C 8,8 °C 3,2 km/h (1 Bft)
02.09.2017 12:39 8,8 °C 8,9 °C 91 % 1016,5 hPa 0,0 mm 3,6 km/h (1 Bft) NO 50 ° 0 min 0,000 mm 1,2 UV-I 156 W/m² 7,4 °C 8,8 °C 4,8 km/h (1 Bft)
02.09.2017 12:40 8,9 °C 8,9 °C 91 % 1016,5 hPa 0,0 mm 3,3 km/h (1 Bft) O 98 ° 0 min 0,000 mm 1,2 UV-I 149 W/m² 7,5 °C 8,9 °C 4,8 km/h (1 Bft)
02.09.2017 12:41 8,9 °C 8,9 °C 91 % 1016,4 hPa 0,0 mm 3,9 km/h (1 Bft) O-SO 119 ° 0 min 0,000 mm 1,2 UV-I 146 W/m² 7,5 °C 8,9 °C 6,4 km/h (2 Bft)
02.09.2017 12:42 8,9 °C 8,9 °C 91 % 1016,5 hPa 0,0 mm 1,2 km/h (1 Bft) O-SO 119 ° 0 min 0,000 mm 1,2 UV-I 153 W/m² 7,5 °C 8,9 °C 3,2 km/h (1 Bft)
02.09.2017 12:43 8,9 °C 8,9 °C 92 % 1016,5 hPa 0,0 mm 1,8 km/h (1 Bft) O-SO 104 ° 0 min 0,000 mm 1,3 UV-I 153 W/m² 7,7 °C 8,9 °C 3,2 km/h (1 Bft)
02.09.2017 12:44 8,9 °C 8,9 °C 92 % 1016,5 hPa 0,0 mm 3,8 km/h (1 Bft) O-SO 107 ° 0 min 0,000 mm 1,3 UV-I 156 W/m² 7,7 °C 8,9 °C 4,8 km/h (1 Bft)
02.09.2017 12:45 8,9 °C 8,9 °C 91 % 1016,5 hPa 0,0 mm 3,5 km/h (1 Bft) O-SO 113 ° 0 min 0,000 mm 1,3 UV-I 160 W/m² 7,5 °C 8,9 °C 4,8 km/h (1 Bft)
02.09.2017 12:46 8,9 °C 8,9 °C 91 % 1016,5 hPa 0,0 mm 2,6 km/h (1 Bft) NO 51 ° 0 min 0,000 mm 1,3 UV-I 162 W/m² 7,5 °C 8,9 °C 4,8 km/h (1 Bft)
02.09.2017 12:47 8,9 °C 8,9 °C 91 % 1016,5 hPa 0,0 mm 3,1 km/h (1 Bft) NO 54 ° 0 min 0,000 mm 1,3 UV-I 162 W/m² 7,5 °C 8,9 °C 4,8 km/h (1 Bft)
02.09.2017 12:49 8,9 °C 8,9 °C 91 % 1016,5 hPa 0,0 mm 2,1 km/h (1 Bft) O-NO 74 ° 0 min 0,000 mm 1,4 UV-I 169 W/m² 7,5 °C 8,9 °C 4,8 km/h (1 Bft)
02.09.2017 12:50 8,8 °C 8,9 °C 91 % 1016,5 hPa 0,0 mm 1,3 km/h (1 Bft) O-NO 74 ° 0 min 0,000 mm 1,4 UV-I 169 W/m² 7,4 °C 8,8 °C 3,2 km/h (1 Bft)
02.09.2017 12:51 8,9 °C 8,9 °C 91 % 1016,5 hPa 0,0 mm 0,1 km/h (0 Bft) O-NO 74 ° 0 min 0,000 mm 1,3 UV-I 165 W/m² 7,5 °C 8,9 °C 1,6 km/h (1 Bft)
02.09.2017 12:52 8,8 °C 8,9 °C 91 % 1016,5 hPa 0,0 mm 0,9 km/h (0 Bft) O-NO 74 ° 0 min 0,000 mm 1,4 UV-I 165 W/m² 7,4 °C 8,8 °C 3,2 km/h (1 Bft)
02.09.2017 12:53 8,9 °C 8,9 °C 91 % 1016,5 hPa 0,0 mm 3,8 km/h (1 Bft) O 80 ° 0 min 0,000 mm 1,4 UV-I 178 W/m² 7,5 °C 8,9 °C 4,8 km/h (1 Bft)
02.09.2017 12:54 8,8 °C 8,9 °C 91 % 1016,5 hPa 0,0 mm 5,2 km/h (1 Bft) O 94 ° 0 min 0,000 mm 1,5 UV-I 181 W/m² 7,4 °C 8,3 °C 6,4 km/h (2 Bft)
02.09.2017 12:55 8,8 °C 8,9 °C 90 % 1016,5 hPa 0,0 mm 4,2 km/h (1 Bft) SO 130 ° 0 min 0,000 mm 1,4 UV-I 176 W/m² 7,3 °C 8,8 °C 6,4 km/h (2 Bft)
02.09.2017 12:56 8,8 °C 8,9 °C 90 % 1016,5 hPa 0,0 mm 4,6 km/h (1 Bft) SO 134 ° 0 min 0,000 mm 1,3 UV-I 165 W/m² 7,3 °C 8,5 °C 6,4 km/h (2 Bft)
02.09.2017 12:57 8,8 °C 8,8 °C 91 % 1016,5 hPa 0,0 mm 3,0 km/h (1 Bft) SO 134 ° 0 min 0,000 mm 1,2 UV-I 155 W/m² 7,4 °C 8,8 °C 4,8 km/h (1 Bft)
02.09.2017 12:58 8,8 °C 8,8 °C 91 % 1016,5 hPa 0,0 mm 2,5 km/h (1 Bft) SO 132 ° 0 min 0,000 mm 1,2 UV-I 149 W/m² 7,4 °C 8,8 °C 4,8 km/h (1 Bft)
02.09.2017 12:59 8,8 °C 8,8 °C 91 % 1016,6 hPa 0,0 mm 1,3 km/h (1 Bft) O 96 ° 0 min 0,000 mm 1,2 UV-I 151 W/m² 7,4 °C 8,8 °C 3,2 km/h (1 Bft)
02.09.2017 13:00 8,8 °C 8,8 °C 91 % 1016,5 hPa 0,0 mm 0,1 km/h (0 Bft) O 96 ° 0 min 0,000 mm 1,2 UV-I 149 W/m² 7,4 °C 8,8 °C 1,6 km/h (1 Bft)
02.09.2017 13:01 8,8 °C 8,8 °C 91 % 1016,5 hPa 0,0 mm 0,1 km/h (0 Bft) O 96 ° 0 min 0,076 mm 1,2 UV-I 149 W/m² 7,4 °C 8,8 °C 1,6 km/h (1 Bft)
02.09.2017 13:02 8,8 °C 8,8 °C 91 % 1016,5 hPa 0,2 mm 0,3 km/h (0 Bft) O 96 ° 0 min 0,000 mm 1,3 UV-I 153 W/m² 7,4 °C 8,8 °C 1,6 km/h (1 Bft)
02.09.2017 13:03 8,8 °C 8,8 °C 92 % 1016,5 hPa 0,0 mm 0,3 km/h (0 Bft) O 96 ° 0 min 0,000 mm 1,3 UV-I 160 W/m² 7,6 °C 8,8 °C 1,6 km/h (1 Bft)
02.09.2017 13:04 8,9 °C 8,9 °C 92 % 1016,4 hPa 0,0 mm 0,2 km/h (0 Bft) O-NO 57 ° 0 min 0,000 mm 1,4 UV-I 169 W/m² 7,7 °C 8,9 °C 1,6 km/h (1 Bft)
02.09.2017 13:05 8,9 °C 8,9 °C 93 % 1016,5 hPa 0,0 mm 1,5 km/h (1 Bft) O-NO 57 ° 0 min 0,000 mm 1,4 UV-I 181 W/m² 7,8 °C 8,9 °C 1,6 km/h (1 Bft)
02.09.2017 13:06 8,9 °C 8,9 °C 92 % 1016,5 hPa 0,0 mm 0,1 km/h (0 Bft) O-NO 57 ° 0 min 0,000 mm 1,6 UV-I 190 W/m² 7,7 °C 8,9 °C 1,6 km/h (1 Bft)
02.09.2017 13:07 8,9 °C 8,9 °C 92 % 1016,6 hPa 0,0 mm 0,0 km/h (0 Bft) O-NO 57 ° 0 min 0,000 mm 1,6 UV-I 197 W/m² 7,7 °C 8,9 °C 0,0 km/h (0 Bft)
02.09.2017 13:08 8,9 °C 8,9 °C 92 % 1016,5 hPa 0,0 mm 0,0 km/h (0 Bft) O-NO 57 ° 0 min 0,000 mm 1,6 UV-I 199 W/m² 7,7 °C 8,9 °C 0,0 km/h (0 Bft)
02.09.2017 13:09 8,9 °C 8,9 °C 93 % 1016,5 hPa 0,0 mm 1,5 km/h (1 Bft) O-NO 57 ° 0 min 0,000 mm 1,6 UV-I 195 W/m² 7,8 °C 8,9 °C 3,2 km/h (1 Bft)
02.09.2017 13:10 9,0 °C 9,0 °C 92 % 1016,5 hPa 0,0 mm 4,1 km/h (1 Bft) NO 55 ° 0 min 0,000 mm 1,6 UV-I 193 W/m² 7,8 °C 9,0 °C 6,4 km/h (2 Bft)
02.09.2017 13:11 8,9 °C 9,0 °C 92 % 1016,4 hPa 0,0 mm 4,2 km/h (1 Bft) O-NO 64 ° 0 min 0,000 mm 1,7 UV-I 207 W/m² 7,7 °C 8,9 °C 6,4 km/h (2 Bft)
02.09.2017 13:12 8,9 °C 9,0 °C 92 % 1016,5 hPa 0,0 mm 5,0 km/h (1 Bft) O-NO 74 ° 0 min 0,000 mm 1,8 UV-I 218 W/m² 7,7 °C 8,5 °C 6,4 km/h (2 Bft)
02.09.2017 13:13 8,9 °C 8,9 °C 92 % 1016,4 hPa 0,0 mm 2,6 km/h (1 Bft) O-NO 74 ° 0 min 0,000 mm 1,9 UV-I 227 W/m² 7,7 °C 8,9 °C 4,8 km/h (1 Bft)
02.09.2017 13:14 8,9 °C 8,9 °C 92 % 1016,4 hPa 0,0 mm 0,0 km/h (0 Bft) O-NO 74 ° 0 min 0,000 mm 1,9 UV-I 230 W/m² 7,7 °C 8,9 °C 0,0 km/h (0 Bft)
02.09.2017 13:15 8,9 °C 8,9 °C 92 % 1016,5 hPa 0,0 mm 2,3 km/h (1 Bft) O-NO 74 ° 0 min 0,000 mm 1,9 UV-I 229 W/m² 7,7 °C 8,9 °C 4,8 km/h (1 Bft)
02.09.2017 13:16 8,9 °C 8,9 °C 92 % 1016,4 hPa 0,0 mm 2,8 km/h (1 Bft) O-NO 57 ° 0 min 0,000 mm 1,8 UV-I 225 W/m² 7,7 °C 8,9 °C 4,8 km/h (1 Bft)
02.09.2017 13:17 8,9 °C 8,9 °C 91 % 1016,5 hPa 0,0 mm 1,9 km/h (1 Bft) O-NO 57 ° 0 min 0,000 mm 1,8 UV-I 225 W/m² 7,5 °C 8,9 °C 4,8 km/h (1 Bft)
02.09.2017 13:18 9,1 °C 9,1 °C 92 % 1016,5 hPa 0,0 mm 3,1 km/h (1 Bft) O-NO 58 ° 0 min 0,000 mm 1,9 UV-I 225 W/m² 7,9 °C 9,1 °C 4,8 km/h (1 Bft)
02.09.2017 13:19 9,0 °C 9,1 °C 91 % 1016,5 hPa 0,0 mm 1,8 km/h (1 Bft) O-NO 58 ° 0 min 0,000 mm 1,8 UV-I 221 W/m² 7,6 °C 9,0 °C 3,2 km/h (1 Bft)
02.09.2017 13:20 9,0 °C 9,0 °C 91 % 1016,5 hPa 0,0 mm 0,9 km/h (0 Bft) O-NO 58 ° 0 min 0,000 mm 1,8 UV-I 216 W/m² 7,6 °C 9,0 °C 3,2 km/h (1 Bft)
02.09.2017 13:21 9,1 °C 9,1 °C 91 % 1016,4 hPa 0,0 mm 0,9 km/h (0 Bft) O-NO 58 ° 0 min 0,000 mm 1,8 UV-I 214 W/m² 7,7 °C 9,1 °C 3,2 km/h (1 Bft)
02.09.2017 13:22 9,1 °C 9,1 °C 91 % 1016,5 hPa 0,0 mm 2,3 km/h (1 Bft) O-NO 58 ° 0 min 0,000 mm 1,7 UV-I 211 W/m² 7,7 °C 9,1 °C 4,8 km/h (1 Bft)
02.09.2017 13:23 9,1 °C 9,1 °C 91 % 1016,5 hPa 0,0 mm 1,7 km/h (1 Bft) O-NO 58 ° 0 min 0,000 mm 1,7 UV-I 209 W/m² 7,7 °C 9,1 °C 3,2 km/h (1 Bft)
02.09.2017 13:24 9,1 °C 9,1 °C 91 % 1016,5 hPa 0,0 mm 0,3 km/h (0 Bft) O-NO 58 ° 0 min 0,000 mm 1,8 UV-I 213 W/m² 7,7 °C 9,1 °C 1,6 km/h (1 Bft)
02.09.2017 13:25 9,1 °C 9,1 °C 91 % 1016,6 hPa 0,0 mm 0,1 km/h (0 Bft) O-NO 58 ° 0 min 0,000 mm 1,8 UV-I 220 W/m² 7,7 °C 9,1 °C 1,6 km/h (1 Bft)
02.09.2017 13:26 9,2 °C 9,2 °C 91 % 1016,5 hPa 0,0 mm 0,0 km/h (0 Bft) O-NO 58 ° 0 min 0,000 mm 1,9 UV-I 227 W/m² 7,8 °C 9,2 °C 0,0 km/h (0 Bft)
02.09.2017 13:27 9,2 °C 9,2 °C 91 % 1016,5 hPa 0,0 mm 0,0 km/h (0 Bft) O-NO 58 ° 0 min 0,000 mm 1,9 UV-I 230 W/m² 7,8 °C 9,2 °C 0,0 km/h (0 Bft)
02.09.2017 13:28 9,3 °C 9,3 °C 92 % 1016,5 hPa 0,0 mm 0,0 km/h (0 Bft) O-NO 58 ° 0 min 0,000 mm 1,9 UV-I 234 W/m² 8,1 °C 9,3 °C 0,0 km/h (0 Bft)
02.09.2017 13:29 9,3 °C 9,3 °C 90 % 1016,5 hPa 0,0 mm 0,1 km/h (0 Bft) O-NO 58 ° 0 min 0,000 mm 1,9 UV-I 230 W/m² 7,7 °C 9,3 °C 1,6 km/h (1 Bft)
02.09.2017 13:30 9,3 °C 9,3 °C 90 % 1016,5 hPa 0,0 mm 0,1 km/h (0 Bft) O-NO 58 ° 0 min 0,000 mm 1,8 UV-I 221 W/m² 7,7 °C 9,3 °C 1,6 km/h (1 Bft)
02.09.2017 13:31 9,3 °C 9,3 °C 90 % 1016,5 hPa 0,0 mm 0,6 km/h (0 Bft) O-NO 58 ° 0 min 0,000 mm 1,7 UV-I 209 W/m² 7,7 °C 9,3 °C 1,6 km/h (1 Bft)
02.09.2017 13:32 9,3 °C 9,3 °C 90 % 1016,5 hPa 0,0 mm 1,3 km/h (1 Bft) O-NO 64 ° 0 min 0,000 mm 1,6 UV-I 195 W/m² 7,7 °C 9,3 °C 3,2 km/h (1 Bft)
02.09.2017 13:33 9,3 °C 9,3 °C 90 % 1016,6 hPa 0,0 mm 3,2 km/h (1 Bft) O 82 ° 0 min 0,000 mm 1,5 UV-I 183 W/m² 7,7 °C 9,3 °C 4,8 km/h (1 Bft)
02.09.2017 13:34 9,3 °C 9,3 °C 89 % 1016,5 hPa 0,0 mm 2,7 km/h (1 Bft) O 82 ° 0 min 0,000 mm 1,4 UV-I 176 W/m² 7,6 °C 9,3 °C 4,8 km/h (1 Bft)
02.09.2017 13:35 9,3 °C 9,3 °C 89 % 1016,5 hPa 0,0 mm 1,1 km/h (1 Bft) O 82 ° 0 min 0,000 mm 1,4 UV-I 174 W/m² 7,6 °C 9,3 °C 3,2 km/h (1 Bft)
02.09.2017 13:36 9,3 °C 9,3 °C 90 % 1016,6 hPa 0,0 mm 0,0 km/h (0 Bft) O 82 ° 0 min 0,000 mm 1,4 UV-I 174 W/m² 7,7 °C 9,3 °C 0,0 km/h (0 Bft)
02.09.2017 13:37 9,3 °C 9,3 °C 90 % 1016,6 hPa 0,0 mm 0,0 km/h (0 Bft) O 82 ° 0 min 0,000 mm 1,3 UV-I 169 W/m² 7,7 °C 9,3 °C 0,0 km/h (0 Bft)
02.09.2017 13:38 9,4 °C 9,4 °C 92 % 1016,5 hPa 0,0 mm 0,0 km/h (0 Bft) O 82 ° 0 min 0,000 mm 1,3 UV-I 163 W/m² 8,2 °C 9,4 °C 0,0 km/h (0 Bft)
02.09.2017 13:39 9,4 °C 9,4 °C 92 % 1016,5 hPa 0,0 mm 0,0 km/h (0 Bft) O 82 ° 0 min 0,000 mm 1,3 UV-I 162 W/m² 8,2 °C 9,4 °C 0,0 km/h (0 Bft)
02.09.2017 13:40 9,3 °C 9,4 °C 91 % 1016,6 hPa 0,0 mm 0,7 km/h (0 Bft) O 82 ° 0 min 0,000 mm 1,3 UV-I 163 W/m² 7,9 °C 9,3 °C 1,6 km/h (1 Bft)
02.09.2017 13:41 9,2 °C 9,3 °C 90 % 1016,5 hPa 0,0 mm 0,9 km/h (0 Bft) O 82 ° 0 min 0,000 mm 1,4 UV-I 169 W/m² 7,6 °C 9,2 °C 1,6 km/h (1 Bft)
02.09.2017 13:42 9,2 °C 9,2 °C 90 % 1016,5 hPa 0,0 mm 0,6 km/h (0 Bft) O 82 ° 0 min 0,000 mm 1,4 UV-I 176 W/m² 7,6 °C 9,2 °C 1,6 km/h (1 Bft)
02.09.2017 13:43 9,1 °C 9,2 °C 90 % 1016,5 hPa 0,0 mm 3,4 km/h (1 Bft) S 190 ° 0 min 0,000 mm 1,5 UV-I 186 W/m² 7,5 °C 9,1 °C 6,4 km/h (2 Bft)
02.09.2017 13:44 9,1 °C 9,1 °C 89 % 1016,5 hPa 0,0 mm 1,9 km/h (1 Bft) S 180 ° 0 min 0,000 mm 1,6 UV-I 197 W/m² 7,4 °C 9,1 °C 3,2 km/h (1 Bft)
02.09.2017 13:45 9,1 °C 9,1 °C 89 % 1016,5 hPa 0,0 mm 0,3 km/h (0 Bft) S 178 ° 0 min 0,000 mm 1,7 UV-I 206 W/m² 7,4 °C 9,1 °C 1,6 km/h (1 Bft)
02.09.2017 13:46 9,1 °C 9,1 °C 89 % 1016,4 hPa 0,0 mm 0,1 km/h (0 Bft) S 179 ° 0 min 0,000 mm 1,7 UV-I 214 W/m² 7,4 °C 9,1 °C 1,6 km/h (1 Bft)
02.09.2017 13:47 9,1 °C 9,1 °C 89 % 1016,4 hPa 0,0 mm 1,3 km/h (1 Bft) S 179 ° 0 min 0,000 mm 1,7 UV-I 213 W/m² 7,4 °C 9,1 °C 3,2 km/h (1 Bft)
02.09.2017 13:48 9,1 °C 9,1 °C 90 % 1016,4 hPa 0,0 mm 0,9 km/h (0 Bft) S 179 ° 0 min 0,000 mm 1,6 UV-I 207 W/m² 7,5 °C 9,1 °C 3,2 km/h (1 Bft)
02.09.2017 13:49 8,9 °C 9,1 °C 90 % 1016,4 hPa 0,0 mm 0,0 km/h (0 Bft) S 179 ° 0 min 0,000 mm 1,6 UV-I 202 W/m² 7,4 °C 8,9 °C 0,0 km/h (0 Bft)
02.09.2017 13:50 9,0 °C 9,0 °C 90 % 1016,4 hPa 0,0 mm 1,3 km/h (1 Bft) S 180 ° 0 min 0,000 mm 1,6 UV-I 197 W/m² 7,4 °C 9,0 °C 3,2 km/h (1 Bft)
02.09.2017 13:51 9,1 °C 9,1 °C 91 % 1016,4 hPa 0,0 mm 1,0 km/h (0 Bft) O-NO 67 ° 0 min 0,000 mm 1,6 UV-I 200 W/m² 7,7 °C 9,1 °C 4,8 km/h (1 Bft)
02.09.2017 13:52 9,1 °C 9,1 °C 92 % 1016,5 hPa 0,0 mm 1,0 km/h (0 Bft) O-NO 68 ° 0 min 0,000 mm 1,7 UV-I 214 W/m² 7,9 °C 9,1 °C 4,8 km/h (1 Bft)
02.09.2017 13:53 9,1 °C 9,1 °C 92 % 1016,5 hPa 0,0 mm 0,0 km/h (0 Bft) O-NO 68 ° 0 min 0,000 mm 1,7 UV-I 218 W/m² 7,9 °C 9,1 °C 0,0 km/h (0 Bft)
02.09.2017 13:54 9,1 °C 9,1 °C 92 % 1016,5 hPa 0,0 mm 0,0 km/h (0 Bft) O-NO 68 ° 0 min 0,000 mm 1,7 UV-I 220 W/m² 7,9 °C 9,1 °C 0,0 km/h (0 Bft)
02.09.2017 13:55 9,0 °C 9,1 °C 92 % 1016,5 hPa 0,0 mm 1,7 km/h (1 Bft) SO 134 ° 0 min 0,000 mm 1,7 UV-I 214 W/m² 7,8 °C 9,0 °C 3,2 km/h (1 Bft)
02.09.2017 13:56 8,9 °C 9,0 °C 92 % 1016,5 hPa 0,0 mm 1,2 km/h (1 Bft) SO 134 ° 0 min 0,000 mm 1,6 UV-I 202 W/m² 7,7 °C 8,9 °C 1,6 km/h (1 Bft)
02.09.2017 13:57 9,0 °C 9,0 °C 92 % 1016,5 hPa 0,0 mm 1,5 km/h (1 Bft) O-SO 103 ° 0 min 0,000 mm 1,4 UV-I 186 W/m² 7,8 °C 9,0 °C 3,2 km/h (1 Bft)
02.09.2017 13:58 9,0 °C 9,0 °C 91 % 1016,5 hPa 0,0 mm 0,8 km/h (0 Bft) O-SO 103 ° 0 min 0,000 mm 1,3 UV-I 163 W/m² 7,6 °C 9,0 °C 3,2 km/h (1 Bft)
02.09.2017 13:59 9,1 °C 9,1 °C 92 % 1016,5 hPa 0,0 mm 0,0 km/h (0 Bft) O-SO 103 ° 0 min 0,000 mm 1,3 UV-I 160 W/m² 7,9 °C 9,1 °C 0,0 km/h (0 Bft)
02.09.2017 14:00 9,1 °C 9,1 °C 92 % 1016,5 hPa 0,0 mm 1,6 km/h (1 Bft) SW 219 ° 0 min 0,000 mm 1,3 UV-I 160 W/m² 7,9 °C 9,1 °C 3,2 km/h (1 Bft)
02.09.2017 14:01 9,0 °C 9,1 °C 92 % 1016,5 hPa 0,0 mm 3,9 km/h (1 Bft) SO 138 ° 0 min 0,102 mm 1,3 UV-I 165 W/m² 7,8 °C 9,0 °C 6,4 km/h (2 Bft)
02.09.2017 14:02 9,0 °C 9,0 °C 92 % 1016,5 hPa 0,0 mm 2,9 km/h (1 Bft) SO 140 ° 0 min 0,000 mm 1,3 UV-I 169 W/m² 7,8 °C 9,0 °C 4,8 km/h (1 Bft)
02.09.2017 14:03 9,1 °C 9,1 °C 92 % 1016,5 hPa 0,0 mm 0,1 km/h (0 Bft) SO 140 ° 0 min 0,000 mm 1,3 UV-I 169 W/m² 7,9 °C 9,1 °C 1,6 km/h (1 Bft)
02.09.2017 14:04 9,1 °C 9,1 °C 92 % 1016,5 hPa 0,0 mm 0,5 km/h (0 Bft) S 184 ° 0 min 0,000 mm 1,3 UV-I 169 W/m² 7,9 °C 9,1 °C 1,6 km/h (1 Bft)
02.09.2017 14:05 9,1 °C 9,1 °C 92 % 1016,5 hPa 0,0 mm 0,4 km/h (0 Bft) S 184 ° 0 min 0,000 mm 1,3 UV-I 171 W/m² 7,9 °C 9,1 °C 1,6 km/h (1 Bft)
02.09.2017 14:06 9,0 °C 9,1 °C 91 % 1016,5 hPa 0,0 mm 0,0 km/h (0 Bft) S 184 ° 0 min 0,000 mm 1,3 UV-I 172 W/m² 7,6 °C 9,0 °C 0,0 km/h (0 Bft)
02.09.2017 14:07 9,0 °C 9,0 °C 92 % 1016,5 hPa 0,0 mm 0,0 km/h (0 Bft) S 184 ° 0 min 0,000 mm 1,3 UV-I 172 W/m² 7,8 °C 9,0 °C 0,0 km/h (0 Bft)
02.09.2017 14:08 8,9 °C 9,0 °C 92 % 1016,4 hPa 0,0 mm 0,0 km/h (0 Bft) S 184 ° 0 min 0,000 mm 1,3 UV-I 171 W/m² 7,7 °C 8,9 °C 0,0 km/h (0 Bft)
02.09.2017 14:09 8,9 °C 8,9 °C 92 % 1016,4 hPa 0,0 mm 0,0 km/h (0 Bft) S 184 ° 0 min 0,000 mm 1,3 UV-I 172 W/m² 7,7 °C 8,9 °C 0,0 km/h (0 Bft)
02.09.2017 14:10 9,0 °C 9,0 °C 92 % 1016,4 hPa 0,0 mm 0,0 km/h (0 Bft) S 184 ° 0 min 0,000 mm 1,3 UV-I 169 W/m² 7,8 °C 9,0 °C 0,0 km/h (0 Bft)
02.09.2017 14:11 9,0 °C 9,1 °C 93 % 1016,4 hPa 0,0 mm 2,1 km/h (1 Bft) S 184 ° 0 min 0,000 mm 1,3 UV-I 167 W/m² 7,9 °C 9,0 °C 3,2 km/h (1 Bft)
02.09.2017 14:12 8,9 °C 9,0 °C 92 % 1016,4 hPa 0,0 mm 1,2 km/h (1 Bft) S 184 ° 0 min 0,000 mm 1,3 UV-I 165 W/m² 7,7 °C 8,9 °C 3,2 km/h (1 Bft)
02.09.2017 14:13 9,0 °C 9,0 °C 92 % 1016,4 hPa 0,0 mm 1,1 km/h (1 Bft) S 184 ° 0 min 0,000 mm 1,3 UV-I 163 W/m² 7,8 °C 9,0 °C 3,2 km/h (1 Bft)
02.09.2017 14:14 8,9 °C 9,0 °C 92 % 1016,4 hPa 0,0 mm 1,9 km/h (1 Bft) S 186 ° 0 min 0,000 mm 1,3 UV-I 162 W/m² 7,7 °C 8,9 °C 3,2 km/h (1 Bft)
02.09.2017 14:15 9,0 °C 9,0 °C 91 % 1016,4 hPa 0,0 mm 0,5 km/h (0 Bft) S 186 ° 0 min 0,000 mm 1,3 UV-I 171 W/m² 7,6 °C 9,0 °C 1,6 km/h (1 Bft)
02.09.2017 14:16 9,0 °C 9,0 °C 92 % 1016,4 hPa 0,0 mm 0,3 km/h (0 Bft) S 186 ° 0 min 0,000 mm 1,4 UV-I 181 W/m² 7,8 °C 9,0 °C 1,6 km/h (1 Bft)
02.09.2017 14:17 8,9 °C 9,0 °C 91 % 1016,3 hPa 0,0 mm 0,1 km/h (0 Bft) S 186 ° 0 min 0,000 mm 1,5 UV-I 188 W/m² 7,5 °C 8,9 °C 1,6 km/h (1 Bft)
02.09.2017 14:18 8,9 °C 9,0 °C 92 % 1016,4 hPa 0,0 mm 0,0 km/h (0 Bft) S 186 ° 0 min 0,000 mm 1,6 UV-I 195 W/m² 7,7 °C 8,9 °C 0,0 km/h (0 Bft)
02.09.2017 14:19 8,9 °C 8,9 °C 91 % 1016,3 hPa 0,0 mm 0,2 km/h (0 Bft) S 186 ° 0 min 0,000 mm 1,6 UV-I 200 W/m² 7,5 °C 8,9 °C 1,6 km/h (1 Bft)
02.09.2017 14:20 8,9 °C 8,9 °C 92 % 1016,3 hPa 0,0 mm 0,5 km/h (0 Bft) S 186 ° 0 min 0,000 mm 1,7 UV-I 207 W/m² 7,7 °C 8,9 °C 1,6 km/h (1 Bft)
02.09.2017 14:21 8,9 °C 8,9 °C 92 % 1016,3 hPa 0,0 mm 0,0 km/h (0 Bft) S 186 ° 0 min 0,000 mm 1,8 UV-I 230 W/m² 7,7 °C 8,9 °C 0,0 km/h (0 Bft)
02.09.2017 14:22 8,9 °C 8,9 °C 92 % 1016,3 hPa 0,0 mm 0,1 km/h (0 Bft) S 186 ° 0 min 0,000 mm 1,9 UV-I 239 W/m² 7,7 °C 8,9 °C 1,6 km/h (1 Bft)
02.09.2017 14:23 9,0 °C 9,0 °C 92 % 1016,3 hPa 0,0 mm 0,0 km/h (0 Bft) S 186 ° 0 min 0,000 mm 2,0 UV-I 246 W/m² 7,8 °C 9,0 °C 0,0 km/h (0 Bft)
02.09.2017 14:24 9,1 °C 9,1 °C 92 % 1016,3 hPa 0,0 mm 0,0 km/h (0 Bft) S 186 ° 0 min 0,000 mm 2,0 UV-I 251 W/m² 7,9 °C 9,1 °C 0,0 km/h (0 Bft)
02.09.2017 14:25 9,1 °C 9,1 °C 92 % 1016,2 hPa 0,0 mm 0,0 km/h (0 Bft) S 186 ° 0 min 0,000 mm 2,1 UV-I 258 W/m² 7,9 °C 9,1 °C 0,0 km/h (0 Bft)
02.09.2017 14:26 9,1 °C 9,1 °C 91 % 1016,3 hPa 0,0 mm 0,1 km/h (0 Bft) S 186 ° 0 min 0,000 mm 2,1 UV-I 264 W/m² 7,7 °C 9,1 °C 1,6 km/h (1 Bft)
02.09.2017 14:27 9,2 °C 9,2 °C 91 % 1016,3 hPa 0,0 mm 1,8 km/h (1 Bft) W-SW 257 ° 0 min 0,000 mm 2,2 UV-I 279 W/m² 7,8 °C 9,2 °C 3,2 km/h (1 Bft)
02.09.2017 14:28 9,3 °C 9,3 °C 92 % 1016,2 hPa 0,0 mm 3,2 km/h (1 Bft) W-SW 257 ° 0 min 0,000 mm 2,3 UV-I 285 W/m² 8,1 °C 9,3 °C 4,8 km/h (1 Bft)
02.09.2017 14:29 9,4 °C 9,4 °C 92 % 1016,2 hPa 0,0 mm 3,8 km/h (1 Bft) W 269 ° 1 min 0,000 mm 2,3 UV-I 290 W/m² 8,2 °C 9,4 °C 6,4 km/h (2 Bft)
02.09.2017 14:30 9,5 °C 9,5 °C 92 % 1016,2 hPa 0,0 mm 1,3 km/h (1 Bft) SW 231 ° 1 min 0,000 mm 2,3 UV-I 294 W/m² 8,3 °C 9,5 °C 4,8 km/h (1 Bft)
02.09.2017 14:31 9,6 °C 9,6 °C 91 % 1016,2 hPa 0,0 mm 2,3 km/h (1 Bft) SW 231 ° 1 min 0,000 mm 2,3 UV-I 292 W/m² 8,2 °C 9,6 °C 3,2 km/h (1 Bft)
02.09.2017 14:32 9,7 °C 9,7 °C 91 % 1016,1 hPa 0,0 mm 0,8 km/h (0 Bft) SW 231 ° 0 min 0,000 mm 2,2 UV-I 283 W/m² 8,3 °C 9,7 °C 3,2 km/h (1 Bft)
02.09.2017 14:33 9,7 °C 9,7 °C 89 % 1016,1 hPa 0,0 mm 0,0 km/h (0 Bft) SW 231 ° 0 min 0,000 mm 2,1 UV-I 248 W/m² 8,0 °C 9,7 °C 0,0 km/h (0 Bft)
02.09.2017 14:34 9,7 °C 9,7 °C 88 % 1016,1 hPa 0,0 mm 2,3 km/h (1 Bft) W 261 ° 0 min 0,000 mm 1,9 UV-I 232 W/m² 7,8 °C 9,7 °C 4,8 km/h (1 Bft)
02.09.2017 14:35 9,7 °C 9,7 °C 89 % 1016,1 hPa 0,0 mm 3,0 km/h (1 Bft) SW 236 ° 0 min 0,000 mm 1,8 UV-I 221 W/m² 8,0 °C 9,7 °C 4,8 km/h (1 Bft)
02.09.2017 14:36 9,7 °C 9,7 °C 89 % 1016,2 hPa 0,0 mm 4,8 km/h (1 Bft) W 263 ° 0 min 0,000 mm 1,8 UV-I 216 W/m² 8,0 °C 9,5 °C 6,4 km/h (2 Bft)
02.09.2017 14:37 9,8 °C 9,8 °C 90 % 1016,1 hPa 0,0 mm 5,0 km/h (1 Bft) W-SW 244 ° 0 min 0,000 mm 1,8 UV-I 214 W/m² 8,2 °C 9,5 °C 6,4 km/h (2 Bft)
02.09.2017 14:38 9,9 °C 9,9 °C 91 % 1016,2 hPa 0,0 mm 4,0 km/h (1 Bft) W-SW 244 ° 0 min 0,000 mm 1,7 UV-I 214 W/m² 8,5 °C 9,9 °C 4,8 km/h (1 Bft)
02.09.2017 14:39 9,8 °C 9,9 °C 89 % 1016,2 hPa 0,0 mm 1,9 km/h (1 Bft) W-SW 242 ° 0 min 0,000 mm 1,7 UV-I 211 W/m² 8,1 °C 9,8 °C 3,2 km/h (1 Bft)
02.09.2017 14:40 9,8 °C 9,8 °C 88 % 1016,2 hPa 0,0 mm 0,2 km/h (0 Bft) W-SW 242 ° 0 min 0,000 mm 1,6 UV-I 206 W/m² 7,9 °C 9,8 °C 1,6 km/h (1 Bft)
02.09.2017 14:41 9,9 °C 9,9 °C 89 % 1016,2 hPa 0,0 mm 3,7 km/h (1 Bft) W 273 ° 0 min 0,000 mm 1,6 UV-I 199 W/m² 8,2 °C 9,9 °C 4,8 km/h (1 Bft)
02.09.2017 14:42 9,9 °C 9,9 °C 90 % 1016,2 hPa 0,0 mm 2,7 km/h (1 Bft) W 277 ° 0 min 0,000 mm 1,6 UV-I 195 W/m² 8,3 °C 9,9 °C 4,8 km/h (1 Bft)
02.09.2017 14:43 9,8 °C 9,9 °C 90 % 1016,2 hPa 0,0 mm 2,9 km/h (1 Bft) W 277 ° 0 min 0,000 mm 1,6 UV-I 195 W/m² 8,2 °C 9,8 °C 4,8 km/h (1 Bft)
02.09.2017 14:44 9,8 °C 9,8 °C 92 % 1016,2 hPa 0,0 mm 1,9 km/h (1 Bft) W 271 ° 0 min 0,000 mm 1,6 UV-I 202 W/m² 8,6 °C 9,8 °C 3,2 km/h (1 Bft)
02.09.2017 14:45 9,8 °C 9,8 °C 92 % 1016,2 hPa 0,0 mm 3,5 km/h (1 Bft) W-SW 241 ° 0 min 0,000 mm 1,7 UV-I 225 W/m² 8,6 °C 9,8 °C 6,4 km/h (2 Bft)
02.09.2017 14:46 9,9 °C 9,9 °C 91 % 1016,2 hPa 0,0 mm 2,4 km/h (1 Bft) W-SW 241 ° 0 min 0,000 mm 1,9 UV-I 241 W/m² 8,5 °C 9,9 °C 3,2 km/h (1 Bft)
02.09.2017 14:47 10,1 °C 10,1 °C 92 % 1016,2 hPa 0,0 mm 3,1 km/h (1 Bft) W-SW 256 ° 0 min 0,000 mm 2,0 UV-I 258 W/m² 8,9 °C 10,1 °C 4,8 km/h (1 Bft)
02.09.2017 14:48 10,1 °C 10,1 °C 89 % 1016,2 hPa 0,0 mm 4,8 km/h (1 Bft) W 268 ° 0 min 0,000 mm 2,0 UV-I 265 W/m² 8,4 °C 10,1 °C 6,4 km/h (2 Bft)
02.09.2017 14:49 10,1 °C 10,1 °C 88 % 1016,2 hPa 0,0 mm 3,3 km/h (1 Bft) W 268 ° 0 min 0,000 mm 2,1 UV-I 271 W/m² 8,2 °C 10,1 °C 4,8 km/h (1 Bft)
02.09.2017 14:50 10,1 °C 10,1 °C 88 % 1016,2 hPa 0,0 mm 0,2 km/h (0 Bft) W 268 ° 1 min 0,000 mm 2,1 UV-I 294 W/m² 8,2 °C 10,1 °C 3,2 km/h (1 Bft)
02.09.2017 14:51 10,2 °C 10,2 °C 90 % 1016,1 hPa 0,0 mm 4,7 km/h (1 Bft) W-NW 285 ° 1 min 0,000 mm 2,2 UV-I 322 W/m² 8,6 °C 10,2 °C 9,7 km/h (2 Bft)
02.09.2017 14:52 10,1 °C 10,2 °C 88 % 1016,1 hPa 0,0 mm 0,8 km/h (0 Bft) W-SW 244 ° 1 min 0,000 mm 2,4 UV-I 327 W/m² 8,2 °C 10,1 °C 3,2 km/h (1 Bft)
02.09.2017 14:53 10,1 °C 10,2 °C 88 % 1016,1 hPa 0,0 mm 2,6 km/h (1 Bft) S-SW 205 ° 1 min 0,000 mm 2,2 UV-I 322 W/m² 8,2 °C 10,1 °C 6,4 km/h (2 Bft)
02.09.2017 14:54 10,1 °C 10,1 °C 87 % 1016,1 hPa 0,0 mm 4,0 km/h (1 Bft) S-SW 204 ° 1 min 0,000 mm 2,2 UV-I 318 W/m² 8,0 °C 10,1 °C 6,4 km/h (2 Bft)
02.09.2017 14:55 10,1 °C 10,1 °C 88 % 1016,1 hPa 0,0 mm 2,0 km/h (1 Bft) S-SW 204 ° 1 min 0,000 mm 2,3 UV-I 329 W/m² 8,2 °C 10,1 °C 4,8 km/h (1 Bft)
02.09.2017 14:56 10,1 °C 10,1 °C 88 % 1016,1 hPa 0,0 mm 2,8 km/h (1 Bft) W-SW 257 ° 1 min 0,000 mm 2,3 UV-I 302 W/m² 8,2 °C 10,1 °C 4,8 km/h (1 Bft)
02.09.2017 14:57 10,1 °C 10,1 °C 89 % 1016,0 hPa 0,0 mm 2,9 km/h (1 Bft) W-SW 246 ° 1 min 0,000 mm 2,2 UV-I 295 W/m² 8,4 °C 10,1 °C 4,8 km/h (1 Bft)
02.09.2017 14:58 10,2 °C 10,2 °C 89 % 1016,0 hPa 0,0 mm 1,4 km/h (1 Bft) W-SW 246 ° 0 min 0,000 mm 2,1 UV-I 288 W/m² 8,5 °C 10,2 °C 3,2 km/h (1 Bft)
02.09.2017 14:59 10,3 °C 10,3 °C 89 % 1016,0 hPa 0,0 mm 1,5 km/h (1 Bft) W-SW 246 ° 0 min 0,000 mm 2,0 UV-I 281 W/m² 8,6 °C 10,3 °C 3,2 km/h (1 Bft)
02.09.2017 15:00 10,3 °C 10,3 °C 89 % 1016,0 hPa 0,0 mm 3,6 km/h (1 Bft) W-NW 284 ° 0 min 0,000 mm 1,9 UV-I 267 W/m² 8,6 °C 10,3 °C 4,8 km/h (1 Bft)
02.09.2017 15:01 10,4 °C 10,4 °C 90 % 1016,0 hPa 0,0 mm 4,8 km/h (1 Bft) W-SW 244 ° 0 min 0,102 mm 1,8 UV-I 251 W/m² 8,8 °C 10,4 °C 6,4 km/h (2 Bft)
02.09.2017 15:02 10,5 °C 10,5 °C 89 % 1016,0 hPa 0,0 mm 4,9 km/h (1 Bft) SW 227 ° 0 min 0,000 mm 1,8 UV-I 230 W/m² 8,8 °C 10,5 °C 6,4 km/h (2 Bft)
02.09.2017 15:03 10,5 °C 10,6 °C 90 % 1016,0 hPa 0,0 mm 4,8 km/h (1 Bft) W 261 ° 0 min 0,000 mm 1,4 UV-I 192 W/m² 8,9 °C 10,5 °C 6,4 km/h (2 Bft)
02.09.2017 15:04 10,4 °C 10,5 °C 89 % 1016,0 hPa 0,0 mm 3,8 km/h (1 Bft) W 271 ° 0 min 0,000 mm 1,3 UV-I 176 W/m² 8,7 °C 10,4 °C 4,8 km/h (1 Bft)
02.09.2017 15:05 10,3 °C 10,4 °C 90 % 1016,0 hPa 0,0 mm 4,9 km/h (1 Bft) SW 222 ° 0 min 0,000 mm 1,2 UV-I 167 W/m² 8,7 °C 10,3 °C 8,0 km/h (2 Bft)
02.09.2017 15:06 10,2 °C 10,3 °C 88 % 1016,0 hPa 0,0 mm 3,4 km/h (1 Bft) W-SW 241 ° 0 min 0,000 mm 1,2 UV-I 162 W/m² 8,3 °C 10,2 °C 8,0 km/h (2 Bft)
02.09.2017 15:07 10,2 °C 10,2 °C 89 % 1016,0 hPa 0,0 mm 4,5 km/h (1 Bft) W-SW 238 ° 0 min 0,000 mm 1,2 UV-I 158 W/m² 8,5 °C 10,2 °C 8,0 km/h (2 Bft)
02.09.2017 15:08 10,1 °C 10,2 °C 90 % 1015,9 hPa 0,0 mm 2,1 km/h (1 Bft) W-SW 238 ° 0 min 0,000 mm 1,2 UV-I 149 W/m² 8,5 °C 10,1 °C 3,2 km/h (1 Bft)
02.09.2017 15:09 10,0 °C 10,1 °C 90 % 1016,0 hPa 0,0 mm 0,6 km/h (0 Bft) W-SW 238 ° 0 min 0,000 mm 1,1 UV-I 144 W/m² 8,4 °C 10,0 °C 1,6 km/h (1 Bft)
02.09.2017 15:10 9,9 °C 10,0 °C 90 % 1016,0 hPa 0,0 mm 0,0 km/h (0 Bft) W-SW 238 ° 0 min 0,000 mm 1,1 UV-I 139 W/m² 8,3 °C 9,9 °C 0,0 km/h (0 Bft)
02.09.2017 15:11 9,9 °C 9,9 °C 90 % 1015,9 hPa 0,0 mm 1,1 km/h (1 Bft) W-SW 252 ° 0 min 0,000 mm 1,0 UV-I 135 W/m² 8,3 °C 9,9 °C 3,2 km/h (1 Bft)
02.09.2017 15:12 9,9 °C 9,9 °C 91 % 1015,9 hPa 0,0 mm 3,6 km/h (1 Bft) W 265 ° 0 min 0,000 mm 1,0 UV-I 130 W/m² 8,5 °C 9,9 °C 6,4 km/h (2 Bft)
02.09.2017 15:13 9,9 °C 9,9 °C 91 % 1015,9 hPa 0,0 mm 4,5 km/h (1 Bft) W-NW 296 ° 0 min 0,000 mm 1,0 UV-I 127 W/m² 8,5 °C 9,9 °C 8,0 km/h (2 Bft)
02.09.2017 15:14 9,9 °C 9,9 °C 91 % 1015,9 hPa 0,0 mm 5,4 km/h (1 Bft) W-NW 292 ° 0 min 0,000 mm 1,0 UV-I 121 W/m² 8,5 °C 9,5 °C 8,0 km/h (2 Bft)
02.09.2017 15:15 9,9 °C 9,9 °C 91 % 1015,9 hPa 0,0 mm 4,8 km/h (1 Bft) W 269 ° 0 min 0,000 mm 0,9 UV-I 121 W/m² 8,5 °C 9,7 °C 9,7 km/h (2 Bft)
02.09.2017 15:16 9,8 °C 9,9 °C 91 % 1015,9 hPa 0,0 mm 3,2 km/h (1 Bft) W-SW 258 ° 0 min 0,000 mm 0,9 UV-I 121 W/m² 8,4 °C 9,8 °C 4,8 km/h (1 Bft)
02.09.2017 15:17 9,8 °C 9,8 °C 91 % 1015,9 hPa 0,0 mm 2,8 km/h (1 Bft) W 261 ° 0 min 0,000 mm 0,9 UV-I 120 W/m² 8,4 °C 9,8 °C 4,8 km/h (1 Bft)
02.09.2017 15:18 9,8 °C 9,8 °C 91 % 1015,9 hPa 0,0 mm 6,0 km/h (2 Bft) W 262 ° 0 min 0,000 mm 0,9 UV-I 118 W/m² 8,4 °C 9,2 °C 9,7 km/h (2 Bft)
02.09.2017 15:19 9,7 °C 9,8 °C 91 % 1015,9 hPa 0,0 mm 6,1 km/h (2 Bft) N-NW 327 ° 0 min 0,000 mm 0,9 UV-I 118 W/m² 8,3 °C 9,1 °C 9,7 km/h (2 Bft)
02.09.2017 15:20 9,7 °C 9,7 °C 91 % 1015,9 hPa 0,0 mm 3,1 km/h (1 Bft) W-SW 257 ° 0 min 0,000 mm 0,9 UV-I 113 W/m² 8,3 °C 9,7 °C 4,8 km/h (1 Bft)
02.09.2017 15:21 9,6 °C 9,7 °C 91 % 1015,9 hPa 0,0 mm 6,1 km/h (2 Bft) NW 315 ° 0 min 0,000 mm 0,9 UV-I 109 W/m² 8,2 °C 9,0 °C 8,0 km/h (2 Bft)
02.09.2017 15:22 9,6 °C 9,7 °C 91 % 1015,9 hPa 0,0 mm 6,2 km/h (2 Bft) W-NW 292 ° 0 min 0,000 mm 0,8 UV-I 104 W/m² 8,2 °C 9,0 °C 9,7 km/h (2 Bft)
02.09.2017 15:23 9,6 °C 9,6 °C 91 % 1016,0 hPa 0,0 mm 6,0 km/h (2 Bft) W-NW 303 ° 0 min 0,000 mm 0,8 UV-I 104 W/m² 8,2 °C 9,0 °C 8,0 km/h (2 Bft)
02.09.2017 15:24 9,6 °C 9,6 °C 91 % 1015,9 hPa 0,0 mm 4,9 km/h (1 Bft) NW 306 ° 0 min 0,000 mm 0,8 UV-I 97 W/m² 8,2 °C 9,3 °C 9,7 km/h (2 Bft)
02.09.2017 15:25 9,4 °C 9,6 °C 91 % 1016,0 hPa 0,0 mm 3,4 km/h (1 Bft) W-NW 294 ° 0 min 0,000 mm 0,8 UV-I 97 W/m² 8,0 °C 9,4 °C 6,4 km/h (2 Bft)
02.09.2017 15:26 9,4 °C 9,4 °C 91 % 1016,0 hPa 0,0 mm 4,2 km/h (1 Bft) W 260 ° 0 min 0,000 mm 0,8 UV-I 102 W/m² 8,0 °C 9,4 °C 6,4 km/h (2 Bft)
02.09.2017 15:27 9,4 °C 9,4 °C 91 % 1016,0 hPa 0,0 mm 5,5 km/h (1 Bft) W 267 ° 0 min 0,000 mm 0,8 UV-I 105 W/m² 8,0 °C 8,9 °C 9,7 km/h (2 Bft)
02.09.2017 15:28 9,4 °C 9,4 °C 91 % 1016,0 hPa 0,0 mm 3,4 km/h (1 Bft) W 268 ° 0 min 0,000 mm 0,8 UV-I 105 W/m² 8,0 °C 9,4 °C 6,4 km/h (2 Bft)
02.09.2017 15:29 9,3 °C 9,4 °C 91 % 1016,0 hPa 0,0 mm 5,0 km/h (1 Bft) W 277 ° 0 min 0,000 mm 0,8 UV-I 105 W/m² 7,9 °C 9,0 °C 11,3 km/h (2 Bft)
02.09.2017 15:30 9,3 °C 9,3 °C 91 % 1016,0 hPa 0,0 mm 5,1 km/h (1 Bft) W-SW 253 ° 0 min 0,000 mm 0,8 UV-I 104 W/m² 7,9 °C 8,9 °C 6,4 km/h (2 Bft)
02.09.2017 15:31 9,3 °C 9,3 °C 91 % 1016,0 hPa 0,0 mm 4,8 km/h (1 Bft) W-NW 284 ° 0 min 0,000 mm 0,8 UV-I 104 W/m² 7,9 °C 9,0 °C 6,4 km/h (2 Bft)
02.09.2017 15:32 9,3 °C 9,3 °C 91 % 1016,0 hPa 0,0 mm 2,9 km/h (1 Bft) W-NW 302 ° 0 min 0,000 mm 0,8 UV-I 107 W/m² 7,9 °C 9,3 °C 4,8 km/h (1 Bft)
02.09.2017 15:33 9,3 °C 9,3 °C 92 % 1016,0 hPa 0,0 mm 2,1 km/h (1 Bft) W-NW 302 ° 0 min 0,000 mm 0,9 UV-I 113 W/m² 8,1 °C 9,3 °C 3,2 km/h (1 Bft)
02.09.2017 15:34 9,2 °C 9,3 °C 92 % 1016,0 hPa 0,0 mm 2,7 km/h (1 Bft) W-NW 301 ° 0 min 0,000 mm 0,9 UV-I 116 W/m² 8,0 °C 9,2 °C 3,2 km/h (1 Bft)
02.09.2017 15:35 9,2 °C 9,3 °C 92 % 1016,0 hPa 0,0 mm 2,0 km/h (1 Bft) W-NW 301 ° 0 min 0,000 mm 1,0 UV-I 121 W/m² 8,0 °C 9,2 °C 3,2 km/h (1 Bft)
02.09.2017 15:36 9,2 °C 9,2 °C 92 % 1016,0 hPa 0,0 mm 0,9 km/h (0 Bft) W-NW 286 ° 0 min 0,000 mm 1,0 UV-I 123 W/m² 8,0 °C 9,2 °C 4,8 km/h (1 Bft)
02.09.2017 15:37 9,3 °C 9,3 °C 93 % 1016,0 hPa 0,0 mm 4,3 km/h (1 Bft) W 279 ° 0 min 0,000 mm 1,0 UV-I 121 W/m² 8,2 °C 9,3 °C 6,4 km/h (2 Bft)
02.09.2017 15:38 9,3 °C 9,3 °C 93 % 1016,0 hPa 0,0 mm 4,5 km/h (1 Bft) W-NW 294 ° 0 min 0,000 mm 1,0 UV-I 118 W/m² 8,2 °C 9,3 °C 6,4 km/h (2 Bft)
02.09.2017 15:39 9,3 °C 9,3 °C 92 % 1016,0 hPa 0,0 mm 6,1 km/h (2 Bft) W 261 ° 0 min 0,000 mm 0,9 UV-I 113 W/m² 8,1 °C 8,6 °C 11,3 km/h (2 Bft)
02.09.2017 15:40 9,2 °C 9,3 °C 92 % 1015,9 hPa 0,0 mm 7,1 km/h (2 Bft) W-NW 290 ° 0 min 0,000 mm 0,8 UV-I 102 W/m² 8,0 °C 8,3 °C 11,3 km/h (2 Bft)
02.09.2017 15:41 9,2 °C 9,2 °C 92 % 1016,0 hPa 0,0 mm 3,3 km/h (1 Bft) W-NW 290 ° 0 min 0,000 mm 0,7 UV-I 91 W/m² 8,0 °C 9,2 °C 4,8 km/h (1 Bft)
02.09.2017 15:42 9,2 °C 9,2 °C 92 % 1016,0 hPa 0,0 mm 4,6 km/h (1 Bft) W 278 ° 0 min 0,000 mm 0,6 UV-I 83 W/m² 8,0 °C 9,0 °C 6,4 km/h (2 Bft)
02.09.2017 15:43 9,2 °C 9,2 °C 93 % 1016,0 hPa 0,0 mm 3,9 km/h (1 Bft) W 279 ° 0 min 0,000 mm 0,6 UV-I 72 W/m² 8,1 °C 9,2 °C 4,8 km/h (1 Bft)
02.09.2017 15:44 9,2 °C 9,2 °C 93 % 1016,0 hPa 0,0 mm 2,5 km/h (1 Bft) W 279 ° 0 min 0,000 mm 0,5 UV-I 70 W/m² 8,1 °C 9,2 °C 4,8 km/h (1 Bft)
02.09.2017 15:45 9,2 °C 9,2 °C 93 % 1016,0 hPa 0,0 mm 2,2 km/h (1 Bft) W 279 ° 0 min 0,000 mm 0,5 UV-I 69 W/m² 8,1 °C 9,2 °C 4,8 km/h (1 Bft)
02.09.2017 15:46 9,2 °C 9,2 °C 93 % 1016,0 hPa 0,2 mm 4,1 km/h (1 Bft) W-SW 257 ° 0 min 0,000 mm 0,5 UV-I 67 W/m² 8,1 °C 9,2 °C 6,4 km/h (2 Bft)
02.09.2017 15:47 9,1 °C 9,2 °C 92 % 1016,0 hPa 0,0 mm 3,1 km/h (1 Bft) W 262 ° 0 min 0,000 mm 0,5 UV-I 67 W/m² 7,9 °C 9,1 °C 6,4 km/h (2 Bft)
02.09.2017 15:48 9,1 °C 9,1 °C 92 % 1016,0 hPa 0,0 mm 4,2 km/h (1 Bft) W 259 ° 0 min 0,000 mm 0,5 UV-I 69 W/m² 7,9 °C 9,1 °C 6,4 km/h (2 Bft)
02.09.2017 15:49 9,1 °C 9,1 °C 92 % 1016,0 hPa 0,0 mm 3,1 km/h (1 Bft) W 259 ° 0 min 0,000 mm 0,5 UV-I 74 W/m² 7,9 °C 9,1 °C 4,8 km/h (1 Bft)
02.09.2017 15:50 9,1 °C 9,1 °C 93 % 1015,9 hPa 0,0 mm 1,5 km/h (1 Bft) W 259 ° 0 min 0,000 mm 0,6 UV-I 77 W/m² 8,0 °C 9,1 °C 4,8 km/h (1 Bft)
02.09.2017 15:51 9,0 °C 9,1 °C 93 % 1015,9 hPa 0,0 mm 3,6 km/h (1 Bft) W-SW 244 ° 0 min 0,000 mm 0,6 UV-I 79 W/m² 7,9 °C 9,0 °C 4,8 km/h (1 Bft)
02.09.2017 15:52 9,0 °C 9,1 °C 93 % 1015,9 hPa 0,0 mm 3,3 km/h (1 Bft) W-SW 250 ° 0 min 0,000 mm 0,6 UV-I 81 W/m² 7,9 °C 9,0 °C 4,8 km/h (1 Bft)
02.09.2017 15:53 9,0 °C 9,0 °C 93 % 1015,8 hPa 0,0 mm 5,0 km/h (1 Bft) W 265 ° 0 min 0,000 mm 0,6 UV-I 81 W/m² 7,9 °C 8,6 °C 9,7 km/h (2 Bft)
02.09.2017 15:54 9,0 °C 9,0 °C 93 % 1015,8 hPa 0,0 mm 4,0 km/h (1 Bft) W 265 ° 0 min 0,000 mm 0,6 UV-I 83 W/m² 7,9 °C 9,0 °C 6,4 km/h (2 Bft)
02.09.2017 15:55 9,1 °C 9,1 °C 93 % 1015,9 hPa 0,0 mm 3,5 km/h (1 Bft) W 263 ° 0 min 0,000 mm 0,7 UV-I 88 W/m² 8,0 °C 9,1 °C 4,8 km/h (1 Bft)
02.09.2017 15:56 9,1 °C 9,1 °C 93 % 1015,8 hPa 0,0 mm 4,1 km/h (1 Bft) W 277 ° 0 min 0,000 mm 0,7 UV-I 90 W/m² 8,0 °C 9,1 °C 6,4 km/h (2 Bft)
02.09.2017 15:57 9,0 °C 9,1 °C 93 % 1015,8 hPa 0,0 mm 2,2 km/h (1 Bft) W 277 ° 0 min 0,000 mm 0,7 UV-I 93 W/m² 7,9 °C 9,0 °C 4,8 km/h (1 Bft)
02.09.2017 15:58 9,1 °C 9,1 °C 94 % 1015,8 hPa 0,0 mm 3,5 km/h (1 Bft) W-NW 290 ° 0 min 0,000 mm 0,8 UV-I 97 W/m² 8,2 °C 9,1 °C 4,8 km/h (1 Bft)
02.09.2017 15:59 9,1 °C 9,1 °C 94 % 1015,8 hPa 0,0 mm 3,0 km/h (1 Bft) W-NW 290 ° 0 min 0,000 mm 0,8 UV-I 104 W/m² 8,2 °C 9,1 °C 4,8 km/h (1 Bft)
02.09.2017 16:00 9,1 °C 9,1 °C 94 % 1015,8 hPa 0,2 mm 2,8 km/h (1 Bft) W-NW 288 ° 0 min 0,000 mm 0,9 UV-I 111 W/m² 8,2 °C 9,1 °C 4,8 km/h (1 Bft)
02.09.2017 16:01 9,1 °C 9,1 °C 94 % 1015,7 hPa 0,0 mm 5,3 km/h (1 Bft) W 263 ° 0 min 0,050 mm 1,0 UV-I 127 W/m² 8,2 °C 8,6 °C 12,9 km/h (3 Bft)
02.09.2017 16:02 9,1 °C 9,1 °C 94 % 1015,8 hPa 0,0 mm 7,6 km/h (2 Bft) W 265 ° 0 min 0,000 mm 1,1 UV-I 132 W/m² 8,2 °C 8,0 °C 12,9 km/h (3 Bft)
02.09.2017 16:03 9,1 °C 9,1 °C 93 % 1015,7 hPa 0,0 mm 6,0 km/h (2 Bft) W 273 ° 0 min 0,000 mm 1,1 UV-I 137 W/m² 8,0 °C 8,4 °C 11,3 km/h (2 Bft)
02.09.2017 16:04 9,1 °C 9,1 °C 93 % 1015,7 hPa 0,0 mm 4,1 km/h (1 Bft) W 278 ° 0 min 0,000 mm 1,1 UV-I 142 W/m² 8,0 °C 9,1 °C 6,4 km/h (2 Bft)
02.09.2017 16:05 9,1 °C 9,1 °C 94 % 1015,7 hPa 0,0 mm 8,7 km/h (2 Bft) W 267 ° 0 min 0,000 mm 1,2 UV-I 148 W/m² 8,2 °C 7,8 °C 11,3 km/h (2 Bft)
02.09.2017 16:06 9,1 °C 9,1 °C 94 % 1015,7 hPa 0,0 mm 7,1 km/h (2 Bft) W 263 ° 0 min 0,000 mm 1,2 UV-I 155 W/m² 8,2 °C 8,2 °C 11,3 km/h (2 Bft)
02.09.2017 16:07 9,1 °C 9,1 °C 94 % 1015,7 hPa 0,0 mm 5,6 km/h (1 Bft) W 264 ° 0 min 0,000 mm 1,3 UV-I 169 W/m² 8,2 °C 8,6 °C 11,3 km/h (2 Bft)
02.09.2017 16:08 9,1 °C 9,1 °C 94 % 1015,7 hPa 0,0 mm 8,9 km/h (2 Bft) W-NW 297 ° 0 min 0,000 mm 1,4 UV-I 176 W/m² 8,2 °C 7,8 °C 12,9 km/h (3 Bft)
02.09.2017 16:09 9,1 °C 9,1 °C 94 % 1015,7 hPa 0,0 mm 4,9 km/h (1 Bft) W 267 ° 0 min 0,000 mm 1,4 UV-I 181 W/m² 8,2 °C 8,8 °C 8,0 km/h (2 Bft)
02.09.2017 16:10 9,1 °C 9,2 °C 94 % 1015,7 hPa 0,0 mm 9,5 km/h (2 Bft) W-SW 255 ° 0 min 0,000 mm 1,5 UV-I 181 W/m² 8,2 °C 7,6 °C 14,5 km/h (3 Bft)
02.09.2017 16:11 9,1 °C 9,1 °C 93 % 1015,7 hPa 0,0 mm 10,9 km/h (2 Bft) W 263 ° 0 min 0,000 mm 1,5 UV-I 183 W/m² 8,0 °C 7,4 °C 14,5 km/h (3 Bft)
02.09.2017 16:12 9,1 °C 9,1 °C 93 % 1015,7 hPa 0,0 mm 5,4 km/h (1 Bft) W-NW 287 ° 0 min 0,000 mm 1,5 UV-I 193 W/m² 8,0 °C 8,6 °C 9,7 km/h (2 Bft)
02.09.2017 16:14 9,2 °C 9,2 °C 94 % 1015,7 hPa 0,0 mm 6,9 km/h (2 Bft) W 269 ° 0 min 0,000 mm 1,7 UV-I 204 W/m² 8,3 °C 8,3 °C 11,3 km/h (2 Bft)
02.09.2017 16:15 9,2 °C 9,2 °C 94 % 1015,7 hPa 0,0 mm 5,7 km/h (1 Bft) NW 317 ° 0 min 0,000 mm 1,7 UV-I 204 W/m² 8,3 °C 8,6 °C 11,3 km/h (2 Bft)
02.09.2017 16:16 9,2 °C 9,2 °C 93 % 1015,7 hPa 0,0 mm 4,4 km/h (1 Bft) W-SW 257 ° 0 min 0,000 mm 1,6 UV-I 202 W/m² 8,1 °C 9,2 °C 6,4 km/h (2 Bft)
02.09.2017 16:17 9,2 °C 9,3 °C 93 % 1015,7 hPa 0,0 mm 6,6 km/h (2 Bft) W 277 ° 0 min 0,000 mm 1,6 UV-I 195 W/m² 8,1 °C 8,4 °C 12,9 km/h (3 Bft)
02.09.2017 16:18 9,2 °C 9,2 °C 93 % 1015,7 hPa 0,0 mm 9,3 km/h (2 Bft) W 275 ° 0 min 0,000 mm 1,5 UV-I 174 W/m² 8,1 °C 7,8 °C 12,9 km/h (3 Bft)
02.09.2017 16:19 9,2 °C 9,2 °C 93 % 1015,8 hPa 0,0 mm 2,9 km/h (1 Bft) W-NW 282 ° 0 min 0,000 mm 1,4 UV-I 155 W/m² 8,1 °C 9,2 °C 4,8 km/h (1 Bft)
02.09.2017 16:20 9,3 °C 9,3 °C 93 % 1015,8 hPa 0,0 mm 0,1 km/h (0 Bft) W-NW 282 ° 0 min 0,000 mm 1,0 UV-I 134 W/m² 8,2 °C 9,3 °C 1,6 km/h (1 Bft)
02.09.2017 16:21 9,2 °C 9,3 °C 93 % 1015,9 hPa 0,0 mm 2,4 km/h (1 Bft) S 181 ° 0 min 0,000 mm 0,9 UV-I 116 W/m² 8,1 °C 9,2 °C 6,4 km/h (2 Bft)
02.09.2017 16:22 9,1 °C 9,2 °C 92 % 1015,9 hPa 0,0 mm 3,4 km/h (1 Bft) NW 314 ° 0 min 0,000 mm 0,8 UV-I 102 W/m² 7,9 °C 9,1 °C 8,0 km/h (2 Bft)
02.09.2017 16:23 9,1 °C 9,1 °C 92 % 1015,9 hPa 0,0 mm 2,9 km/h (1 Bft) W-SW 254 ° 0 min 0,000 mm 0,7 UV-I 93 W/m² 7,9 °C 9,1 °C 4,8 km/h (1 Bft)
02.09.2017 16:24 9,1 °C 9,2 °C 92 % 1015,9 hPa 0,0 mm 3,3 km/h (1 Bft) SW 219 ° 0 min 0,000 mm 0,7 UV-I 86 W/m² 7,9 °C 9,1 °C 6,4 km/h (2 Bft)
02.09.2017 16:25 9,0 °C 9,1 °C 92 % 1015,9 hPa 0,0 mm 2,4 km/h (1 Bft) W-SW 240 ° 0 min 0,000 mm 0,7 UV-I 86 W/m² 7,8 °C 9,0 °C 4,8 km/h (1 Bft)
02.09.2017 16:26 8,9 °C 9,0 °C 92 % 1015,9 hPa 0,0 mm 1,5 km/h (1 Bft) S-SW 211 ° 0 min 0,000 mm 0,7 UV-I 88 W/m² 7,7 °C 8,9 °C 3,2 km/h (1 Bft)
02.09.2017 16:27 8,9 °C 8,9 °C 92 % 1015,9 hPa 0,0 mm 3,1 km/h (1 Bft) W-SW 243 ° 0 min 0,000 mm 0,7 UV-I 90 W/m² 7,7 °C 8,9 °C 4,8 km/h (1 Bft)
02.09.2017 16:28 8,9 °C 8,9 °C 92 % 1015,9 hPa 0,0 mm 5,8 km/h (2 Bft) W 267 ° 0 min 0,000 mm 0,7 UV-I 91 W/m² 7,7 °C 8,3 °C 9,7 km/h (2 Bft)
02.09.2017 16:29 8,9 °C 8,9 °C 92 % 1015,9 hPa 0,0 mm 7,6 km/h (2 Bft) W 259 ° 0 min 0,000 mm 0,7 UV-I 93 W/m² 7,7 °C 7,8 °C 12,9 km/h (3 Bft)
02.09.2017 16:30 8,9 °C 8,9 °C 92 % 1015,9 hPa 0,0 mm 5,3 km/h (1 Bft) W-NW 303 ° 0 min 0,000 mm 0,7 UV-I 95 W/m² 7,7 °C 8,4 °C 9,7 km/h (2 Bft)
02.09.2017 16:31 8,9 °C 8,9 °C 92 % 1015,9 hPa 0,0 mm 3,4 km/h (1 Bft) W-SW 242 ° 0 min 0,000 mm 0,7 UV-I 97 W/m² 7,7 °C 8,9 °C 4,8 km/h (1 Bft)
02.09.2017 16:32 8,8 °C 8,9 °C 92 % 1015,9 hPa 0,0 mm 7,3 km/h (2 Bft) W 259 ° 0 min 0,000 mm 0,7 UV-I 97 W/m² 7,6 °C 7,8 °C 11,3 km/h (2 Bft)
02.09.2017 16:33 8,8 °C 8,8 °C 93 % 1015,8 hPa 0,0 mm 3,0 km/h (1 Bft) W 259 ° 0 min 0,000 mm 0,7 UV-I 100 W/m² 7,7 °C 8,8 °C 4,8 km/h (1 Bft)
02.09.2017 16:34 8,8 °C 8,8 °C 92 % 1015,9 hPa 0,0 mm 5,3 km/h (1 Bft) SW 232 ° 0 min 0,000 mm 0,7 UV-I 100 W/m² 7,6 °C 8,3 °C 9,7 km/h (2 Bft)
02.09.2017 16:35 8,8 °C 8,8 °C 93 % 1015,8 hPa 0,0 mm 8,0 km/h (2 Bft) W 261 ° 0 min 0,000 mm 0,8 UV-I 102 W/m² 7,7 °C 7,6 °C 12,9 km/h (3 Bft)
02.09.2017 16:36 8,8 °C 8,8 °C 93 % 1015,7 hPa 0,0 mm 5,0 km/h (1 Bft) W-SW 254 ° 0 min 0,000 mm 0,8 UV-I 100 W/m² 7,7 °C 8,4 °C 11,3 km/h (2 Bft)
02.09.2017 16:37 8,8 °C 8,8 °C 93 % 1015,8 hPa 0,0 mm 3,9 km/h (1 Bft) W 269 ° 0 min 0,000 mm 0,7 UV-I 98 W/m² 7,7 °C 8,8 °C 6,4 km/h (2 Bft)
02.09.2017 16:38 8,8 °C 8,8 °C 93 % 1015,8 hPa 0,0 mm 1,4 km/h (1 Bft) W 269 ° 0 min 0,000 mm 0,7 UV-I 97 W/m² 7,7 °C 8,8 °C 4,8 km/h (1 Bft)
02.09.2017 16:39 8,8 °C 8,8 °C 93 % 1015,7 hPa 0,0 mm 0,7 km/h (0 Bft) W 269 ° 0 min 0,000 mm 0,7 UV-I 95 W/m² 7,7 °C 8,8 °C 3,2 km/h (1 Bft)
02.09.2017 16:40 8,8 °C 8,8 °C 93 % 1015,8 hPa 0,0 mm 3,7 km/h (1 Bft) W-SW 250 ° 0 min 0,000 mm 0,7 UV-I 93 W/m² 7,7 °C 8,8 °C 6,4 km/h (2 Bft)
02.09.2017 16:41 8,8 °C 8,8 °C 92 % 1015,7 hPa 0,0 mm 3,8 km/h (1 Bft) SW 236 ° 0 min 0,000 mm 0,7 UV-I 90 W/m² 7,6 °C 8,8 °C 4,8 km/h (1 Bft)
02.09.2017 16:42 8,7 °C 8,8 °C 92 % 1015,8 hPa 0,0 mm 3,1 km/h (1 Bft) SW 216 ° 0 min 0,000 mm 0,6 UV-I 84 W/m² 7,5 °C 8,7 °C 6,4 km/h (2 Bft)
02.09.2017 16:43 8,7 °C 8,7 °C 92 % 1015,8 hPa 0,0 mm 4,2 km/h (1 Bft) W 259 ° 0 min 0,000 mm 0,6 UV-I 83 W/m² 7,5 °C 8,7 °C 6,4 km/h (2 Bft)
02.09.2017 16:44 8,7 °C 8,7 °C 92 % 1015,7 hPa 0,0 mm 2,2 km/h (1 Bft) W 259 ° 0 min 0,000 mm 0,6 UV-I 81 W/m² 7,5 °C 8,7 °C 3,2 km/h (1 Bft)
02.09.2017 16:45 8,8 °C 8,8 °C 93 % 1015,8 hPa 0,0 mm 1,5 km/h (1 Bft) W 259 ° 0 min 0,000 mm 0,6 UV-I 81 W/m² 7,7 °C 8,8 °C 3,2 km/h (1 Bft)
02.09.2017 16:46 8,8 °C 8,8 °C 93 % 1015,8 hPa 0,0 mm 2,3 km/h (1 Bft) W 275 ° 0 min 0,000 mm 0,6 UV-I 77 W/m² 7,7 °C 8,8 °C 6,4 km/h (2 Bft)
02.09.2017 16:47 8,8 °C 8,8 °C 92 % 1015,8 hPa 0,0 mm 3,2 km/h (1 Bft) W 275 ° 0 min 0,000 mm 0,5 UV-I 76 W/m² 7,6 °C 8,8 °C 4,8 km/h (1 Bft)
02.09.2017 16:48 8,8 °C 8,8 °C 93 % 1015,8 hPa 0,0 mm 4,1 km/h (1 Bft) W 268 ° 0 min 0,000 mm 0,5 UV-I 72 W/m² 7,7 °C 8,8 °C 6,4 km/h (2 Bft)
02.09.2017 16:49 8,7 °C 8,8 °C 93 % 1015,8 hPa 0,0 mm 4,7 km/h (1 Bft) W-NW 302 ° 0 min 0,000 mm 0,5 UV-I 70 W/m² 7,6 °C 8,4 °C 6,4 km/h (2 Bft)
02.09.2017 16:50 8,7 °C 8,8 °C 92 % 1015,8 hPa 0,0 mm 4,1 km/h (1 Bft) W-NW 296 ° 0 min 0,000 mm 0,5 UV-I 69 W/m² 7,5 °C 8,7 °C 6,4 km/h (2 Bft)
02.09.2017 16:51 8,7 °C 8,7 °C 92 % 1015,8 hPa 0,0 mm 0,8 km/h (0 Bft) W-NW 296 ° 0 min 0,000 mm 0,5 UV-I 67 W/m² 7,5 °C 8,7 °C 3,2 km/h (1 Bft)
02.09.2017 16:52 8,8 °C 8,8 °C 93 % 1015,8 hPa 0,0 mm 0,5 km/h (0 Bft) W-NW 296 ° 0 min 0,000 mm 0,5 UV-I 67 W/m² 7,7 °C 8,8 °C 1,6 km/h (1 Bft)
02.09.2017 16:53 8,7 °C 8,8 °C 92 % 1015,7 hPa 0,0 mm 2,3 km/h (1 Bft) S-SW 197 ° 0 min 0,000 mm 0,0 UV-I 65 W/m² 7,5 °C 8,7 °C 4,8 km/h (1 Bft)
02.09.2017 16:54 8,6 °C 8,7 °C 92 % 1015,8 hPa 0,0 mm 2,5 km/h (1 Bft) W 260 ° 0 min 0,000 mm 0,0 UV-I 62 W/m² 7,4 °C 8,6 °C 4,8 km/h (1 Bft)
02.09.2017 16:55 8,6 °C 8,7 °C 92 % 1015,8 hPa 0,0 mm 1,3 km/h (1 Bft) W-SW 248 ° 0 min 0,000 mm 0,0 UV-I 58 W/m² 7,4 °C 8,6 °C 3,2 km/h (1 Bft)
02.09.2017 16:56 8,6 °C 8,6 °C 92 % 1015,8 hPa 0,0 mm 3,6 km/h (1 Bft) W 263 ° 0 min 0,000 mm 0,0 UV-I 56 W/m² 7,4 °C 8,6 °C 6,4 km/h (2 Bft)
02.09.2017 16:57 8,6 °C 8,6 °C 92 % 1015,8 hPa 0,0 mm 4,1 km/h (1 Bft) W 275 ° 0 min 0,000 mm 0,0 UV-I 54 W/m² 7,4 °C 8,6 °C 6,4 km/h (2 Bft)
02.09.2017 16:58 8,6 °C 8,6 °C 92 % 1015,7 hPa 0,0 mm 3,7 km/h (1 Bft) SW 233 ° 0 min 0,000 mm 0,0 UV-I 53 W/m² 7,4 °C 8,6 °C 4,8 km/h (1 Bft)
02.09.2017 16:59 8,6 °C 8,6 °C 92 % 1015,7 hPa 0,0 mm 3,8 km/h (1 Bft) W-SW 253 ° 0 min 0,000 mm 0,0 UV-I 49 W/m² 7,4 °C 8,6 °C 4,8 km/h (1 Bft)
02.09.2017 17:00 8,6 °C 8,6 °C 92 % 1015,8 hPa 0,0 mm 4,4 km/h (1 Bft) W 260 ° 0 min 0,051 mm 0,0 UV-I 47 W/m² 7,4 °C 8,6 °C 6,4 km/h (2 Bft)
02.09.2017 17:01 8,6 °C 8,6 °C 92 % 1015,8 hPa 0,0 mm 6,0 km/h (2 Bft) W 277 ° 0 min 0,000 mm 0,0 UV-I 44 W/m² 7,4 °C 7,9 °C 9,7 km/h (2 Bft)
02.09.2017 17:02 8,6 °C 8,6 °C 92 % 1015,7 hPa 0,0 mm 5,0 km/h (1 Bft) W 262 ° 0 min 0,000 mm 0,0 UV-I 42 W/m² 7,4 °C 8,2 °C 6,4 km/h (2 Bft)
02.09.2017 17:03 8,6 °C 8,6 °C 92 % 1015,7 hPa 0,0 mm 4,6 km/h (1 Bft) SW 233 ° 0 min 0,000 mm 0,0 UV-I 40 W/m² 7,4 °C 8,3 °C 6,4 km/h (2 Bft)
02.09.2017 17:04 8,6 °C 8,6 °C 92 % 1015,8 hPa 0,0 mm 3,8 km/h (1 Bft) W-SW 250 ° 0 min 0,000 mm 0,0 UV-I 40 W/m² 7,4 °C 8,6 °C 4,8 km/h (1 Bft)
02.09.2017 17:05 8,6 °C 8,6 °C 92 % 1015,8 hPa 0,0 mm 2,1 km/h (1 Bft) S-SW 205 ° 0 min 0,000 mm 0,0 UV-I 42 W/m² 7,4 °C 8,6 °C 3,2 km/h (1 Bft)
02.09.2017 17:06 8,6 °C 8,6 °C 92 % 1015,8 hPa 0,0 mm 3,1 km/h (1 Bft) W-SW 248 ° 0 min 0,000 mm 0,0 UV-I 44 W/m² 7,4 °C 8,6 °C 4,8 km/h (1 Bft)
02.09.2017 17:07 8,6 °C 8,6 °C 92 % 1015,8 hPa 0,0 mm 4,2 km/h (1 Bft) W-NW 287 ° 0 min 0,000 mm 0,0 UV-I 44 W/m² 7,4 °C 8,6 °C 11,3 km/h (2 Bft)
02.09.2017 17:08 8,6 °C 8,6 °C 92 % 1015,8 hPa 0,0 mm 4,5 km/h (1 Bft) W 266 ° 0 min 0,000 mm 0,0 UV-I 46 W/m² 7,4 °C 8,6 °C 6,4 km/h (2 Bft)
02.09.2017 17:09 8,6 °C 8,6 °C 92 % 1015,8 hPa 0,0 mm 4,4 km/h (1 Bft) W 275 ° 0 min 0,000 mm 0,0 UV-I 44 W/m² 7,4 °C 8,6 °C 6,4 km/h (2 Bft)
02.09.2017 17:10 8,6 °C 8,6 °C 92 % 1015,8 hPa 0,0 mm 5,0 km/h (1 Bft) W-SW 244 ° 0 min 0,000 mm 0,0 UV-I 44 W/m² 7,4 °C 8,2 °C 8,0 km/h (2 Bft)
02.09.2017 17:11 8,5 °C 8,6 °C 93 % 1015,8 hPa 0,0 mm 4,0 km/h (1 Bft) W-SW 248 ° 0 min 0,000 mm 0,0 UV-I 42 W/m² 7,4 °C 8,5 °C 4,8 km/h (1 Bft)
02.09.2017 17:12 8,5 °C 8,6 °C 93 % 1015,7 hPa 0,0 mm 1,9 km/h (1 Bft) W-SW 248 ° 0 min 0,000 mm 0,0 UV-I 42 W/m² 7,4 °C 8,5 °C 4,8 km/h (1 Bft)
02.09.2017 17:13 8,5 °C 8,6 °C 93 % 1015,7 hPa 0,0 mm 2,1 km/h (1 Bft) W-SW 248 ° 0 min 0,000 mm 0,0 UV-I 40 W/m² 7,4 °C 8,5 °C 3,2 km/h (1 Bft)
02.09.2017 17:14 8,5 °C 8,5 °C 93 % 1015,8 hPa 0,0 mm 0,5 km/h (0 Bft) W-SW 248 ° 0 min 0,000 mm 0,0 UV-I 40 W/m² 7,4 °C 8,5 °C 3,2 km/h (1 Bft)
02.09.2017 17:15 8,5 °C 8,5 °C 93 % 1015,7 hPa 0,0 mm 1,9 km/h (1 Bft) W-NW 298 ° 0 min 0,000 mm 0,0 UV-I 40 W/m² 7,4 °C 8,5 °C 4,8 km/h (1 Bft)
02.09.2017 17:16 8,5 °C 8,5 °C 93 % 1015,7 hPa 0,0 mm 2,1 km/h (1 Bft) W-NW 298 ° 0 min 0,000 mm 0,0 UV-I 40 W/m² 7,4 °C 8,5 °C 3,2 km/h (1 Bft)
02.09.2017 17:17 8,6 °C 8,6 °C 93 % 1015,7 hPa 0,0 mm 2,0 km/h (1 Bft) W-NW 298 ° 0 min 0,000 mm 0,0 UV-I 40 W/m² 7,5 °C 8,6 °C 3,2 km/h (1 Bft)
02.09.2017 17:18 8,6 °C 8,6 °C 93 % 1015,7 hPa 0,0 mm 0,1 km/h (0 Bft) W-NW 298 ° 0 min 0,000 mm 0,0 UV-I 46 W/m² 7,5 °C 8,6 °C 1,6 km/h (1 Bft)
02.09.2017 17:19 8,6 °C 8,6 °C 93 % 1015,7 hPa 0,0 mm 0,0 km/h (0 Bft) W-NW 298 ° 0 min 0,000 mm 0,0 UV-I 49 W/m² 7,5 °C 8,6 °C 0,0 km/h (0 Bft)
02.09.2017 17:20 8,6 °C 8,6 °C 93 % 1015,7 hPa 0,0 mm 2,0 km/h (1 Bft) W 278 ° 0 min 0,000 mm 0,0 UV-I 53 W/m² 7,5 °C 8,6 °C 3,2 km/h (1 Bft)
02.09.2017 17:21 8,5 °C 8,6 °C 93 % 1015,7 hPa 0,0 mm 2,9 km/h (1 Bft) W 276 ° 0 min 0,000 mm 0,0 UV-I 56 W/m² 7,4 °C 8,5 °C 4,8 km/h (1 Bft)
02.09.2017 17:22 8,6 °C 8,6 °C 93 % 1015,7 hPa 0,0 mm 2,9 km/h (1 Bft) W 276 ° 0 min 0,000 mm 0,0 UV-I 58 W/m² 7,5 °C 8,6 °C 4,8 km/h (1 Bft)
02.09.2017 17:23 8,6 °C 8,6 °C 93 % 1015,7 hPa 0,0 mm 1,9 km/h (1 Bft) W 276 ° 0 min 0,000 mm 0,0 UV-I 60 W/m² 7,5 °C 8,6 °C 4,8 km/h (1 Bft)
02.09.2017 17:24 8,5 °C 8,6 °C 93 % 1015,7 hPa 0,0 mm 0,3 km/h (0 Bft) W 276 ° 0 min 0,000 mm 0,0 UV-I 58 W/m² 7,4 °C 8,5 °C 1,6 km/h (1 Bft)
02.09.2017 17:25 8,6 °C 8,6 °C 93 % 1015,7 hPa 0,0 mm 1,4 km/h (1 Bft) W-NW 284 ° 0 min 0,000 mm 0,0 UV-I 58 W/m² 7,5 °C 8,6 °C 3,2 km/h (1 Bft)
02.09.2017 17:26 8,6 °C 8,6 °C 93 % 1015,7 hPa 0,0 mm 1,7 km/h (1 Bft) W-NW 284 ° 0 min 0,000 mm 0,0 UV-I 58 W/m² 7,5 °C 8,6 °C 3,2 km/h (1 Bft)
02.09.2017 17:27 8,7 °C 8,7 °C 93 % 1015,7 hPa 0,0 mm 3,5 km/h (1 Bft) W-NW 293 ° 0 min 0,000 mm 0,0 UV-I 58 W/m² 7,6 °C 8,7 °C 6,4 km/h (2 Bft)
02.09.2017 17:28 8,7 °C 8,7 °C 93 % 1015,7 hPa 0,0 mm 3,0 km/h (1 Bft) W-NW 292 ° 0 min 0,000 mm 0,0 UV-I 62 W/m² 7,6 °C 8,7 °C 4,8 km/h (1 Bft)
02.09.2017 17:29 8,7 °C 8,7 °C 93 % 1015,7 hPa 0,0 mm 2,4 km/h (1 Bft) W-NW 300 ° 0 min 0,000 mm 0,0 UV-I 67 W/m² 7,6 °C 8,7 °C 4,8 km/h (1 Bft)
02.09.2017 17:30 8,7 °C 8,7 °C 93 % 1015,7 hPa 0,0 mm 2,1 km/h (1 Bft) W-NW 299 ° 0 min 0,000 mm 0,5 UV-I 70 W/m² 7,6 °C 8,7 °C 4,8 km/h (1 Bft)
02.09.2017 17:31 8,7 °C 8,8 °C 93 % 1015,7 hPa 0,0 mm 5,9 km/h (2 Bft) W 270 ° 0 min 0,000 mm 0,5 UV-I 76 W/m² 7,6 °C 8,0 °C 9,7 km/h (2 Bft)
02.09.2017 17:32 8,7 °C 8,8 °C 93 % 1015,7 hPa 0,0 mm 6,5 km/h (2 Bft) W 262 ° 0 min 0,000 mm 0,5 UV-I 81 W/m² 7,6 °C 7,8 °C 11,3 km/h (2 Bft)
02.09.2017 17:33 8,8 °C 8,8 °C 93 % 1015,7 hPa 0,0 mm 8,9 km/h (2 Bft) W 273 ° 0 min 0,000 mm 0,6 UV-I 86 W/m² 7,7 °C 7,4 °C 12,9 km/h (3 Bft)
02.09.2017 17:34 8,8 °C 8,8 °C 93 % 1015,6 hPa 0,0 mm 5,1 km/h (1 Bft) W 262 ° 0 min 0,000 mm 0,6 UV-I 90 W/m² 7,7 °C 8,4 °C 8,0 km/h (2 Bft)
02.09.2017 17:35 8,8 °C 8,8 °C 93 % 1015,7 hPa 0,0 mm 5,2 km/h (1 Bft) W-SW 254 ° 0 min 0,000 mm 0,6 UV-I 90 W/m² 7,7 °C 8,3 °C 11,3 km/h (2 Bft)
02.09.2017 17:36 8,8 °C 8,8 °C 93 % 1015,6 hPa 0,0 mm 7,8 km/h (2 Bft) W 277 ° 0 min 0,000 mm 0,5 UV-I 84 W/m² 7,7 °C 7,6 °C 11,3 km/h (2 Bft)
02.09.2017 17:37 8,8 °C 8,9 °C 93 % 1015,6 hPa 0,0 mm 5,2 km/h (1 Bft) W-SW 257 ° 0 min 0,000 mm 0,5 UV-I 77 W/m² 7,7 °C 8,3 °C 9,7 km/h (2 Bft)
02.09.2017 17:38 8,8 °C 8,8 °C 93 % 1015,6 hPa 0,0 mm 5,9 km/h (2 Bft) W-SW 244 ° 0 min 0,000 mm 0,0 UV-I 70 W/m² 7,7 °C 8,1 °C 11,3 km/h (2 Bft)
02.09.2017 17:39 8,8 °C 8,8 °C 93 % 1015,6 hPa 0,0 mm 6,3 km/h (2 Bft) W-SW 256 ° 0 min 0,000 mm 0,0 UV-I 63 W/m² 7,7 °C 8,0 °C 9,7 km/h (2 Bft)
02.09.2017 17:40 8,8 °C 8,8 °C 93 % 1015,6 hPa 0,0 mm 4,6 km/h (1 Bft) W 269 ° 0 min 0,000 mm 0,0 UV-I 53 W/m² 7,7 °C 8,5 °C 9,7 km/h (2 Bft)
02.09.2017 17:41 8,8 °C 8,8 °C 93 % 1015,6 hPa 0,0 mm 2,0 km/h (1 Bft) W 267 ° 0 min 0,000 mm 0,0 UV-I 49 W/m² 7,7 °C 8,8 °C 3,2 km/h (1 Bft)
02.09.2017 17:42 8,8 °C 8,8 °C 93 % 1015,7 hPa 0,0 mm 4,1 km/h (1 Bft) W-SW 251 ° 0 min 0,000 mm 0,0 UV-I 49 W/m² 7,7 °C 8,8 °C 8,0 km/h (2 Bft)
02.09.2017 17:43 8,8 °C 8,8 °C 93 % 1015,7 hPa 0,0 mm 3,7 km/h (1 Bft) W-SW 240 ° 0 min 0,000 mm 0,0 UV-I 42 W/m² 7,7 °C 8,8 °C 6,4 km/h (2 Bft)
02.09.2017 17:44 8,7 °C 8,8 °C 92 % 1015,7 hPa 0,0 mm 3,5 km/h (1 Bft) W 261 ° 0 min 0,000 mm 0,0 UV-I 40 W/m² 7,5 °C 8,7 °C 6,4 km/h (2 Bft)
02.09.2017 17:45 8,7 °C 8,7 °C 92 % 1015,7 hPa 0,0 mm 2,8 km/h (1 Bft) W 261 ° 0 min 0,000 mm 0,0 UV-I 37 W/m² 7,5 °C 8,7 °C 4,8 km/h (1 Bft)
02.09.2017 17:46 8,7 °C 8,7 °C 93 % 1015,8 hPa 0,0 mm 2,3 km/h (1 Bft) W 260 ° 0 min 0,000 mm 0,0 UV-I 32 W/m² 7,6 °C 8,7 °C 3,2 km/h (1 Bft)
02.09.2017 17:47 8,7 °C 8,7 °C 92 % 1015,8 hPa 0,0 mm 3,0 km/h (1 Bft) W 262 ° 0 min 0,000 mm 0,0 UV-I 30 W/m² 7,5 °C 8,7 °C 6,4 km/h (2 Bft)
02.09.2017 17:48 8,7 °C 8,7 °C 92 % 1015,7 hPa 0,0 mm 1,0 km/h (0 Bft) W 262 ° 0 min 0,000 mm 0,0 UV-I 26 W/m² 7,5 °C 8,7 °C 1,6 km/h (1 Bft)
02.09.2017 17:49 8,6 °C 8,7 °C 93 % 1015,8 hPa 0,0 mm 1,9 km/h (1 Bft) SW 236 ° 0 min 0,000 mm 0,0 UV-I 25 W/m² 7,5 °C 8,6 °C 4,8 km/h (1 Bft)
02.09.2017 17:50 8,6 °C 8,7 °C 93 % 1015,8 hPa 0,0 mm 3,6 km/h (1 Bft) W-SW 238 ° 0 min 0,000 mm 0,0 UV-I 25 W/m² 7,5 °C 8,6 °C 6,4 km/h (2 Bft)
02.09.2017 17:51 8,6 °C 8,7 °C 93 % 1015,7 hPa 0,0 mm 1,0 km/h (0 Bft) W-SW 239 ° 0 min 0,000 mm 0,0 UV-I 23 W/m² 7,5 °C 8,6 °C 3,2 km/h (1 Bft)
02.09.2017 17:52 8,6 °C 8,6 °C 93 % 1015,7 hPa 0,0 mm 2,5 km/h (1 Bft) W-SW 239 ° 0 min 0,000 mm 0,0 UV-I 23 W/m² 7,5 °C 8,6 °C 4,8 km/h (1 Bft)
02.09.2017 17:53 8,6 °C 8,6 °C 93 % 1015,8 hPa 0,0 mm 2,9 km/h (1 Bft) S-SW 209 ° 0 min 0,000 mm 0,0 UV-I 25 W/m² 7,5 °C 8,6 °C 4,8 km/h (1 Bft)
02.09.2017 17:54 8,6 °C 8,6 °C 93 % 1015,7 hPa 0,0 mm 0,9 km/h (0 Bft) S-SW 209 ° 0 min 0,000 mm 0,0 UV-I 25 W/m² 7,5 °C 8,6 °C 3,2 km/h (1 Bft)
02.09.2017 17:55 8,6 °C 8,6 °C 93 % 1015,7 hPa 0,0 mm 0,1 km/h (0 Bft) S-SW 209 ° 0 min 0,000 mm 0,0 UV-I 26 W/m² 7,5 °C 8,6 °C 1,6 km/h (1 Bft)
02.09.2017 17:56 8,6 °C 8,6 °C 93 % 1015,7 hPa 0,0 mm 1,7 km/h (1 Bft) S-SW 209 ° 0 min 0,000 mm 0,0 UV-I 26 W/m² 7,5 °C 8,6 °C 4,8 km/h (1 Bft)
02.09.2017 17:57 8,6 °C 8,6 °C 93 % 1015,7 hPa 0,0 mm 3,0 km/h (1 Bft) S-SW 198 ° 0 min 0,000 mm 0,0 UV-I 26 W/m² 7,5 °C 8,6 °C 4,8 km/h (1 Bft)
02.09.2017 17:58 8,6 °C 8,6 °C 93 % 1015,7 hPa 0,0 mm 2,9 km/h (1 Bft) S-SW 198 ° 0 min 0,000 mm 0,0 UV-I 28 W/m² 7,5 °C 8,6 °C 4,8 km/h (1 Bft)
02.09.2017 17:59 8,6 °C 8,6 °C 93 % 1015,7 hPa 0,0 mm 2,1 km/h (1 Bft) S-SW 198 ° 0 min 0,000 mm 0,0 UV-I 28 W/m² 7,5 °C 8,6 °C 6,4 km/h (2 Bft)
02.09.2017 18:00 8,6 °C 8,6 °C 93 % 1015,7 hPa 0,0 mm 3,3 km/h (1 Bft) S-SW 197 ° 0 min 0,000 mm 0,0 UV-I 30 W/m² 7,5 °C 8,6 °C 4,8 km/h (1 Bft)
02.09.2017 18:01 8,6 °C 8,6 °C 93 % 1015,7 hPa 0,0 mm 2,2 km/h (1 Bft) S-SW 197 ° 0 min 0,026 mm 0,0 UV-I 32 W/m² 7,5 °C 8,6 °C 4,8 km/h (1 Bft)
02.09.2017 18:02 8,6 °C 8,6 °C 93 % 1015,7 hPa 0,0 mm 3,1 km/h (1 Bft) SW 225 ° 0 min 0,000 mm 0,0 UV-I 33 W/m² 7,5 °C 8,6 °C 4,8 km/h (1 Bft)
02.09.2017 18:03 8,6 °C 8,6 °C 93 % 1015,6 hPa 0,0 mm 0,4 km/h (0 Bft) SW 225 ° 0 min 0,000 mm 0,0 UV-I 37 W/m² 7,5 °C 8,6 °C 1,6 km/h (1 Bft)
02.09.2017 18:04 8,6 °C 8,6 °C 93 % 1015,7 hPa 0,0 mm 0,0 km/h (0 Bft) SW 225 ° 0 min 0,000 mm 0,0 UV-I 46 W/m² 7,5 °C 8,6 °C 0,0 km/h (0 Bft)
02.09.2017 18:05 8,6 °C 8,6 °C 93 % 1015,6 hPa 0,0 mm 2,0 km/h (1 Bft) SW 225 ° 0 min 0,000 mm 0,0 UV-I 51 W/m² 7,5 °C 8,6 °C 3,2 km/h (1 Bft)
02.09.2017 18:06 8,6 °C 8,6 °C 93 % 1015,6 hPa 0,0 mm 2,3 km/h (1 Bft) SW 226 ° 0 min 0,000 mm 0,0 UV-I 51 W/m² 7,5 °C 8,6 °C 3,2 km/h (1 Bft)
02.09.2017 18:07 8,6 °C 8,6 °C 93 % 1015,6 hPa 0,0 mm 2,7 km/h (1 Bft) W-NW 286 ° 0 min 0,000 mm 0,0 UV-I 49 W/m² 7,5 °C 8,6 °C 4,8 km/h (1 Bft)
02.09.2017 18:08 8,7 °C 8,7 °C 93 % 1015,7 hPa 0,0 mm 1,2 km/h (1 Bft) W-NW 286 ° 0 min 0,000 mm 0,0 UV-I 46 W/m² 7,6 °C 8,7 °C 3,2 km/h (1 Bft)
02.09.2017 18:09 8,7 °C 8,7 °C 93 % 1015,6 hPa 0,0 mm 0,7 km/h (0 Bft) W 275 ° 0 min 0,000 mm 0,0 UV-I 42 W/m² 7,6 °C 8,7 °C 3,2 km/h (1 Bft)
02.09.2017 18:10 8,6 °C 8,7 °C 93 % 1015,7 hPa 0,0 mm 0,7 km/h (0 Bft) W 275 ° 0 min 0,000 mm 0,0 UV-I 33 W/m² 7,5 °C 8,6 °C 1,6 km/h (1 Bft)
02.09.2017 18:11 8,7 °C 8,7 °C 92 % 1015,7 hPa 0,0 mm 1,5 km/h (1 Bft) W 275 ° 0 min 0,000 mm 0,0 UV-I 30 W/m² 7,5 °C 8,7 °C 3,2 km/h (1 Bft)
02.09.2017 18:12 8,6 °C 8,7 °C 92 % 1015,7 hPa 0,0 mm 2,9 km/h (1 Bft) W 275 ° 0 min 0,000 mm 0,0 UV-I 28 W/m² 7,4 °C 8,6 °C 6,4 km/h (2 Bft)
02.09.2017 18:13 8,7 °C 8,7 °C 93 % 1015,7 hPa 0,0 mm 0,0 km/h (0 Bft) W 275 ° 0 min 0,000 mm 0,0 UV-I 28 W/m² 7,6 °C 8,7 °C 0,0 km/h (0 Bft)
02.09.2017 18:14 8,6 °C 8,7 °C 93 % 1015,8 hPa 0,0 mm 0,3 km/h (0 Bft) W 275 ° 0 min 0,000 mm 0,0 UV-I 28 W/m² 7,5 °C 8,6 °C 1,6 km/h (1 Bft)
02.09.2017 18:15 8,6 °C 8,6 °C 93 % 1015,8 hPa 0,0 mm 0,9 km/h (0 Bft) W 275 ° 0 min 0,000 mm 0,0 UV-I 30 W/m² 7,5 °C 8,6 °C 3,2 km/h (1 Bft)
02.09.2017 18:16 8,6 °C 8,6 °C 93 % 1015,8 hPa 0,0 mm 3,4 km/h (1 Bft) W 263 ° 0 min 0,000 mm 0,0 UV-I 30 W/m² 7,5 °C 8,6 °C 6,4 km/h (2 Bft)
02.09.2017 18:17 8,6 °C 8,6 °C 93 % 1015,8 hPa 0,0 mm 1,4 km/h (1 Bft) W 261 ° 0 min 0,000 mm 0,0 UV-I 26 W/m² 7,5 °C 8,6 °C 3,2 km/h (1 Bft)
02.09.2017 18:18 8,6 °C 8,6 °C 93 % 1015,7 hPa 0,0 mm 0,3 km/h (0 Bft) W 261 ° 0 min 0,000 mm 0,0 UV-I 23 W/m² 7,5 °C 8,6 °C 1,6 km/h (1 Bft)
02.09.2017 18:19 8,6 °C 8,6 °C 93 % 1015,7 hPa 0,0 mm 0,8 km/h (0 Bft) W 261 ° 0 min 0,000 mm 0,0 UV-I 21 W/m² 7,5 °C 8,6 °C 3,2 km/h (1 Bft)
02.09.2017 18:20 8,6 °C 8,6 °C 93 % 1015,7 hPa 0,0 mm 0,5 km/h (0 Bft) W 261 ° 0 min 0,000 mm 0,0 UV-I 19 W/m² 7,5 °C 8,6 °C 1,6 km/h (1 Bft)
02.09.2017 18:21 8,6 °C 8,6 °C 93 % 1015,7 hPa 0,0 mm 0,1 km/h (0 Bft) W 261 ° 0 min 0,000 mm 0,0 UV-I 19 W/m² 7,5 °C 8,6 °C 1,6 km/h (1 Bft)
02.09.2017 18:22 8,6 °C 8,6 °C 93 % 1015,7 hPa 0,0 mm 0,2 km/h (0 Bft) W 261 ° 0 min 0,000 mm 0,0 UV-I 21 W/m² 7,5 °C 8,6 °C 1,6 km/h (1 Bft)
02.09.2017 18:23 8,6 °C 8,6 °C 93 % 1015,7 hPa 0,0 mm 0,3 km/h (0 Bft) W 261 ° 0 min 0,000 mm 0,0 UV-I 21 W/m² 7,5 °C 8,6 °C 1,6 km/h (1 Bft)
02.09.2017 18:24 8,6 °C 8,6 °C 93 % 1015,7 hPa 0,0 mm 0,0 km/h (0 Bft) W 261 ° 0 min 0,000 mm 0,0 UV-I 23 W/m² 7,5 °C 8,6 °C 0,0 km/h (0 Bft)
02.09.2017 18:25 8,6 °C 8,6 °C 93 % 1015,8 hPa 0,0 mm 0,0 km/h (0 Bft) W 261 ° 0 min 0,000 mm 0,0 UV-I 23 W/m² 7,5 °C 8,6 °C 0,0 km/h (0 Bft)
02.09.2017 18:26 8,6 °C 8,6 °C 93 % 1015,7 hPa 0,0 mm 1,3 km/h (1 Bft) W 261 ° 0 min 0,000 mm 0,0 UV-I 25 W/m² 7,5 °C 8,6 °C 3,2 km/h (1 Bft)
02.09.2017 18:27 8,6 °C 8,6 °C 93 % 1015,8 hPa 0,0 mm 1,6 km/h (1 Bft) W 261 ° 0 min 0,000 mm 0,0 UV-I 25 W/m² 7,5 °C 8,6 °C 3,2 km/h (1 Bft)
02.09.2017 18:28 8,6 °C 8,6 °C 93 % 1015,8 hPa 0,0 mm 0,0 km/h (0 Bft) W 261 ° 0 min 0,000 mm 0,0 UV-I 25 W/m² 7,5 °C 8,6 °C 0,0 km/h (0 Bft)
02.09.2017 18:29 8,6 °C 8,6 °C 93 % 1015,8 hPa 0,0 mm 0,3 km/h (0 Bft) W 261 ° 0 min 0,000 mm 0,0 UV-I 25 W/m² 7,5 °C 8,6 °C 1,6 km/h (1 Bft)
02.09.2017 18:30 8,5 °C 8,6 °C 93 % 1015,8 hPa 0,0 mm 0,4 km/h (0 Bft) W 261 ° 0 min 0,000 mm 0,0 UV-I 25 W/m² 7,4 °C 8,5 °C 1,6 km/h (1 Bft)
02.09.2017 18:31 8,6 °C 8,6 °C 93 % 1015,8 hPa 0,0 mm 0,2 km/h (0 Bft) W 261 ° 0 min 0,000 mm 0,0 UV-I 25 W/m² 7,5 °C 8,6 °C 1,6 km/h (1 Bft)
02.09.2017 18:32 8,6 °C 8,6 °C 93 % 1015,8 hPa 0,0 mm 0,5 km/h (0 Bft) W 261 ° 0 min 0,000 mm 0,0 UV-I 25 W/m² 7,5 °C 8,6 °C 3,2 km/h (1 Bft)
02.09.2017 18:33 8,6 °C 8,6 °C 93 % 1015,8 hPa 0,0 mm 1,1 km/h (1 Bft) W 261 ° 0 min 0,000 mm 0,0 UV-I 21 W/m² 7,5 °C 8,6 °C 3,2 km/h (1 Bft)
02.09.2017 18:34 8,6 °C 8,6 °C 93 % 1015,8 hPa 0,0 mm 0,9 km/h (0 Bft) W 261 ° 0 min 0,000 mm 0,0 UV-I 19 W/m² 7,5 °C 8,6 °C 3,2 km/h (1 Bft)
02.09.2017 18:35 8,5 °C 8,6 °C 93 % 1015,8 hPa 0,0 mm 2,0 km/h (1 Bft) W-SW 254 ° 0 min 0,000 mm 0,0 UV-I 19 W/m² 7,4 °C 8,5 °C 4,8 km/h (1 Bft)
02.09.2017 18:36 8,5 °C 8,6 °C 93 % 1015,9 hPa 0,0 mm 0,3 km/h (0 Bft) W-SW 242 ° 0 min 0,000 mm 0,0 UV-I 18 W/m² 7,4 °C 8,5 °C 3,2 km/h (1 Bft)
02.09.2017 18:37 8,5 °C 8,5 °C 93 % 1015,9 hPa 0,0 mm 3,4 km/h (1 Bft) W-SW 238 ° 0 min 0,000 mm 0,0 UV-I 16 W/m² 7,4 °C 8,5 °C 4,8 km/h (1 Bft)
02.09.2017 18:38 8,4 °C 8,5 °C 93 % 1015,9 hPa 0,0 mm 2,9 km/h (1 Bft) SW 230 ° 0 min 0,000 mm 0,0 UV-I 16 W/m² 7,3 °C 8,4 °C 4,8 km/h (1 Bft)
02.09.2017 18:39 8,4 °C 8,5 °C 93 % 1015,9 hPa 0,0 mm 2,5 km/h (1 Bft) SW 230 ° 0 min 0,000 mm 0,0 UV-I 14 W/m² 7,3 °C 8,4 °C 3,2 km/h (1 Bft)
02.09.2017 18:40 8,4 °C 8,5 °C 93 % 1015,9 hPa 0,0 mm 0,8 km/h (0 Bft) SW 231 ° 0 min 0,000 mm 0,0 UV-I 14 W/m² 7,3 °C 8,4 °C 3,2 km/h (1 Bft)
02.09.2017 18:41 8,4 °C 8,5 °C 93 % 1015,9 hPa 0,0 mm 0,1 km/h (0 Bft) SW 230 ° 0 min 0,000 mm 0,0 UV-I 14 W/m² 7,3 °C 8,4 °C 1,6 km/h (1 Bft)
02.09.2017 18:42 8,4 °C 8,5 °C 93 % 1015,9 hPa 0,0 mm 1,5 km/h (1 Bft) S-SW 211 ° 0 min 0,000 mm 0,0 UV-I 12 W/m² 7,3 °C 8,4 °C 4,8 km/h (1 Bft)
02.09.2017 18:43 8,4 °C 8,4 °C 93 % 1015,9 hPa 0,0 mm 0,0 km/h (0 Bft) S-SW 211 ° 0 min 0,000 mm 0,0 UV-I 12 W/m² 7,3 °C 8,4 °C 0,0 km/h (0 Bft)
02.09.2017 18:44 8,4 °C 8,4 °C 93 % 1015,9 hPa 0,0 mm 0,0 km/h (0 Bft) S-SW 211 ° 0 min 0,000 mm 0,0 UV-I 11 W/m² 7,3 °C 8,4 °C 0,0 km/h (0 Bft)
02.09.2017 18:45 8,4 °C 8,4 °C 94 % 1016,0 hPa 0,0 mm 1,7 km/h (1 Bft) S-SW 211 ° 0 min 0,000 mm 0,0 UV-I 11 W/m² 7,5 °C 8,4 °C 3,2 km/h (1 Bft)
02.09.2017 18:46 8,4 °C 8,4 °C 94 % 1015,9 hPa 0,0 mm 0,1 km/h (0 Bft) S-SW 211 ° 0 min 0,000 mm 0,0 UV-I 11 W/m² 7,5 °C 8,4 °C 1,6 km/h (1 Bft)
02.09.2017 18:47 8,4 °C 8,4 °C 94 % 1016,0 hPa 0,0 mm 0,8 km/h (0 Bft) S-SW 211 ° 0 min 0,000 mm 0,0 UV-I 11 W/m² 7,5 °C 8,4 °C 3,2 km/h (1 Bft)
02.09.2017 18:48 8,4 °C 8,4 °C 94 % 1016,0 hPa 0,0 mm 0,0 km/h (0 Bft) S-SW 211 ° 0 min 0,000 mm 0,0 UV-I 11 W/m² 7,5 °C 8,4 °C 0,0 km/h (0 Bft)
02.09.2017 18:49 8,4 °C 8,4 °C 94 % 1016,0 hPa 0,0 mm 1,9 km/h (1 Bft) W-SW 240 ° 0 min 0,000 mm 0,0 UV-I 9 W/m² 7,5 °C 8,4 °C 4,8 km/h (1 Bft)
02.09.2017 18:50 8,4 °C 8,4 °C 94 % 1016,0 hPa 0,0 mm 0,6 km/h (0 Bft) W-SW 240 ° 0 min 0,000 mm 0,0 UV-I 9 W/m² 7,5 °C 8,4 °C 3,2 km/h (1 Bft)
02.09.2017 18:51 8,4 °C 8,4 °C 94 % 1016,0 hPa 0,2 mm 0,0 km/h (0 Bft) W-SW 240 ° 0 min 0,000 mm 0,0 UV-I 9 W/m² 7,5 °C 8,4 °C 0,0 km/h (0 Bft)
02.09.2017 18:52 8,4 °C 8,4 °C 94 % 1016,0 hPa 0,0 mm 0,0 km/h (0 Bft) W-SW 239 ° 0 min 0,000 mm 0,0 UV-I 9 W/m² 7,5 °C 8,4 °C 0,0 km/h (0 Bft)
02.09.2017 18:53 8,4 °C 8,4 °C 94 % 1016,0 hPa 0,0 mm 0,0 km/h (0 Bft) W-SW 239 ° 0 min 0,000 mm 0,0 UV-I 9 W/m² 7,5 °C 8,4 °C 0,0 km/h (0 Bft)
02.09.2017 18:54 8,4 °C 8,4 °C 94 % 1016,0 hPa 0,0 mm 0,0 km/h (0 Bft) W-SW 239 ° 0 min 0,000 mm 0,0 UV-I 9 W/m² 7,5 °C 8,4 °C 0,0 km/h (0 Bft)
02.09.2017 18:55 8,3 °C 8,4 °C 94 % 1016,0 hPa 0,2 mm 0,0 km/h (0 Bft) W-SW 239 ° 0 min 0,000 mm 0,0 UV-I 11 W/m² 7,4 °C 8,3 °C 0,0 km/h (0 Bft)
02.09.2017 18:56 8,3 °C 8,3 °C 94 % 1016,0 hPa 0,0 mm 0,3 km/h (0 Bft) W-SW 239 ° 0 min 0,000 mm 0,0 UV-I 11 W/m² 7,4 °C 8,3 °C 1,6 km/h (1 Bft)
02.09.2017 18:57 8,3 °C 8,3 °C 93 % 1015,9 hPa 0,0 mm 0,9 km/h (0 Bft) W-SW 239 ° 0 min 0,000 mm 0,0 UV-I 11 W/m² 7,2 °C 8,3 °C 3,2 km/h (1 Bft)
02.09.2017 18:58 8,3 °C 8,3 °C 94 % 1015,9 hPa 0,0 mm 0,3 km/h (0 Bft) W-SW 239 ° 0 min 0,000 mm 0,0 UV-I 11 W/m² 7,4 °C 8,3 °C 1,6 km/h (1 Bft)
02.09.2017 18:59 8,3 °C 8,3 °C 94 % 1015,9 hPa 0,0 mm 0,0 km/h (0 Bft) W-SW 239 ° 0 min 0,000 mm 0,0 UV-I 11 W/m² 7,4 °C 8,3 °C 0,0 km/h (0 Bft)
02.09.2017 19:00 8,2 °C 8,3 °C 94 % 1015,9 hPa 0,0 mm 0,0 km/h (0 Bft) W-SW 239 ° 0 min 0,000 mm 0,0 UV-I 11 W/m² 7,3 °C 8,2 °C 0,0 km/h (0 Bft)
02.09.2017 19:01 8,3 °C 8,3 °C 94 % 1015,9 hPa 0,2 mm 2,9 km/h (1 Bft) W-SW 240 ° 0 min 0,000 mm 0,0 UV-I 11 W/m² 7,4 °C 8,3 °C 6,4 km/h (2 Bft)
02.09.2017 19:02 8,2 °C 8,3 °C 94 % 1015,9 hPa 0,0 mm 1,8 km/h (1 Bft) W-SW 240 ° 0 min 0,000 mm 0,0 UV-I 11 W/m² 7,3 °C 8,2 °C 3,2 km/h (1 Bft)
02.09.2017 19:03 8,2 °C 8,2 °C 94 % 1015,9 hPa 0,0 mm 0,1 km/h (0 Bft) W-SW 239 ° 0 min 0,000 mm 0,0 UV-I 9 W/m² 7,3 °C 8,2 °C 1,6 km/h (1 Bft)
02.09.2017 19:04 8,2 °C 8,3 °C 94 % 1015,9 hPa 0,0 mm 0,0 km/h (0 Bft) W-SW 240 ° 0 min 0,000 mm 0,0 UV-I 9 W/m² 7,3 °C 8,2 °C 0,0 km/h (0 Bft)
02.09.2017 19:05 8,2 °C 8,2 °C 94 % 1015,9 hPa 0,2 mm 1,6 km/h (1 Bft) W-SW 240 ° 0 min 0,000 mm 0,0 UV-I 9 W/m² 7,3 °C 8,2 °C 3,2 km/h (1 Bft)
02.09.2017 19:06 8,2 °C 8,2 °C 94 % 1016,0 hPa 0,0 mm 1,9 km/h (1 Bft) W 261 ° 0 min 0,000 mm 0,0 UV-I 7 W/m² 7,3 °C 8,2 °C 3,2 km/h (1 Bft)
02.09.2017 19:07 8,3 °C 8,3 °C 94 % 1016,0 hPa 0,0 mm 1,8 km/h (1 Bft) W 262 ° 0 min 0,000 mm 0,0 UV-I 7 W/m² 7,4 °C 8,3 °C 3,2 km/h (1 Bft)
02.09.2017 19:08 8,2 °C 8,3 °C 94 % 1016,1 hPa 0,0 mm 1,3 km/h (1 Bft) W 262 ° 0 min 0,000 mm 0,0 UV-I 7 W/m² 7,3 °C 8,2 °C 3,2 km/h (1 Bft)
02.09.2017 19:09 8,3 °C 8,3 °C 94 % 1016,1 hPa 0,0 mm 0,1 km/h (0 Bft) W 262 ° 0 min 0,000 mm 0,0 UV-I 7 W/m² 7,4 °C 8,3 °C 1,6 km/h (1 Bft)
02.09.2017 19:10 8,3 °C 8,3 °C 94 % 1016,1 hPa 0,2 mm 0,0 km/h (0 Bft) W 262 ° 0 min 0,000 mm 0,0 UV-I 7 W/m² 7,4 °C 8,3 °C 0,0 km/h (0 Bft)
02.09.2017 19:11 8,3 °C 8,3 °C 94 % 1016,1 hPa 0,0 mm 0,0 km/h (0 Bft) W 262 ° 0 min 0,000 mm 0,0 UV-I 7 W/m² 7,4 °C 8,3 °C 0,0 km/h (0 Bft)
02.09.2017 19:12 8,3 °C 8,3 °C 94 % 1016,1 hPa 0,0 mm 0,2 km/h (0 Bft) W 262 ° 0 min 0,000 mm 0,0 UV-I 7 W/m² 7,4 °C 8,3 °C 1,6 km/h (1 Bft)
02.09.2017 19:13 8,3 °C 8,3 °C 94 % 1016,1 hPa 0,0 mm 1,9 km/h (1 Bft) W 262 ° 0 min 0,000 mm 0,0 UV-I 5 W/m² 7,4 °C 8,3 °C 3,2 km/h (1 Bft)
02.09.2017 19:14 8,3 °C 8,3 °C 94 % 1016,1 hPa 0,2 mm 3,4 km/h (1 Bft) W 267 ° 0 min 0,000 mm 0,0 UV-I 5 W/m² 7,4 °C 8,3 °C 6,4 km/h (2 Bft)
02.09.2017 19:15 8,2 °C 8,3 °C 94 % 1016,1 hPa 0,0 mm 4,0 km/h (1 Bft) W 261 ° 0 min 0,000 mm 0,0 UV-I 5 W/m² 7,3 °C 8,2 °C 4,8 km/h (1 Bft)
02.09.2017 19:16 8,3 °C 8,3 °C 94 % 1016,1 hPa 0,0 mm 3,4 km/h (1 Bft) W 261 ° 0 min 0,000 mm 0,0 UV-I 5 W/m² 7,4 °C 8,3 °C 4,8 km/h (1 Bft)
02.09.2017 19:17 8,2 °C 8,3 °C 94 % 1016,1 hPa 0,2 mm 2,5 km/h (1 Bft) W 261 ° 0 min 0,000 mm 0,0 UV-I 0 W/m² 7,3 °C 8,2 °C 3,2 km/h (1 Bft)
02.09.2017 19:18 8,2 °C 8,2 °C 94 % 1016,2 hPa 0,0 mm 0,0 km/h (0 Bft) W 261 ° 0 min 0,000 mm 0,0 UV-I 0 W/m² 7,3 °C 8,2 °C 0,0 km/h (0 Bft)
02.09.2017 19:19 8,2 °C 8,2 °C 94 % 1016,1 hPa 0,0 mm 0,0 km/h (0 Bft) W 261 ° 0 min 0,000 mm 0,0 UV-I 0 W/m² 7,3 °C 8,2 °C 0,0 km/h (0 Bft)
02.09.2017 19:20 8,1 °C 8,2 °C 94 % 1016,2 hPa 0,2 mm 0,0 km/h (0 Bft) W 261 ° 0 min 0,000 mm 0,0 UV-I 0 W/m² 7,2 °C 8,1 °C 0,0 km/h (0 Bft)
02.09.2017 19:21 8,1 °C 8,2 °C 94 % 1016,2 hPa 0,0 mm 0,0 km/h (0 Bft) W 261 ° 0 min 0,000 mm 0,0 UV-I 0 W/m² 7,2 °C 8,1 °C 0,0 km/h (0 Bft)
02.09.2017 19:22 8,1 °C 8,1 °C 94 % 1016,2 hPa 0,0 mm 0,0 km/h (0 Bft) W 261 ° 0 min 0,000 mm 0,0 UV-I 0 W/m² 7,2 °C 8,1 °C 0,0 km/h (0 Bft)
02.09.2017 19:23 8,1 °C 8,1 °C 94 % 1016,2 hPa 0,2 mm 0,0 km/h (0 Bft) W 261 ° 0 min 0,000 mm 0,0 UV-I 0 W/m² 7,2 °C 8,1 °C 0,0 km/h (0 Bft)
02.09.2017 19:24 8,1 °C 8,1 °C 94 % 1016,3 hPa 0,0 mm 0,0 km/h (0 Bft) W 261 ° 0 min 0,000 mm 0,0 UV-I 0 W/m² 7,2 °C 8,1 °C 0,0 km/h (0 Bft)
02.09.2017 19:25 8,1 °C 8,1 °C 94 % 1016,2 hPa 0,2 mm 0,0 km/h (0 Bft) W 261 ° 0 min 0,000 mm 0,0 UV-I 0 W/m² 7,2 °C 8,1 °C 0,0 km/h (0 Bft)
02.09.2017 19:26 8,1 °C 8,1 °C 94 % 1016,3 hPa 0,0 mm 0,0 km/h (0 Bft) W 261 ° 0 min 0,000 mm 0,0 UV-I 0 W/m² 7,2 °C 8,1 °C 0,0 km/h (0 Bft)
02.09.2017 19:27 8,0 °C 8,1 °C 94 % 1016,3 hPa 0,0 mm 0,0 km/h (0 Bft) W 261 ° 0 min 0,000 mm 0,0 UV-I 0 W/m² 7,1 °C 8,0 °C 0,0 km/h (0 Bft)
02.09.2017 19:28 8,0 °C 8,0 °C 94 % 1016,2 hPa 0,2 mm 0,0 km/h (0 Bft) N 0 ° 0 min 0,000 mm 0,0 UV-I 5 W/m² 7,1 °C 8,0 °C 0,0 km/h (0 Bft)
02.09.2017 19:29 7,9 °C 8,0 °C 94 % 1016,2 hPa 0,0 mm 0,0 km/h (0 Bft) W 270 ° 0 min 0,000 mm 0,0 UV-I 5 W/m² 7,0 °C 7,9 °C 1,6 km/h (1 Bft)
02.09.2017 19:30 7,9 °C 8,0 °C 94 % 1016,2 hPa 0,0 mm 3,2 km/h (1 Bft) W 270 ° 0 min 0,000 mm 0,0 UV-I 5 W/m² 7,0 °C 7,9 °C 4,8 km/h (1 Bft)
02.09.2017 19:31 7,9 °C 7,9 °C 94 % 1016,2 hPa 0,0 mm 1,6 km/h (1 Bft) SW 225 ° 0 min 0,000 mm 0,0 UV-I 5 W/m² 7,0 °C 7,9 °C 4,8 km/h (1 Bft)
02.09.2017 19:32 7,9 °C 7,9 °C 95 % 1016,2 hPa 0,2 mm 1,6 km/h (1 Bft) SW 225 ° 0 min 0,000 mm 0,0 UV-I 7 W/m² 7,1 °C 7,9 °C 3,2 km/h (1 Bft)
02.09.2017 19:33 7,9 °C 7,9 °C 95 % 1016,2 hPa 0,0 mm 1,6 km/h (1 Bft) SW 225 ° 0 min 0,000 mm 0,0 UV-I 7 W/m² 7,1 °C 7,9 °C 1,6 km/h (1 Bft)
02.09.2017 19:34 7,9 °C 7,9 °C 95 % 1016,2 hPa 0,0 mm 0,0 km/h (0 Bft) SW 225 ° 0 min 0,000 mm 0,0 UV-I 7 W/m² 7,1 °C 7,9 °C 1,6 km/h (1 Bft)
02.09.2017 19:35 7,9 °C 7,9 °C 95 % 1016,1 hPa 0,0 mm 1,6 km/h (1 Bft) SW 225 ° 0 min 0,000 mm 0,0 UV-I 7 W/m² 7,1 °C 7,9 °C 3,2 km/h (1 Bft)
02.09.2017 19:36 7,9 °C 7,9 °C 95 % 1016,2 hPa 0,0 mm 4,8 km/h (1 Bft) S-SW 202 ° 0 min 0,000 mm 0,0 UV-I 7 W/m² 7,1 °C 7,4 °C 6,4 km/h (2 Bft)
02.09.2017 19:37 7,9 °C 7,9 °C 95 % 1016,1 hPa 0,2 mm 1,6 km/h (1 Bft) S-SW 202 ° 0 min 0,000 mm 0,0 UV-I 5 W/m² 7,1 °C 7,9 °C 4,8 km/h (1 Bft)
02.09.2017 19:39 7,9 °C 7,9 °C 95 % 1016,2 hPa 0,0 mm 2,8 km/h (1 Bft) S-SW 194 ° 0 min 0,000 mm 0,0 UV-I 5 W/m² 7,1 °C 7,9 °C 4,8 km/h (1 Bft)
02.09.2017 19:40 7,8 °C 7,9 °C 95 % 1016,2 hPa 0,0 mm 4,0 km/h (1 Bft) S 186 ° 0 min 0,000 mm 0,0 UV-I 5 W/m² 7,0 °C 7,8 °C 6,4 km/h (2 Bft)
02.09.2017 19:41 7,8 °C 7,9 °C 94 % 1016,1 hPa 0,0 mm 3,8 km/h (1 Bft) S-SW 199 ° 0 min 0,000 mm 0,0 UV-I 5 W/m² 6,9 °C 7,8 °C 4,8 km/h (1 Bft)
02.09.2017 19:42 7,8 °C 7,8 °C 94 % 1016,1 hPa 0,0 mm 4,6 km/h (1 Bft) S-SW 198 ° 0 min 0,000 mm 0,0 UV-I 5 W/m² 6,9 °C 7,4 °C 8,0 km/h (2 Bft)
02.09.2017 19:43 7,8 °C 7,9 °C 94 % 1016,1 hPa 0,0 mm 1,5 km/h (1 Bft) S-SW 198 ° 0 min 0,000 mm 0,0 UV-I 0 W/m² 6,9 °C 7,8 °C 3,2 km/h (1 Bft)
02.09.2017 19:44 7,8 °C 7,8 °C 94 % 1016,2 hPa 0,0 mm 3,7 km/h (1 Bft) S 190 ° 0 min 0,000 mm 0,0 UV-I 0 W/m² 6,9 °C 7,8 °C 8,0 km/h (2 Bft)
02.09.2017 19:45 7,8 °C 7,8 °C 94 % 1016,1 hPa 0,0 mm 3,9 km/h (1 Bft) S 186 ° 0 min 0,000 mm 0,0 UV-I 0 W/m² 6,9 °C 7,8 °C 6,4 km/h (2 Bft)
02.09.2017 19:46 7,8 °C 7,9 °C 94 % 1016,2 hPa 0,0 mm 3,0 km/h (1 Bft) S-SW 201 ° 0 min 0,000 mm 0,0 UV-I 0 W/m² 6,9 °C 7,8 °C 4,8 km/h (1 Bft)
02.09.2017 19:47 7,8 °C 7,9 °C 94 % 1016,2 hPa 0,0 mm 3,3 km/h (1 Bft) S-SW 196 ° 0 min 0,000 mm 0,0 UV-I 0 W/m² 6,9 °C 7,8 °C 4,8 km/h (1 Bft)
02.09.2017 19:48 7,8 °C 7,9 °C 94 % 1016,2 hPa 0,0 mm 3,7 km/h (1 Bft) S 187 ° 0 min 0,000 mm 0,0 UV-I 0 W/m² 6,9 °C 7,8 °C 6,4 km/h (2 Bft)
02.09.2017 19:49 7,8 °C 7,9 °C 94 % 1016,2 hPa 0,0 mm 4,4 km/h (1 Bft) S 188 ° 0 min 0,000 mm 0,0 UV-I 0 W/m² 6,9 °C 7,8 °C 6,4 km/h (2 Bft)
02.09.2017 19:50 7,8 °C 7,9 °C 94 % 1016,2 hPa 0,2 mm 2,3 km/h (1 Bft) S 188 ° 0 min 0,000 mm 0,0 UV-I 0 W/m² 6,9 °C 7,8 °C 3,2 km/h (1 Bft)
02.09.2017 19:51 7,8 °C 7,9 °C 94 % 1016,2 hPa 0,0 mm 3,4 km/h (1 Bft) S 190 ° 0 min 0,000 mm 0,0 UV-I 0 W/m² 6,9 °C 7,8 °C 6,4 km/h (2 Bft)
02.09.2017 19:52 7,8 °C 7,9 °C 94 % 1016,1 hPa 0,0 mm 3,6 km/h (1 Bft) S-SW 194 ° 0 min 0,000 mm 0,0 UV-I 0 W/m² 6,9 °C 7,8 °C 6,4 km/h (2 Bft)
02.09.2017 19:53 7,8 °C 7,9 °C 94 % 1016,2 hPa 0,0 mm 4,8 km/h (1 Bft) S 190 ° 0 min 0,000 mm 0,0 UV-I 0 W/m² 6,9 °C 7,3 °C 8,0 km/h (2 Bft)
02.09.2017 19:54 7,8 °C 7,8 °C 94 % 1016,2 hPa 0,0 mm 3,1 km/h (1 Bft) S 190 ° 0 min 0,000 mm 0,0 UV-I 0 W/m² 6,9 °C 7,8 °C 4,8 km/h (1 Bft)
02.09.2017 19:55 7,8 °C 7,8 °C 94 % 1016,1 hPa 0,0 mm 3,3 km/h (1 Bft) SW 218 ° 0 min 0,000 mm 0,0 UV-I 0 W/m² 6,9 °C 7,8 °C 4,8 km/h (1 Bft)
02.09.2017 19:56 7,8 °C 7,8 °C 94 % 1016,1 hPa 0,0 mm 4,2 km/h (1 Bft) S 181 ° 0 min 0,000 mm 0,0 UV-I 0 W/m² 6,9 °C 7,8 °C 8,0 km/h (2 Bft)
02.09.2017 19:57 7,8 °C 7,8 °C 94 % 1016,2 hPa 0,0 mm 3,9 km/h (1 Bft) S 186 ° 0 min 0,000 mm 0,0 UV-I 0 W/m² 6,9 °C 7,8 °C 8,0 km/h (2 Bft)
02.09.2017 19:58 7,8 °C 7,8 °C 94 % 1016,2 hPa 0,2 mm 2,2 km/h (1 Bft) S 186 ° 0 min 0,000 mm 0,0 UV-I 0 W/m² 6,9 °C 7,8 °C 3,2 km/h (1 Bft)
02.09.2017 19:59 7,8 °C 7,8 °C 94 % 1016,2 hPa 0,0 mm 2,1 km/h (1 Bft) S-SW 209 ° 0 min 0,000 mm 0,0 UV-I 0 W/m² 6,9 °C 7,8 °C 4,8 km/h (1 Bft)
02.09.2017 20:00 7,8 °C 7,8 °C 94 % 1016,2 hPa 0,0 mm 2,5 km/h (1 Bft) S 186 ° 0 min 0,000 mm 0,0 UV-I 0 W/m² 6,9 °C 7,8 °C 4,8 km/h (1 Bft)
02.09.2017 20:01 7,8 °C 7,8 °C 94 % 1016,2 hPa 0,0 mm 1,9 km/h (1 Bft) S 186 ° 0 min 0,000 mm 0,0 UV-I 0 W/m² 6,9 °C 7,8 °C 4,8 km/h (1 Bft)
02.09.2017 20:02 7,8 °C 7,8 °C 94 % 1016,2 hPa 0,0 mm 3,6 km/h (1 Bft) S 182 ° 0 min 0,000 mm 0,0 UV-I 0 W/m² 6,9 °C 7,8 °C 6,4 km/h (2 Bft)
02.09.2017 20:03 7,8 °C 7,8 °C 94 % 1016,2 hPa 0,0 mm 4,3 km/h (1 Bft) S 188 ° 0 min 0,000 mm 0,0 UV-I 0 W/m² 6,9 °C 7,8 °C 8,0 km/h (2 Bft)
02.09.2017 20:04 7,8 °C 7,8 °C 94 % 1016,2 hPa 0,0 mm 5,1 km/h (1 Bft) S 185 ° 0 min 0,000 mm 0,0 UV-I 0 W/m² 6,9 °C 7,2 °C 6,4 km/h (2 Bft)
02.09.2017 20:05 7,8 °C 7,8 °C 94 % 1016,3 hPa 0,0 mm 3,8 km/h (1 Bft) S 180 ° 0 min 0,000 mm 0,0 UV-I 0 W/m² 6,9 °C 7,8 °C 9,7 km/h (2 Bft)
02.09.2017 20:06 7,8 °C 7,8 °C 94 % 1016,3 hPa 0,0 mm 5,1 km/h (1 Bft) S 189 ° 0 min 0,000 mm 0,0 UV-I 0 W/m² 6,9 °C 7,2 °C 6,4 km/h (2 Bft)
02.09.2017 20:07 7,8 °C 7,8 °C 94 % 1016,2 hPa 0,0 mm 3,2 km/h (1 Bft) S 183 ° 0 min 0,000 mm 0,0 UV-I 0 W/m² 6,9 °C 7,8 °C 4,8 km/h (1 Bft)
02.09.2017 20:08 7,8 °C 7,8 °C 94 % 1016,3 hPa 0,0 mm 2,3 km/h (1 Bft) S 181 ° 0 min 0,000 mm 0,0 UV-I 0 W/m² 6,9 °C 7,8 °C 3,2 km/h (1 Bft)
02.09.2017 20:09 7,8 °C 7,8 °C 95 % 1016,2 hPa 0,2 mm 3,4 km/h (1 Bft) S 182 ° 0 min 0,000 mm 0,0 UV-I 0 W/m² 7,0 °C 7,8 °C 4,8 km/h (1 Bft)
02.09.2017 20:10 7,8 °C 7,8 °C 94 % 1016,3 hPa 0,0 mm 2,4 km/h (1 Bft) S 182 ° 0 min 0,000 mm 0,0 UV-I 0 W/m² 6,9 °C 7,8 °C 4,8 km/h (1 Bft)
02.09.2017 20:11 7,8 °C 7,8 °C 94 % 1016,3 hPa 0,0 mm 2,5 km/h (1 Bft) S 182 ° 0 min 0,000 mm 0,0 UV-I 0 W/m² 6,9 °C 7,8 °C 4,8 km/h (1 Bft)
02.09.2017 20:12 7,8 °C 7,8 °C 95 % 1016,3 hPa 0,0 mm 2,7 km/h (1 Bft) S 182 ° 0 min 0,000 mm 0,0 UV-I 0 W/m² 7,0 °C 7,8 °C 4,8 km/h (1 Bft)
02.09.2017 20:13 7,8 °C 7,8 °C 95 % 1016,3 hPa 0,0 mm 1,3 km/h (1 Bft) S 182 ° 0 min 0,000 mm 0,0 UV-I 0 W/m² 7,0 °C 7,8 °C 3,2 km/h (1 Bft)
02.09.2017 20:14 7,8 °C 7,8 °C 95 % 1016,3 hPa 0,0 mm 0,0 km/h (0 Bft) S 182 ° 0 min 0,000 mm 0,0 UV-I 0 W/m² 7,0 °C 7,8 °C 0,0 km/h (0 Bft)
02.09.2017 20:15 7,8 °C 7,8 °C 94 % 1016,4 hPa 0,0 mm 0,0 km/h (0 Bft) S 182 ° 0 min 0,000 mm 0,0 UV-I 0 W/m² 6,9 °C 7,8 °C 0,0 km/h (0 Bft)
02.09.2017 20:16 7,8 °C 7,8 °C 95 % 1016,4 hPa 0,0 mm 0,2 km/h (0 Bft) S 182 ° 0 min 0,000 mm 0,0 UV-I 0 W/m² 7,0 °C 7,8 °C 1,6 km/h (1 Bft)
02.09.2017 20:17 7,8 °C 7,9 °C 95 % 1016,3 hPa 0,0 mm 1,9 km/h (1 Bft) SW 215 ° 0 min 0,000 mm 0,0 UV-I 0 W/m² 7,0 °C 7,8 °C 4,8 km/h (1 Bft)
02.09.2017 20:18 7,9 °C 7,9 °C 95 % 1016,3 hPa 0,0 mm 2,3 km/h (1 Bft) W-SW 245 ° 0 min 0,000 mm 0,0 UV-I 0 W/m² 7,1 °C 7,9 °C 3,2 km/h (1 Bft)
02.09.2017 20:19 7,9 °C 7,9 °C 95 % 1016,4 hPa 0,0 mm 1,8 km/h (1 Bft) S-SW 213 ° 0 min 0,000 mm 0,0 UV-I 0 W/m² 7,1 °C 7,9 °C 3,2 km/h (1 Bft)
02.09.2017 20:20 7,9 °C 7,9 °C 95 % 1016,4 hPa 0,0 mm 2,2 km/h (1 Bft) S-SW 213 ° 0 min 0,000 mm 0,0 UV-I 0 W/m² 7,1 °C 7,9 °C 4,8 km/h (1 Bft)
02.09.2017 20:21 7,9 °C 7,9 °C 95 % 1016,4 hPa 0,0 mm 2,6 km/h (1 Bft) W-SW 250 ° 0 min 0,000 mm 0,0 UV-I 0 W/m² 7,1 °C 7,9 °C 4,8 km/h (1 Bft)
02.09.2017 20:22 7,9 °C 7,9 °C 95 % 1016,4 hPa 0,0 mm 2,5 km/h (1 Bft) SW 234 ° 0 min 0,000 mm 0,0 UV-I 0 W/m² 7,1 °C 7,9 °C 6,4 km/h (2 Bft)
02.09.2017 20:23 7,9 °C 7,9 °C 95 % 1016,4 hPa 0,0 mm 2,1 km/h (1 Bft) SW 234 ° 0 min 0,000 mm 0,0 UV-I 0 W/m² 7,1 °C 7,9 °C 3,2 km/h (1 Bft)
02.09.2017 20:24 7,9 °C 7,9 °C 95 % 1016,4 hPa 0,0 mm 0,1 km/h (0 Bft) SW 234 ° 0 min 0,000 mm 0,0 UV-I 0 W/m² 7,1 °C 7,9 °C 1,6 km/h (1 Bft)
02.09.2017 20:25 7,8 °C 7,9 °C 95 % 1016,4 hPa 0,0 mm 0,1 km/h (0 Bft) SW 234 ° 0 min 0,000 mm 0,0 UV-I 0 W/m² 7,0 °C 7,8 °C 1,6 km/h (1 Bft)
02.09.2017 20:26 7,9 °C 7,9 °C 95 % 1016,4 hPa 0,0 mm 0,0 km/h (0 Bft) SW 234 ° 0 min 0,000 mm 0,0 UV-I 0 W/m² 7,1 °C 7,9 °C 0,0 km/h (0 Bft)
02.09.2017 20:27 7,8 °C 7,9 °C 95 % 1016,4 hPa 0,0 mm 1,0 km/h (0 Bft) SW 234 ° 0 min 0,000 mm 0,0 UV-I 0 W/m² 7,0 °C 7,8 °C 3,2 km/h (1 Bft)
02.09.2017 20:29 7,9 °C 7,9 °C 95 % 1016,5 hPa 0,0 mm 1,5 km/h (1 Bft) SW 234 ° 0 min 0,000 mm 0,0 UV-I 0 W/m² 7,1 °C 7,9 °C 3,2 km/h (1 Bft)
02.09.2017 20:30 7,9 °C 7,9 °C 95 % 1016,5 hPa 0,0 mm 0,8 km/h (0 Bft) SW 234 ° 0 min 0,000 mm 0,0 UV-I 0 W/m² 7,1 °C 7,9 °C 1,6 km/h (1 Bft)
02.09.2017 20:31 7,9 °C 7,9 °C 95 % 1016,5 hPa 0,0 mm 0,6 km/h (0 Bft) W-SW 238 ° 0 min 0,000 mm 0,0 UV-I 0 W/m² 7,1 °C 7,9 °C 3,2 km/h (1 Bft)
02.09.2017 20:32 7,9 °C 7,9 °C 95 % 1016,5 hPa 0,0 mm 2,7 km/h (1 Bft) W-SW 250 ° 0 min 0,000 mm 0,0 UV-I 0 W/m² 7,1 °C 7,9 °C 4,8 km/h (1 Bft)
02.09.2017 20:33 7,9 °C 7,9 °C 95 % 1016,5 hPa 0,0 mm 0,9 km/h (0 Bft) W-SW 250 ° 0 min 0,000 mm 0,0 UV-I 0 W/m² 7,1 °C 7,9 °C 3,2 km/h (1 Bft)
02.09.2017 20:34 7,9 °C 7,9 °C 95 % 1016,5 hPa 0,0 mm 3,3 km/h (1 Bft) SW 235 ° 0 min 0,000 mm 0,0 UV-I 0 W/m² 7,1 °C 7,9 °C 4,8 km/h (1 Bft)
02.09.2017 20:35 7,9 °C 7,9 °C 95 % 1016,5 hPa 0,0 mm 4,2 km/h (1 Bft) SW 225 ° 0 min 0,000 mm 0,0 UV-I 0 W/m² 7,1 °C 7,9 °C 6,4 km/h (2 Bft)
02.09.2017 20:36 7,9 °C 7,9 °C 95 % 1016,5 hPa 0,0 mm 5,2 km/h (1 Bft) S-SW 208 ° 0 min 0,000 mm 0,0 UV-I 0 W/m² 7,1 °C 7,3 °C 6,4 km/h (2 Bft)
02.09.2017 20:37 7,8 °C 7,9 °C 95 % 1016,5 hPa 0,0 mm 3,8 km/h (1 Bft) S-SW 198 ° 0 min 0,000 mm 0,0 UV-I 0 W/m² 7,0 °C 7,8 °C 4,8 km/h (1 Bft)
02.09.2017 20:38 7,8 °C 7,8 °C 95 % 1016,6 hPa 0,0 mm 4,1 km/h (1 Bft) S-SW 196 ° 0 min 0,000 mm 0,0 UV-I 0 W/m² 7,0 °C 7,8 °C 4,8 km/h (1 Bft)
02.09.2017 20:39 7,8 °C 7,8 °C 95 % 1016,5 hPa 0,0 mm 1,8 km/h (1 Bft) S-SW 196 ° 0 min 0,000 mm 0,0 UV-I 0 W/m² 7,0 °C 7,8 °C 3,2 km/h (1 Bft)
02.09.2017 20:40 7,8 °C 7,8 °C 95 % 1016,5 hPa 0,0 mm 0,6 km/h (0 Bft) S-SW 196 ° 0 min 0,000 mm 0,0 UV-I 0 W/m² 7,0 °C 7,8 °C 1,6 km/h (1 Bft)
02.09.2017 20:41 7,8 °C 7,8 °C 95 % 1016,6 hPa 0,0 mm 2,1 km/h (1 Bft) S-SW 196 ° 0 min 0,000 mm 0,0 UV-I 0 W/m² 7,0 °C 7,8 °C 3,2 km/h (1 Bft)
02.09.2017 20:42 7,8 °C 7,8 °C 95 % 1016,6 hPa 0,0 mm 0,3 km/h (0 Bft) S-SW 196 ° 0 min 0,000 mm 0,0 UV-I 0 W/m² 7,0 °C 7,8 °C 1,6 km/h (1 Bft)
02.09.2017 20:43 7,8 °C 7,8 °C 95 % 1016,6 hPa 0,0 mm 0,0 km/h (0 Bft) S-SW 196 ° 0 min 0,000 mm 0,0 UV-I 0 W/m² 7,0 °C 7,8 °C 0,0 km/h (0 Bft)
02.09.2017 20:44 7,8 °C 7,8 °C 95 % 1016,4 hPa 0,0 mm 1,2 km/h (1 Bft) S-SW 196 ° 0 min 0,000 mm 0,0 UV-I 0 W/m² 7,0 °C 7,8 °C 4,8 km/h (1 Bft)
02.09.2017 20:45 7,8 °C 7,8 °C 95 % 1016,6 hPa 0,0 mm 2,3 km/h (1 Bft) S 191 ° 0 min 0,000 mm 0,0 UV-I 0 W/m² 7,0 °C 7,8 °C 3,2 km/h (1 Bft)
02.09.2017 20:46 7,8 °C 7,9 °C 95 % 1016,6 hPa 0,0 mm 1,7 km/h (1 Bft) S 191 ° 0 min 0,000 mm 0,0 UV-I 0 W/m² 7,0 °C 7,8 °C 4,8 km/h (1 Bft)
02.09.2017 20:47 7,8 °C 7,8 °C 95 % 1016,6 hPa 0,0 mm 2,1 km/h (1 Bft) S 191 ° 0 min 0,000 mm 0,0 UV-I 0 W/m² 7,0 °C 7,8 °C 4,8 km/h (1 Bft)
02.09.2017 20:48 7,8 °C 7,8 °C 95 % 1016,6 hPa 0,0 mm 1,6 km/h (1 Bft) S 191 ° 0 min 0,000 mm 0,0 UV-I 0 W/m² 7,0 °C 7,8 °C 3,2 km/h (1 Bft)
02.09.2017 20:49 7,9 °C 7,9 °C 95 % 1016,6 hPa 0,0 mm 0,2 km/h (0 Bft) S 191 ° 0 min 0,000 mm 0,0 UV-I 0 W/m² 7,1 °C 7,9 °C 1,6 km/h (1 Bft)
02.09.2017 20:50 7,8 °C 7,9 °C 95 % 1016,6 hPa 0,0 mm 0,0 km/h (0 Bft) S 191 ° 0 min 0,000 mm 0,0 UV-I 0 W/m² 7,0 °C 7,8 °C 0,0 km/h (0 Bft)
02.09.2017 20:51 7,8 °C 7,9 °C 95 % 1016,6 hPa 0,0 mm 2,4 km/h (1 Bft) S 179 ° 0 min 0,000 mm 0,0 UV-I 0 W/m² 7,0 °C 7,8 °C 4,8 km/h (1 Bft)
02.09.2017 20:52 7,8 °C 7,8 °C 95 % 1016,6 hPa 0,0 mm 3,2 km/h (1 Bft) S-SW 192 ° 0 min 0,000 mm 0,0 UV-I 0 W/m² 7,0 °C 7,8 °C 4,8 km/h (1 Bft)
02.09.2017 20:54 7,8 °C 7,8 °C 95 % 1016,6 hPa 0,0 mm 3,5 km/h (1 Bft) S-SW 195 ° 0 min 0,000 mm 0,0 UV-I 0 W/m² 7,0 °C 7,8 °C 6,4 km/h (2 Bft)
02.09.2017 20:55 7,8 °C 7,9 °C 95 % 1016,6 hPa 0,0 mm 4,8 km/h (1 Bft) S 188 ° 0 min 0,000 mm 0,0 UV-I 0 W/m² 7,0 °C 7,3 °C 6,4 km/h (2 Bft)
02.09.2017 20:56 7,8 °C 7,8 °C 95 % 1016,7 hPa 0,0 mm 3,0 km/h (1 Bft) S 188 ° 0 min 0,000 mm 0,0 UV-I 0 W/m² 7,0 °C 7,8 °C 4,8 km/h (1 Bft)
02.09.2017 20:57 7,8 °C 7,8 °C 95 % 1016,7 hPa 0,0 mm 4,4 km/h (1 Bft) S 178 ° 0 min 0,000 mm 0,0 UV-I 0 W/m² 7,0 °C 7,8 °C 6,4 km/h (2 Bft)
02.09.2017 20:58 7,8 °C 7,8 °C 95 % 1016,7 hPa 0,0 mm 3,8 km/h (1 Bft) S-SW 194 ° 0 min 0,000 mm 0,0 UV-I 0 W/m² 7,0 °C 7,8 °C 4,8 km/h (1 Bft)
02.09.2017 20:59 7,8 °C 7,8 °C 95 % 1016,7 hPa 0,0 mm 3,9 km/h (1 Bft) S-SW 195 ° 0 min 0,000 mm 0,0 UV-I 0 W/m² 7,0 °C 7,8 °C 6,4 km/h (2 Bft)
02.09.2017 21:00 7,8 °C 7,8 °C 95 % 1016,7 hPa 0,0 mm 5,4 km/h (1 Bft) S 172 ° 0 min 0,000 mm 0,0 UV-I 0 W/m² 7,0 °C 7,1 °C 8,0 km/h (2 Bft)
02.09.2017 21:01 7,8 °C 7,9 °C 95 % 1016,7 hPa 0,0 mm 5,8 km/h (2 Bft) S-SW 195 ° 0 min 0,000 mm 0,0 UV-I 0 W/m² 7,0 °C 7,0 °C 8,0 km/h (2 Bft)
02.09.2017 21:02 7,8 °C 7,8 °C 95 % 1016,7 hPa 0,0 mm 4,6 km/h (1 Bft) S-SW 198 ° 0 min 0,000 mm 0,0 UV-I 0 W/m² 7,0 °C 7,4 °C 6,4 km/h (2 Bft)
02.09.2017 21:03 7,8 °C 7,8 °C 95 % 1016,8 hPa 0,0 mm 2,5 km/h (1 Bft) S 184 ° 0 min 0,000 mm 0,0 UV-I 0 W/m² 7,0 °C 7,8 °C 4,8 km/h (1 Bft)
02.09.2017 21:04 7,8 °C 7,8 °C 95 % 1016,7 hPa 0,0 mm 4,8 km/h (1 Bft) S 182 ° 0 min 0,000 mm 0,0 UV-I 0 W/m² 7,0 °C 7,3 °C 6,4 km/h (2 Bft)
02.09.2017 21:05 7,8 °C 7,8 °C 95 % 1016,7 hPa 0,0 mm 5,4 km/h (1 Bft) S 182 ° 0 min 0,000 mm 0,0 UV-I 0 W/m² 7,0 °C 7,1 °C 9,7 km/h (2 Bft)
02.09.2017 21:06 7,8 °C 7,8 °C 95 % 1016,7 hPa 0,0 mm 5,6 km/h (1 Bft) S-SW 192 ° 0 min 0,000 mm 0,0 UV-I 0 W/m² 7,0 °C 7,1 °C 8,0 km/h (2 Bft)
02.09.2017 21:07 7,8 °C 7,8 °C 95 % 1016,7 hPa 0,0 mm 4,8 km/h (1 Bft) S-SW 196 ° 0 min 0,000 mm 0,0 UV-I 0 W/m² 7,0 °C 7,3 °C 6,4 km/h (2 Bft)
02.09.2017 21:08 7,9 °C 7,9 °C 95 % 1016,7 hPa 0,0 mm 6,1 km/h (2 Bft) S 178 ° 0 min 0,000 mm 0,0 UV-I 0 W/m² 7,1 °C 7,0 °C 9,7 km/h (2 Bft)
02.09.2017 21:09 7,8 °C 7,9 °C 95 % 1016,7 hPa 0,0 mm 2,5 km/h (1 Bft) S 178 ° 0 min 0,000 mm 0,0 UV-I 0 W/m² 7,0 °C 7,8 °C 4,8 km/h (1 Bft)
02.09.2017 21:10 7,8 °C 7,8 °C 95 % 1016,7 hPa 0,0 mm 5,4 km/h (1 Bft) S-SW 198 ° 0 min 0,000 mm 0,0 UV-I 0 W/m² 7,0 °C 7,1 °C 8,0 km/h (2 Bft)
02.09.2017 21:11 7,8 °C 7,8 °C 95 % 1016,8 hPa 0,0 mm 4,6 km/h (1 Bft) S 187 ° 0 min 0,000 mm 0,0 UV-I 0 W/m² 7,0 °C 7,4 °C 6,4 km/h (2 Bft)
02.09.2017 21:12 7,8 °C 7,8 °C 95 % 1016,8 hPa 0,0 mm 1,6 km/h (1 Bft) S 187 ° 0 min 0,000 mm 0,0 UV-I 0 W/m² 7,0 °C 7,8 °C 3,2 km/h (1 Bft)
02.09.2017 21:13 7,8 °C 7,8 °C 95 % 1016,8 hPa 0,0 mm 3,4 km/h (1 Bft) S 188 ° 0 min 0,000 mm 0,0 UV-I 0 W/m² 7,0 °C 7,8 °C 6,4 km/h (2 Bft)
02.09.2017 21:14 7,8 °C 7,8 °C 95 % 1016,8 hPa 0,0 mm 3,4 km/h (1 Bft) S-SW 205 ° 0 min 0,000 mm 0,0 UV-I 0 W/m² 7,0 °C 7,8 °C 4,8 km/h (1 Bft)
02.09.2017 21:15 7,8 °C 7,8 °C 95 % 1016,8 hPa 0,0 mm 2,9 km/h (1 Bft) S-SW 212 ° 0 min 0,000 mm 0,0 UV-I 0 W/m² 7,0 °C 7,8 °C 4,8 km/h (1 Bft)
02.09.2017 21:16 7,8 °C 7,8 °C 95 % 1016,8 hPa 0,0 mm 3,0 km/h (1 Bft) S-SW 195 ° 0 min 0,000 mm 0,0 UV-I 0 W/m² 7,0 °C 7,8 °C 4,8 km/h (1 Bft)
02.09.2017 21:17 7,8 °C 7,8 °C 95 % 1016,8 hPa 0,0 mm 3,8 km/h (1 Bft) S 191 ° 0 min 0,000 mm 0,0 UV-I 0 W/m² 7,0 °C 7,8 °C 6,4 km/h (2 Bft)
02.09.2017 21:18 7,8 °C 7,8 °C 95 % 1016,8 hPa 0,0 mm 4,6 km/h (1 Bft) S-SW 194 ° 0 min 0,000 mm 0,0 UV-I 0 W/m² 7,0 °C 7,4 °C 6,4 km/h (2 Bft)
02.09.2017 21:19 7,8 °C 7,8 °C 95 % 1016,8 hPa 0,0 mm 4,5 km/h (1 Bft) S-SW 192 ° 0 min 0,000 mm 0,0 UV-I 0 W/m² 7,0 °C 7,8 °C 6,4 km/h (2 Bft)
02.09.2017 21:20 7,8 °C 7,8 °C 95 % 1016,8 hPa 0,0 mm 6,2 km/h (2 Bft) S-SW 197 ° 0 min 0,000 mm 0,0 UV-I 0 W/m² 7,0 °C 6,9 °C 8,0 km/h (2 Bft)
02.09.2017 21:21 7,8 °C 7,9 °C 95 % 1016,8 hPa 0,0 mm 3,8 km/h (1 Bft) S-SW 196 ° 0 min 0,000 mm 0,0 UV-I 0 W/m² 7,0 °C 7,8 °C 4,8 km/h (1 Bft)
02.09.2017 21:22 7,8 °C 7,8 °C 95 % 1016,8 hPa 0,0 mm 3,8 km/h (1 Bft) S 184 ° 0 min 0,000 mm 0,0 UV-I 0 W/m² 7,0 °C 7,8 °C 8,0 km/h (2 Bft)
02.09.2017 21:23 7,8 °C 7,9 °C 95 % 1016,8 hPa 0,0 mm 4,8 km/h (1 Bft) S 185 ° 0 min 0,000 mm 0,0 UV-I 0 W/m² 7,0 °C 7,3 °C 8,0 km/h (2 Bft)
02.09.2017 21:24 7,8 °C 7,8 °C 95 % 1016,8 hPa 0,0 mm 5,4 km/h (1 Bft) S 185 ° 0 min 0,000 mm 0,0 UV-I 0 W/m² 7,0 °C 7,1 °C 8,0 km/h (2 Bft)
02.09.2017 21:25 7,9 °C 7,9 °C 95 % 1016,7 hPa 0,0 mm 3,3 km/h (1 Bft) S 182 ° 0 min 0,000 mm 0,0 UV-I 0 W/m² 7,1 °C 7,9 °C 4,8 km/h (1 Bft)
02.09.2017 21:26 7,9 °C 7,9 °C 95 % 1016,8 hPa 0,0 mm 4,6 km/h (1 Bft) S-SW 192 ° 0 min 0,000 mm 0,0 UV-I 0 W/m² 7,1 °C 7,5 °C 8,0 km/h (2 Bft)
02.09.2017 21:27 7,9 °C 7,9 °C 95 % 1016,8 hPa 0,0 mm 4,0 km/h (1 Bft) S 185 ° 0 min 0,000 mm 0,0 UV-I 0 W/m² 7,1 °C 7,9 °C 8,0 km/h (2 Bft)
02.09.2017 21:28 7,9 °C 7,9 °C 95 % 1016,8 hPa 0,0 mm 1,3 km/h (1 Bft) S 185 ° 0 min 0,000 mm 0,0 UV-I 0 W/m² 7,1 °C 7,9 °C 3,2 km/h (1 Bft)
02.09.2017 21:29 7,9 °C 7,9 °C 95 % 1016,7 hPa 0,0 mm 0,0 km/h (0 Bft) S 185 ° 0 min 0,000 mm 0,0 UV-I 0 W/m² 7,1 °C 7,9 °C 0,0 km/h (0 Bft)
02.09.2017 21:30 7,9 °C 7,9 °C 95 % 1016,8 hPa 0,0 mm 0,0 km/h (0 Bft) S 185 ° 0 min 0,000 mm 0,0 UV-I 0 W/m² 7,1 °C 7,9 °C 0,0 km/h (0 Bft)
02.09.2017 21:31 7,9 °C 7,9 °C 95 % 1016,8 hPa 0,0 mm 0,0 km/h (0 Bft) S 185 ° 0 min 0,000 mm 0,0 UV-I 0 W/m² 7,1 °C 7,9 °C 0,0 km/h (0 Bft)
02.09.2017 21:32 7,9 °C 7,9 °C 95 % 1016,8 hPa 0,0 mm 0,9 km/h (0 Bft) S 185 ° 0 min 0,000 mm 0,0 UV-I 0 W/m² 7,1 °C 7,9 °C 3,2 km/h (1 Bft)
02.09.2017 21:33 7,9 °C 7,9 °C 95 % 1016,8 hPa 0,0 mm 1,7 km/h (1 Bft) W-SW 240 ° 0 min 0,000 mm 0,0 UV-I 0 W/m² 7,1 °C 7,9 °C 3,2 km/h (1 Bft)
02.09.2017 21:34 7,9 °C 8,0 °C 95 % 1016,9 hPa 0,0 mm 0,5 km/h (0 Bft) W-SW 240 ° 0 min 0,000 mm 0,0 UV-I 0 W/m² 7,1 °C 7,9 °C 1,6 km/h (1 Bft)
02.09.2017 21:35 8,0 °C 8,0 °C 95 % 1016,9 hPa 0,0 mm 0,0 km/h (0 Bft) W-SW 240 ° 0 min 0,000 mm 0,0 UV-I 0 W/m² 7,2 °C 8,0 °C 0,0 km/h (0 Bft)
02.09.2017 21:36 8,0 °C 8,0 °C 95 % 1016,9 hPa 0,0 mm 0,0 km/h (0 Bft) W-SW 240 ° 0 min 0,000 mm 0,0 UV-I 0 W/m² 7,2 °C 8,0 °C 0,0 km/h (0 Bft)
02.09.2017 21:37 8,0 °C 8,0 °C 95 % 1016,8 hPa 0,0 mm 0,0 km/h (0 Bft) W-SW 240 ° 0 min 0,000 mm 0,0 UV-I 0 W/m² 7,2 °C 8,0 °C 0,0 km/h (0 Bft)
02.09.2017 21:38 8,0 °C 8,0 °C 95 % 1016,8 hPa 0,0 mm 0,0 km/h (0 Bft) W-SW 240 ° 0 min 0,000 mm 0,0 UV-I 0 W/m² 7,2 °C 8,0 °C 0,0 km/h (0 Bft)
02.09.2017 21:39 8,0 °C 8,0 °C 95 % 1016,8 hPa 0,0 mm 0,2 km/h (0 Bft) W-SW 240 ° 0 min 0,000 mm 0,0 UV-I 0 W/m² 7,2 °C 8,0 °C 1,6 km/h (1 Bft)
02.09.2017 21:40 8,1 °C 8,1 °C 95 % 1016,9 hPa 0,0 mm 0,7 km/h (0 Bft) W-SW 240 ° 0 min 0,000 mm 0,0 UV-I 0 W/m² 7,3 °C 8,1 °C 1,6 km/h (1 Bft)
02.09.2017 21:41 8,1 °C 8,1 °C 95 % 1016,9 hPa 0,0 mm 0,3 km/h (0 Bft) W-SW 240 ° 0 min 0,000 mm 0,0 UV-I 0 W/m² 7,3 °C 8,1 °C 1,6 km/h (1 Bft)
02.09.2017 21:42 8,1 °C 8,1 °C 95 % 1016,9 hPa 0,0 mm 1,3 km/h (1 Bft) W-SW 240 ° 0 min 0,000 mm 0,0 UV-I 0 W/m² 7,3 °C 8,1 °C 1,6 km/h (1 Bft)
02.09.2017 21:43 8,0 °C 8,1 °C 95 % 1016,9 hPa 0,0 mm 0,8 km/h (0 Bft) W-SW 240 ° 0 min 0,000 mm 0,0 UV-I 0 W/m² 7,2 °C 8,0 °C 1,6 km/h (1 Bft)
02.09.2017 21:44 8,0 °C 8,1 °C 95 % 1016,9 hPa 0,0 mm 1,3 km/h (1 Bft) W-SW 240 ° 0 min 0,000 mm 0,0 UV-I 0 W/m² 7,2 °C 8,0 °C 3,2 km/h (1 Bft)
02.09.2017 21:45 8,1 °C 8,1 °C 95 % 1016,9 hPa 0,0 mm 1,7 km/h (1 Bft) W-SW 240 ° 0 min 0,000 mm 0,0 UV-I 0 W/m² 7,3 °C 8,1 °C 3,2 km/h (1 Bft)
02.09.2017 21:46 8,0 °C 8,1 °C 95 % 1016,9 hPa 0,0 mm 3,4 km/h (1 Bft) W-SW 238 ° 0 min 0,000 mm 0,0 UV-I 0 W/m² 7,2 °C 8,0 °C 4,8 km/h (1 Bft)
02.09.2017 21:47 8,0 °C 8,1 °C 95 % 1016,9 hPa 0,0 mm 2,7 km/h (1 Bft) W-SW 238 ° 0 min 0,000 mm 0,0 UV-I 0 W/m² 7,2 °C 8,0 °C 3,2 km/h (1 Bft)
02.09.2017 21:48 8,0 °C 8,0 °C 95 % 1016,9 hPa 0,0 mm 0,7 km/h (0 Bft) W-SW 238 ° 0 min 0,000 mm 0,0 UV-I 0 W/m² 7,2 °C 8,0 °C 1,6 km/h (1 Bft)
02.09.2017 21:49 7,9 °C 8,0 °C 95 % 1016,9 hPa 0,0 mm 0,0 km/h (0 Bft) W-SW 238 ° 0 min 0,000 mm 0,0 UV-I 0 W/m² 7,1 °C 7,9 °C 0,0 km/h (0 Bft)
02.09.2017 21:50 7,9 °C 8,0 °C 95 % 1016,9 hPa 0,0 mm 0,3 km/h (0 Bft) W-SW 238 ° 0 min 0,000 mm 0,0 UV-I 0 W/m² 7,1 °C 7,9 °C 1,6 km/h (1 Bft)
02.09.2017 21:51 8,0 °C 8,0 °C 95 % 1016,9 hPa 0,0 mm 0,3 km/h (0 Bft) W-SW 238 ° 0 min 0,000 mm 0,0 UV-I 0 W/m² 7,2 °C 8,0 °C 1,6 km/h (1 Bft)
02.09.2017 21:52 7,9 °C 8,0 °C 95 % 1016,9 hPa 0,0 mm 0,0 km/h (0 Bft) W-SW 238 ° 0 min 0,000 mm 0,0 UV-I 0 W/m² 7,1 °C 7,9 °C 0,0 km/h (0 Bft)
02.09.2017 21:53 7,9 °C 8,0 °C 95 % 1016,9 hPa 0,0 mm 0,3 km/h (0 Bft) W-SW 238 ° 0 min 0,000 mm 0,0 UV-I 0 W/m² 7,1 °C 7,9 °C 1,6 km/h (1 Bft)
02.09.2017 21:54 7,9 °C 7,9 °C 95 % 1016,9 hPa 0,0 mm 0,0 km/h (0 Bft) W-SW 238 ° 0 min 0,000 mm 0,0 UV-I 0 W/m² 7,1 °C 7,9 °C 0,0 km/h (0 Bft)
02.09.2017 21:55 7,9 °C 7,9 °C 95 % 1016,9 hPa 0,0 mm 0,0 km/h (0 Bft) W-SW 238 ° 0 min 0,000 mm 0,0 UV-I 0 W/m² 7,1 °C 7,9 °C 0,0 km/h (0 Bft)
02.09.2017 21:56 7,9 °C 7,9 °C 95 % 1016,9 hPa 0,0 mm 0,9 km/h (0 Bft) W-SW 238 ° 0 min 0,000 mm 0,0 UV-I 0 W/m² 7,1 °C 7,9 °C 3,2 km/h (1 Bft)
02.09.2017 21:57 7,9 °C 7,9 °C 95 % 1016,9 hPa 0,0 mm 1,4 km/h (1 Bft) W-SW 238 ° 0 min 0,000 mm 0,0 UV-I 0 W/m² 7,1 °C 7,9 °C 3,2 km/h (1 Bft)
02.09.2017 21:58 7,9 °C 7,9 °C 95 % 1016,9 hPa 0,0 mm 0,3 km/h (0 Bft) W-SW 238 ° 0 min 0,000 mm 0,0 UV-I 0 W/m² 7,1 °C 7,9 °C 1,6 km/h (1 Bft)
02.09.2017 21:59 7,9 °C 7,9 °C 95 % 1016,9 hPa 0,0 mm 0,0 km/h (0 Bft) W-SW 238 ° 0 min 0,000 mm 0,0 UV-I 0 W/m² 7,1 °C 7,9 °C 0,0 km/h (0 Bft)
02.09.2017 22:00 7,9 °C 7,9 °C 95 % 1016,9 hPa 0,0 mm 0,0 km/h (0 Bft) W-SW 238 ° 0 min 0,000 mm 0,0 UV-I 0 W/m² 7,1 °C 7,9 °C 0,0 km/h (0 Bft)
02.09.2017 22:01 7,9 °C 7,9 °C 95 % 1016,9 hPa 0,0 mm 0,0 km/h (0 Bft) W-SW 238 ° 0 min 0,000 mm 0,0 UV-I 0 W/m² 7,1 °C 7,9 °C 0,0 km/h (0 Bft)
02.09.2017 22:02 7,8 °C 7,9 °C 95 % 1016,9 hPa 0,0 mm 0,0 km/h (0 Bft) W-SW 238 ° 0 min 0,000 mm 0,0 UV-I 0 W/m² 7,0 °C 7,8 °C 0,0 km/h (0 Bft)
02.09.2017 22:03 7,8 °C 7,9 °C 95 % 1016,9 hPa 0,0 mm 0,4 km/h (0 Bft) W-SW 238 ° 0 min 0,000 mm 0,0 UV-I 0 W/m² 7,0 °C 7,8 °C 3,2 km/h (1 Bft)
02.09.2017 22:04 7,8 °C 7,9 °C 95 % 1016,9 hPa 0,0 mm 1,1 km/h (1 Bft) W-SW 238 ° 0 min 0,000 mm 0,0 UV-I 0 W/m² 7,0 °C 7,8 °C 3,2 km/h (1 Bft)
02.09.2017 22:05 7,8 °C 7,8 °C 95 % 1016,9 hPa 0,0 mm 1,2 km/h (1 Bft) W 278 ° 0 min 0,000 mm 0,0 UV-I 0 W/m² 7,0 °C 7,8 °C 6,4 km/h (2 Bft)
02.09.2017 22:06 7,8 °C 7,9 °C 95 % 1016,8 hPa 0,0 mm 2,0 km/h (1 Bft) W 271 ° 0 min 0,000 mm 0,0 UV-I 0 W/m² 7,0 °C 7,8 °C 4,8 km/h (1 Bft)
02.09.2017 22:07 7,9 °C 7,9 °C 95 % 1016,9 hPa 0,0 mm 0,1 km/h (0 Bft) W 271 ° 0 min 0,000 mm 0,0 UV-I 0 W/m² 7,1 °C 7,9 °C 1,6 km/h (1 Bft)
02.09.2017 22:08 7,8 °C 7,9 °C 95 % 1016,9 hPa 0,0 mm 0,4 km/h (0 Bft) S-SW 211 ° 0 min 0,000 mm 0,0 UV-I 0 W/m² 7,0 °C 7,8 °C 4,8 km/h (1 Bft)
02.09.2017 22:09 7,8 °C 7,9 °C 95 % 1016,9 hPa 0,0 mm 4,6 km/h (1 Bft) S-SW 202 ° 0 min 0,000 mm 0,0 UV-I 0 W/m² 7,0 °C 7,4 °C 6,4 km/h (2 Bft)
02.09.2017 22:10 7,9 °C 7,9 °C 95 % 1016,9 hPa 0,0 mm 1,9 km/h (1 Bft) S-SW 202 ° 0 min 0,000 mm 0,0 UV-I 0 W/m² 7,1 °C 7,9 °C 3,2 km/h (1 Bft)
02.09.2017 22:11 7,9 °C 7,9 °C 95 % 1016,9 hPa 0,0 mm 1,0 km/h (0 Bft) S-SW 202 ° 0 min 0,000 mm 0,0 UV-I 0 W/m² 7,1 °C 7,9 °C 3,2 km/h (1 Bft)
02.09.2017 22:12 7,8 °C 7,9 °C 95 % 1016,9 hPa 0,0 mm 0,1 km/h (0 Bft) S-SW 202 ° 0 min 0,000 mm 0,0 UV-I 0 W/m² 7,0 °C 7,8 °C 1,6 km/h (1 Bft)
02.09.2017 22:13 7,9 °C 7,9 °C 95 % 1017,0 hPa 0,0 mm 0,6 km/h (0 Bft) S-SW 202 ° 0 min 0,000 mm 0,0 UV-I 0 W/m² 7,1 °C 7,9 °C 1,6 km/h (1 Bft)
02.09.2017 22:14 7,8 °C 7,9 °C 95 % 1017,0 hPa 0,0 mm 0,0 km/h (0 Bft) S-SW 202 ° 0 min 0,000 mm 0,0 UV-I 0 W/m² 7,0 °C 7,8 °C 0,0 km/h (0 Bft)
02.09.2017 22:15 7,9 °C 7,9 °C 95 % 1017,0 hPa 0,0 mm 0,5 km/h (0 Bft) S-SW 202 ° 0 min 0,000 mm 0,0 UV-I 0 W/m² 7,1 °C 7,9 °C 1,6 km/h (1 Bft)
02.09.2017 22:16 7,9 °C 7,9 °C 95 % 1017,0 hPa 0,0 mm 0,9 km/h (0 Bft) S-SW 202 ° 0 min 0,000 mm 0,0 UV-I 0 W/m² 7,1 °C 7,9 °C 3,2 km/h (1 Bft)
02.09.2017 22:17 7,9 °C 7,9 °C 95 % 1017,0 hPa 0,0 mm 0,3 km/h (0 Bft) S-SW 202 ° 0 min 0,000 mm 0,0 UV-I 0 W/m² 7,1 °C 7,9 °C 1,6 km/h (1 Bft)
02.09.2017 22:18 7,9 °C 7,9 °C 95 % 1017,0 hPa 0,0 mm 0,3 km/h (0 Bft) S-SW 202 ° 0 min 0,000 mm 0,0 UV-I 0 W/m² 7,1 °C 7,9 °C 1,6 km/h (1 Bft)
02.09.2017 22:19 7,9 °C 7,9 °C 95 % 1016,9 hPa 0,2 mm 1,1 km/h (1 Bft) S-SW 202 ° 0 min 0,000 mm 0,0 UV-I 0 W/m² 7,1 °C 7,9 °C 3,2 km/h (1 Bft)
02.09.2017 22:20 7,9 °C 7,9 °C 95 % 1017,0 hPa 0,0 mm 0,3 km/h (0 Bft) S-SW 202 ° 0 min 0,000 mm 0,0 UV-I 0 W/m² 7,1 °C 7,9 °C 1,6 km/h (1 Bft)
02.09.2017 22:21 7,9 °C 7,9 °C 95 % 1017,0 hPa 0,0 mm 0,0 km/h (0 Bft) S-SW 202 ° 0 min 0,000 mm 0,0 UV-I 0 W/m² 7,1 °C 7,9 °C 0,0 km/h (0 Bft)
02.09.2017 22:22 7,9 °C 7,9 °C 95 % 1016,9 hPa 0,0 mm 1,0 km/h (0 Bft) SW 220 ° 0 min 0,000 mm 0,0 UV-I 0 W/m² 7,1 °C 7,9 °C 4,8 km/h (1 Bft)
02.09.2017 22:23 7,9 °C 7,9 °C 95 % 1016,9 hPa 0,0 mm 1,6 km/h (1 Bft) W-SW 240 ° 0 min 0,000 mm 0,0 UV-I 0 W/m² 7,1 °C 7,9 °C 4,8 km/h (1 Bft)
02.09.2017 22:24 7,9 °C 7,9 °C 95 % 1016,9 hPa 0,0 mm 1,7 km/h (1 Bft) W-SW 257 ° 0 min 0,000 mm 0,0 UV-I 0 W/m² 7,1 °C 7,9 °C 3,2 km/h (1 Bft)
02.09.2017 22:25 7,9 °C 7,9 °C 95 % 1016,9 hPa 0,0 mm 0,5 km/h (0 Bft) W-SW 257 ° 0 min 0,000 mm 0,0 UV-I 0 W/m² 7,1 °C 7,9 °C 1,6 km/h (1 Bft)
02.09.2017 22:26 7,9 °C 7,9 °C 95 % 1016,9 hPa 0,0 mm 0,2 km/h (0 Bft) W-SW 257 ° 0 min 0,000 mm 0,0 UV-I 0 W/m² 7,1 °C 7,9 °C 1,6 km/h (1 Bft)
02.09.2017 22:27 7,9 °C 7,9 °C 95 % 1016,9 hPa 0,0 mm 1,5 km/h (1 Bft) W-SW 258 ° 0 min 0,000 mm 0,0 UV-I 0 W/m² 7,1 °C 7,9 °C 3,2 km/h (1 Bft)
02.09.2017 22:28 7,9 °C 7,9 °C 95 % 1016,9 hPa 0,2 mm 0,7 km/h (0 Bft) W-SW 258 ° 0 min 0,000 mm 0,0 UV-I 0 W/m² 7,1 °C 7,9 °C 1,6 km/h (1 Bft)
02.09.2017 22:29 7,9 °C 7,9 °C 95 % 1017,0 hPa 0,0 mm 0,0 km/h (0 Bft) W-SW 258 ° 0 min 0,000 mm 0,0 UV-I 0 W/m² 7,1 °C 7,9 °C 0,0 km/h (0 Bft)
02.09.2017 22:30 7,9 °C 7,9 °C 95 % 1017,0 hPa 0,0 mm 1,2 km/h (1 Bft) W-SW 258 ° 0 min 0,000 mm 0,0 UV-I 0 W/m² 7,1 °C 7,9 °C 3,2 km/h (1 Bft)
02.09.2017 22:31 7,9 °C 7,9 °C 95 % 1017,0 hPa 0,0 mm 0,7 km/h (0 Bft) W 259 ° 0 min 0,000 mm 0,0 UV-I 0 W/m² 7,1 °C 7,9 °C 1,6 km/h (1 Bft)
02.09.2017 22:32 7,9 °C 7,9 °C 95 % 1017,0 hPa 0,0 mm 2,1 km/h (1 Bft) W 261 ° 0 min 0,000 mm 0,0 UV-I 0 W/m² 7,1 °C 7,9 °C 4,8 km/h (1 Bft)
02.09.2017 22:33 8,0 °C 8,0 °C 95 % 1017,0 hPa 0,0 mm 1,3 km/h (1 Bft) W 261 ° 0 min 0,000 mm 0,0 UV-I 0 W/m² 7,2 °C 8,0 °C 3,2 km/h (1 Bft)
02.09.2017 22:34 8,0 °C 8,0 °C 95 % 1016,9 hPa 0,2 mm 3,2 km/h (1 Bft) W 261 ° 0 min 0,000 mm 0,0 UV-I 0 W/m² 7,2 °C 8,0 °C 6,4 km/h (2 Bft)
02.09.2017 22:35 8,0 °C 8,0 °C 95 % 1016,9 hPa 0,0 mm 3,0 km/h (1 Bft) W 261 ° 0 min 0,000 mm 0,0 UV-I 0 W/m² 7,2 °C 8,0 °C 4,8 km/h (1 Bft)
02.09.2017 22:36 8,0 °C 8,0 °C 95 % 1016,9 hPa 0,0 mm 1,0 km/h (0 Bft) W 261 ° 0 min 0,000 mm 0,0 UV-I 0 W/m² 7,2 °C 8,0 °C 3,2 km/h (1 Bft)
02.09.2017 22:37 8,0 °C 8,0 °C 95 % 1017,0 hPa 0,0 mm 3,8 km/h (1 Bft) W 274 ° 0 min 0,000 mm 0,0 UV-I 0 W/m² 7,2 °C 8,0 °C 4,8 km/h (1 Bft)
02.09.2017 22:38 8,0 °C 8,0 °C 95 % 1016,9 hPa 0,0 mm 3,5 km/h (1 Bft) W-SW 254 ° 0 min 0,000 mm 0,0 UV-I 0 W/m² 7,2 °C 8,0 °C 6,4 km/h (2 Bft)
02.09.2017 22:39 7,9 °C 8,0 °C 95 % 1017,0 hPa 0,0 mm 4,1 km/h (1 Bft) W 259 ° 0 min 0,000 mm 0,0 UV-I 0 W/m² 7,1 °C 7,9 °C 4,8 km/h (1 Bft)
02.09.2017 22:40 7,9 °C 7,9 °C 95 % 1017,0 hPa 0,0 mm 1,7 km/h (1 Bft) W 259 ° 0 min 0,000 mm 0,0 UV-I 0 W/m² 7,1 °C 7,9 °C 4,8 km/h (1 Bft)
02.09.2017 22:41 7,9 °C 7,9 °C 95 % 1016,9 hPa 0,2 mm 1,9 km/h (1 Bft) W 259 ° 0 min 0,000 mm 0,0 UV-I 0 W/m² 7,1 °C 7,9 °C 3,2 km/h (1 Bft)
02.09.2017 22:42 7,9 °C 7,9 °C 95 % 1016,9 hPa 0,0 mm 0,8 km/h (0 Bft) W 259 ° 0 min 0,000 mm 0,0 UV-I 0 W/m² 7,1 °C 7,9 °C 1,6 km/h (1 Bft)
02.09.2017 22:43 7,9 °C 7,9 °C 95 % 1016,9 hPa 0,0 mm 1,0 km/h (0 Bft) W 259 ° 0 min 0,000 mm 0,0 UV-I 0 W/m² 7,1 °C 7,9 °C 3,2 km/h (1 Bft)
02.09.2017 22:44 7,9 °C 7,9 °C 95 % 1017,0 hPa 0,0 mm 0,0 km/h (0 Bft) W 259 ° 0 min 0,000 mm 0,0 UV-I 0 W/m² 7,1 °C 7,9 °C 0,0 km/h (0 Bft)
02.09.2017 22:45 7,9 °C 7,9 °C 95 % 1016,9 hPa 0,0 mm 0,0 km/h (0 Bft) W 259 ° 0 min 0,000 mm 0,0 UV-I 0 W/m² 7,1 °C 7,9 °C 0,0 km/h (0 Bft)
02.09.2017 22:46 7,9 °C 7,9 °C 95 % 1017,0 hPa 0,0 mm 0,5 km/h (0 Bft) W-SW 258 ° 0 min 0,000 mm 0,0 UV-I 0 W/m² 7,1 °C 7,9 °C 1,6 km/h (1 Bft)
02.09.2017 22:47 7,8 °C 7,9 °C 95 % 1016,9 hPa 0,0 mm 3,0 km/h (1 Bft) W-SW 254 ° 0 min 0,000 mm 0,0 UV-I 0 W/m² 7,0 °C 7,8 °C 6,4 km/h (2 Bft)
02.09.2017 22:48 7,9 °C 7,9 °C 95 % 1016,9 hPa 0,0 mm 2,5 km/h (1 Bft) W 265 ° 0 min 0,000 mm 0,0 UV-I 0 W/m² 7,1 °C 7,9 °C 4,8 km/h (1 Bft)
02.09.2017 22:49 7,9 °C 7,9 °C 95 % 1016,9 hPa 0,0 mm 2,8 km/h (1 Bft) S-SW 213 ° 0 min 0,000 mm 0,0 UV-I 0 W/m² 7,1 °C 7,9 °C 3,2 km/h (1 Bft)
02.09.2017 22:50 7,9 °C 7,9 °C 95 % 1016,9 hPa 0,0 mm 1,5 km/h (1 Bft) S-SW 213 ° 0 min 0,000 mm 0,0 UV-I 0 W/m² 7,1 °C 7,9 °C 3,2 km/h (1 Bft)
02.09.2017 22:51 7,9 °C 7,9 °C 95 % 1016,9 hPa 0,0 mm 0,1 km/h (0 Bft) S-SW 213 ° 0 min 0,000 mm 0,0 UV-I 0 W/m² 7,1 °C 7,9 °C 1,6 km/h (1 Bft)
02.09.2017 22:52 8,0 °C 8,0 °C 95 % 1016,9 hPa 0,0 mm 0,6 km/h (0 Bft) S-SW 213 ° 0 min 0,000 mm 0,0 UV-I 0 W/m² 7,2 °C 8,0 °C 1,6 km/h (1 Bft)
02.09.2017 22:53 7,9 °C 8,0 °C 95 % 1017,0 hPa 0,0 mm 0,9 km/h (0 Bft) SW 214 ° 0 min 0,000 mm 0,0 UV-I 0 W/m² 7,1 °C 7,9 °C 3,2 km/h (1 Bft)
02.09.2017 22:54 8,0 °C 8,0 °C 95 % 1016,9 hPa 0,0 mm 2,3 km/h (1 Bft) W 267 ° 0 min 0,000 mm 0,0 UV-I 0 W/m² 7,2 °C 8,0 °C 4,8 km/h (1 Bft)
02.09.2017 22:55 8,0 °C 8,0 °C 95 % 1017,0 hPa 0,2 mm 3,3 km/h (1 Bft) W 277 ° 0 min 0,000 mm 0,0 UV-I 0 W/m² 7,2 °C 8,0 °C 9,7 km/h (2 Bft)
02.09.2017 22:56 7,9 °C 8,0 °C 95 % 1017,0 hPa 0,0 mm 2,5 km/h (1 Bft) W 259 ° 0 min 0,000 mm 0,0 UV-I 0 W/m² 7,1 °C 7,9 °C 4,8 km/h (1 Bft)
02.09.2017 22:57 7,9 °C 7,9 °C 95 % 1017,0 hPa 0,0 mm 4,0 km/h (1 Bft) W-SW 257 ° 0 min 0,000 mm 0,0 UV-I 0 W/m² 7,1 °C 7,9 °C 8,0 km/h (2 Bft)
02.09.2017 22:58 7,9 °C 7,9 °C 95 % 1017,0 hPa 0,0 mm 2,3 km/h (1 Bft) W-SW 257 ° 0 min 0,000 mm 0,0 UV-I 0 W/m² 7,1 °C 7,9 °C 4,8 km/h (1 Bft)
02.09.2017 22:59 7,9 °C 7,9 °C 95 % 1017,0 hPa 0,0 mm 0,0 km/h (0 Bft) W-SW 257 ° 0 min 0,000 mm 0,0 UV-I 0 W/m² 7,1 °C 7,9 °C 0,0 km/h (0 Bft)
02.09.2017 23:00 7,9 °C 7,9 °C 95 % 1017,0 hPa 0,0 mm 0,4 km/h (0 Bft) W-SW 257 ° 0 min 0,000 mm 0,0 UV-I 0 W/m² 7,1 °C 7,9 °C 1,6 km/h (1 Bft)
02.09.2017 23:01 7,9 °C 7,9 °C 95 % 1017,0 hPa 0,0 mm 1,5 km/h (1 Bft) SW 236 ° 0 min 0,000 mm 0,0 UV-I 0 W/m² 7,1 °C 7,9 °C 3,2 km/h (1 Bft)
02.09.2017 23:02 7,9 °C 7,9 °C 95 % 1017,0 hPa 0,0 mm 2,4 km/h (1 Bft) W-SW 239 ° 0 min 0,000 mm 0,0 UV-I 0 W/m² 7,1 °C 7,9 °C 3,2 km/h (1 Bft)
02.09.2017 23:03 7,9 °C 7,9 °C 95 % 1017,0 hPa 0,0 mm 0,3 km/h (0 Bft) W-SW 239 ° 0 min 0,000 mm 0,0 UV-I 0 W/m² 7,1 °C 7,9 °C 1,6 km/h (1 Bft)
02.09.2017 23:04 7,9 °C 7,9 °C 95 % 1017,0 hPa 0,0 mm 0,9 km/h (0 Bft) W-SW 239 ° 0 min 0,000 mm 0,0 UV-I 0 W/m² 7,1 °C 7,9 °C 3,2 km/h (1 Bft)
02.09.2017 23:05 7,9 °C 7,9 °C 95 % 1017,1 hPa 0,0 mm 0,8 km/h (0 Bft) W-SW 239 ° 0 min 0,000 mm 0,0 UV-I 0 W/m² 7,1 °C 7,9 °C 1,6 km/h (1 Bft)
02.09.2017 23:06 7,9 °C 7,9 °C 95 % 1017,1 hPa 0,0 mm 0,3 km/h (0 Bft) W-SW 239 ° 0 min 0,000 mm 0,0 UV-I 0 W/m² 7,1 °C 7,9 °C 3,2 km/h (1 Bft)
02.09.2017 23:07 7,9 °C 7,9 °C 95 % 1017,1 hPa 0,0 mm 2,1 km/h (1 Bft) W-SW 239 ° 0 min 0,000 mm 0,0 UV-I 0 W/m² 7,1 °C 7,9 °C 3,2 km/h (1 Bft)
02.09.2017 23:08 7,9 °C 7,9 °C 95 % 1017,0 hPa 0,2 mm 2,5 km/h (1 Bft) SW 216 ° 0 min 0,000 mm 0,0 UV-I 0 W/m² 7,1 °C 7,9 °C 3,2 km/h (1 Bft)
02.09.2017 23:09 7,9 °C 7,9 °C 95 % 1017,0 hPa 0,0 mm 1,2 km/h (1 Bft) W 269 ° 0 min 0,000 mm 0,0 UV-I 0 W/m² 7,1 °C 7,9 °C 4,8 km/h (1 Bft)
02.09.2017 23:10 7,9 °C 8,0 °C 95 % 1017,1 hPa 0,0 mm 2,2 km/h (1 Bft) W 268 ° 0 min 0,000 mm 0,0 UV-I 0 W/m² 7,1 °C 7,9 °C 3,2 km/h (1 Bft)
02.09.2017 23:11 7,9 °C 8,0 °C 95 % 1017,1 hPa 0,0 mm 1,3 km/h (1 Bft) W 268 ° 0 min 0,000 mm 0,0 UV-I 0 W/m² 7,1 °C 7,9 °C 3,2 km/h (1 Bft)
02.09.2017 23:12 8,0 °C 8,0 °C 95 % 1017,1 hPa 0,0 mm 0,1 km/h (0 Bft) W 268 ° 0 min 0,000 mm 0,0 UV-I 0 W/m² 7,2 °C 8,0 °C 1,6 km/h (1 Bft)
02.09.2017 23:13 8,1 °C 8,1 °C 95 % 1017,1 hPa 0,0 mm 2,9 km/h (1 Bft) W 260 ° 0 min 0,000 mm 0,0 UV-I 0 W/m² 7,3 °C 8,1 °C 4,8 km/h (1 Bft)
02.09.2017 23:14 8,0 °C 8,1 °C 95 % 1017,1 hPa 0,0 mm 1,9 km/h (1 Bft) W 259 ° 0 min 0,000 mm 0,0 UV-I 0 W/m² 7,2 °C 8,0 °C 3,2 km/h (1 Bft)
02.09.2017 23:15 8,0 °C 8,1 °C 95 % 1017,1 hPa 0,0 mm 3,1 km/h (1 Bft) W 260 ° 0 min 0,000 mm 0,0 UV-I 0 W/m² 7,2 °C 8,0 °C 4,8 km/h (1 Bft)
02.09.2017 23:16 8,0 °C 8,1 °C 95 % 1017,1 hPa 0,0 mm 3,1 km/h (1 Bft) W 260 ° 0 min 0,000 mm 0,0 UV-I 0 W/m² 7,2 °C 8,0 °C 4,8 km/h (1 Bft)
02.09.2017 23:17 8,1 °C 8,1 °C 95 % 1017,1 hPa 0,0 mm 1,0 km/h (0 Bft) W 260 ° 0 min 0,000 mm 0,0 UV-I 0 W/m² 7,3 °C 8,1 °C 3,2 km/h (1 Bft)
02.09.2017 23:18 8,0 °C 8,1 °C 95 % 1017,1 hPa 0,0 mm 0,6 km/h (0 Bft) W 260 ° 0 min 0,000 mm 0,0 UV-I 0 W/m² 7,2 °C 8,0 °C 1,6 km/h (1 Bft)
02.09.2017 23:19 8,1 °C 8,1 °C 95 % 1017,1 hPa 0,0 mm 1,5 km/h (1 Bft) W 261 ° 0 min 0,000 mm 0,0 UV-I 0 W/m² 7,3 °C 8,1 °C 4,8 km/h (1 Bft)
02.09.2017 23:20 8,1 °C 8,1 °C 95 % 1017,1 hPa 0,0 mm 1,0 km/h (0 Bft) W 261 ° 0 min 0,000 mm 0,0 UV-I 0 W/m² 7,3 °C 8,1 °C 3,2 km/h (1 Bft)
02.09.2017 23:21 8,1 °C 8,1 °C 95 % 1017,1 hPa 0,0 mm 0,7 km/h (0 Bft) W 277 ° 0 min 0,000 mm 0,0 UV-I 0 W/m² 7,3 °C 8,1 °C 3,2 km/h (1 Bft)
02.09.2017 23:22 8,1 °C 8,1 °C 95 % 1017,1 hPa 0,0 mm 3,0 km/h (1 Bft) W-NW 296 ° 0 min 0,000 mm 0,0 UV-I 0 W/m² 7,3 °C 8,1 °C 4,8 km/h (1 Bft)
02.09.2017 23:23 8,1 °C 8,1 °C 95 % 1017,1 hPa 0,0 mm 0,6 km/h (0 Bft) W-NW 296 ° 0 min 0,000 mm 0,0 UV-I 0 W/m² 7,3 °C 8,1 °C 1,6 km/h (1 Bft)
02.09.2017 23:24 8,1 °C 8,1 °C 95 % 1017,1 hPa 0,0 mm 1,7 km/h (1 Bft) W-NW 289 ° 0 min 0,000 mm 0,0 UV-I 0 W/m² 7,3 °C 8,1 °C 3,2 km/h (1 Bft)
02.09.2017 23:25 8,1 °C 8,1 °C 95 % 1017,1 hPa 0,0 mm 1,1 km/h (1 Bft) W-NW 289 ° 0 min 0,000 mm 0,0 UV-I 0 W/m² 7,3 °C 8,1 °C 3,2 km/h (1 Bft)
02.09.2017 23:26 8,1 °C 8,1 °C 95 % 1017,1 hPa 0,0 mm 1,5 km/h (1 Bft) W-NW 288 ° 0 min 0,000 mm 0,0 UV-I 0 W/m² 7,3 °C 8,1 °C 3,2 km/h (1 Bft)
02.09.2017 23:27 8,1 °C 8,1 °C 95 % 1017,1 hPa 0,2 mm 3,0 km/h (1 Bft) W 261 ° 0 min 0,000 mm 0,0 UV-I 0 W/m² 7,3 °C 8,1 °C 6,4 km/h (2 Bft)
02.09.2017 23:28 8,1 °C 8,1 °C 95 % 1017,1 hPa 0,0 mm 1,9 km/h (1 Bft) W 261 ° 0 min 0,000 mm 0,0 UV-I 0 W/m² 7,3 °C 8,1 °C 3,2 km/h (1 Bft)
02.09.2017 23:29 8,1 °C 8,1 °C 95 % 1017,1 hPa 0,0 mm 2,0 km/h (1 Bft) W-SW 246 ° 0 min 0,000 mm 0,0 UV-I 0 W/m² 7,3 °C 8,1 °C 4,8 km/h (1 Bft)
02.09.2017 23:30 8,0 °C 8,1 °C 95 % 1017,1 hPa 0,0 mm 0,7 km/h (0 Bft) W-SW 246 ° 0 min 0,000 mm 0,0 UV-I 0 W/m² 7,2 °C 8,0 °C 3,2 km/h (1 Bft)
02.09.2017 23:31 8,0 °C 8,1 °C 95 % 1017,1 hPa 0,0 mm 0,0 km/h (0 Bft) W-SW 246 ° 0 min 0,000 mm 0,0 UV-I 0 W/m² 7,2 °C 8,0 °C 0,0 km/h (0 Bft)
02.09.2017 23:32 8,0 °C 8,0 °C 95 % 1017,1 hPa 0,0 mm 0,5 km/h (0 Bft) W-SW 246 ° 0 min 0,000 mm 0,0 UV-I 0 W/m² 7,2 °C 8,0 °C 1,6 km/h (1 Bft)
02.09.2017 23:33 8,0 °C 8,0 °C 95 % 1017,1 hPa 0,0 mm 0,1 km/h (0 Bft) W-SW 246 ° 0 min 0,000 mm 0,0 UV-I 0 W/m² 7,2 °C 8,0 °C 1,6 km/h (1 Bft)
02.09.2017 23:34 8,0 °C 8,0 °C 95 % 1017,1 hPa 0,0 mm 3,0 km/h (1 Bft) W-NW 303 ° 0 min 0,000 mm 0,0 UV-I 0 W/m² 7,2 °C 8,0 °C 6,4 km/h (2 Bft)
02.09.2017 23:35 8,1 °C 8,1 °C 95 % 1017,0 hPa 0,0 mm 1,9 km/h (1 Bft) W-NW 303 ° 0 min 0,000 mm 0,0 UV-I 0 W/m² 7,3 °C 8,1 °C 3,2 km/h (1 Bft)
02.09.2017 23:36 8,1 °C 8,1 °C 95 % 1017,0 hPa 0,0 mm 0,8 km/h (0 Bft) W-NW 303 ° 0 min 0,000 mm 0,0 UV-I 0 W/m² 7,3 °C 8,1 °C 3,2 km/h (1 Bft)
02.09.2017 23:37 8,0 °C 8,1 °C 95 % 1017,0 hPa 0,0 mm 0,8 km/h (0 Bft) W-NW 303 ° 0 min 0,000 mm 0,0 UV-I 0 W/m² 7,2 °C 8,0 °C 1,6 km/h (1 Bft)
02.09.2017 23:38 8,0 °C 8,1 °C 95 % 1017,0 hPa 0,0 mm 1,7 km/h (1 Bft) W-NW 303 ° 0 min 0,000 mm 0,0 UV-I 0 W/m² 7,2 °C 8,0 °C 3,2 km/h (1 Bft)
02.09.2017 23:39 8,1 °C 8,1 °C 95 % 1017,1 hPa 0,2 mm 1,6 km/h (1 Bft) W-NW 303 ° 0 min 0,000 mm 0,0 UV-I 0 W/m² 7,3 °C 8,1 °C 3,2 km/h (1 Bft)
02.09.2017 23:40 8,1 °C 8,1 °C 95 % 1017,0 hPa 0,0 mm 2,4 km/h (1 Bft) W 271 ° 0 min 0,000 mm 0,0 UV-I 0 W/m² 7,3 °C 8,1 °C 4,8 km/h (1 Bft)
02.09.2017 23:41 8,1 °C 8,1 °C 95 % 1017,0 hPa 0,0 mm 2,2 km/h (1 Bft) W 271 ° 0 min 0,000 mm 0,0 UV-I 0 W/m² 7,3 °C 8,1 °C 3,2 km/h (1 Bft)
02.09.2017 23:42 8,1 °C 8,1 °C 95 % 1017,0 hPa 0,0 mm 0,0 km/h (0 Bft) W 271 ° 0 min 0,000 mm 0,0 UV-I 0 W/m² 7,3 °C 8,1 °C 0,0 km/h (0 Bft)
02.09.2017 23:43 8,1 °C 8,1 °C 95 % 1017,0 hPa 0,0 mm 0,0 km/h (0 Bft) W 271 ° 0 min 0,000 mm 0,0 UV-I 0 W/m² 7,3 °C 8,1 °C 0,0 km/h (0 Bft)
02.09.2017 23:44 8,0 °C 8,1 °C 95 % 1017,0 hPa 0,0 mm 2,1 km/h (1 Bft) SW 229 ° 0 min 0,000 mm 0,0 UV-I 0 W/m² 7,2 °C 8,0 °C 6,4 km/h (2 Bft)
02.09.2017 23:45 8,0 °C 8,1 °C 95 % 1017,0 hPa 0,0 mm 2,1 km/h (1 Bft) SW 229 ° 0 min 0,000 mm 0,0 UV-I 0 W/m² 7,2 °C 8,0 °C 4,8 km/h (1 Bft)
02.09.2017 23:46 8,0 °C 8,1 °C 95 % 1017,0 hPa 0,0 mm 0,3 km/h (0 Bft) SW 229 ° 0 min 0,000 mm 0,0 UV-I 0 W/m² 7,2 °C 8,0 °C 1,6 km/h (1 Bft)
02.09.2017 23:47 8,1 °C 8,1 °C 95 % 1017,0 hPa 0,0 mm 4,4 km/h (1 Bft) NW 313 ° 0 min 0,000 mm 0,0 UV-I 0 W/m² 7,3 °C 8,1 °C 6,4 km/h (2 Bft)
02.09.2017 23:48 8,1 °C 8,1 °C 95 % 1017,0 hPa 0,0 mm 3,0 km/h (1 Bft) NW 313 ° 0 min 0,000 mm 0,0 UV-I 0 W/m² 7,3 °C 8,1 °C 4,8 km/h (1 Bft)
02.09.2017 23:49 8,1 °C 8,1 °C 95 % 1017,0 hPa 0,0 mm 1,0 km/h (0 Bft) NW 313 ° 0 min 0,000 mm 0,0 UV-I 0 W/m² 7,3 °C 8,1 °C 3,2 km/h (1 Bft)
02.09.2017 23:50 8,1 °C 8,1 °C 95 % 1017,0 hPa 0,0 mm 0,5 km/h (0 Bft) NW 313 ° 0 min 0,000 mm 0,0 UV-I 0 W/m² 7,3 °C 8,1 °C 1,6 km/h (1 Bft)
02.09.2017 23:51 8,1 °C 8,1 °C 95 % 1017,0 hPa 0,2 mm 0,1 km/h (0 Bft) NW 313 ° 0 min 0,000 mm 0,0 UV-I 0 W/m² 7,3 °C 8,1 °C 1,6 km/h (1 Bft)
02.09.2017 23:52 8,1 °C 8,1 °C 95 % 1017,0 hPa 0,0 mm 0,7 km/h (0 Bft) NW 313 ° 0 min 0,000 mm 0,0 UV-I 0 W/m² 7,3 °C 8,1 °C 1,6 km/h (1 Bft)
02.09.2017 23:53 8,1 °C 8,1 °C 95 % 1017,1 hPa 0,0 mm 0,7 km/h (0 Bft) NW 313 ° 0 min 0,000 mm 0,0 UV-I 0 W/m² 7,3 °C 8,1 °C 3,2 km/h (1 Bft)
02.09.2017 23:54 8,1 °C 8,1 °C 95 % 1017,1 hPa 0,0 mm 2,0 km/h (1 Bft) NW 313 ° 0 min 0,000 mm 0,0 UV-I 0 W/m² 7,3 °C 8,1 °C 3,2 km/h (1 Bft)
02.09.2017 23:55 8,1 °C 8,1 °C 95 % 1017,1 hPa 0,0 mm 0,1 km/h (0 Bft) NW 313 ° 0 min 0,000 mm 0,0 UV-I 0 W/m² 7,3 °C 8,1 °C 1,6 km/h (1 Bft)
02.09.2017 23:56 8,0 °C 8,1 °C 95 % 1017,0 hPa 0,0 mm 0,0 km/h (0 Bft) NW 313 ° 0 min 0,000 mm 0,0 UV-I 0 W/m² 7,2 °C 8,0 °C 0,0 km/h (0 Bft)
02.09.2017 23:57 8,0 °C 8,1 °C 95 % 1017,0 hPa 0,0 mm 0,0 km/h (0 Bft) NW 313 ° 0 min 0,000 mm 0,0 UV-I 0 W/m² 7,2 °C 8,0 °C 0,0 km/h (0 Bft)
02.09.2017 23:58 8,0 °C 8,1 °C 95 % 1017,0 hPa 0,0 mm 0,0 km/h (0 Bft) NW 313 ° 0 min 0,000 mm 0,0 UV-I 0 W/m² 7,2 °C 8,0 °C 0,0 km/h (0 Bft)
02.09.2017 23:59 8,0 °C 8,1 °C 95 % 1017,1 hPa 0,0 mm 0,0 km/h (0 Bft) NW 313 ° 0 min 0,000 mm 0,0 UV-I 0 W/m² 7,2 °C 8,0 °C 0,0 km/h (0 Bft)
_ Min-Zeit 22:47 22:05 14:54 05:48 - 23:59 - - - - - - 20:15 21:20 23:59
Minimum _ 7,8 °C 7,8 °C 87 % 1014,0 hPa - 0,0 km/h (0 Bft) - - - - - - 6,9 °C 6,9 °C 0,0 km/h (0 Bft)
_ Max-Zeit 15:03 15:03 10:46 23:59 23:51 16:11 - - 14:57 15:01 14:52 14:55 00:52 15:03 11:24
Maximum _ 10,6 °C 10,6 °C 96 % 1017,1 hPa 0,2 mm 10,9 km/h
W (2 Bft)
- - 1 min 0,102 mm 2,4 UV-I 329 W/m² 9,8 °C 10,5 °C 17,7 km/h
O (3 Bft)
Durchschnitt _ 9,0 °C 9,0 °C 94 % 1015,7 hPa #39,0 mm 2,6 km/h (1 Bft) NW - #11 min. #0,483 mm 1,1 UV-I 44 W/m² 8,1 °C 8,9 °C 4,6 km/h (1 Bft)